<?xml version='1.0' encoding='UTF-8'?>
<gpx xmlns="http://www.topografix.com/GPX/1/1" creator="www.balnam.be" version="1.1" xmlns:xsi="http://www.w3.org/2001/XMLSchema-instance" xsi:schemaLocation="http://www.topografix.com/GPX/1/1 http://www.topografix.com/GPX/1/1/gpx.xsd">
<trk>
<name>bojen1</name>
<cmt>s</cmt>
<desc>Enines Chemin n°1 </desc>
<link href="https://chemins.be/enines/chemin/1"/><trkseg>
<trkpt lat="50.697654" lon="4.927304"><time>2026-05-10T00:54:36Z</time></trkpt>
<trkpt lat="50.697267" lon="4.928613"><time>2026-05-10T01:04:36Z</time></trkpt>
<trkpt lat="50.696370" lon="4.929492"><time>2026-05-10T01:14:36Z</time></trkpt>
</trkseg></trk>
<trk>
<name>bojen1</name>
<cmt>v</cmt>
<desc>Enines Chemin n°1 </desc>
<link href="https://chemins.be/enines/chemin/1"/><trkseg>
<trkpt lat="50.696370" lon="4.929492"><time>2026-05-10T01:14:36Z</time></trkpt>
<trkpt lat="50.696030" lon="4.930351"><time>2026-05-10T01:24:36Z</time></trkpt>
<trkpt lat="50.695955" lon="4.930571"><time>2026-05-10T01:34:36Z</time></trkpt>
</trkseg></trk>
<trk>
<name>bojen1</name>
<cmt>s</cmt>
<desc>Enines Chemin n°1 </desc>
<link href="https://chemins.be/enines/chemin/1"/><trkseg>
<trkpt lat="50.695955" lon="4.930571"><time>2026-05-10T01:34:36Z</time></trkpt>
<trkpt lat="50.694983" lon="4.932743"><time>2026-05-10T01:44:36Z</time></trkpt>
<trkpt lat="50.693753" lon="4.934728"><time>2026-05-10T01:54:36Z</time></trkpt>
<trkpt lat="50.689978" lon="4.940130"><time>2026-05-10T02:04:36Z</time></trkpt>
</trkseg></trk>
<trk>
<name>bojen1</name>
<cmt>d</cmt>
<desc>Enines Chemin n°1 </desc>
<link href="https://chemins.be/enines/chemin/1"/><trkseg>
<trkpt lat="50.689978" lon="4.940130"><time>2026-05-10T02:04:36Z</time></trkpt>
<trkpt lat="50.689711" lon="4.941838"><time>2026-05-10T02:14:36Z</time></trkpt>
<trkpt lat="50.690087" lon="4.942430"><time>2026-05-10T02:24:36Z</time></trkpt>
</trkseg>
</trk>
<trk>
<name>bojen10</name>
<cmt>v</cmt>
<desc>Enines Chemin n°10 </desc>
<link href="https://chemins.be/enines/chemin/10"/><trkseg>
<trkpt lat="50.687609" lon="4.923779"><time>2026-05-10T00:54:36Z</time></trkpt>
<trkpt lat="50.687007" lon="4.923254"><time>2026-05-10T01:04:36Z</time></trkpt>
<trkpt lat="50.685535" lon="4.922197"><time>2026-05-10T01:14:36Z</time></trkpt>
</trkseg></trk>
<trk>
<name>bojen10</name>
<cmt>b</cmt>
<desc>Enines Chemin n°10 </desc>
<link href="https://chemins.be/enines/chemin/10"/><trkseg>
<trkpt lat="50.685535" lon="4.922197"><time>2026-05-10T01:14:36Z</time></trkpt>
<trkpt lat="50.684856" lon="4.921709"><time>2026-05-10T01:24:36Z</time></trkpt>
</trkseg></trk>
<trk>
<name>bojen10</name>
<cmt>q</cmt>
<desc>Enines Chemin n°10 </desc>
<link href="https://chemins.be/enines/chemin/10"/><trkseg>
<trkpt lat="50.684856" lon="4.921709"><time>2026-05-10T01:24:36Z</time></trkpt>
<trkpt lat="50.684869" lon="4.921027"><time>2026-05-10T01:34:36Z</time></trkpt>
<trkpt lat="50.683707" lon="4.920341"><time>2026-05-10T01:44:36Z</time></trkpt>
</trkseg>
</trk>
<trk>
<name>bojen12</name>
<cmt>v</cmt>
<desc>Enines Chemin n°12 </desc>
<link href="https://chemins.be/enines/chemin/12"/><trkseg>
<trkpt lat="50.687860" lon="4.923366"><time>2026-05-10T00:54:36Z</time></trkpt>
<trkpt lat="50.687670" lon="4.922519"><time>2026-05-10T01:04:36Z</time></trkpt>
<trkpt lat="50.687357" lon="4.922004"><time>2026-05-10T01:14:36Z</time></trkpt>
<trkpt lat="50.686562" lon="4.921435"><time>2026-05-10T01:24:36Z</time></trkpt>
</trkseg>
</trk>
<trk>
<name>bojen13</name>
<cmt>v</cmt>
<desc>Enines Chemin n°13 </desc>
<link href="https://chemins.be/enines/chemin/13"/><trkseg>
<trkpt lat="50.686779" lon="4.924927"><time>2026-05-10T00:54:36Z</time></trkpt>
<trkpt lat="50.686154" lon="4.925630"><time>2026-05-10T01:04:36Z</time></trkpt>
<trkpt lat="50.685533" lon="4.925784"><time>2026-05-10T01:14:36Z</time></trkpt>
<trkpt lat="50.684011" lon="4.926162"><time>2026-05-10T01:24:36Z</time></trkpt>
<trkpt lat="50.683439" lon="4.926296"><time>2026-05-10T01:34:36Z</time></trkpt>
</trkseg>
</trk>
<trk>
<name>bojen14</name>
<cmt>d</cmt>
<desc>Enines Chemin n°14 Chemin de Nodrenge</desc>
<link href="https://chemins.be/enines/chemin/14"/><trkseg>
<trkpt lat="50.695978" lon="4.930561"><time>2026-05-10T00:54:36Z</time></trkpt>
<trkpt lat="50.696584" lon="4.931849"><time>2026-05-10T01:04:36Z</time></trkpt>
<trkpt lat="50.697665" lon="4.933207"><time>2026-05-10T01:14:36Z</time></trkpt>
<trkpt lat="50.697804" lon="4.934185"><time>2026-05-10T01:24:36Z</time></trkpt>
</trkseg>
</trk>
<trk>
<name>bojen15</name>
<cmt>v</cmt>
<desc>Enines Chemin n°15 </desc>
<link href="https://chemins.be/enines/chemin/15"/><trkseg>
<trkpt lat="50.695031" lon="4.932754"><time>2026-05-10T00:54:36Z</time></trkpt>
<trkpt lat="50.695500" lon="4.933505"><time>2026-05-10T01:04:36Z</time></trkpt>
<trkpt lat="50.696118" lon="4.935479"><time>2026-05-10T01:14:36Z</time></trkpt>
<trkpt lat="50.696608" lon="4.937711"><time>2026-05-10T01:24:36Z</time></trkpt>
</trkseg>
</trk>
<trk>
<name>bojen16</name>
<cmt>s</cmt>
<desc>Enines Chemin n°16 </desc>
<link href="https://chemins.be/enines/chemin/16"/><trkseg>
<trkpt lat="50.698628" lon="4.926702"><time>2026-05-10T00:54:36Z</time></trkpt>
<trkpt lat="50.699736" lon="4.926694"><time>2026-05-10T01:04:36Z</time></trkpt>
</trkseg></trk>
<trk>
<name>bojen16</name>
<cmt>v</cmt>
<desc>Enines Chemin n°16 </desc>
<link href="https://chemins.be/enines/chemin/16"/><trkseg>
<trkpt lat="50.699736" lon="4.926694"><time>2026-05-10T01:04:36Z</time></trkpt>
<trkpt lat="50.700286" lon="4.927076"><time>2026-05-10T01:14:36Z</time></trkpt>
</trkseg>
</trk>
<trk>
<name>bojen17</name>
<cmt>v</cmt>
<desc>Enines Chemin n°17 </desc>
<link href="https://chemins.be/enines/chemin/17"/><trkseg>
<trkpt lat="50.696553" lon="4.922583"><time>2026-05-10T00:54:36Z</time></trkpt>
<trkpt lat="50.696499" lon="4.920008"><time>2026-05-10T01:04:36Z</time></trkpt>
<trkpt lat="50.696227" lon="4.918377"><time>2026-05-10T01:14:36Z</time></trkpt>
<trkpt lat="50.695873" lon="4.915883"><time>2026-05-10T01:24:36Z</time></trkpt>
</trkseg>
</trk>
<trk>
<name>bojen19</name>
<cmt>v</cmt>
<desc>Enines Chemin n°19 </desc>
<link href="https://chemins.be/enines/chemin/19"/><trkseg>
<trkpt lat="50.693203" lon="4.920083"><time>2026-05-10T00:54:36Z</time></trkpt>
<trkpt lat="50.694188" lon="4.920384"><time>2026-05-10T01:04:36Z</time></trkpt>
<trkpt lat="50.694874" lon="4.920137"><time>2026-05-10T01:14:36Z</time></trkpt>
<trkpt lat="50.696254" lon="4.918452"><time>2026-05-10T01:24:36Z</time></trkpt>
<trkpt lat="50.697838" lon="4.916918"><time>2026-05-10T01:34:36Z</time></trkpt>
<trkpt lat="50.698646" lon="4.915835"><time>2026-05-10T01:44:36Z</time></trkpt>
</trkseg></trk>
<trk>
<name>bojen19</name>
<cmt>d</cmt>
<desc>Enines Chemin n°19 </desc>
<link href="https://chemins.be/enines/chemin/19"/><trkseg>
<trkpt lat="50.698646" lon="4.915835"><time>2026-05-10T01:44:36Z</time></trkpt>
<trkpt lat="50.700182" lon="4.914891"><time>2026-05-10T01:54:36Z</time></trkpt>
<trkpt lat="50.702037" lon="4.911457"><time>2026-05-10T02:04:36Z</time></trkpt>
</trkseg>
</trk>
<trk>
<name>bojen20</name>
<cmt>v</cmt>
<desc>Enines Chemin n°20 </desc>
<link href="https://chemins.be/enines/chemin/20"/><trkseg>
<trkpt lat="50.693189" lon="4.925437"><time>2026-05-10T00:54:36Z</time></trkpt>
<trkpt lat="50.693930" lon="4.925008"><time>2026-05-10T01:04:36Z</time></trkpt>
<trkpt lat="50.693624" lon="4.924139"><time>2026-05-10T01:14:36Z</time></trkpt>
<trkpt lat="50.693862" lon="4.922669"><time>2026-05-10T01:24:36Z</time></trkpt>
</trkseg>
</trk>
<trk>
<name>bojen21</name>
<cmt>v</cmt>
<desc>Enines Sentier n°21 Vieux chemin de Jauche</desc>
<link href="https://chemins.be/enines/sentier/21"/><trkseg>
<trkpt lat="50.693674" lon="4.926509"><time>2026-05-10T00:54:36Z</time></trkpt>
<trkpt lat="50.693643" lon="4.927311"><time>2026-05-10T01:04:36Z</time></trkpt>
<trkpt lat="50.693587" lon="4.927696"><time>2026-05-10T01:14:36Z</time></trkpt>
</trkseg></trk>
<trk>
<name>bojen21</name>
<cmt>r</cmt>
<desc>Enines Sentier n°21 Vieux chemin de Jauche</desc>
<link href="https://chemins.be/enines/sentier/21"/><trkseg>
<trkpt lat="50.693587" lon="4.927696"><time>2026-05-10T01:14:36Z</time></trkpt>
<trkpt lat="50.693402" lon="4.928962"><time>2026-05-10T01:24:36Z</time></trkpt>
<trkpt lat="50.693589" lon="4.930115"><time>2026-05-10T01:34:36Z</time></trkpt>
</trkseg>
</trk>
<trk>
<name>bojen22</name>
<cmt>v</cmt>
<desc>Enines Chemin n°22 </desc>
<link href="https://chemins.be/enines/chemin/22"/><trkseg>
<trkpt lat="50.693468" lon="4.930501"><time>2026-05-10T00:54:36Z</time></trkpt>
<trkpt lat="50.691412" lon="4.934544"><time>2026-05-10T01:04:36Z</time></trkpt>
<trkpt lat="50.690904" lon="4.936174"><time>2026-05-10T01:14:36Z</time></trkpt>
</trkseg></trk>
<trk>
<name>bojen22</name>
<cmt>d</cmt>
<desc>Enines Chemin n°22 </desc>
<link href="https://chemins.be/enines/chemin/22"/><trkseg>
<trkpt lat="50.690904" lon="4.936174"><time>2026-05-10T01:14:36Z</time></trkpt>
<trkpt lat="50.690567" lon="4.937612"><time>2026-05-10T01:24:36Z</time></trkpt>
<trkpt lat="50.690050" lon="4.939041"><time>2026-05-10T01:34:36Z</time></trkpt>
<trkpt lat="50.690012" lon="4.940063"><time>2026-05-10T01:44:36Z</time></trkpt>
</trkseg>
</trk>
<trk>
<name>bojen24</name>
<cmt>d</cmt>
<desc>Enines Sentier n°24 </desc>
<link href="https://chemins.be/enines/sentier/24"/><trkseg>
<trkpt lat="50.695160" lon="4.929181"><time>2026-05-10T00:54:36Z</time></trkpt>
<trkpt lat="50.696057" lon="4.930286"><time>2026-05-10T01:04:36Z</time></trkpt>
</trkseg>
</trk>
<trk>
<name>bojen25</name>
<cmt>v</cmt>
<desc>Enines Chemin n°25 </desc>
<link href="https://chemins.be/enines/chemin/25"/><trkseg>
<trkpt lat="50.689499" lon="4.927947"><time>2026-05-10T00:54:36Z</time></trkpt>
<trkpt lat="50.688724" lon="4.928377"><time>2026-05-10T01:04:36Z</time></trkpt>
<trkpt lat="50.686548" lon="4.928366"><time>2026-05-10T01:14:36Z</time></trkpt>
<trkpt lat="50.684030" lon="4.926140"><time>2026-05-10T01:24:36Z</time></trkpt>
<trkpt lat="50.683771" lon="4.926172"><time>2026-05-10T01:34:36Z</time></trkpt>
<trkpt lat="50.683391" lon="4.926022"><time>2026-05-10T01:44:36Z</time></trkpt>
</trkseg>
</trk>
<trk>
<name>bojen26</name>
<cmt>q</cmt>
<desc>Enines Sentier n°26 </desc>
<link href="https://chemins.be/enines/sentier/26"/><trkseg>
<trkpt lat="50.696882" lon="4.927209"><time>2026-05-10T00:54:36Z</time></trkpt>
<trkpt lat="50.697611" lon="4.925033"><time>2026-05-10T01:04:36Z</time></trkpt>
</trkseg>
</trk>
<trk>
<name>bojen27</name>
<cmt>v</cmt>
<desc>Enines Sentier n°27 </desc>
<link href="https://chemins.be/enines/sentier/27"/><trkseg>
<trkpt lat="50.693468" lon="4.930426"><time>2026-05-10T00:54:36Z</time></trkpt>
<trkpt lat="50.693982" lon="4.931203"><time>2026-05-10T01:04:36Z</time></trkpt>
<trkpt lat="50.695010" lon="4.932754"><time>2026-05-10T01:14:36Z</time></trkpt>
</trkseg>
</trk>
<trk>
<name>bojen28</name>
<cmt>s</cmt>
<desc>Enines Sentier n°28 </desc>
<link href="https://chemins.be/enines/sentier/28"/><trkseg>
<trkpt lat="50.701276" lon="4.924749"><time>2026-05-10T00:54:36Z</time></trkpt>
<trkpt lat="50.700265" lon="4.927092"><time>2026-05-10T01:04:36Z</time></trkpt>
<trkpt lat="50.699641" lon="4.928273"><time>2026-05-10T01:14:36Z</time></trkpt>
<trkpt lat="50.698266" lon="4.929428"><time>2026-05-10T01:24:36Z</time></trkpt>
<trkpt lat="50.696089" lon="4.930200"><time>2026-05-10T01:34:36Z</time></trkpt>
</trkseg>
</trk>
<trk>
<name>bojen29</name>
<cmt>q</cmt>
<desc>Enines Sentier n°29 </desc>
<link href="https://chemins.be/enines/sentier/29"/><trkseg>
<trkpt lat="50.695479" lon="4.927572"><time>2026-05-10T00:54:36Z</time></trkpt>
<trkpt lat="50.696240" lon="4.929847"><time>2026-05-10T01:04:36Z</time></trkpt>
</trkseg>
</trk>
<trk>
<name>bojen3</name>
<cmt>r</cmt>
<desc>Enines Chemin n°3 Rue Bourgmestre Dandoy</desc>
<link href="https://chemins.be/enines/chemin/3"/><trkseg>
<trkpt lat="50.690825" lon="4.921534"><time>2026-05-10T00:54:36Z</time></trkpt>
<trkpt lat="50.689915" lon="4.920164"><time>2026-05-10T01:04:36Z</time></trkpt>
<trkpt lat="50.689449" lon="4.919805"><time>2026-05-10T01:14:36Z</time></trkpt>
</trkseg></trk>
<trk>
<name>bojen3</name>
<cmt>v</cmt>
<desc>Enines Chemin n°3 Rue Bourgmestre Dandoy</desc>
<link href="https://chemins.be/enines/chemin/3"/><trkseg>
<trkpt lat="50.689449" lon="4.919805"><time>2026-05-10T01:14:36Z</time></trkpt>
<trkpt lat="50.687393" lon="4.917276"><time>2026-05-10T01:24:36Z</time></trkpt>
<trkpt lat="50.685619" lon="4.913363"><time>2026-05-10T01:34:36Z</time></trkpt>
<trkpt lat="50.685499" lon="4.912732"><time>2026-05-10T01:44:36Z</time></trkpt>
<trkpt lat="50.685551" lon="4.911655"><time>2026-05-10T01:54:36Z</time></trkpt>
</trkseg>
</trk>
<trk>
<name>bojen30</name>
<cmt>q</cmt>
<desc>Enines Sentier n°30 </desc>
<link href="https://chemins.be/enines/sentier/30"/><trkseg>
<trkpt lat="50.699025" lon="4.925805"><time>2026-05-10T00:54:36Z</time></trkpt>
<trkpt lat="50.699286" lon="4.925067"><time>2026-05-10T01:04:36Z</time></trkpt>
<trkpt lat="50.699417" lon="4.925075"><time>2026-05-10T01:14:36Z</time></trkpt>
<trkpt lat="50.699650" lon="4.923282"><time>2026-05-10T01:24:36Z</time></trkpt>
<trkpt lat="50.699422" lon="4.921917"><time>2026-05-10T01:34:36Z</time></trkpt>
</trkseg></trk>
<trk>
<name>bojen30</name>
<cmt>v</cmt>
<desc>Enines Sentier n°30 </desc>
<link href="https://chemins.be/enines/sentier/30"/><trkseg>
<trkpt lat="50.699422" lon="4.921917"><time>2026-05-10T01:34:36Z</time></trkpt>
<trkpt lat="50.700661" lon="4.921204"><time>2026-05-10T01:44:36Z</time></trkpt>
</trkseg></trk>
<trk>
<name>bojen30</name>
<cmt>q</cmt>
<desc>Enines Sentier n°30 </desc>
<link href="https://chemins.be/enines/sentier/30"/><trkseg>
<trkpt lat="50.700661" lon="4.921204"><time>2026-05-10T01:44:36Z</time></trkpt>
<trkpt lat="50.701243" lon="4.919960"><time>2026-05-10T01:54:36Z</time></trkpt>
<trkpt lat="50.702158" lon="4.918755"><time>2026-05-10T02:04:36Z</time></trkpt>
</trkseg>
</trk>
<trk>
<name>bojen31</name>
<cmt>q</cmt>
<desc>Enines Sentier n°31 </desc>
<link href="https://chemins.be/enines/sentier/31"/><trkseg>
<trkpt lat="50.690613" lon="4.921167"><time>2026-05-10T00:54:36Z</time></trkpt>
<trkpt lat="50.691157" lon="4.917583"><time>2026-05-10T01:04:36Z</time></trkpt>
<trkpt lat="50.691347" lon="4.913270"><time>2026-05-10T01:14:36Z</time></trkpt>
</trkseg>
</trk>
<trk>
<name>bojen32</name>
<cmt>q</cmt>
<desc>Enines Sentier n°32 </desc>
<link href="https://chemins.be/enines/sentier/32"/><trkseg>
<trkpt lat="50.689545" lon="4.927512"><time>2026-05-10T00:54:36Z</time></trkpt>
<trkpt lat="50.690222" lon="4.926688"><time>2026-05-10T01:04:36Z</time></trkpt>
<trkpt lat="50.690524" lon="4.925431"><time>2026-05-10T01:14:36Z</time></trkpt>
<trkpt lat="50.690290" lon="4.924894"><time>2026-05-10T01:24:36Z</time></trkpt>
</trkseg>
</trk>
<trk>
<name>bojen33</name>
<cmt>d</cmt>
<desc>Enines Sentier n°33 </desc>
<link href="https://chemins.be/enines/sentier/33"/><trkseg>
<trkpt lat="50.696241" lon="4.929857"><time>2026-05-10T00:54:36Z</time></trkpt>
<trkpt lat="50.697218" lon="4.930797"><time>2026-05-10T01:04:36Z</time></trkpt>
</trkseg></trk>
<trk>
<name>bojen33</name>
<cmt>q</cmt>
<desc>Enines Sentier n°33 </desc>
<link href="https://chemins.be/enines/sentier/33"/><trkseg>
<trkpt lat="50.697218" lon="4.930797"><time>2026-05-10T01:04:36Z</time></trkpt>
<trkpt lat="50.698177" lon="4.931719"><time>2026-05-10T01:14:36Z</time></trkpt>
</trkseg>
</trk>
<trk>
<name>bojen34</name>
<cmt>q</cmt>
<desc>Enines Sentier n°34 </desc>
<link href="https://chemins.be/enines/sentier/34"/><trkseg>
<trkpt lat="50.694480" lon="4.926467"><time>2026-05-10T00:54:36Z</time></trkpt>
<trkpt lat="50.694983" lon="4.922551"><time>2026-05-10T01:04:36Z</time></trkpt>
<trkpt lat="50.694834" lon="4.920185"><time>2026-05-10T01:14:36Z</time></trkpt>
</trkseg>
</trk>
<trk>
<name>bojen35</name>
<cmt>r</cmt>
<desc>Enines Sentier n°35 </desc>
<link href="https://chemins.be/enines/sentier/35"/><trkseg>
<trkpt lat="50.688642" lon="4.924552"><time>2026-05-10T00:54:36Z</time></trkpt>
<trkpt lat="50.688343" lon="4.925158"><time>2026-05-10T01:04:36Z</time></trkpt>
</trkseg>
</trk>
<trk>
<name>bojen36</name>
<cmt>q</cmt>
<desc>Enines Sentier n°36 </desc>
<link href="https://chemins.be/enines/sentier/36"/><trkseg>
<trkpt lat="50.694354" lon="4.926467"><time>2026-05-10T00:54:36Z</time></trkpt>
<trkpt lat="50.694548" lon="4.927046"><time>2026-05-10T01:04:36Z</time></trkpt>
<trkpt lat="50.694236" lon="4.929600"><time>2026-05-10T01:14:36Z</time></trkpt>
</trkseg>
</trk>
<trk>
<name>bojen37</name>
<cmt>q</cmt>
<desc>Enines Sentier n°37 </desc>
<link href="https://chemins.be/enines/sentier/37"/><trkseg>
<trkpt lat="50.694134" lon="4.926381"><time>2026-05-10T00:54:36Z</time></trkpt>
<trkpt lat="50.693930" lon="4.925008"><time>2026-05-10T01:04:36Z</time></trkpt>
</trkseg></trk>
<trk>
<name>bojen37</name>
<cmt>v</cmt>
<desc>Enines Sentier n°37 </desc>
<link href="https://chemins.be/enines/sentier/37"/><trkseg>
<trkpt lat="50.693930" lon="4.925008"><time>2026-05-10T01:04:36Z</time></trkpt>
<trkpt lat="50.693617" lon="4.924117"><time>2026-05-10T01:14:36Z</time></trkpt>
</trkseg></trk>
<trk>
<name>bojen37</name>
<cmt>q</cmt>
<desc>Enines Sentier n°37 </desc>
<link href="https://chemins.be/enines/sentier/37"/><trkseg>
<trkpt lat="50.693617" lon="4.924117"><time>2026-05-10T01:14:36Z</time></trkpt>
<trkpt lat="50.692625" lon="4.922658"><time>2026-05-10T01:24:36Z</time></trkpt>
<trkpt lat="50.692526" lon="4.922342"><time>2026-05-10T01:34:36Z</time></trkpt>
</trkseg>
</trk>
<trk>
<name>bojen38</name>
<cmt>q</cmt>
<desc>Enines Sentier n°38 </desc>
<link href="https://chemins.be/enines/sentier/38"/><trkseg>
<trkpt lat="50.693882" lon="4.922765"><time>2026-05-10T00:54:36Z</time></trkpt>
<trkpt lat="50.693977" lon="4.920321"><time>2026-05-10T01:04:36Z</time></trkpt>
<trkpt lat="50.693787" lon="4.917875"><time>2026-05-10T01:14:36Z</time></trkpt>
</trkseg>
</trk>
<trk>
<name>bojen39</name>
<cmt>q</cmt>
<desc>Enines Sentier n°39 </desc>
<link href="https://chemins.be/enines/sentier/39"/><trkseg>
<trkpt lat="50.687684" lon="4.922476"><time>2026-05-10T00:54:36Z</time></trkpt>
<trkpt lat="50.689417" lon="4.921049"><time>2026-05-10T01:04:36Z</time></trkpt>
<trkpt lat="50.689910" lon="4.920238"><time>2026-05-10T01:14:36Z</time></trkpt>
<trkpt lat="50.690871" lon="4.918656"><time>2026-05-10T01:24:36Z</time></trkpt>
<trkpt lat="50.692224" lon="4.919193"><time>2026-05-10T01:34:36Z</time></trkpt>
<trkpt lat="50.693165" lon="4.920030"><time>2026-05-10T01:44:36Z</time></trkpt>
</trkseg></trk>
<trk>
<name>bojen39</name>
<cmt>v</cmt>
<desc>Enines Sentier n°39 </desc>
<link href="https://chemins.be/enines/sentier/39"/><trkseg>
<trkpt lat="50.693165" lon="4.920030"><time>2026-05-10T01:44:36Z</time></trkpt>
<trkpt lat="50.694174" lon="4.920330"><time>2026-05-10T01:54:36Z</time></trkpt>
<trkpt lat="50.694881" lon="4.920148"><time>2026-05-10T02:04:36Z</time></trkpt>
</trkseg></trk>
<trk>
<name>bojen39</name>
<cmt>q</cmt>
<desc>Enines Sentier n°39 </desc>
<link href="https://chemins.be/enines/sentier/39"/><trkseg>
<trkpt lat="50.694881" lon="4.920148"><time>2026-05-10T02:04:36Z</time></trkpt>
<trkpt lat="50.695921" lon="4.920523"><time>2026-05-10T02:14:36Z</time></trkpt>
<trkpt lat="50.696485" lon="4.920448"><time>2026-05-10T02:24:36Z</time></trkpt>
</trkseg>
</trk>
<trk>
<name>bojen4</name>
<cmt>v</cmt>
<desc>Enines Chemin n°4 </desc>
<link href="https://chemins.be/enines/chemin/4"/><trkseg>
<trkpt lat="50.691265" lon="4.913077"><time>2026-05-10T00:54:36Z</time></trkpt>
<trkpt lat="50.687949" lon="4.913249"><time>2026-05-10T01:04:36Z</time></trkpt>
<trkpt lat="50.686966" lon="4.911838"><time>2026-05-10T01:14:36Z</time></trkpt>
<trkpt lat="50.686718" lon="4.911419"><time>2026-05-10T01:24:36Z</time></trkpt>
<trkpt lat="50.686583" lon="4.911329"><time>2026-05-10T01:34:36Z</time></trkpt>
<trkpt lat="50.686306" lon="4.911267"><time>2026-05-10T01:44:36Z</time></trkpt>
<trkpt lat="50.685790" lon="4.911618"><time>2026-05-10T01:54:36Z</time></trkpt>
</trkseg>
</trk>
<trk>
<name>bojen40</name>
<cmt>s</cmt>
<desc>Enines Sentier n°40 </desc>
<link href="https://chemins.be/enines/sentier/40"/><trkseg>
<trkpt lat="50.687317" lon="4.938279"><time>2026-05-10T00:54:36Z</time></trkpt>
<trkpt lat="50.686807" lon="4.940565"><time>2026-05-10T01:04:36Z</time></trkpt>
</trkseg>
</trk>
<trk>
<name>bojen41</name>
<cmt>d</cmt>
<desc>Enines Sentier n°41 Sentier des Dièlères</desc>
<link href="https://chemins.be/enines/sentier/41"/><trkseg>
<trkpt lat="50.693454" lon="4.930490"><time>2026-05-10T00:54:36Z</time></trkpt>
<trkpt lat="50.693439" lon="4.931547"><time>2026-05-10T01:04:36Z</time></trkpt>
<trkpt lat="50.693414" lon="4.933204"><time>2026-05-10T01:14:36Z</time></trkpt>
<trkpt lat="50.693536" lon="4.934299"><time>2026-05-10T01:24:36Z</time></trkpt>
<trkpt lat="50.693719" lon="4.934674"><time>2026-05-10T01:34:36Z</time></trkpt>
<trkpt lat="50.693345" lon="4.935361"><time>2026-05-10T01:44:36Z</time></trkpt>
<trkpt lat="50.693468" lon="4.935892"><time>2026-05-10T01:54:36Z</time></trkpt>
<trkpt lat="50.693646" lon="4.936662"><time>2026-05-10T02:04:36Z</time></trkpt>
</trkseg></trk>
<trk>
<name>bojen41</name>
<cmt>v</cmt>
<desc>Enines Sentier n°41 Sentier des Dièlères</desc>
<link href="https://chemins.be/enines/sentier/41"/><trkseg>
<trkpt lat="50.693646" lon="4.936662"><time>2026-05-10T02:04:36Z</time></trkpt>
<trkpt lat="50.693916" lon="4.937829"><time>2026-05-10T02:14:36Z</time></trkpt>
<trkpt lat="50.694922" lon="4.938753"><time>2026-05-10T02:24:36Z</time></trkpt>
</trkseg></trk>
<trk>
<name>bojen41</name>
<cmt>d</cmt>
<desc>Enines Sentier n°41 Sentier des Dièlères</desc>
<link href="https://chemins.be/enines/sentier/41"/><trkseg>
<trkpt lat="50.694922" lon="4.938753"><time>2026-05-10T02:24:36Z</time></trkpt>
<trkpt lat="50.695716" lon="4.940853"><time>2026-05-10T02:34:36Z</time></trkpt>
</trkseg>
</trk>
<trk>
<name>bojen42</name>
<cmt>v</cmt>
<desc>Enines Sentier n°42 Rue Grand Roo</desc>
<link href="https://chemins.be/enines/sentier/42"/><trkseg>
<trkpt lat="50.690905" lon="4.927465"><time>2026-05-10T00:54:36Z</time></trkpt>
<trkpt lat="50.690652" lon="4.927773"><time>2026-05-10T01:04:36Z</time></trkpt>
<trkpt lat="50.689984" lon="4.928303"><time>2026-05-10T01:14:36Z</time></trkpt>
</trkseg>
</trk>
<trk>
<name>bojen7</name>
<cmt>v</cmt>
<desc>Enines Chemin n°7 </desc>
<link href="https://chemins.be/enines/chemin/7"/><trkseg>
<trkpt lat="50.696459" lon="4.922605"><time>2026-05-10T00:54:36Z</time></trkpt>
<trkpt lat="50.698661" lon="4.922390"><time>2026-05-10T01:04:36Z</time></trkpt>
<trkpt lat="50.700672" lon="4.921231"><time>2026-05-10T01:14:36Z</time></trkpt>
<trkpt lat="50.702738" lon="4.921875"><time>2026-05-10T01:24:36Z</time></trkpt>
</trkseg>
</trk>
<trk>
<name>bojeni1</name>
<cmt>v</cmt>
<desc>Enines Chemin n°i1 </desc>
<link href="https://chemins.be/enines/chemin/i1"/><trkseg>
<trkpt lat="50.698233" lon="4.929254"><time>2026-05-10T00:54:36Z</time></trkpt>
<trkpt lat="50.698877" lon="4.929753"><time>2026-05-10T01:04:36Z</time></trkpt>
</trkseg>
</trk>
<trk>
<name>bojeni2</name>
<cmt>r</cmt>
<desc>Enines Chemin n°i2 </desc>
<link href="https://chemins.be/enines/chemin/i2"/><trkseg>
<trkpt lat="50.690858" lon="4.936166"><time>2026-05-10T00:54:36Z</time></trkpt>
<trkpt lat="50.688194" lon="4.933763"><time>2026-05-10T01:04:36Z</time></trkpt>
</trkseg>
</trk>
<trk>
<name>bojeni3</name>
<cmt>v</cmt>
<desc>Enines Sentier n°i3 </desc>
<link href="https://chemins.be/enines/sentier/i3"/><trkseg>
<trkpt lat="50.691180" lon="4.927081"><time>2026-05-10T00:54:36Z</time></trkpt>
<trkpt lat="50.691648" lon="4.927896"><time>2026-05-10T01:04:36Z</time></trkpt>
</trkseg>
</trk>
<trk>
<name>bojeni4</name>
<cmt>v</cmt>
<desc>Enines Chemin n°i4 </desc>
<link href="https://chemins.be/enines/chemin/i4"/><trkseg>
<trkpt lat="50.694112" lon="4.935822"><time>2026-05-10T00:54:36Z</time></trkpt>
<trkpt lat="50.693745" lon="4.934766"><time>2026-05-10T01:04:36Z</time></trkpt>
</trkseg>
</trk>
<trk>
<name>bojfc1</name>
<cmt>v</cmt>
<desc>Folx-les-Caves Chemin n°1 Rue de Boneffe</desc>
<link href="https://chemins.be/folxlescaves/chemin/1"/><trkseg>
<trkpt lat="50.658078" lon="4.939510"><time>2026-05-10T00:54:36Z</time></trkpt>
<trkpt lat="50.657007" lon="4.939976"><time>2026-05-10T01:04:36Z</time></trkpt>
<trkpt lat="50.653834" lon="4.941255"><time>2026-05-10T01:14:36Z</time></trkpt>
<trkpt lat="50.653232" lon="4.941379"><time>2026-05-10T01:24:36Z</time></trkpt>
<trkpt lat="50.651654" lon="4.942145"><time>2026-05-10T01:34:36Z</time></trkpt>
<trkpt lat="50.651463" lon="4.942145"><time>2026-05-10T01:44:36Z</time></trkpt>
<trkpt lat="50.649881" lon="4.942410"><time>2026-05-10T01:54:36Z</time></trkpt>
<trkpt lat="50.649168" lon="4.942036"><time>2026-05-10T02:04:36Z</time></trkpt>
<trkpt lat="50.647385" lon="4.941607"><time>2026-05-10T02:14:36Z</time></trkpt>
<trkpt lat="50.645222" lon="4.941543"><time>2026-05-10T02:24:36Z</time></trkpt>
<trkpt lat="50.644431" lon="4.941404"><time>2026-05-10T02:34:36Z</time></trkpt>
<trkpt lat="50.643388" lon="4.941190"><time>2026-05-10T02:44:36Z</time></trkpt>
</trkseg>
</trk>
<trk>
<name>bojfc11</name>
<cmt>v</cmt>
<desc>Folx-les-Caves Chemin n°11 </desc>
<link href="https://chemins.be/folxlescaves/chemin/11"/><trkseg>
<trkpt lat="50.661804" lon="4.942254"><time>2026-05-10T00:54:36Z</time></trkpt>
<trkpt lat="50.660821" lon="4.944731"><time>2026-05-10T01:04:36Z</time></trkpt>
<trkpt lat="50.660350" lon="4.945433"><time>2026-05-10T01:14:36Z</time></trkpt>
<trkpt lat="50.659319" lon="4.946580"><time>2026-05-10T01:24:36Z</time></trkpt>
</trkseg></trk>
<trk>
<name>bojfc11</name>
<cmt>q</cmt>
<desc>Folx-les-Caves Chemin n°11 </desc>
<link href="https://chemins.be/folxlescaves/chemin/11"/><trkseg>
<trkpt lat="50.659319" lon="4.946580"><time>2026-05-10T01:24:36Z</time></trkpt>
<trkpt lat="50.656706" lon="4.949659"><time>2026-05-10T01:34:36Z</time></trkpt>
<trkpt lat="50.656454" lon="4.949755"><time>2026-05-10T01:44:36Z</time></trkpt>
</trkseg>
</trk>
<trk>
<name>bojfc12</name>
<cmt>r</cmt>
<desc>Folx-les-Caves Chemin n°12 Rue des Cortils</desc>
<link href="https://chemins.be/folxlescaves/chemin/12"/><trkseg>
<trkpt lat="50.658310" lon="4.938172"><time>2026-05-10T00:54:36Z</time></trkpt>
<trkpt lat="50.657637" lon="4.937732"><time>2026-05-10T01:04:36Z</time></trkpt>
</trkseg></trk>
<trk>
<name>bojfc12</name>
<cmt>v</cmt>
<desc>Folx-les-Caves Chemin n°12 Rue des Cortils</desc>
<link href="https://chemins.be/folxlescaves/chemin/12"/><trkseg>
<trkpt lat="50.657637" lon="4.937732"><time>2026-05-10T01:04:36Z</time></trkpt>
<trkpt lat="50.655148" lon="4.936080"><time>2026-05-10T01:14:36Z</time></trkpt>
<trkpt lat="50.654413" lon="4.935672"><time>2026-05-10T01:24:36Z</time></trkpt>
<trkpt lat="50.653760" lon="4.934878"><time>2026-05-10T01:34:36Z</time></trkpt>
<trkpt lat="50.653475" lon="4.933569"><time>2026-05-10T01:44:36Z</time></trkpt>
<trkpt lat="50.653189" lon="4.933355"><time>2026-05-10T01:54:36Z</time></trkpt>
<trkpt lat="50.650414" lon="4.932132"><time>2026-05-10T02:04:36Z</time></trkpt>
</trkseg>
</trk>
<trk>
<name>bojfc13</name>
<cmt>d</cmt>
<desc>Folx-les-Caves Chemin n°13 </desc>
<link href="https://chemins.be/folxlescaves/chemin/13"/><trkseg>
<trkpt lat="50.652722" lon="4.926273"><time>2026-05-10T00:54:36Z</time></trkpt>
<trkpt lat="50.654057" lon="4.926409"><time>2026-05-10T01:04:36Z</time></trkpt>
<trkpt lat="50.654364" lon="4.926576"><time>2026-05-10T01:14:36Z</time></trkpt>
<trkpt lat="50.654334" lon="4.927581"><time>2026-05-10T01:24:36Z</time></trkpt>
</trkseg></trk>
<trk>
<name>bojfc13</name>
<cmt>s</cmt>
<desc>Folx-les-Caves Chemin n°13 </desc>
<link href="https://chemins.be/folxlescaves/chemin/13"/><trkseg>
<trkpt lat="50.654334" lon="4.927581"><time>2026-05-10T01:24:36Z</time></trkpt>
<trkpt lat="50.654346" lon="4.928007"><time>2026-05-10T01:34:36Z</time></trkpt>
<trkpt lat="50.654856" lon="4.928143"><time>2026-05-10T01:44:36Z</time></trkpt>
</trkseg>
</trk>
<trk>
<name>bojfc15</name>
<cmt>r</cmt>
<desc>Folx-les-Caves Chemin n°15 Rue du Clerc</desc>
<link href="https://chemins.be/folxlescaves/chemin/15"/><trkseg>
<trkpt lat="50.661432" lon="4.938831"><time>2026-05-10T00:54:36Z</time></trkpt>
<trkpt lat="50.660627" lon="4.940330"><time>2026-05-10T01:04:36Z</time></trkpt>
</trkseg></trk>
<trk>
<name>bojfc15</name>
<cmt>s</cmt>
<desc>Folx-les-Caves Chemin n°15 Rue du Clerc</desc>
<link href="https://chemins.be/folxlescaves/chemin/15"/><trkseg>
<trkpt lat="50.660627" lon="4.940330"><time>2026-05-10T01:04:36Z</time></trkpt>
<trkpt lat="50.660136" lon="4.941413"><time>2026-05-10T01:14:36Z</time></trkpt>
<trkpt lat="50.660313" lon="4.945414"><time>2026-05-10T01:24:36Z</time></trkpt>
</trkseg></trk>
<trk>
<name>bojfc15</name>
<cmt>v</cmt>
<desc>Folx-les-Caves Chemin n°15 Rue du Clerc</desc>
<link href="https://chemins.be/folxlescaves/chemin/15"/><trkseg>
<trkpt lat="50.660313" lon="4.945414"><time>2026-05-10T01:24:36Z</time></trkpt>
<trkpt lat="50.660319" lon="4.947613"><time>2026-05-10T01:34:36Z</time></trkpt>
<trkpt lat="50.660998" lon="4.952012"><time>2026-05-10T01:44:36Z</time></trkpt>
<trkpt lat="50.661297" lon="4.954045"><time>2026-05-10T01:54:36Z</time></trkpt>
</trkseg>
</trk>
<trk>
<name>bojfc16</name>
<cmt>v</cmt>
<desc>Folx-les-Caves Sentier n°16 </desc>
<link href="https://chemins.be/folxlescaves/sentier/16"/><trkseg>
<trkpt lat="50.661517" lon="4.933679"><time>2026-05-10T00:54:36Z</time></trkpt>
<trkpt lat="50.661881" lon="4.933069"><time>2026-05-10T01:04:36Z</time></trkpt>
<trkpt lat="50.661895" lon="4.932713"><time>2026-05-10T01:14:36Z</time></trkpt>
</trkseg></trk>
<trk>
<name>bojfc16</name>
<cmt>q</cmt>
<desc>Folx-les-Caves Sentier n°16 </desc>
<link href="https://chemins.be/folxlescaves/sentier/16"/><trkseg>
<trkpt lat="50.661895" lon="4.932713"><time>2026-05-10T01:14:36Z</time></trkpt>
<trkpt lat="50.661808" lon="4.932520"><time>2026-05-10T01:24:36Z</time></trkpt>
<trkpt lat="50.661802" lon="4.931619"><time>2026-05-10T01:34:36Z</time></trkpt>
</trkseg>
</trk>
<trk>
<name>bojfc17</name>
<cmt>s</cmt>
<desc>Folx-les-Caves Sentier n°17 </desc>
<link href="https://chemins.be/folxlescaves/sentier/17"/><trkseg>
<trkpt lat="50.661473" lon="4.936752"><time>2026-05-10T00:54:36Z</time></trkpt>
<trkpt lat="50.661851" lon="4.935846"><time>2026-05-10T01:04:36Z</time></trkpt>
<trkpt lat="50.662219" lon="4.935799"><time>2026-05-10T01:14:36Z</time></trkpt>
<trkpt lat="50.663533" lon="4.934610"><time>2026-05-10T01:24:36Z</time></trkpt>
<trkpt lat="50.663720" lon="4.934906"><time>2026-05-10T01:34:36Z</time></trkpt>
</trkseg>
</trk>
<trk>
<name>bojfc18</name>
<cmt>d</cmt>
<desc>Folx-les-Caves Sentier n°18 </desc>
<link href="https://chemins.be/folxlescaves/sentier/18"/><trkseg>
<trkpt lat="50.667804" lon="4.937536"><time>2026-05-10T00:54:36Z</time></trkpt>
<trkpt lat="50.667195" lon="4.936231"><time>2026-05-10T01:04:36Z</time></trkpt>
<trkpt lat="50.665568" lon="4.933940"><time>2026-05-10T01:14:36Z</time></trkpt>
<trkpt lat="50.663816" lon="4.931553"><time>2026-05-10T01:24:36Z</time></trkpt>
<trkpt lat="50.663588" lon="4.930764"><time>2026-05-10T01:34:36Z</time></trkpt>
</trkseg>
</trk>
<trk>
<name>bojfc19</name>
<cmt>d</cmt>
<desc>Folx-les-Caves Sentier n°19 </desc>
<link href="https://chemins.be/folxlescaves/sentier/19"/><trkseg>
<trkpt lat="50.659502" lon="4.939644"><time>2026-05-10T00:54:36Z</time></trkpt>
<trkpt lat="50.659135" lon="4.940621"><time>2026-05-10T01:04:36Z</time></trkpt>
<trkpt lat="50.657532" lon="4.944888"><time>2026-05-10T01:14:36Z</time></trkpt>
<trkpt lat="50.657026" lon="4.945137"><time>2026-05-10T01:24:36Z</time></trkpt>
</trkseg>
</trk>
<trk>
<name>bojfc20</name>
<cmt>d</cmt>
<desc>Folx-les-Caves Sentier n°20 </desc>
<link href="https://chemins.be/folxlescaves/sentier/20"/><trkseg>
<trkpt lat="50.658895" lon="4.935243"><time>2026-05-10T00:54:36Z</time></trkpt>
<trkpt lat="50.658739" lon="4.934647"><time>2026-05-10T01:04:36Z</time></trkpt>
</trkseg></trk>
<trk>
<name>bojfc20</name>
<cmt>q</cmt>
<desc>Folx-les-Caves Sentier n°20 </desc>
<link href="https://chemins.be/folxlescaves/sentier/20"/><trkseg>
<trkpt lat="50.658739" lon="4.934647"><time>2026-05-10T01:04:36Z</time></trkpt>
<trkpt lat="50.658417" lon="4.933744"><time>2026-05-10T01:14:36Z</time></trkpt>
</trkseg>
</trk>
<trk>
<name>bojfc21</name>
<cmt>v</cmt>
<desc>Folx-les-Caves Sentier n°21 Sentier de l'Eglise</desc>
<link href="https://chemins.be/folxlescaves/sentier/21"/><trkseg>
<trkpt lat="50.661193" lon="4.938512"><time>2026-05-10T00:54:36Z</time></trkpt>
<trkpt lat="50.661357" lon="4.938104"><time>2026-05-10T01:04:36Z</time></trkpt>
<trkpt lat="50.661531" lon="4.937541"><time>2026-05-10T01:14:36Z</time></trkpt>
<trkpt lat="50.661597" lon="4.937507"><time>2026-05-10T01:24:36Z</time></trkpt>
</trkseg>
</trk>
<trk>
<name>bojfc22</name>
<cmt>v</cmt>
<desc>Folx-les-Caves Sentier n°22 Sentier de L'Eglise / Sentier de l'Eglise</desc>
<link href="https://chemins.be/folxlescaves/sentier/22"/><trkseg>
<trkpt lat="50.661292" lon="4.936775"><time>2026-05-10T00:54:36Z</time></trkpt>
<trkpt lat="50.661598" lon="4.937486"><time>2026-05-10T01:04:36Z</time></trkpt>
</trkseg></trk>
<trk>
<name>bojfc22</name>
<cmt>r</cmt>
<desc>Folx-les-Caves Sentier n°22 Sentier de L'Eglise / Sentier de l'Eglise</desc>
<link href="https://chemins.be/folxlescaves/sentier/22"/><trkseg>
<trkpt lat="50.661598" lon="4.937486"><time>2026-05-10T01:04:36Z</time></trkpt>
<trkpt lat="50.661836" lon="4.937672"><time>2026-05-10T01:14:36Z</time></trkpt>
<trkpt lat="50.662555" lon="4.938223"><time>2026-05-10T01:24:36Z</time></trkpt>
</trkseg>
</trk>
<trk>
<name>bojfc23</name>
<cmt>v</cmt>
<desc>Folx-les-Caves Sentier n°23 </desc>
<link href="https://chemins.be/folxlescaves/sentier/23"/><trkseg>
<trkpt lat="50.657893" lon="4.931838"><time>2026-05-10T00:54:36Z</time></trkpt>
<trkpt lat="50.658176" lon="4.930868"><time>2026-05-10T01:04:36Z</time></trkpt>
</trkseg></trk>
<trk>
<name>bojfc23</name>
<cmt>s</cmt>
<desc>Folx-les-Caves Sentier n°23 </desc>
<link href="https://chemins.be/folxlescaves/sentier/23"/><trkseg>
<trkpt lat="50.658176" lon="4.930868"><time>2026-05-10T01:04:36Z</time></trkpt>
<trkpt lat="50.658486" lon="4.929589"><time>2026-05-10T01:14:36Z</time></trkpt>
</trkseg>
</trk>
<trk>
<name>bojfc24</name>
<cmt>v</cmt>
<desc>Folx-les-Caves Sentier n°24 </desc>
<link href="https://chemins.be/folxlescaves/sentier/24"/><trkseg>
<trkpt lat="50.658585" lon="4.935101"><time>2026-05-10T00:54:36Z</time></trkpt>
<trkpt lat="50.659491" lon="4.932505"><time>2026-05-10T01:04:36Z</time></trkpt>
</trkseg></trk>
<trk>
<name>bojfc24</name>
<cmt>s</cmt>
<desc>Folx-les-Caves Sentier n°24 </desc>
<link href="https://chemins.be/folxlescaves/sentier/24"/><trkseg>
<trkpt lat="50.659491" lon="4.932505"><time>2026-05-10T01:04:36Z</time></trkpt>
<trkpt lat="50.659910" lon="4.931200"><time>2026-05-10T01:14:36Z</time></trkpt>
<trkpt lat="50.659921" lon="4.929527"><time>2026-05-10T01:24:36Z</time></trkpt>
</trkseg>
</trk>
<trk>
<name>bojfc25</name>
<cmt>v</cmt>
<desc>Folx-les-Caves Sentier n°25 Sentier des Cortils</desc>
<link href="https://chemins.be/folxlescaves/sentier/25"/><trkseg>
<trkpt lat="50.660517" lon="4.937033"><time>2026-05-10T00:54:36Z</time></trkpt>
<trkpt lat="50.659926" lon="4.936531"><time>2026-05-10T01:04:36Z</time></trkpt>
</trkseg></trk>
<trk>
<name>bojfc25</name>
<cmt>r</cmt>
<desc>Folx-les-Caves Sentier n°25 Sentier des Cortils</desc>
<link href="https://chemins.be/folxlescaves/sentier/25"/><trkseg>
<trkpt lat="50.659926" lon="4.936531"><time>2026-05-10T01:04:36Z</time></trkpt>
<trkpt lat="50.659765" lon="4.936331"><time>2026-05-10T01:14:36Z</time></trkpt>
<trkpt lat="50.659382" lon="4.935662"><time>2026-05-10T01:24:36Z</time></trkpt>
<trkpt lat="50.658881" lon="4.935260"><time>2026-05-10T01:34:36Z</time></trkpt>
<trkpt lat="50.658480" lon="4.935147"><time>2026-05-10T01:44:36Z</time></trkpt>
</trkseg></trk>
<trk>
<name>bojfc25</name>
<cmt>v</cmt>
<desc>Folx-les-Caves Sentier n°25 Sentier des Cortils</desc>
<link href="https://chemins.be/folxlescaves/sentier/25"/><trkseg>
<trkpt lat="50.658480" lon="4.935147"><time>2026-05-10T01:44:36Z</time></trkpt>
<trkpt lat="50.656658" lon="4.934052"><time>2026-05-10T01:54:36Z</time></trkpt>
</trkseg></trk>
<trk>
<name>bojfc25</name>
<cmt>d</cmt>
<desc>Folx-les-Caves Sentier n°25 Sentier des Cortils</desc>
<link href="https://chemins.be/folxlescaves/sentier/25"/><trkseg>
<trkpt lat="50.656658" lon="4.934052"><time>2026-05-10T01:54:36Z</time></trkpt>
<trkpt lat="50.655515" lon="4.934009"><time>2026-05-10T02:04:36Z</time></trkpt>
<trkpt lat="50.653495" lon="4.933559"><time>2026-05-10T02:14:36Z</time></trkpt>
</trkseg>
</trk>
<trk>
<name>bojfc26</name>
<cmt>v</cmt>
<desc>Folx-les-Caves Sentier n°26 </desc>
<link href="https://chemins.be/folxlescaves/sentier/26"/><trkseg>
<trkpt lat="50.660176" lon="4.935148"><time>2026-05-10T00:54:36Z</time></trkpt>
<trkpt lat="50.659808" lon="4.934875"><time>2026-05-10T01:04:36Z</time></trkpt>
<trkpt lat="50.659391" lon="4.935634"><time>2026-05-10T01:14:36Z</time></trkpt>
</trkseg></trk>
<trk>
<name>bojfc26</name>
<cmt>d</cmt>
<desc>Folx-les-Caves Sentier n°26 </desc>
<link href="https://chemins.be/folxlescaves/sentier/26"/><trkseg>
<trkpt lat="50.659391" lon="4.935634"><time>2026-05-10T01:14:36Z</time></trkpt>
<trkpt lat="50.658318" lon="4.938155"><time>2026-05-10T01:24:36Z</time></trkpt>
</trkseg></trk>
<trk>
<name>bojfc26</name>
<cmt>s</cmt>
<desc>Folx-les-Caves Sentier n°26 </desc>
<link href="https://chemins.be/folxlescaves/sentier/26"/><trkseg>
<trkpt lat="50.658318" lon="4.938155"><time>2026-05-10T01:24:36Z</time></trkpt>
<trkpt lat="50.658492" lon="4.938335"><time>2026-05-10T01:34:36Z</time></trkpt>
<trkpt lat="50.658135" lon="4.939421"><time>2026-05-10T01:44:36Z</time></trkpt>
</trkseg>
</trk>
<trk>
<name>bojfc27</name>
<cmt>d</cmt>
<desc>Folx-les-Caves Sentier n°27 </desc>
<link href="https://chemins.be/folxlescaves/sentier/27"/><trkseg>
<trkpt lat="50.658078" lon="4.939488"><time>2026-05-10T00:54:36Z</time></trkpt>
<trkpt lat="50.659126" lon="4.940617"><time>2026-05-10T01:04:36Z</time></trkpt>
<trkpt lat="50.659518" lon="4.939644"><time>2026-05-10T01:14:36Z</time></trkpt>
<trkpt lat="50.660519" lon="4.940640"><time>2026-05-10T01:24:36Z</time></trkpt>
<trkpt lat="50.660601" lon="4.940485"><time>2026-05-10T01:34:36Z</time></trkpt>
<trkpt lat="50.661883" lon="4.941800"><time>2026-05-10T01:44:36Z</time></trkpt>
<trkpt lat="50.662898" lon="4.941895"><time>2026-05-10T01:54:36Z</time></trkpt>
<trkpt lat="50.663801" lon="4.941729"><time>2026-05-10T02:04:36Z</time></trkpt>
<trkpt lat="50.664088" lon="4.940580"><time>2026-05-10T02:14:36Z</time></trkpt>
</trkseg>
</trk>
<trk>
<name>bojfc28</name>
<cmt>d</cmt>
<desc>Folx-les-Caves Chemin n°28 </desc>
<link href="https://chemins.be/folxlescaves/chemin/28"/><trkseg>
<trkpt lat="50.649893" lon="4.923528"><time>2026-05-10T00:54:36Z</time></trkpt>
<trkpt lat="50.650512" lon="4.921881"><time>2026-05-10T01:04:36Z</time></trkpt>
<trkpt lat="50.651316" lon="4.920236"><time>2026-05-10T01:14:36Z</time></trkpt>
<trkpt lat="50.651412" lon="4.919700"><time>2026-05-10T01:24:36Z</time></trkpt>
</trkseg>
</trk>
<trk>
<name>bojfc29</name>
<cmt>d</cmt>
<desc>Folx-les-Caves Sentier n°29 </desc>
<link href="https://chemins.be/folxlescaves/sentier/29"/><trkseg>
<trkpt lat="50.651428" lon="4.920124"><time>2026-05-10T00:54:36Z</time></trkpt>
<trkpt lat="50.654384" lon="4.923441"><time>2026-05-10T01:04:36Z</time></trkpt>
<trkpt lat="50.654686" lon="4.924226"><time>2026-05-10T01:14:36Z</time></trkpt>
<trkpt lat="50.654030" lon="4.926435"><time>2026-05-10T01:24:36Z</time></trkpt>
</trkseg>
</trk>
<trk>
<name>bojfc3</name>
<cmt>v</cmt>
<desc>Folx-les-Caves Chemin n°3 Rue du Bois l'Abbé / Rue de la Frete</desc>
<link href="https://chemins.be/folxlescaves/chemin/3"/><trkseg>
<trkpt lat="50.647911" lon="4.953414"><time>2026-05-10T00:54:36Z</time></trkpt>
<trkpt lat="50.648745" lon="4.951426"><time>2026-05-10T01:04:36Z</time></trkpt>
<trkpt lat="50.650024" lon="4.948450"><time>2026-05-10T01:14:36Z</time></trkpt>
<trkpt lat="50.650832" lon="4.947134"><time>2026-05-10T01:24:36Z</time></trkpt>
<trkpt lat="50.652174" lon="4.945861"><time>2026-05-10T01:34:36Z</time></trkpt>
<trkpt lat="50.653235" lon="4.943486"><time>2026-05-10T01:44:36Z</time></trkpt>
<trkpt lat="50.653817" lon="4.941351"><time>2026-05-10T01:54:36Z</time></trkpt>
<trkpt lat="50.655161" lon="4.936101"><time>2026-05-10T02:04:36Z</time></trkpt>
<trkpt lat="50.655662" lon="4.934017"><time>2026-05-10T02:14:36Z</time></trkpt>
</trkseg></trk>
<trk>
<name>bojfc3</name>
<cmt>r</cmt>
<desc>Folx-les-Caves Chemin n°3 Rue du Bois l'Abbé / Rue de la Frete</desc>
<link href="https://chemins.be/folxlescaves/chemin/3"/><trkseg>
<trkpt lat="50.655662" lon="4.934017"><time>2026-05-10T02:14:36Z</time></trkpt>
<trkpt lat="50.655991" lon="4.932647"><time>2026-05-10T02:24:36Z</time></trkpt>
<trkpt lat="50.657161" lon="4.930093"><time>2026-05-10T02:34:36Z</time></trkpt>
<trkpt lat="50.657697" lon="4.929212"><time>2026-05-10T02:44:36Z</time></trkpt>
</trkseg></trk>
<trk>
<name>bojfc3</name>
<cmt>q</cmt>
<desc>Folx-les-Caves Chemin n°3 Rue du Bois l'Abbé / Rue de la Frete</desc>
<link href="https://chemins.be/folxlescaves/chemin/3"/><trkseg>
<trkpt lat="50.657697" lon="4.929212"><time>2026-05-10T02:44:36Z</time></trkpt>
<trkpt lat="50.658300" lon="4.928804"><time>2026-05-10T02:54:36Z</time></trkpt>
<trkpt lat="50.658705" lon="4.928879"><time>2026-05-10T03:04:36Z</time></trkpt>
</trkseg>
</trk>
<trk>
<name>bojfc30</name>
<cmt>s</cmt>
<desc>Folx-les-Caves Sentier n°30 </desc>
<link href="https://chemins.be/folxlescaves/sentier/30"/><trkseg>
<trkpt lat="50.644836" lon="4.942700"><time>2026-05-10T00:54:36Z</time></trkpt>
<trkpt lat="50.645866" lon="4.948712"><time>2026-05-10T01:04:36Z</time></trkpt>
</trkseg>
</trk>
<trk>
<name>bojfc31</name>
<cmt>q</cmt>
<desc>Folx-les-Caves Chemin n°31 </desc>
<link href="https://chemins.be/folxlescaves/chemin/31"/><trkseg>
<trkpt lat="50.647467" lon="4.951692"><time>2026-05-10T00:54:36Z</time></trkpt>
<trkpt lat="50.648462" lon="4.951632"><time>2026-05-10T01:04:36Z</time></trkpt>
</trkseg></trk>
<trk>
<name>bojfc31</name>
<cmt>d</cmt>
<desc>Folx-les-Caves Chemin n°31 </desc>
<link href="https://chemins.be/folxlescaves/chemin/31"/><trkseg>
<trkpt lat="50.648462" lon="4.951632"><time>2026-05-10T01:04:36Z</time></trkpt>
<trkpt lat="50.648716" lon="4.951597"><time>2026-05-10T01:14:36Z</time></trkpt>
<trkpt lat="50.652602" lon="4.951485"><time>2026-05-10T01:24:36Z</time></trkpt>
</trkseg>
</trk>
<trk>
<name>bojfc5</name>
<cmt>v</cmt>
<desc>Folx-les-Caves Chemin n°5 </desc>
<link href="https://chemins.be/folxlescaves/chemin/5"/><trkseg>
<trkpt lat="50.644862" lon="4.935887"><time>2026-05-10T00:54:36Z</time></trkpt>
<trkpt lat="50.649516" lon="4.939578"><time>2026-05-10T01:04:36Z</time></trkpt>
<trkpt lat="50.651628" lon="4.942190"><time>2026-05-10T01:14:36Z</time></trkpt>
<trkpt lat="50.652264" lon="4.942989"><time>2026-05-10T01:24:36Z</time></trkpt>
<trkpt lat="50.653356" lon="4.943482"><time>2026-05-10T01:34:36Z</time></trkpt>
<trkpt lat="50.656998" lon="4.945124"><time>2026-05-10T01:44:36Z</time></trkpt>
<trkpt lat="50.657473" lon="4.945383"><time>2026-05-10T01:54:36Z</time></trkpt>
<trkpt lat="50.658404" lon="4.946257"><time>2026-05-10T02:04:36Z</time></trkpt>
<trkpt lat="50.659373" lon="4.946566"><time>2026-05-10T02:14:36Z</time></trkpt>
<trkpt lat="50.660340" lon="4.947413"><time>2026-05-10T02:24:36Z</time></trkpt>
<trkpt lat="50.661612" lon="4.948433"><time>2026-05-10T02:34:36Z</time></trkpt>
<trkpt lat="50.663766" lon="4.948645"><time>2026-05-10T02:44:36Z</time></trkpt>
</trkseg>
</trk>
<trk>
<name>bojfc7</name>
<cmt>v</cmt>
<desc>Folx-les-Caves Chemin n°7 </desc>
<link href="https://chemins.be/folxlescaves/chemin/7"/><trkseg>
<trkpt lat="50.650025" lon="4.948440"><time>2026-05-10T00:54:36Z</time></trkpt>
<trkpt lat="50.652597" lon="4.951433"><time>2026-05-10T01:04:36Z</time></trkpt>
<trkpt lat="50.654583" lon="4.953890"><time>2026-05-10T01:14:36Z</time></trkpt>
<trkpt lat="50.655339" lon="4.954609"><time>2026-05-10T01:24:36Z</time></trkpt>
<trkpt lat="50.657254" lon="4.956246"><time>2026-05-10T01:34:36Z</time></trkpt>
</trkseg>
</trk>
<trk>
<name>bojfc8</name>
<cmt>v</cmt>
<desc>Folx-les-Caves Chemin n°8 Rue de la Brasserie</desc>
<link href="https://chemins.be/folxlescaves/chemin/8"/><trkseg>
<trkpt lat="50.662765" lon="4.937206"><time>2026-05-10T00:54:36Z</time></trkpt>
<trkpt lat="50.663826" lon="4.934688"><time>2026-05-10T01:04:36Z</time></trkpt>
<trkpt lat="50.664179" lon="4.935309"><time>2026-05-10T01:14:36Z</time></trkpt>
<trkpt lat="50.664383" lon="4.935277"><time>2026-05-10T01:24:36Z</time></trkpt>
<trkpt lat="50.664734" lon="4.935036"><time>2026-05-10T01:34:36Z</time></trkpt>
<trkpt lat="50.665114" lon="4.934751"><time>2026-05-10T01:44:36Z</time></trkpt>
<trkpt lat="50.665305" lon="4.934386"><time>2026-05-10T01:54:36Z</time></trkpt>
<trkpt lat="50.665840" lon="4.933318"><time>2026-05-10T02:04:36Z</time></trkpt>
<trkpt lat="50.666622" lon="4.932068"><time>2026-05-10T02:14:36Z</time></trkpt>
<trkpt lat="50.666761" lon="4.932068"><time>2026-05-10T02:24:36Z</time></trkpt>
</trkseg>
</trk>
<trk>
<name>bojfci1</name>
<cmt>q</cmt>
<desc>Folx-les-Caves Chemin n°i1 </desc>
<link href="https://chemins.be/folxlescaves/chemin/i1"/><trkseg>
<trkpt lat="50.654812" lon="4.928112"><time>2026-05-10T00:54:36Z</time></trkpt>
<trkpt lat="50.654742" lon="4.928230"><time>2026-05-10T01:04:36Z</time></trkpt>
<trkpt lat="50.653995" lon="4.928156"><time>2026-05-10T01:14:36Z</time></trkpt>
<trkpt lat="50.652244" lon="4.928204"><time>2026-05-10T01:24:36Z</time></trkpt>
<trkpt lat="50.651568" lon="4.930292"><time>2026-05-10T01:34:36Z</time></trkpt>
</trkseg>
</trk>
<trk>
<name>bojfcp1</name>
<cmt>q</cmt>
<desc>Folx-les-Caves Chemin particulier n°p1 Rue de la Brasserie</desc>
<link href="https://chemins.be/folxlescaves/chemin/p1"/><trkseg>
<trkpt lat="50.663812" lon="4.934652"><time>2026-05-10T00:54:36Z</time></trkpt>
<trkpt lat="50.664341" lon="4.933687"><time>2026-05-10T01:04:36Z</time></trkpt>
<trkpt lat="50.664867" lon="4.932986"><time>2026-05-10T01:14:36Z</time></trkpt>
</trkseg>
</trk>
<trk>
<name>bojjc10</name>
<cmt>v</cmt>
<desc>Jauche Chemin n°10 </desc>
<link href="https://chemins.be/jauche/chemin/10"/><trkseg>
<trkpt lat="50.683489" lon="4.954772"><time>2026-05-10T00:54:36Z</time></trkpt>
<trkpt lat="50.683581" lon="4.954462"><time>2026-05-10T01:04:36Z</time></trkpt>
<trkpt lat="50.683842" lon="4.954296"><time>2026-05-10T01:14:36Z</time></trkpt>
<trkpt lat="50.684839" lon="4.954506"><time>2026-05-10T01:24:36Z</time></trkpt>
<trkpt lat="50.686023" lon="4.953176"><time>2026-05-10T01:34:36Z</time></trkpt>
<trkpt lat="50.686881" lon="4.952564"><time>2026-05-10T01:44:36Z</time></trkpt>
</trkseg></trk>
<trk>
<name>bojjc10</name>
<cmt>d</cmt>
<desc>Jauche Chemin n°10 </desc>
<link href="https://chemins.be/jauche/chemin/10"/><trkseg>
<trkpt lat="50.686881" lon="4.952564"><time>2026-05-10T01:44:36Z</time></trkpt>
<trkpt lat="50.687232" lon="4.952441"><time>2026-05-10T01:54:36Z</time></trkpt>
<trkpt lat="50.688697" lon="4.950577"><time>2026-05-10T02:04:36Z</time></trkpt>
<trkpt lat="50.690080" lon="4.949193"><time>2026-05-10T02:14:36Z</time></trkpt>
<trkpt lat="50.690424" lon="4.948631"><time>2026-05-10T02:24:36Z</time></trkpt>
</trkseg>
</trk>
<trk>
<name>bojjc11</name>
<cmt>v</cmt>
<desc>Jauche Chemin n°11 </desc>
<link href="https://chemins.be/jauche/chemin/11"/><trkseg>
<trkpt lat="50.684803" lon="4.954520"><time>2026-05-10T00:54:36Z</time></trkpt>
<trkpt lat="50.685410" lon="4.955475"><time>2026-05-10T01:04:36Z</time></trkpt>
</trkseg></trk>
<trk>
<name>bojjc11</name>
<cmt>d</cmt>
<desc>Jauche Chemin n°11 </desc>
<link href="https://chemins.be/jauche/chemin/11"/><trkseg>
<trkpt lat="50.685410" lon="4.955475"><time>2026-05-10T01:04:36Z</time></trkpt>
<trkpt lat="50.687223" lon="4.957677"><time>2026-05-10T01:14:36Z</time></trkpt>
</trkseg></trk>
<trk>
<name>bojjc11</name>
<cmt>v</cmt>
<desc>Jauche Chemin n°11 </desc>
<link href="https://chemins.be/jauche/chemin/11"/><trkseg>
<trkpt lat="50.687223" lon="4.957677"><time>2026-05-10T01:14:36Z</time></trkpt>
<trkpt lat="50.688280" lon="4.958540"><time>2026-05-10T01:24:36Z</time></trkpt>
<trkpt lat="50.689419" lon="4.959007"><time>2026-05-10T01:34:36Z</time></trkpt>
</trkseg></trk>
<trk>
<name>bojjc11</name>
<cmt>d</cmt>
<desc>Jauche Chemin n°11 </desc>
<link href="https://chemins.be/jauche/chemin/11"/><trkseg>
<trkpt lat="50.689419" lon="4.959007"><time>2026-05-10T01:34:36Z</time></trkpt>
<trkpt lat="50.691604" lon="4.959048"><time>2026-05-10T01:44:36Z</time></trkpt>
<trkpt lat="50.692342" lon="4.958874"><time>2026-05-10T01:54:36Z</time></trkpt>
<trkpt lat="50.693217" lon="4.958191"><time>2026-05-10T02:04:36Z</time></trkpt>
</trkseg>
</trk>
<trk>
<name>bojjc12</name>
<cmt>v</cmt>
<desc>Jauche Chemin n°12 </desc>
<link href="https://chemins.be/jauche/chemin/12"/><trkseg>
<trkpt lat="50.678888" lon="4.927063"><time>2026-05-10T00:54:36Z</time></trkpt>
<trkpt lat="50.678654" lon="4.923448"><time>2026-05-10T01:04:36Z</time></trkpt>
<trkpt lat="50.678720" lon="4.921637"><time>2026-05-10T01:14:36Z</time></trkpt>
</trkseg>
</trk>
<trk>
<name>bojjc13</name>
<cmt>v</cmt>
<desc>Jauche Chemin n°13 Rue de Frambay / Rue de Frambais</desc>
<link href="https://chemins.be/jauche/chemin/13"/><trkseg>
<trkpt lat="50.670159" lon="4.932125"><time>2026-05-10T00:54:36Z</time></trkpt>
<trkpt lat="50.670948" lon="4.931276"><time>2026-05-10T01:04:36Z</time></trkpt>
<trkpt lat="50.671813" lon="4.932039"><time>2026-05-10T01:14:36Z</time></trkpt>
<trkpt lat="50.672314" lon="4.932125"><time>2026-05-10T01:24:36Z</time></trkpt>
<trkpt lat="50.672675" lon="4.931674"><time>2026-05-10T01:34:36Z</time></trkpt>
</trkseg></trk>
<trk>
<name>bojjc13</name>
<cmt>r</cmt>
<desc>Jauche Chemin n°13 Rue de Frambay / Rue de Frambais</desc>
<link href="https://chemins.be/jauche/chemin/13"/><trkseg>
<trkpt lat="50.672675" lon="4.931674"><time>2026-05-10T01:34:36Z</time></trkpt>
<trkpt lat="50.672526" lon="4.931310"><time>2026-05-10T01:44:36Z</time></trkpt>
</trkseg></trk>
<trk>
<name>bojjc13</name>
<cmt>v</cmt>
<desc>Jauche Chemin n°13 Rue de Frambay / Rue de Frambais</desc>
<link href="https://chemins.be/jauche/chemin/13"/><trkseg>
<trkpt lat="50.672526" lon="4.931310"><time>2026-05-10T01:44:36Z</time></trkpt>
<trkpt lat="50.673107" lon="4.930677"><time>2026-05-10T01:54:36Z</time></trkpt>
<trkpt lat="50.674504" lon="4.929916"><time>2026-05-10T02:04:36Z</time></trkpt>
<trkpt lat="50.676738" lon="4.928395"><time>2026-05-10T02:14:36Z</time></trkpt>
<trkpt lat="50.678959" lon="4.927054"><time>2026-05-10T02:24:36Z</time></trkpt>
<trkpt lat="50.679887" lon="4.926726"><time>2026-05-10T02:34:36Z</time></trkpt>
<trkpt lat="50.681547" lon="4.927311"><time>2026-05-10T02:44:36Z</time></trkpt>
<trkpt lat="50.683425" lon="4.926301"><time>2026-05-10T02:54:36Z</time></trkpt>
</trkseg>
</trk>
<trk>
<name>bojjc14</name>
<cmt>v</cmt>
<desc>Jauche Chemin n°14 </desc>
<link href="https://chemins.be/jauche/chemin/14"/><trkseg>
<trkpt lat="50.667865" lon="4.935310"><time>2026-05-10T00:54:36Z</time></trkpt>
<trkpt lat="50.667746" lon="4.938207"><time>2026-05-10T01:04:36Z</time></trkpt>
<trkpt lat="50.668002" lon="4.938988"><time>2026-05-10T01:14:36Z</time></trkpt>
<trkpt lat="50.668844" lon="4.939224"><time>2026-05-10T01:24:36Z</time></trkpt>
<trkpt lat="50.669485" lon="4.940085"><time>2026-05-10T01:34:36Z</time></trkpt>
<trkpt lat="50.669877" lon="4.941012"><time>2026-05-10T01:44:36Z</time></trkpt>
<trkpt lat="50.670523" lon="4.943549"><time>2026-05-10T01:54:36Z</time></trkpt>
<trkpt lat="50.670790" lon="4.943999"><time>2026-05-10T02:04:36Z</time></trkpt>
<trkpt lat="50.671326" lon="4.947808"><time>2026-05-10T02:14:36Z</time></trkpt>
<trkpt lat="50.671587" lon="4.950974"><time>2026-05-10T02:24:36Z</time></trkpt>
<trkpt lat="50.672011" lon="4.955908"><time>2026-05-10T02:34:36Z</time></trkpt>
</trkseg></trk>
<trk>
<name>bojjc14</name>
<cmt>d</cmt>
<desc>Jauche Chemin n°14 </desc>
<link href="https://chemins.be/jauche/chemin/14"/><trkseg>
<trkpt lat="50.672011" lon="4.955908"><time>2026-05-10T02:34:36Z</time></trkpt>
<trkpt lat="50.672206" lon="4.960248"><time>2026-05-10T02:44:36Z</time></trkpt>
<trkpt lat="50.672451" lon="4.961581"><time>2026-05-10T02:54:36Z</time></trkpt>
</trkseg></trk>
<trk>
<name>bojjc14</name>
<cmt>v</cmt>
<desc>Jauche Chemin n°14 </desc>
<link href="https://chemins.be/jauche/chemin/14"/><trkseg>
<trkpt lat="50.672451" lon="4.961581"><time>2026-05-10T02:54:36Z</time></trkpt>
<trkpt lat="50.672166" lon="4.962695"><time>2026-05-10T03:04:36Z</time></trkpt>
<trkpt lat="50.672514" lon="4.965161"><time>2026-05-10T03:14:36Z</time></trkpt>
</trkseg>
</trk>
<trk>
<name>bojjc15</name>
<cmt>r</cmt>
<desc>Jauche Chemin n°15 Rue du Moulin / Sentier des Corrées</desc>
<link href="https://chemins.be/jauche/chemin/15"/><trkseg>
<trkpt lat="50.683510" lon="4.954700"><time>2026-05-10T00:54:36Z</time></trkpt>
<trkpt lat="50.683383" lon="4.953815"><time>2026-05-10T01:04:36Z</time></trkpt>
<trkpt lat="50.683126" lon="4.952500"><time>2026-05-10T01:14:36Z</time></trkpt>
<trkpt lat="50.683114" lon="4.952281"><time>2026-05-10T01:24:36Z</time></trkpt>
<trkpt lat="50.683269" lon="4.951991"><time>2026-05-10T01:34:36Z</time></trkpt>
</trkseg></trk>
<trk>
<name>bojjc15</name>
<cmt>s</cmt>
<desc>Jauche Chemin n°15 Rue du Moulin / Sentier des Corrées</desc>
<link href="https://chemins.be/jauche/chemin/15"/><trkseg>
<trkpt lat="50.683269" lon="4.951991"><time>2026-05-10T01:34:36Z</time></trkpt>
<trkpt lat="50.683772" lon="4.951528"><time>2026-05-10T01:44:36Z</time></trkpt>
<trkpt lat="50.685132" lon="4.949833"><time>2026-05-10T01:54:36Z</time></trkpt>
</trkseg>
</trk>
<trk>
<name>bojjc2</name>
<cmt>r</cmt>
<desc>Jauche Chemin n°2 </desc>
<link href="https://chemins.be/jauche/chemin/2"/><trkseg>
<trkpt lat="50.680065" lon="4.959642"><time>2026-05-10T00:54:36Z</time></trkpt>
<trkpt lat="50.679782" lon="4.959781"><time>2026-05-10T01:04:36Z</time></trkpt>
<trkpt lat="50.678974" lon="4.960517"><time>2026-05-10T01:14:36Z</time></trkpt>
</trkseg></trk>
<trk>
<name>bojjc2</name>
<cmt>v</cmt>
<desc>Jauche Chemin n°2 </desc>
<link href="https://chemins.be/jauche/chemin/2"/><trkseg>
<trkpt lat="50.678974" lon="4.960517"><time>2026-05-10T01:14:36Z</time></trkpt>
<trkpt lat="50.677430" lon="4.961927"><time>2026-05-10T01:24:36Z</time></trkpt>
<trkpt lat="50.676074" lon="4.963296"><time>2026-05-10T01:34:36Z</time></trkpt>
<trkpt lat="50.674277" lon="4.964802"><time>2026-05-10T01:44:36Z</time></trkpt>
<trkpt lat="50.673311" lon="4.966064"><time>2026-05-10T01:54:36Z</time></trkpt>
</trkseg>
</trk>
<trk>
<name>bojjc28</name>
<cmt>r</cmt>
<desc>Jauche Chemin n°28 Ruelle du Cuvé</desc>
<link href="https://chemins.be/jauche/chemin/28"/><trkseg>
<trkpt lat="50.680868" lon="4.959296"><time>2026-05-10T00:54:36Z</time></trkpt>
<trkpt lat="50.681183" lon="4.959328"><time>2026-05-10T01:04:36Z</time></trkpt>
<trkpt lat="50.682033" lon="4.960075"><time>2026-05-10T01:14:36Z</time></trkpt>
<trkpt lat="50.682292" lon="4.960432"><time>2026-05-10T01:24:36Z</time></trkpt>
<trkpt lat="50.682638" lon="4.961243"><time>2026-05-10T01:34:36Z</time></trkpt>
<trkpt lat="50.683028" lon="4.962337"><time>2026-05-10T01:44:36Z</time></trkpt>
</trkseg>
</trk>
<trk>
<name>bojjc29</name>
<cmt>r</cmt>
<desc>Jauche Chemin n°29 Rue du Cimetière</desc>
<link href="https://chemins.be/jauche/chemin/29"/><trkseg>
<trkpt lat="50.681478" lon="4.961666"><time>2026-05-10T00:54:36Z</time></trkpt>
<trkpt lat="50.682985" lon="4.965585"><time>2026-05-10T01:04:36Z</time></trkpt>
</trkseg></trk>
<trk>
<name>bojjc29</name>
<cmt>d</cmt>
<desc>Jauche Chemin n°29 Rue du Cimetière</desc>
<link href="https://chemins.be/jauche/chemin/29"/><trkseg>
<trkpt lat="50.682985" lon="4.965585"><time>2026-05-10T01:04:36Z</time></trkpt>
<trkpt lat="50.683404" lon="4.967022"><time>2026-05-10T01:14:36Z</time></trkpt>
<trkpt lat="50.683463" lon="4.967872"><time>2026-05-10T01:24:36Z</time></trkpt>
</trkseg>
</trk>
<trk>
<name>bojjc3</name>
<cmt>v</cmt>
<desc>Jauche Chemin n°3 Vieux Chemin de Hannut</desc>
<link href="https://chemins.be/jauche/chemin/3"/><trkseg>
<trkpt lat="50.681406" lon="4.961859"><time>2026-05-10T00:54:36Z</time></trkpt>
<trkpt lat="50.681414" lon="4.963307"><time>2026-05-10T01:04:36Z</time></trkpt>
<trkpt lat="50.681331" lon="4.963858"><time>2026-05-10T01:14:36Z</time></trkpt>
<trkpt lat="50.680742" lon="4.970006"><time>2026-05-10T01:24:36Z</time></trkpt>
</trkseg>
</trk>
<trk>
<name>bojjc30</name>
<cmt>r</cmt>
<desc>Jauche Chemin n°30 Rue de la Batte</desc>
<link href="https://chemins.be/jauche/chemin/30"/><trkseg>
<trkpt lat="50.678439" lon="4.953960"><time>2026-05-10T00:54:36Z</time></trkpt>
<trkpt lat="50.677175" lon="4.955161"><time>2026-05-10T01:04:36Z</time></trkpt>
<trkpt lat="50.675239" lon="4.955948"><time>2026-05-10T01:14:36Z</time></trkpt>
</trkseg>
</trk>
<trk>
<name>bojjc31</name>
<cmt>v</cmt>
<desc>Jauche Chemin n°31 </desc>
<link href="https://chemins.be/jauche/chemin/31"/><trkseg>
<trkpt lat="50.678474" lon="4.947378"><time>2026-05-10T00:54:36Z</time></trkpt>
<trkpt lat="50.677914" lon="4.946778"><time>2026-05-10T01:04:36Z</time></trkpt>
<trkpt lat="50.677116" lon="4.945496"><time>2026-05-10T01:14:36Z</time></trkpt>
<trkpt lat="50.676150" lon="4.944636"><time>2026-05-10T01:24:36Z</time></trkpt>
<trkpt lat="50.674458" lon="4.943228"><time>2026-05-10T01:34:36Z</time></trkpt>
<trkpt lat="50.671660" lon="4.939870"><time>2026-05-10T01:44:36Z</time></trkpt>
<trkpt lat="50.670601" lon="4.939602"><time>2026-05-10T01:54:36Z</time></trkpt>
<trkpt lat="50.669830" lon="4.939126"><time>2026-05-10T02:04:36Z</time></trkpt>
<trkpt lat="50.668786" lon="4.939269"><time>2026-05-10T02:14:36Z</time></trkpt>
</trkseg></trk>
<trk>
<name>bojjc31</name>
<cmt>r</cmt>
<desc>Jauche Chemin n°31 </desc>
<link href="https://chemins.be/jauche/chemin/31"/><trkseg>
<trkpt lat="50.668786" lon="4.939269"><time>2026-05-10T02:14:36Z</time></trkpt>
<trkpt lat="50.668041" lon="4.939133"><time>2026-05-10T02:24:36Z</time></trkpt>
</trkseg>
</trk>
<trk>
<name>bojjc32</name>
<cmt>v</cmt>
<desc>Jauche Chemin n°32 </desc>
<link href="https://chemins.be/jauche/chemin/32"/><trkseg>
<trkpt lat="50.672732" lon="4.946688"><time>2026-05-10T00:54:36Z</time></trkpt>
<trkpt lat="50.673398" lon="4.946597"><time>2026-05-10T01:04:36Z</time></trkpt>
<trkpt lat="50.677643" lon="4.947993"><time>2026-05-10T01:14:36Z</time></trkpt>
<trkpt lat="50.678642" lon="4.947779"><time>2026-05-10T01:24:36Z</time></trkpt>
</trkseg>
</trk>
<trk>
<name>bojjc33</name>
<cmt>v</cmt>
<desc>Jauche Chemin n°33 </desc>
<link href="https://chemins.be/jauche/chemin/33"/><trkseg>
<trkpt lat="50.683616" lon="4.944060"><time>2026-05-10T00:54:36Z</time></trkpt>
<trkpt lat="50.684018" lon="4.943695"><time>2026-05-10T01:04:36Z</time></trkpt>
<trkpt lat="50.685277" lon="4.942367"><time>2026-05-10T01:14:36Z</time></trkpt>
<trkpt lat="50.685496" lon="4.941355"><time>2026-05-10T01:24:36Z</time></trkpt>
</trkseg></trk>
<trk>
<name>bojjc33</name>
<cmt>d</cmt>
<desc>Jauche Chemin n°33 </desc>
<link href="https://chemins.be/jauche/chemin/33"/><trkseg>
<trkpt lat="50.685496" lon="4.941355"><time>2026-05-10T01:24:36Z</time></trkpt>
<trkpt lat="50.685586" lon="4.940516"><time>2026-05-10T01:34:36Z</time></trkpt>
<trkpt lat="50.685220" lon="4.939261"><time>2026-05-10T01:44:36Z</time></trkpt>
<trkpt lat="50.684882" lon="4.939430"><time>2026-05-10T01:54:36Z</time></trkpt>
</trkseg>
</trk>
<trk>
<name>bojjc34</name>
<cmt>v</cmt>
<desc>Jauche Chemin n°34 Rue de la Tombale</desc>
<link href="https://chemins.be/jauche/chemin/34"/><trkseg>
<trkpt lat="50.687055" lon="4.967822"><time>2026-05-10T00:54:36Z</time></trkpt>
<trkpt lat="50.686898" lon="4.966844"><time>2026-05-10T01:04:36Z</time></trkpt>
<trkpt lat="50.687022" lon="4.965572"><time>2026-05-10T01:14:36Z</time></trkpt>
</trkseg></trk>
<trk>
<name>bojjc34</name>
<cmt>s</cmt>
<desc>Jauche Chemin n°34 Rue de la Tombale</desc>
<link href="https://chemins.be/jauche/chemin/34"/><trkseg>
<trkpt lat="50.687022" lon="4.965572"><time>2026-05-10T01:14:36Z</time></trkpt>
<trkpt lat="50.687935" lon="4.962724"><time>2026-05-10T01:24:36Z</time></trkpt>
<trkpt lat="50.688013" lon="4.961554"><time>2026-05-10T01:34:36Z</time></trkpt>
</trkseg></trk>
<trk>
<name>bojjc34</name>
<cmt>r</cmt>
<desc>Jauche Chemin n°34 Rue de la Tombale</desc>
<link href="https://chemins.be/jauche/chemin/34"/><trkseg>
<trkpt lat="50.688013" lon="4.961554"><time>2026-05-10T01:34:36Z</time></trkpt>
<trkpt lat="50.686766" lon="4.954350"><time>2026-05-10T01:44:36Z</time></trkpt>
<trkpt lat="50.686877" lon="4.952494"><time>2026-05-10T01:54:36Z</time></trkpt>
</trkseg></trk>
<trk>
<name>bojjc34</name>
<cmt>v</cmt>
<desc>Jauche Chemin n°34 Rue de la Tombale</desc>
<link href="https://chemins.be/jauche/chemin/34"/><trkseg>
<trkpt lat="50.686877" lon="4.952494"><time>2026-05-10T01:54:36Z</time></trkpt>
<trkpt lat="50.687244" lon="4.950412"><time>2026-05-10T02:04:36Z</time></trkpt>
<trkpt lat="50.687530" lon="4.948224"><time>2026-05-10T02:14:36Z</time></trkpt>
</trkseg>
</trk>
<trk>
<name>bojjc35</name>
<cmt>v</cmt>
<desc>Jauche Chemin n°35 </desc>
<link href="https://chemins.be/jauche/chemin/35"/><trkseg>
<trkpt lat="50.684450" lon="4.961546"><time>2026-05-10T00:54:36Z</time></trkpt>
<trkpt lat="50.685168" lon="4.962014"><time>2026-05-10T01:04:36Z</time></trkpt>
</trkseg></trk>
<trk>
<name>bojjc35</name>
<cmt>d</cmt>
<desc>Jauche Chemin n°35 </desc>
<link href="https://chemins.be/jauche/chemin/35"/><trkseg>
<trkpt lat="50.685168" lon="4.962014"><time>2026-05-10T01:04:36Z</time></trkpt>
<trkpt lat="50.685557" lon="4.962140"><time>2026-05-10T01:14:36Z</time></trkpt>
<trkpt lat="50.686226" lon="4.961793"><time>2026-05-10T01:24:36Z</time></trkpt>
</trkseg></trk>
<trk>
<name>bojjc35</name>
<cmt>q</cmt>
<desc>Jauche Chemin n°35 </desc>
<link href="https://chemins.be/jauche/chemin/35"/><trkseg>
<trkpt lat="50.686226" lon="4.961793"><time>2026-05-10T01:24:36Z</time></trkpt>
<trkpt lat="50.687864" lon="4.960737"><time>2026-05-10T01:34:36Z</time></trkpt>
</trkseg>
</trk>
<trk>
<name>bojjc38</name>
<cmt>v</cmt>
<desc>Jauche Chemin n°38 </desc>
<link href="https://chemins.be/jauche/chemin/38"/><trkseg>
<trkpt lat="50.680017" lon="4.941267"><time>2026-05-10T00:54:36Z</time></trkpt>
<trkpt lat="50.679801" lon="4.940450"><time>2026-05-10T01:04:36Z</time></trkpt>
<trkpt lat="50.679854" lon="4.939039"><time>2026-05-10T01:14:36Z</time></trkpt>
<trkpt lat="50.679790" lon="4.938312"><time>2026-05-10T01:24:36Z</time></trkpt>
<trkpt lat="50.679707" lon="4.937873"><time>2026-05-10T01:34:36Z</time></trkpt>
<trkpt lat="50.679110" lon="4.934937"><time>2026-05-10T01:44:36Z</time></trkpt>
<trkpt lat="50.679062" lon="4.933769"><time>2026-05-10T01:54:36Z</time></trkpt>
<trkpt lat="50.679227" lon="4.929420"><time>2026-05-10T02:04:36Z</time></trkpt>
<trkpt lat="50.678888" lon="4.926997"><time>2026-05-10T02:14:36Z</time></trkpt>
</trkseg>
</trk>
<trk>
<name>bojjc39</name>
<cmt>v</cmt>
<desc>Jauche Sentier n°39 </desc>
<link href="https://chemins.be/jauche/sentier/39"/><trkseg>
<trkpt lat="50.679662" lon="4.944561"><time>2026-05-10T00:54:36Z</time></trkpt>
<trkpt lat="50.680084" lon="4.942791"><time>2026-05-10T01:04:36Z</time></trkpt>
<trkpt lat="50.679981" lon="4.941478"><time>2026-05-10T01:14:36Z</time></trkpt>
<trkpt lat="50.680013" lon="4.941280"><time>2026-05-10T01:24:36Z</time></trkpt>
</trkseg>
</trk>
<trk>
<name>bojjc4</name>
<cmt>v</cmt>
<desc>Jauche Chemin n°4 </desc>
<link href="https://chemins.be/jauche/chemin/4"/><trkseg>
<trkpt lat="50.675249" lon="4.955901"><time>2026-05-10T00:54:36Z</time></trkpt>
<trkpt lat="50.674144" lon="4.957500"><time>2026-05-10T01:04:36Z</time></trkpt>
<trkpt lat="50.673362" lon="4.959159"><time>2026-05-10T01:14:36Z</time></trkpt>
<trkpt lat="50.672513" lon="4.961667"><time>2026-05-10T01:24:36Z</time></trkpt>
<trkpt lat="50.672157" lon="4.962695"><time>2026-05-10T01:34:36Z</time></trkpt>
</trkseg></trk>
<trk>
<name>bojjc4</name>
<cmt>d</cmt>
<desc>Jauche Chemin n°4 </desc>
<link href="https://chemins.be/jauche/chemin/4"/><trkseg>
<trkpt lat="50.672157" lon="4.962695"><time>2026-05-10T01:34:36Z</time></trkpt>
<trkpt lat="50.671815" lon="4.964544"><time>2026-05-10T01:44:36Z</time></trkpt>
</trkseg>
</trk>
<trk>
<name>bojjc41</name>
<cmt>v</cmt>
<desc>Jauche Sentier n°41 </desc>
<link href="https://chemins.be/jauche/sentier/41"/><trkseg>
<trkpt lat="50.682730" lon="4.946310"><time>2026-05-10T00:54:36Z</time></trkpt>
<trkpt lat="50.683224" lon="4.946283"><time>2026-05-10T01:04:36Z</time></trkpt>
<trkpt lat="50.685508" lon="4.947184"><time>2026-05-10T01:14:36Z</time></trkpt>
<trkpt lat="50.686773" lon="4.947678"><time>2026-05-10T01:24:36Z</time></trkpt>
</trkseg>
</trk>
<trk>
<name>bojjc42</name>
<cmt>v</cmt>
<desc>Jauche Sentier n°42 Ruelle du Cuvé</desc>
<link href="https://chemins.be/jauche/sentier/42"/><trkseg>
<trkpt lat="50.684390" lon="4.961477"><time>2026-05-10T00:54:36Z</time></trkpt>
<trkpt lat="50.683895" lon="4.961655"><time>2026-05-10T01:04:36Z</time></trkpt>
<trkpt lat="50.683444" lon="4.961989"><time>2026-05-10T01:14:36Z</time></trkpt>
<trkpt lat="50.683002" lon="4.962323"><time>2026-05-10T01:24:36Z</time></trkpt>
</trkseg>
</trk>
<trk>
<name>bojjc43</name>
<cmt>v</cmt>
<desc>Jauche Sentier n°43 </desc>
<link href="https://chemins.be/jauche/sentier/43"/><trkseg>
<trkpt lat="50.680434" lon="4.956550"><time>2026-05-10T00:54:36Z</time></trkpt>
<trkpt lat="50.680201" lon="4.957099"><time>2026-05-10T01:04:36Z</time></trkpt>
</trkseg></trk>
<trk>
<name>bojjc43</name>
<cmt>q</cmt>
<desc>Jauche Sentier n°43 </desc>
<link href="https://chemins.be/jauche/sentier/43"/><trkseg>
<trkpt lat="50.680201" lon="4.957099"><time>2026-05-10T01:04:36Z</time></trkpt>
<trkpt lat="50.680293" lon="4.957185"><time>2026-05-10T01:14:36Z</time></trkpt>
<trkpt lat="50.680097" lon="4.957619"><time>2026-05-10T01:24:36Z</time></trkpt>
<trkpt lat="50.678874" lon="4.959031"><time>2026-05-10T01:34:36Z</time></trkpt>
<trkpt lat="50.678473" lon="4.959553"><time>2026-05-10T01:44:36Z</time></trkpt>
<trkpt lat="50.678434" lon="4.959602"><time>2026-05-10T01:54:36Z</time></trkpt>
<trkpt lat="50.677147" lon="4.961245"><time>2026-05-10T02:04:36Z</time></trkpt>
<trkpt lat="50.676788" lon="4.962095"><time>2026-05-10T02:14:36Z</time></trkpt>
</trkseg>
</trk>
<trk>
<name>bojjc44</name>
<cmt>r</cmt>
<desc>Jauche Sentier n°44 Rue des Écoles</desc>
<link href="https://chemins.be/jauche/sentier/44"/><trkseg>
<trkpt lat="50.678923" lon="4.954627"><time>2026-05-10T00:54:36Z</time></trkpt>
<trkpt lat="50.680225" lon="4.953168"><time>2026-05-10T01:04:36Z</time></trkpt>
</trkseg></trk>
<trk>
<name>bojjc44</name>
<cmt>v</cmt>
<desc>Jauche Sentier n°44 Rue des Écoles</desc>
<link href="https://chemins.be/jauche/sentier/44"/><trkseg>
<trkpt lat="50.680225" lon="4.953168"><time>2026-05-10T01:04:36Z</time></trkpt>
<trkpt lat="50.680563" lon="4.953901"><time>2026-05-10T01:14:36Z</time></trkpt>
<trkpt lat="50.680715" lon="4.954115"><time>2026-05-10T01:24:36Z</time></trkpt>
</trkseg>
</trk>
<trk>
<name>bojjc45</name>
<cmt>v</cmt>
<desc>Jauche Sentier n°45 </desc>
<link href="https://chemins.be/jauche/sentier/45"/><trkseg>
<trkpt lat="50.680198" lon="4.953161"><time>2026-05-10T00:54:36Z</time></trkpt>
<trkpt lat="50.679326" lon="4.951268"><time>2026-05-10T01:04:36Z</time></trkpt>
</trkseg>
</trk>
<trk>
<name>bojjc46</name>
<cmt>r</cmt>
<desc>Jauche Sentier n°46 Rue des Écoles</desc>
<link href="https://chemins.be/jauche/sentier/46"/><trkseg>
<trkpt lat="50.681209" lon="4.952100"><time>2026-05-10T00:54:36Z</time></trkpt>
<trkpt lat="50.680214" lon="4.953147"><time>2026-05-10T01:04:36Z</time></trkpt>
</trkseg></trk>
<trk>
<name>bojjc46</name>
<cmt>s</cmt>
<desc>Jauche Sentier n°46 Rue des Écoles</desc>
<link href="https://chemins.be/jauche/sentier/46"/><trkseg>
<trkpt lat="50.680214" lon="4.953147"><time>2026-05-10T01:04:36Z</time></trkpt>
<trkpt lat="50.678091" lon="4.952742"><time>2026-05-10T01:14:36Z</time></trkpt>
<trkpt lat="50.677864" lon="4.952905"><time>2026-05-10T01:24:36Z</time></trkpt>
</trkseg>
</trk>
<trk>
<name>bojjc47</name>
<cmt>v</cmt>
<desc>Jauche Sentier n°47 </desc>
<link href="https://chemins.be/jauche/sentier/47"/><trkseg>
<trkpt lat="50.681029" lon="4.951493"><time>2026-05-10T00:54:36Z</time></trkpt>
<trkpt lat="50.681150" lon="4.951389"><time>2026-05-10T01:04:36Z</time></trkpt>
<trkpt lat="50.681471" lon="4.951089"><time>2026-05-10T01:14:36Z</time></trkpt>
</trkseg>
</trk>
<trk>
<name>bojjc49</name>
<cmt>q</cmt>
<desc>Jauche Sentier n°49 </desc>
<link href="https://chemins.be/jauche/sentier/49"/><trkseg>
<trkpt lat="50.681226" lon="4.952121"><time>2026-05-10T00:54:36Z</time></trkpt>
<trkpt lat="50.681732" lon="4.951692"><time>2026-05-10T01:04:36Z</time></trkpt>
</trkseg>
</trk>
<trk>
<name>bojjc5</name>
<cmt>v</cmt>
<desc>Jauche Chemin n°5 </desc>
<link href="https://chemins.be/jauche/chemin/5"/><trkseg>
<trkpt lat="50.675141" lon="4.955950"><time>2026-05-10T00:54:36Z</time></trkpt>
<trkpt lat="50.674278" lon="4.955446"><time>2026-05-10T01:04:36Z</time></trkpt>
<trkpt lat="50.671993" lon="4.955928"><time>2026-05-10T01:14:36Z</time></trkpt>
<trkpt lat="50.668634" lon="4.956438"><time>2026-05-10T01:24:36Z</time></trkpt>
<trkpt lat="50.666961" lon="4.957098"><time>2026-05-10T01:34:36Z</time></trkpt>
<trkpt lat="50.665071" lon="4.956905"><time>2026-05-10T01:44:36Z</time></trkpt>
</trkseg>
</trk>
<trk>
<name>bojjc50</name>
<cmt>q</cmt>
<desc>Jauche Sentier n°50 Rue de la Cure</desc>
<link href="https://chemins.be/jauche/sentier/50"/><trkseg>
<trkpt lat="50.681959" lon="4.954023"><time>2026-05-10T00:54:36Z</time></trkpt>
<trkpt lat="50.681675" lon="4.953299"><time>2026-05-10T01:04:36Z</time></trkpt>
</trkseg>
</trk>
<trk>
<name>bojjc51</name>
<cmt>v</cmt>
<desc>Jauche Sentier n°51 Rue des Etangs</desc>
<link href="https://chemins.be/jauche/sentier/51"/><trkseg>
<trkpt lat="50.682878" lon="4.953536"><time>2026-05-10T00:54:36Z</time></trkpt>
<trkpt lat="50.682775" lon="4.953746"><time>2026-05-10T01:04:36Z</time></trkpt>
<trkpt lat="50.682361" lon="4.953965"><time>2026-05-10T01:14:36Z</time></trkpt>
</trkseg>
</trk>
<trk>
<name>bojjc52</name>
<cmt>v</cmt>
<desc>Jauche Sentier n°52 Sentier des Corrées</desc>
<link href="https://chemins.be/jauche/sentier/52"/><trkseg>
<trkpt lat="50.683119" lon="4.952493"><time>2026-05-10T00:54:36Z</time></trkpt>
<trkpt lat="50.682674" lon="4.952857"><time>2026-05-10T01:04:36Z</time></trkpt>
</trkseg>
</trk>
<trk>
<name>bojjc53</name>
<cmt>v</cmt>
<desc>Jauche Sentier n°53 </desc>
<link href="https://chemins.be/jauche/sentier/53"/><trkseg>
<trkpt lat="50.680940" lon="4.947062"><time>2026-05-10T00:54:36Z</time></trkpt>
<trkpt lat="50.680330" lon="4.947874"><time>2026-05-10T01:04:36Z</time></trkpt>
</trkseg>
</trk>
<trk>
<name>bojjc54</name>
<cmt>v</cmt>
<desc>Jauche Sentier n°54 </desc>
<link href="https://chemins.be/jauche/sentier/54"/><trkseg>
<trkpt lat="50.683445" lon="4.954979"><time>2026-05-10T00:54:36Z</time></trkpt>
<trkpt lat="50.683540" lon="4.955649"><time>2026-05-10T01:04:36Z</time></trkpt>
</trkseg></trk>
<trk>
<name>bojjc54</name>
<cmt>d</cmt>
<desc>Jauche Sentier n°54 </desc>
<link href="https://chemins.be/jauche/sentier/54"/><trkseg>
<trkpt lat="50.683540" lon="4.955649"><time>2026-05-10T01:04:36Z</time></trkpt>
<trkpt lat="50.683583" lon="4.955898"><time>2026-05-10T01:14:36Z</time></trkpt>
<trkpt lat="50.683820" lon="4.955975"><time>2026-05-10T01:24:36Z</time></trkpt>
</trkseg></trk>
<trk>
<name>bojjc54</name>
<cmt>q</cmt>
<desc>Jauche Sentier n°54 </desc>
<link href="https://chemins.be/jauche/sentier/54"/><trkseg>
<trkpt lat="50.683820" lon="4.955975"><time>2026-05-10T01:24:36Z</time></trkpt>
<trkpt lat="50.684475" lon="4.955687"><time>2026-05-10T01:34:36Z</time></trkpt>
<trkpt lat="50.685606" lon="4.956559"><time>2026-05-10T01:44:36Z</time></trkpt>
<trkpt lat="50.686607" lon="4.956971"><time>2026-05-10T01:54:36Z</time></trkpt>
</trkseg>
</trk>
<trk>
<name>bojjc55</name>
<cmt>s</cmt>
<desc>Jauche Sentier n°55 Avenue Adrien Stas</desc>
<link href="https://chemins.be/jauche/sentier/55"/><trkseg>
<trkpt lat="50.683423" lon="4.954160"><time>2026-05-10T00:54:36Z</time></trkpt>
<trkpt lat="50.685178" lon="4.949872"><time>2026-05-10T01:04:36Z</time></trkpt>
</trkseg>
</trk>
<trk>
<name>bojjc56</name>
<cmt>v</cmt>
<desc>Jauche Sentier n°56 </desc>
<link href="https://chemins.be/jauche/sentier/56"/><trkseg>
<trkpt lat="50.683095" lon="4.952259"><time>2026-05-10T00:54:36Z</time></trkpt>
<trkpt lat="50.682572" lon="4.950360"><time>2026-05-10T01:04:36Z</time></trkpt>
<trkpt lat="50.682266" lon="4.949514"><time>2026-05-10T01:14:36Z</time></trkpt>
<trkpt lat="50.681906" lon="4.948665"><time>2026-05-10T01:24:36Z</time></trkpt>
<trkpt lat="50.681933" lon="4.948086"><time>2026-05-10T01:34:36Z</time></trkpt>
</trkseg>
</trk>
<trk>
<name>bojjc56bis</name>
<cmt>s</cmt>
<desc>Jauche Sentier n°56bis </desc>
<link href="https://chemins.be/jauche/sentier/56bis"/><trkseg>
<trkpt lat="50.682504" lon="4.950178"><time>2026-05-10T00:54:36Z</time></trkpt>
<trkpt lat="50.682513" lon="4.948716"><time>2026-05-10T01:04:36Z</time></trkpt>
<trkpt lat="50.682522" lon="4.948289"><time>2026-05-10T01:14:36Z</time></trkpt>
<trkpt lat="50.682538" lon="4.946680"><time>2026-05-10T01:24:36Z</time></trkpt>
</trkseg>
</trk>
<trk>
<name>bojjc57</name>
<cmt>s</cmt>
<desc>Jauche Sentier n°57 </desc>
<link href="https://chemins.be/jauche/sentier/57"/><trkseg>
<trkpt lat="50.684706" lon="4.949137"><time>2026-05-10T00:54:36Z</time></trkpt>
<trkpt lat="50.685121" lon="4.948740"><time>2026-05-10T01:04:36Z</time></trkpt>
<trkpt lat="50.685556" lon="4.947184"><time>2026-05-10T01:14:36Z</time></trkpt>
<trkpt lat="50.686766" lon="4.940629"><time>2026-05-10T01:24:36Z</time></trkpt>
</trkseg>
</trk>
<trk>
<name>bojjc59</name>
<cmt>r</cmt>
<desc>Jauche Sentier n°59 Rue de la Cure / Grand Place</desc>
<link href="https://chemins.be/jauche/sentier/59"/><trkseg>
<trkpt lat="50.682007" lon="4.954207"><time>2026-05-10T00:54:36Z</time></trkpt>
<trkpt lat="50.681958" lon="4.954323"><time>2026-05-10T01:04:36Z</time></trkpt>
<trkpt lat="50.681713" lon="4.954568"><time>2026-05-10T01:14:36Z</time></trkpt>
<trkpt lat="50.681697" lon="4.954829"><time>2026-05-10T01:24:36Z</time></trkpt>
<trkpt lat="50.681453" lon="4.955126"><time>2026-05-10T01:34:36Z</time></trkpt>
<trkpt lat="50.681800" lon="4.955960"><time>2026-05-10T01:44:36Z</time></trkpt>
</trkseg>
</trk>
<trk>
<name>bojjc6</name>
<cmt>v</cmt>
<desc>Jauche Chemin n°6 Rue de Namur</desc>
<link href="https://chemins.be/jauche/chemin/6"/><trkseg>
<trkpt lat="50.676487" lon="4.952733"><time>2026-05-10T00:54:36Z</time></trkpt>
<trkpt lat="50.675878" lon="4.952371"><time>2026-05-10T01:04:36Z</time></trkpt>
<trkpt lat="50.675466" lon="4.951928"><time>2026-05-10T01:14:36Z</time></trkpt>
<trkpt lat="50.673969" lon="4.951159"><time>2026-05-10T01:24:36Z</time></trkpt>
<trkpt lat="50.671561" lon="4.950903"><time>2026-05-10T01:34:36Z</time></trkpt>
<trkpt lat="50.669951" lon="4.950982"><time>2026-05-10T01:44:36Z</time></trkpt>
<trkpt lat="50.665726" lon="4.949162"><time>2026-05-10T01:54:36Z</time></trkpt>
<trkpt lat="50.665035" lon="4.948772"><time>2026-05-10T02:04:36Z</time></trkpt>
<trkpt lat="50.663732" lon="4.948628"><time>2026-05-10T02:14:36Z</time></trkpt>
</trkseg>
</trk>
<trk>
<name>bojjc60</name>
<cmt>v</cmt>
<desc>Jauche Sentier n°60 </desc>
<link href="https://chemins.be/jauche/sentier/60"/><trkseg>
<trkpt lat="50.679777" lon="4.938320"><time>2026-05-10T00:54:36Z</time></trkpt>
<trkpt lat="50.679581" lon="4.938460"><time>2026-05-10T01:04:36Z</time></trkpt>
<trkpt lat="50.678044" lon="4.933301"><time>2026-05-10T01:14:36Z</time></trkpt>
<trkpt lat="50.676752" lon="4.928387"><time>2026-05-10T01:24:36Z</time></trkpt>
<trkpt lat="50.676154" lon="4.925265"><time>2026-05-10T01:34:36Z</time></trkpt>
</trkseg>
</trk>
<trk>
<name>bojjc62</name>
<cmt>s</cmt>
<desc>Jauche Sentier n°62 </desc>
<link href="https://chemins.be/jauche/sentier/62"/><trkseg>
<trkpt lat="50.686946" lon="4.952687"><time>2026-05-10T00:54:36Z</time></trkpt>
<trkpt lat="50.687968" lon="4.955545"><time>2026-05-10T01:04:36Z</time></trkpt>
<trkpt lat="50.688854" lon="4.958781"><time>2026-05-10T01:14:36Z</time></trkpt>
</trkseg></trk>
<trk>
<name>bojjc62</name>
<cmt>q</cmt>
<desc>Jauche Sentier n°62 </desc>
<link href="https://chemins.be/jauche/sentier/62"/><trkseg>
<trkpt lat="50.688854" lon="4.958781"><time>2026-05-10T01:14:36Z</time></trkpt>
<trkpt lat="50.690549" lon="4.962196"><time>2026-05-10T01:24:36Z</time></trkpt>
<trkpt lat="50.691767" lon="4.964084"><time>2026-05-10T01:34:36Z</time></trkpt>
<trkpt lat="50.692606" lon="4.965985"><time>2026-05-10T01:44:36Z</time></trkpt>
<trkpt lat="50.693469" lon="4.968034"><time>2026-05-10T01:54:36Z</time></trkpt>
</trkseg>
</trk>
<trk>
<name>bojjc63</name>
<cmt>v</cmt>
<desc>Jauche Sentier n°63 </desc>
<link href="https://chemins.be/jauche/sentier/63"/><trkseg>
<trkpt lat="50.679696" lon="4.937797"><time>2026-05-10T00:54:36Z</time></trkpt>
<trkpt lat="50.680268" lon="4.935586"><time>2026-05-10T01:04:36Z</time></trkpt>
<trkpt lat="50.680909" lon="4.934451"><time>2026-05-10T01:14:36Z</time></trkpt>
<trkpt lat="50.681446" lon="4.933090"><time>2026-05-10T01:24:36Z</time></trkpt>
<trkpt lat="50.681696" lon="4.932560"><time>2026-05-10T01:34:36Z</time></trkpt>
<trkpt lat="50.682097" lon="4.932283"><time>2026-05-10T01:44:36Z</time></trkpt>
</trkseg>
</trk>
<trk>
<name>bojjc64</name>
<cmt>v</cmt>
<desc>Jauche Chemin n°64 Rue de la Linière</desc>
<link href="https://chemins.be/jauche/chemin/64"/><trkseg>
<trkpt lat="50.683350" lon="4.925989"><time>2026-05-10T00:54:36Z</time></trkpt>
<trkpt lat="50.683047" lon="4.925780"><time>2026-05-10T01:04:36Z</time></trkpt>
<trkpt lat="50.682250" lon="4.925041"><time>2026-05-10T01:14:36Z</time></trkpt>
<trkpt lat="50.680226" lon="4.923546"><time>2026-05-10T01:24:36Z</time></trkpt>
<trkpt lat="50.679626" lon="4.922930"><time>2026-05-10T01:34:36Z</time></trkpt>
<trkpt lat="50.679296" lon="4.922460"><time>2026-05-10T01:44:36Z</time></trkpt>
<trkpt lat="50.678973" lon="4.921351"><time>2026-05-10T01:54:36Z</time></trkpt>
</trkseg>
</trk>
<trk>
<name>bojjc65</name>
<cmt>q</cmt>
<desc>Jauche Sentier n°65 </desc>
<link href="https://chemins.be/jauche/sentier/65"/><trkseg>
<trkpt lat="50.683468" lon="4.967880"><time>2026-05-10T00:54:36Z</time></trkpt>
<trkpt lat="50.684129" lon="4.969245"><time>2026-05-10T01:04:36Z</time></trkpt>
<trkpt lat="50.684126" lon="4.970683"><time>2026-05-10T01:14:36Z</time></trkpt>
</trkseg>
</trk>
<trk>
<name>bojjc66</name>
<cmt>v</cmt>
<desc>Jauche Chemin n°66 </desc>
<link href="https://chemins.be/jauche/chemin/66"/><trkseg>
<trkpt lat="50.661066" lon="4.952039"><time>2026-05-10T00:54:36Z</time></trkpt>
<trkpt lat="50.661362" lon="4.953911"><time>2026-05-10T01:04:36Z</time></trkpt>
</trkseg>
</trk>
<trk>
<name>bojjc67</name>
<cmt>v</cmt>
<desc>Jauche Chemin n°67 </desc>
<link href="https://chemins.be/jauche/chemin/67"/><trkseg>
<trkpt lat="50.694243" lon="4.964018"><time>2026-05-10T00:54:36Z</time></trkpt>
<trkpt lat="50.691782" lon="4.966866"><time>2026-05-10T01:04:36Z</time></trkpt>
<trkpt lat="50.690027" lon="4.968671"><time>2026-05-10T01:14:36Z</time></trkpt>
<trkpt lat="50.689172" lon="4.969468"><time>2026-05-10T01:24:36Z</time></trkpt>
<trkpt lat="50.688996" lon="4.970348"><time>2026-05-10T01:34:36Z</time></trkpt>
<trkpt lat="50.688466" lon="4.971013"><time>2026-05-10T01:44:36Z</time></trkpt>
<trkpt lat="50.687854" lon="4.970713"><time>2026-05-10T01:54:36Z</time></trkpt>
</trkseg>
</trk>
<trk>
<name>bojjc8</name>
<cmt>v</cmt>
<desc>Jauche Chemin n°8 Vieux Chemin de Jauche</desc>
<link href="https://chemins.be/jauche/chemin/8"/><trkseg>
<trkpt lat="50.673641" lon="4.928066"><time>2026-05-10T00:54:36Z</time></trkpt>
<trkpt lat="50.674576" lon="4.929903"><time>2026-05-10T01:04:36Z</time></trkpt>
<trkpt lat="50.675833" lon="4.932073"><time>2026-05-10T01:14:36Z</time></trkpt>
<trkpt lat="50.679506" lon="4.940065"><time>2026-05-10T01:24:36Z</time></trkpt>
<trkpt lat="50.679942" lon="4.941296"><time>2026-05-10T01:34:36Z</time></trkpt>
<trkpt lat="50.680010" lon="4.941283"><time>2026-05-10T01:44:36Z</time></trkpt>
<trkpt lat="50.680241" lon="4.941558"><time>2026-05-10T01:54:36Z</time></trkpt>
<trkpt lat="50.680981" lon="4.943397"><time>2026-05-10T02:04:36Z</time></trkpt>
<trkpt lat="50.681463" lon="4.943783"><time>2026-05-10T02:14:36Z</time></trkpt>
</trkseg>
</trk>
<trk>
<name>bojjci1</name>
<cmt>v</cmt>
<desc>Jauche Sentier n°i1 </desc>
<link href="https://chemins.be/jauche/sentier/i1"/><trkseg>
<trkpt lat="50.682292" lon="4.960347"><time>2026-05-10T00:54:36Z</time></trkpt>
<trkpt lat="50.682427" lon="4.960292"><time>2026-05-10T01:04:36Z</time></trkpt>
<trkpt lat="50.682564" lon="4.959926"><time>2026-05-10T01:14:36Z</time></trkpt>
<trkpt lat="50.682837" lon="4.959406"><time>2026-05-10T01:24:36Z</time></trkpt>
</trkseg>
</trk>
<trk>
<name>bojjci2</name>
<cmt>v</cmt>
<desc>Jauche Chemin n°i2 </desc>
<link href="https://chemins.be/jauche/chemin/i2"/><trkseg>
<trkpt lat="50.672163" lon="4.962730"><time>2026-05-10T00:54:36Z</time></trkpt>
<trkpt lat="50.671361" lon="4.962237"><time>2026-05-10T01:04:36Z</time></trkpt>
<trkpt lat="50.667607" lon="4.956787"><time>2026-05-10T01:14:36Z</time></trkpt>
</trkseg>
</trk>
<trk>
<name>bojjci3</name>
<cmt>v</cmt>
<desc>Jauche Chemin n°i3 </desc>
<link href="https://chemins.be/jauche/chemin/i3"/><trkseg>
<trkpt lat="50.684023" lon="4.943712"><time>2026-05-10T00:54:36Z</time></trkpt>
<trkpt lat="50.683931" lon="4.943146"><time>2026-05-10T01:04:36Z</time></trkpt>
<trkpt lat="50.684622" lon="4.940580"><time>2026-05-10T01:14:36Z</time></trkpt>
<trkpt lat="50.684899" lon="4.940614"><time>2026-05-10T01:24:36Z</time></trkpt>
<trkpt lat="50.684921" lon="4.940142"><time>2026-05-10T01:34:36Z</time></trkpt>
<trkpt lat="50.684611" lon="4.939601"><time>2026-05-10T01:44:36Z</time></trkpt>
<trkpt lat="50.684366" lon="4.938262"><time>2026-05-10T01:54:36Z</time></trkpt>
<trkpt lat="50.684480" lon="4.937661"><time>2026-05-10T02:04:36Z</time></trkpt>
<trkpt lat="50.684469" lon="4.937026"><time>2026-05-10T02:14:36Z</time></trkpt>
</trkseg>
</trk>
<trk>
<name>bojjci4</name>
<cmt>d</cmt>
<desc>Jauche Chemin n°i4 </desc>
<link href="https://chemins.be/jauche/chemin/i4"/><trkseg>
<trkpt lat="50.684866" lon="4.939490"><time>2026-05-10T00:54:36Z</time></trkpt>
<trkpt lat="50.684226" lon="4.937338"><time>2026-05-10T01:04:36Z</time></trkpt>
<trkpt lat="50.684023" lon="4.936657"><time>2026-05-10T01:14:36Z</time></trkpt>
<trkpt lat="50.683757" lon="4.935147"><time>2026-05-10T01:24:36Z</time></trkpt>
<trkpt lat="50.684469" lon="4.934486"><time>2026-05-10T01:34:36Z</time></trkpt>
<trkpt lat="50.684034" lon="4.932297"><time>2026-05-10T01:44:36Z</time></trkpt>
</trkseg>
</trk>
<trk>
<name>bojjci5</name>
<cmt>v</cmt>
<desc>Jauche Sentier n°i5 </desc>
<link href="https://chemins.be/jauche/sentier/i5"/><trkseg>
<trkpt lat="50.678280" lon="4.947197"><time>2026-05-10T00:54:36Z</time></trkpt>
<trkpt lat="50.678413" lon="4.946579"><time>2026-05-10T01:04:36Z</time></trkpt>
</trkseg>
</trk>
<trk>
<name>bojjci6</name>
<cmt>v</cmt>
<desc>Jauche Chemin n°i6 </desc>
<link href="https://chemins.be/jauche/chemin/i6"/><trkseg>
<trkpt lat="50.676615" lon="4.953800"><time>2026-05-10T00:54:36Z</time></trkpt>
<trkpt lat="50.677144" lon="4.955133"><time>2026-05-10T01:04:36Z</time></trkpt>
</trkseg>
</trk>
<trk>
<name>bojjci7</name>
<cmt>v</cmt>
<desc>Jauche Sentier n°i7 </desc>
<link href="https://chemins.be/jauche/sentier/i7"/><trkseg>
<trkpt lat="50.682020" lon="4.954228"><time>2026-05-10T00:54:36Z</time></trkpt>
<trkpt lat="50.682109" lon="4.954629"><time>2026-05-10T01:04:36Z</time></trkpt>
<trkpt lat="50.682063" lon="4.954836"><time>2026-05-10T01:14:36Z</time></trkpt>
<trkpt lat="50.681942" lon="4.954920"><time>2026-05-10T01:24:36Z</time></trkpt>
<trkpt lat="50.681738" lon="4.954880"><time>2026-05-10T01:34:36Z</time></trkpt>
</trkseg>
</trk>
<trk>
<name>bojjci8</name>
<cmt>v</cmt>
<desc>Jauche Chemin n°i8 </desc>
<link href="https://chemins.be/jauche/chemin/i8"/><trkseg>
<trkpt lat="50.685285" lon="4.936935"><time>2026-05-10T00:54:36Z</time></trkpt>
<trkpt lat="50.685503" lon="4.935619"><time>2026-05-10T01:04:36Z</time></trkpt>
<trkpt lat="50.684805" lon="4.934717"><time>2026-05-10T01:14:36Z</time></trkpt>
<trkpt lat="50.684343" lon="4.934689"><time>2026-05-10T01:24:36Z</time></trkpt>
<trkpt lat="50.683572" lon="4.934589"><time>2026-05-10T01:34:36Z</time></trkpt>
<trkpt lat="50.682920" lon="4.934131"><time>2026-05-10T01:44:36Z</time></trkpt>
<trkpt lat="50.682325" lon="4.932692"><time>2026-05-10T01:54:36Z</time></trkpt>
<trkpt lat="50.682257" lon="4.932696"><time>2026-05-10T02:04:36Z</time></trkpt>
<trkpt lat="50.682121" lon="4.932288"><time>2026-05-10T02:14:36Z</time></trkpt>
<trkpt lat="50.681742" lon="4.932542"><time>2026-05-10T02:24:36Z</time></trkpt>
</trkseg>
</trk>
<trk>
<name>bojjci9</name>
<cmt>v</cmt>
<desc>Jauche Sentier n°i9 </desc>
<link href="https://chemins.be/jauche/sentier/i9"/><trkseg>
<trkpt lat="50.683633" lon="4.953274"><time>2026-05-10T00:54:36Z</time></trkpt>
<trkpt lat="50.683955" lon="4.953653"><time>2026-05-10T01:04:36Z</time></trkpt>
</trkseg>
</trk>
<trk>
<name>bojjcL147</name>
<cmt>v</cmt>
<desc>Jauche Chemin n°L147 RAVel L147 / Rue de la Gare / Ravel L147</desc>
<link href="https://chemins.be/jauche/chemin/L147"/><trkseg>
<trkpt lat="50.669608" lon="4.932857"><time>2026-05-10T00:54:36Z</time></trkpt>
<trkpt lat="50.671197" lon="4.937190"><time>2026-05-10T01:04:36Z</time></trkpt>
<trkpt lat="50.672175" lon="4.939268"><time>2026-05-10T01:14:36Z</time></trkpt>
<trkpt lat="50.673925" lon="4.941728"><time>2026-05-10T01:24:36Z</time></trkpt>
<trkpt lat="50.676329" lon="4.944303"><time>2026-05-10T01:34:36Z</time></trkpt>
<trkpt lat="50.679294" lon="4.947506"><time>2026-05-10T01:44:36Z</time></trkpt>
<trkpt lat="50.680778" lon="4.949607"><time>2026-05-10T01:54:36Z</time></trkpt>
<trkpt lat="50.681474" lon="4.951087"><time>2026-05-10T02:04:36Z</time></trkpt>
<trkpt lat="50.682133" lon="4.952732"><time>2026-05-10T02:14:36Z</time></trkpt>
<trkpt lat="50.682345" lon="4.953977"><time>2026-05-10T02:24:36Z</time></trkpt>
<trkpt lat="50.682468" lon="4.955686"><time>2026-05-10T02:34:36Z</time></trkpt>
<trkpt lat="50.682676" lon="4.957811"><time>2026-05-10T02:44:36Z</time></trkpt>
</trkseg></trk>
<trk>
<name>bojjcL147</name>
<cmt>b</cmt>
<desc>Jauche Chemin n°L147 RAVel L147 / Rue de la Gare / Ravel L147</desc>
<link href="https://chemins.be/jauche/chemin/L147"/><trkseg>
<trkpt lat="50.682676" lon="4.957811"><time>2026-05-10T02:44:36Z</time></trkpt>
<trkpt lat="50.682838" lon="4.959460"><time>2026-05-10T02:54:36Z</time></trkpt>
</trkseg></trk>
<trk>
<name>bojjcL147</name>
<cmt>v</cmt>
<desc>Jauche Chemin n°L147 RAVel L147 / Rue de la Gare / Ravel L147</desc>
<link href="https://chemins.be/jauche/chemin/L147"/><trkseg>
<trkpt lat="50.682838" lon="4.959460"><time>2026-05-10T02:54:36Z</time></trkpt>
<trkpt lat="50.683401" lon="4.962023"><time>2026-05-10T03:04:36Z</time></trkpt>
<trkpt lat="50.684146" lon="4.965408"><time>2026-05-10T03:14:36Z</time></trkpt>
<trkpt lat="50.685297" lon="4.968861"><time>2026-05-10T03:24:36Z</time></trkpt>
</trkseg>
</trk>
<trk>
<name>bojjcp1</name>
<cmt>d</cmt>
<desc>Jauche Sentier particulier n°p1 </desc>
<link href="https://chemins.be/jauche/sentier/p1"/><trkseg>
<trkpt lat="50.685175" lon="4.962024"><time>2026-05-10T00:54:36Z</time></trkpt>
<trkpt lat="50.685156" lon="4.961712"><time>2026-05-10T01:04:36Z</time></trkpt>
<trkpt lat="50.685045" lon="4.960773"><time>2026-05-10T01:14:36Z</time></trkpt>
<trkpt lat="50.684926" lon="4.960349"><time>2026-05-10T01:24:36Z</time></trkpt>
</trkseg></trk>
<trk>
<name>bojjcp1</name>
<cmt>q</cmt>
<desc>Jauche Sentier particulier n°p1 </desc>
<link href="https://chemins.be/jauche/sentier/p1"/><trkseg>
<trkpt lat="50.684926" lon="4.960349"><time>2026-05-10T01:24:36Z</time></trkpt>
<trkpt lat="50.684705" lon="4.959623"><time>2026-05-10T01:34:36Z</time></trkpt>
</trkseg>
</trk>
<trk>
<name>bojjj1</name>
<cmt>v</cmt>
<desc>Jandrain-Jandrenouille Chemin n°1 </desc>
<link href="https://chemins.be/jandrainjandrenouille/chemin/1"/><trkseg>
<trkpt lat="50.656675" lon="4.990532"><time>2026-05-10T00:54:36Z</time></trkpt>
<trkpt lat="50.657004" lon="4.989517"><time>2026-05-10T01:04:36Z</time></trkpt>
<trkpt lat="50.658603" lon="4.986356"><time>2026-05-10T01:14:36Z</time></trkpt>
<trkpt lat="50.660698" lon="4.983003"><time>2026-05-10T01:24:36Z</time></trkpt>
<trkpt lat="50.660879" lon="4.982751"><time>2026-05-10T01:34:36Z</time></trkpt>
</trkseg></trk>
<trk>
<name>bojjj1</name>
<cmt>d</cmt>
<desc>Jandrain-Jandrenouille Chemin n°1 </desc>
<link href="https://chemins.be/jandrainjandrenouille/chemin/1"/><trkseg>
<trkpt lat="50.660879" lon="4.982751"><time>2026-05-10T01:34:36Z</time></trkpt>
<trkpt lat="50.662033" lon="4.980319"><time>2026-05-10T01:44:36Z</time></trkpt>
<trkpt lat="50.662794" lon="4.979296"><time>2026-05-10T01:54:36Z</time></trkpt>
<trkpt lat="50.663586" lon="4.977482"><time>2026-05-10T02:04:36Z</time></trkpt>
</trkseg></trk>
<trk>
<name>bojjj1</name>
<cmt>v</cmt>
<desc>Jandrain-Jandrenouille Chemin n°1 </desc>
<link href="https://chemins.be/jandrainjandrenouille/chemin/1"/><trkseg>
<trkpt lat="50.663586" lon="4.977482"><time>2026-05-10T02:04:36Z</time></trkpt>
<trkpt lat="50.664652" lon="4.976392"><time>2026-05-10T02:14:36Z</time></trkpt>
<trkpt lat="50.666694" lon="4.974382"><time>2026-05-10T02:24:36Z</time></trkpt>
<trkpt lat="50.667289" lon="4.974135"><time>2026-05-10T02:34:36Z</time></trkpt>
<trkpt lat="50.668112" lon="4.973141"><time>2026-05-10T02:44:36Z</time></trkpt>
<trkpt lat="50.669762" lon="4.971491"><time>2026-05-10T02:54:36Z</time></trkpt>
<trkpt lat="50.670790" lon="4.968792"><time>2026-05-10T03:04:36Z</time></trkpt>
<trkpt lat="50.671457" lon="4.967808"><time>2026-05-10T03:14:36Z</time></trkpt>
<trkpt lat="50.672735" lon="4.966896"><time>2026-05-10T03:24:36Z</time></trkpt>
<trkpt lat="50.673311" lon="4.966081"><time>2026-05-10T03:34:36Z</time></trkpt>
</trkseg>
</trk>
<trk>
<name>bojjj10</name>
<cmt>s</cmt>
<desc>Jandrain-Jandrenouille Chemin n°10 Rue du Pont Ferré</desc>
<link href="https://chemins.be/jandrainjandrenouille/chemin/10"/><trkseg>
<trkpt lat="50.673915" lon="4.997875"><time>2026-05-10T00:54:36Z</time></trkpt>
<trkpt lat="50.673690" lon="4.994519"><time>2026-05-10T01:04:36Z</time></trkpt>
<trkpt lat="50.673589" lon="4.991575"><time>2026-05-10T01:14:36Z</time></trkpt>
<trkpt lat="50.673039" lon="4.988526"><time>2026-05-10T01:24:36Z</time></trkpt>
<trkpt lat="50.672438" lon="4.986608"><time>2026-05-10T01:34:36Z</time></trkpt>
</trkseg></trk>
<trk>
<name>bojjj10</name>
<cmt>r</cmt>
<desc>Jandrain-Jandrenouille Chemin n°10 Rue du Pont Ferré</desc>
<link href="https://chemins.be/jandrainjandrenouille/chemin/10"/><trkseg>
<trkpt lat="50.672438" lon="4.986608"><time>2026-05-10T01:34:36Z</time></trkpt>
<trkpt lat="50.671105" lon="4.983938"><time>2026-05-10T01:44:36Z</time></trkpt>
<trkpt lat="50.670639" lon="4.981999"><time>2026-05-10T01:54:36Z</time></trkpt>
</trkseg></trk>
<trk>
<name>bojjj10</name>
<cmt>v</cmt>
<desc>Jandrain-Jandrenouille Chemin n°10 Rue du Pont Ferré</desc>
<link href="https://chemins.be/jandrainjandrenouille/chemin/10"/><trkseg>
<trkpt lat="50.670639" lon="4.981999"><time>2026-05-10T01:54:36Z</time></trkpt>
<trkpt lat="50.670107" lon="4.980296"><time>2026-05-10T02:04:36Z</time></trkpt>
<trkpt lat="50.669457" lon="4.978972"><time>2026-05-10T02:14:36Z</time></trkpt>
<trkpt lat="50.668269" lon="4.977528"><time>2026-05-10T02:24:36Z</time></trkpt>
<trkpt lat="50.667298" lon="4.975875"><time>2026-05-10T02:34:36Z</time></trkpt>
<trkpt lat="50.666721" lon="4.974368"><time>2026-05-10T02:44:36Z</time></trkpt>
<trkpt lat="50.665978" lon="4.972180"><time>2026-05-10T02:54:36Z</time></trkpt>
<trkpt lat="50.665213" lon="4.969175"><time>2026-05-10T03:04:36Z</time></trkpt>
</trkseg>
</trk>
<trk>
<name>bojjj11</name>
<cmt>v</cmt>
<desc>Jandrain-Jandrenouille Chemin n°11 </desc>
<link href="https://chemins.be/jandrainjandrenouille/chemin/11"/><trkseg>
<trkpt lat="50.668431" lon="4.994590"><time>2026-05-10T00:54:36Z</time></trkpt>
<trkpt lat="50.671841" lon="4.994070"><time>2026-05-10T01:04:36Z</time></trkpt>
<trkpt lat="50.674480" lon="4.994798"><time>2026-05-10T01:14:36Z</time></trkpt>
<trkpt lat="50.676920" lon="4.994166"><time>2026-05-10T01:24:36Z</time></trkpt>
<trkpt lat="50.678339" lon="4.994340"><time>2026-05-10T01:34:36Z</time></trkpt>
<trkpt lat="50.682297" lon="4.995709"><time>2026-05-10T01:44:36Z</time></trkpt>
<trkpt lat="50.683859" lon="4.996055"><time>2026-05-10T01:54:36Z</time></trkpt>
</trkseg>
</trk>
<trk>
<name>bojjj12</name>
<cmt>v</cmt>
<desc>Jandrain-Jandrenouille Chemin n°12 </desc>
<link href="https://chemins.be/jandrainjandrenouille/chemin/12"/><trkseg>
<trkpt lat="50.691714" lon="4.967043"><time>2026-05-10T00:54:36Z</time></trkpt>
<trkpt lat="50.690070" lon="4.968689"><time>2026-05-10T01:04:36Z</time></trkpt>
<trkpt lat="50.689213" lon="4.969554"><time>2026-05-10T01:14:36Z</time></trkpt>
<trkpt lat="50.689009" lon="4.970283"><time>2026-05-10T01:24:36Z</time></trkpt>
<trkpt lat="50.688535" lon="4.971043"><time>2026-05-10T01:34:36Z</time></trkpt>
<trkpt lat="50.688347" lon="4.971159"><time>2026-05-10T01:44:36Z</time></trkpt>
<trkpt lat="50.687759" lon="4.970670"><time>2026-05-10T01:54:36Z</time></trkpt>
<trkpt lat="50.687724" lon="4.970484"><time>2026-05-10T02:04:36Z</time></trkpt>
<trkpt lat="50.687517" lon="4.970993"><time>2026-05-10T02:14:36Z</time></trkpt>
<trkpt lat="50.687398" lon="4.971518"><time>2026-05-10T02:24:36Z</time></trkpt>
<trkpt lat="50.687188" lon="4.971730"><time>2026-05-10T02:34:36Z</time></trkpt>
<trkpt lat="50.686811" lon="4.971569"><time>2026-05-10T02:44:36Z</time></trkpt>
</trkseg></trk>
<trk>
<name>bojjj12</name>
<cmt>q</cmt>
<desc>Jandrain-Jandrenouille Chemin n°12 </desc>
<link href="https://chemins.be/jandrainjandrenouille/chemin/12"/><trkseg>
<trkpt lat="50.686811" lon="4.971569"><time>2026-05-10T02:44:36Z</time></trkpt>
<trkpt lat="50.686244" lon="4.971604"><time>2026-05-10T02:54:36Z</time></trkpt>
<trkpt lat="50.685693" lon="4.972206"><time>2026-05-10T03:04:36Z</time></trkpt>
<trkpt lat="50.684658" lon="4.972362"><time>2026-05-10T03:14:36Z</time></trkpt>
<trkpt lat="50.682418" lon="4.973318"><time>2026-05-10T03:24:36Z</time></trkpt>
</trkseg></trk>
<trk>
<name>bojjj12</name>
<cmt>d</cmt>
<desc>Jandrain-Jandrenouille Chemin n°12 </desc>
<link href="https://chemins.be/jandrainjandrenouille/chemin/12"/><trkseg>
<trkpt lat="50.682418" lon="4.973318"><time>2026-05-10T03:24:36Z</time></trkpt>
<trkpt lat="50.681514" lon="4.973750"><time>2026-05-10T03:34:36Z</time></trkpt>
<trkpt lat="50.680085" lon="4.974777"><time>2026-05-10T03:44:36Z</time></trkpt>
</trkseg>
</trk>
<trk>
<name>bojjj13</name>
<cmt>v</cmt>
<desc>Jandrain-Jandrenouille Chemin n°13 </desc>
<link href="https://chemins.be/jandrainjandrenouille/chemin/13"/><trkseg>
<trkpt lat="50.685811" lon="4.978841"><time>2026-05-10T00:54:36Z</time></trkpt>
<trkpt lat="50.682385" lon="4.973348"><time>2026-05-10T01:04:36Z</time></trkpt>
</trkseg></trk>
<trk>
<name>bojjj13</name>
<cmt>d</cmt>
<desc>Jandrain-Jandrenouille Chemin n°13 </desc>
<link href="https://chemins.be/jandrainjandrenouille/chemin/13"/><trkseg>
<trkpt lat="50.682385" lon="4.973348"><time>2026-05-10T01:04:36Z</time></trkpt>
<trkpt lat="50.682026" lon="4.973004"><time>2026-05-10T01:14:36Z</time></trkpt>
<trkpt lat="50.681047" lon="4.972558"><time>2026-05-10T01:24:36Z</time></trkpt>
</trkseg></trk>
<trk>
<name>bojjj13</name>
<cmt>v</cmt>
<desc>Jandrain-Jandrenouille Chemin n°13 </desc>
<link href="https://chemins.be/jandrainjandrenouille/chemin/13"/><trkseg>
<trkpt lat="50.681047" lon="4.972558"><time>2026-05-10T01:24:36Z</time></trkpt>
<trkpt lat="50.678696" lon="4.971497"><time>2026-05-10T01:34:36Z</time></trkpt>
<trkpt lat="50.676423" lon="4.971020"><time>2026-05-10T01:44:36Z</time></trkpt>
<trkpt lat="50.675360" lon="4.970810"><time>2026-05-10T01:54:36Z</time></trkpt>
<trkpt lat="50.673417" lon="4.971091"><time>2026-05-10T02:04:36Z</time></trkpt>
<trkpt lat="50.671559" lon="4.970010"><time>2026-05-10T02:14:36Z</time></trkpt>
<trkpt lat="50.670778" lon="4.968834"><time>2026-05-10T02:24:36Z</time></trkpt>
<trkpt lat="50.670314" lon="4.968421"><time>2026-05-10T02:34:36Z</time></trkpt>
<trkpt lat="50.666949" lon="4.965115"><time>2026-05-10T02:44:36Z</time></trkpt>
<trkpt lat="50.663469" lon="4.959909"><time>2026-05-10T02:54:36Z</time></trkpt>
<trkpt lat="50.662129" lon="4.958988"><time>2026-05-10T03:04:36Z</time></trkpt>
<trkpt lat="50.658201" lon="4.957120"><time>2026-05-10T03:14:36Z</time></trkpt>
<trkpt lat="50.655359" lon="4.954561"><time>2026-05-10T03:24:36Z</time></trkpt>
<trkpt lat="50.654713" lon="4.954026"><time>2026-05-10T03:34:36Z</time></trkpt>
<trkpt lat="50.652558" lon="4.951366"><time>2026-05-10T03:44:36Z</time></trkpt>
</trkseg>
</trk>
<trk>
<name>bojjj14</name>
<cmt>v</cmt>
<desc>Jandrain-Jandrenouille Chemin n°14 </desc>
<link href="https://chemins.be/jandrainjandrenouille/chemin/14"/><trkseg>
<trkpt lat="50.642245" lon="4.983364"><time>2026-05-10T00:54:36Z</time></trkpt>
<trkpt lat="50.644250" lon="4.985081"><time>2026-05-10T01:04:36Z</time></trkpt>
<trkpt lat="50.644815" lon="4.986575"><time>2026-05-10T01:14:36Z</time></trkpt>
<trkpt lat="50.645430" lon="4.988101"><time>2026-05-10T01:24:36Z</time></trkpt>
</trkseg>
</trk>
<trk>
<name>bojjj15</name>
<cmt>r</cmt>
<desc>Jandrain-Jandrenouille Chemin n°15 Rue du Pissaumont / Rue du Chêneau</desc>
<link href="https://chemins.be/jandrainjandrenouille/chemin/15"/><trkseg>
<trkpt lat="50.672984" lon="4.982003"><time>2026-05-10T00:54:36Z</time></trkpt>
<trkpt lat="50.673759" lon="4.981631"><time>2026-05-10T01:04:36Z</time></trkpt>
<trkpt lat="50.674101" lon="4.981494"><time>2026-05-10T01:14:36Z</time></trkpt>
<trkpt lat="50.674440" lon="4.982022"><time>2026-05-10T01:24:36Z</time></trkpt>
<trkpt lat="50.675746" lon="4.982624"><time>2026-05-10T01:34:36Z</time></trkpt>
<trkpt lat="50.678163" lon="4.983005"><time>2026-05-10T01:44:36Z</time></trkpt>
</trkseg></trk>
<trk>
<name>bojjj15</name>
<cmt>v</cmt>
<desc>Jandrain-Jandrenouille Chemin n°15 Rue du Pissaumont / Rue du Chêneau</desc>
<link href="https://chemins.be/jandrainjandrenouille/chemin/15"/><trkseg>
<trkpt lat="50.678163" lon="4.983005"><time>2026-05-10T01:44:36Z</time></trkpt>
<trkpt lat="50.680016" lon="4.985041"><time>2026-05-10T01:54:36Z</time></trkpt>
<trkpt lat="50.681280" lon="4.986822"><time>2026-05-10T02:04:36Z</time></trkpt>
<trkpt lat="50.682952" lon="4.990684"><time>2026-05-10T02:14:36Z</time></trkpt>
<trkpt lat="50.683830" lon="4.992943"><time>2026-05-10T02:24:36Z</time></trkpt>
<trkpt lat="50.684278" lon="4.993565"><time>2026-05-10T02:34:36Z</time></trkpt>
</trkseg>
</trk>
<trk>
<name>bojjj16</name>
<cmt>v</cmt>
<desc>Jandrain-Jandrenouille Chemin n°16 Rue de la Féculerie / Rue de Genville</desc>
<link href="https://chemins.be/jandrainjandrenouille/chemin/16"/><trkseg>
<trkpt lat="50.680714" lon="4.970062"><time>2026-05-10T00:54:36Z</time></trkpt>
<trkpt lat="50.680612" lon="4.972424"><time>2026-05-10T01:04:36Z</time></trkpt>
<trkpt lat="50.680052" lon="4.974751"><time>2026-05-10T01:14:36Z</time></trkpt>
<trkpt lat="50.678559" lon="4.976487"><time>2026-05-10T01:24:36Z</time></trkpt>
<trkpt lat="50.678302" lon="4.977516"><time>2026-05-10T01:34:36Z</time></trkpt>
<trkpt lat="50.679162" lon="4.979947"><time>2026-05-10T01:44:36Z</time></trkpt>
</trkseg></trk>
<trk>
<name>bojjj16</name>
<cmt>r</cmt>
<desc>Jandrain-Jandrenouille Chemin n°16 Rue de la Féculerie / Rue de Genville</desc>
<link href="https://chemins.be/jandrainjandrenouille/chemin/16"/><trkseg>
<trkpt lat="50.679162" lon="4.979947"><time>2026-05-10T01:44:36Z</time></trkpt>
<trkpt lat="50.680358" lon="4.979863"><time>2026-05-10T01:54:36Z</time></trkpt>
</trkseg></trk>
<trk>
<name>bojjj16</name>
<cmt>v</cmt>
<desc>Jandrain-Jandrenouille Chemin n°16 Rue de la Féculerie / Rue de Genville</desc>
<link href="https://chemins.be/jandrainjandrenouille/chemin/16"/><trkseg>
<trkpt lat="50.680358" lon="4.979863"><time>2026-05-10T01:54:36Z</time></trkpt>
<trkpt lat="50.680506" lon="4.980714"><time>2026-05-10T02:04:36Z</time></trkpt>
<trkpt lat="50.680573" lon="4.981762"><time>2026-05-10T02:14:36Z</time></trkpt>
<trkpt lat="50.680154" lon="4.982648"><time>2026-05-10T02:24:36Z</time></trkpt>
<trkpt lat="50.680169" lon="4.983271"><time>2026-05-10T02:34:36Z</time></trkpt>
<trkpt lat="50.679989" lon="4.984967"><time>2026-05-10T02:44:36Z</time></trkpt>
<trkpt lat="50.679036" lon="4.988534"><time>2026-05-10T02:54:36Z</time></trkpt>
<trkpt lat="50.678625" lon="4.991387"><time>2026-05-10T03:04:36Z</time></trkpt>
<trkpt lat="50.678501" lon="4.992729"><time>2026-05-10T03:14:36Z</time></trkpt>
<trkpt lat="50.678232" lon="4.994310"><time>2026-05-10T03:24:36Z</time></trkpt>
<trkpt lat="50.678257" lon="4.996320"><time>2026-05-10T03:34:36Z</time></trkpt>
<trkpt lat="50.677763" lon="4.997940"><time>2026-05-10T03:44:36Z</time></trkpt>
<trkpt lat="50.677712" lon="4.998973"><time>2026-05-10T03:54:36Z</time></trkpt>
</trkseg>
</trk>
<trk>
<name>bojjj17</name>
<cmt>v</cmt>
<desc>Jandrain-Jandrenouille Chemin n°17 </desc>
<link href="https://chemins.be/jandrainjandrenouille/chemin/17"/><trkseg>
<trkpt lat="50.672410" lon="4.986692"><time>2026-05-10T00:54:36Z</time></trkpt>
<trkpt lat="50.669622" lon="4.988636"><time>2026-05-10T01:04:36Z</time></trkpt>
<trkpt lat="50.667325" lon="4.989554"><time>2026-05-10T01:14:36Z</time></trkpt>
<trkpt lat="50.662628" lon="4.990256"><time>2026-05-10T01:24:36Z</time></trkpt>
<trkpt lat="50.660294" lon="4.991371"><time>2026-05-10T01:34:36Z</time></trkpt>
<trkpt lat="50.658949" lon="4.992833"><time>2026-05-10T01:44:36Z</time></trkpt>
</trkseg>
</trk>
<trk>
<name>bojjj19</name>
<cmt>v</cmt>
<desc>Jandrain-Jandrenouille Chemin n°19 </desc>
<link href="https://chemins.be/jandrainjandrenouille/chemin/19"/><trkseg>
<trkpt lat="50.676583" lon="4.985154"><time>2026-05-10T00:54:36Z</time></trkpt>
<trkpt lat="50.677725" lon="4.987289"><time>2026-05-10T01:04:36Z</time></trkpt>
<trkpt lat="50.678724" lon="4.990625"><time>2026-05-10T01:14:36Z</time></trkpt>
</trkseg>
</trk>
<trk>
<name>bojjj2</name>
<cmt>r</cmt>
<desc>Jandrain-Jandrenouille Chemin n°2 Rue du Poteau</desc>
<link href="https://chemins.be/jandrainjandrenouille/chemin/2"/><trkseg>
<trkpt lat="50.655970" lon="4.979406"><time>2026-05-10T00:54:36Z</time></trkpt>
<trkpt lat="50.655436" lon="4.980007"><time>2026-05-10T01:04:36Z</time></trkpt>
</trkseg></trk>
<trk>
<name>bojjj2</name>
<cmt>v</cmt>
<desc>Jandrain-Jandrenouille Chemin n°2 Rue du Poteau</desc>
<link href="https://chemins.be/jandrainjandrenouille/chemin/2"/><trkseg>
<trkpt lat="50.655436" lon="4.980007"><time>2026-05-10T01:04:36Z</time></trkpt>
<trkpt lat="50.653676" lon="4.980741"><time>2026-05-10T01:14:36Z</time></trkpt>
<trkpt lat="50.653272" lon="4.980910"><time>2026-05-10T01:24:36Z</time></trkpt>
<trkpt lat="50.652958" lon="4.981163"><time>2026-05-10T01:34:36Z</time></trkpt>
<trkpt lat="50.651575" lon="4.982545"><time>2026-05-10T01:44:36Z</time></trkpt>
<trkpt lat="50.648398" lon="4.986576"><time>2026-05-10T01:54:36Z</time></trkpt>
<trkpt lat="50.647386" lon="4.987129"><time>2026-05-10T02:04:36Z</time></trkpt>
<trkpt lat="50.645456" lon="4.988114"><time>2026-05-10T02:14:36Z</time></trkpt>
</trkseg>
</trk>
<trk>
<name>bojjj20</name>
<cmt>v</cmt>
<desc>Jandrain-Jandrenouille Chemin n°20 </desc>
<link href="https://chemins.be/jandrainjandrenouille/chemin/20"/><trkseg>
<trkpt lat="50.686856" lon="4.971527"><time>2026-05-10T00:54:36Z</time></trkpt>
<trkpt lat="50.686447" lon="4.970602"><time>2026-05-10T01:04:36Z</time></trkpt>
<trkpt lat="50.685920" lon="4.969973"><time>2026-05-10T01:14:36Z</time></trkpt>
<trkpt lat="50.685551" lon="4.970138"><time>2026-05-10T01:24:36Z</time></trkpt>
<trkpt lat="50.685201" lon="4.969978"><time>2026-05-10T01:34:36Z</time></trkpt>
<trkpt lat="50.682143" lon="4.972033"><time>2026-05-10T01:44:36Z</time></trkpt>
<trkpt lat="50.681602" lon="4.972267"><time>2026-05-10T01:54:36Z</time></trkpt>
<trkpt lat="50.681027" lon="4.972513"><time>2026-05-10T02:04:36Z</time></trkpt>
</trkseg></trk>
<trk>
<name>bojjj20</name>
<cmt>q</cmt>
<desc>Jandrain-Jandrenouille Chemin n°20 </desc>
<link href="https://chemins.be/jandrainjandrenouille/chemin/20"/><trkseg>
<trkpt lat="50.681027" lon="4.972513"><time>2026-05-10T02:04:36Z</time></trkpt>
<trkpt lat="50.680448" lon="4.972947"><time>2026-05-10T02:14:36Z</time></trkpt>
<trkpt lat="50.677088" lon="4.973595"><time>2026-05-10T02:24:36Z</time></trkpt>
<trkpt lat="50.675904" lon="4.972794"><time>2026-05-10T02:34:36Z</time></trkpt>
<trkpt lat="50.673933" lon="4.973932"><time>2026-05-10T02:44:36Z</time></trkpt>
</trkseg>
</trk>
<trk>
<name>bojjj21</name>
<cmt>q</cmt>
<desc>Jandrain-Jandrenouille Chemin n°21 </desc>
<link href="https://chemins.be/jandrainjandrenouille/chemin/21"/><trkseg>
<trkpt lat="50.669635" lon="4.975649"><time>2026-05-10T00:54:36Z</time></trkpt>
<trkpt lat="50.671026" lon="4.969107"><time>2026-05-10T01:04:36Z</time></trkpt>
</trkseg></trk>
<trk>
<name>bojjj21</name>
<cmt>r</cmt>
<desc>Jandrain-Jandrenouille Chemin n°21 </desc>
<link href="https://chemins.be/jandrainjandrenouille/chemin/21"/><trkseg>
<trkpt lat="50.671026" lon="4.969107"><time>2026-05-10T01:04:36Z</time></trkpt>
<trkpt lat="50.670796" lon="4.968840"><time>2026-05-10T01:14:36Z</time></trkpt>
</trkseg></trk>
<trk>
<name>bojjj21</name>
<cmt>d</cmt>
<desc>Jandrain-Jandrenouille Chemin n°21 </desc>
<link href="https://chemins.be/jandrainjandrenouille/chemin/21"/><trkseg>
<trkpt lat="50.670796" lon="4.968840"><time>2026-05-10T01:14:36Z</time></trkpt>
<trkpt lat="50.671382" lon="4.967915"><time>2026-05-10T01:24:36Z</time></trkpt>
</trkseg></trk>
<trk>
<name>bojjj21</name>
<cmt>q</cmt>
<desc>Jandrain-Jandrenouille Chemin n°21 </desc>
<link href="https://chemins.be/jandrainjandrenouille/chemin/21"/><trkseg>
<trkpt lat="50.671382" lon="4.967915"><time>2026-05-10T01:24:36Z</time></trkpt>
<trkpt lat="50.671652" lon="4.966467"><time>2026-05-10T01:34:36Z</time></trkpt>
<trkpt lat="50.671816" lon="4.964536"><time>2026-05-10T01:44:36Z</time></trkpt>
</trkseg>
</trk>
<trk>
<name>bojjj22</name>
<cmt>d</cmt>
<desc>Jandrain-Jandrenouille Chemin n°22 </desc>
<link href="https://chemins.be/jandrainjandrenouille/chemin/22"/><trkseg>
<trkpt lat="50.677504" lon="4.976727"><time>2026-05-10T00:54:36Z</time></trkpt>
<trkpt lat="50.676425" lon="4.975780"><time>2026-05-10T01:04:36Z</time></trkpt>
<trkpt lat="50.676304" lon="4.975374"><time>2026-05-10T01:14:36Z</time></trkpt>
<trkpt lat="50.676048" lon="4.974467"><time>2026-05-10T01:24:36Z</time></trkpt>
<trkpt lat="50.675891" lon="4.972817"><time>2026-05-10T01:34:36Z</time></trkpt>
<trkpt lat="50.675021" lon="4.972483"><time>2026-05-10T01:44:36Z</time></trkpt>
<trkpt lat="50.673733" lon="4.970938"><time>2026-05-10T01:54:36Z</time></trkpt>
</trkseg>
</trk>
<trk>
<name>bojjj23</name>
<cmt>r</cmt>
<desc>Jandrain-Jandrenouille Sentier n°23 Rue de Genville</desc>
<link href="https://chemins.be/jandrainjandrenouille/sentier/23"/><trkseg>
<trkpt lat="50.674703" lon="4.979383"><time>2026-05-10T00:54:36Z</time></trkpt>
<trkpt lat="50.675282" lon="4.979962"><time>2026-05-10T01:04:36Z</time></trkpt>
<trkpt lat="50.675727" lon="4.980030"><time>2026-05-10T01:14:36Z</time></trkpt>
<trkpt lat="50.676833" lon="4.979973"><time>2026-05-10T01:24:36Z</time></trkpt>
</trkseg>
</trk>
<trk>
<name>bojjj24</name>
<cmt>q</cmt>
<desc>Jandrain-Jandrenouille Sentier n°24 </desc>
<link href="https://chemins.be/jandrainjandrenouille/sentier/24"/><trkseg>
<trkpt lat="50.677579" lon="4.979983"><time>2026-05-10T00:54:36Z</time></trkpt>
<trkpt lat="50.677623" lon="4.976814"><time>2026-05-10T01:04:36Z</time></trkpt>
</trkseg>
</trk>
<trk>
<name>bojjj25</name>
<cmt>d</cmt>
<desc>Jandrain-Jandrenouille Sentier n°25 Rue de Branchon</desc>
<link href="https://chemins.be/jandrainjandrenouille/sentier/25"/><trkseg>
<trkpt lat="50.654748" lon="4.972875"><time>2026-05-10T00:54:36Z</time></trkpt>
<trkpt lat="50.655531" lon="4.972387"><time>2026-05-10T01:04:36Z</time></trkpt>
</trkseg></trk>
<trk>
<name>bojjj25</name>
<cmt>q</cmt>
<desc>Jandrain-Jandrenouille Sentier n°25 Rue de Branchon</desc>
<link href="https://chemins.be/jandrainjandrenouille/sentier/25"/><trkseg>
<trkpt lat="50.655531" lon="4.972387"><time>2026-05-10T01:04:36Z</time></trkpt>
<trkpt lat="50.657025" lon="4.973607"><time>2026-05-10T01:14:36Z</time></trkpt>
<trkpt lat="50.659617" lon="4.974757"><time>2026-05-10T01:24:36Z</time></trkpt>
<trkpt lat="50.664091" lon="4.977021"><time>2026-05-10T01:34:36Z</time></trkpt>
</trkseg></trk>
<trk>
<name>bojjj25</name>
<cmt>r</cmt>
<desc>Jandrain-Jandrenouille Sentier n°25 Rue de Branchon</desc>
<link href="https://chemins.be/jandrainjandrenouille/sentier/25"/><trkseg>
<trkpt lat="50.664091" lon="4.977021"><time>2026-05-10T01:34:36Z</time></trkpt>
<trkpt lat="50.665430" lon="4.977180"><time>2026-05-10T01:44:36Z</time></trkpt>
<trkpt lat="50.668431" lon="4.977502"><time>2026-05-10T01:54:36Z</time></trkpt>
</trkseg></trk>
<trk>
<name>bojjj25</name>
<cmt>v</cmt>
<desc>Jandrain-Jandrenouille Sentier n°25 Rue de Branchon</desc>
<link href="https://chemins.be/jandrainjandrenouille/sentier/25"/><trkseg>
<trkpt lat="50.668431" lon="4.977502"><time>2026-05-10T01:54:36Z</time></trkpt>
<trkpt lat="50.669484" lon="4.978958"><time>2026-05-10T02:04:36Z</time></trkpt>
</trkseg></trk>
<trk>
<name>bojjj25</name>
<cmt>d</cmt>
<desc>Jandrain-Jandrenouille Sentier n°25 Rue de Branchon</desc>
<link href="https://chemins.be/jandrainjandrenouille/sentier/25"/><trkseg>
<trkpt lat="50.669484" lon="4.978958"><time>2026-05-10T02:04:36Z</time></trkpt>
<trkpt lat="50.669994" lon="4.977847"><time>2026-05-10T02:14:36Z</time></trkpt>
<trkpt lat="50.670420" lon="4.977174"><time>2026-05-10T02:24:36Z</time></trkpt>
</trkseg>
</trk>
<trk>
<name>bojjj25bis</name>
<cmt>v</cmt>
<desc>Jandrain-Jandrenouille Sentier n°25bis </desc>
<link href="https://chemins.be/jandrainjandrenouille/sentier/25bis"/><trkseg>
<trkpt lat="50.655787" lon="4.974835"><time>2026-05-10T00:54:36Z</time></trkpt>
<trkpt lat="50.657061" lon="4.973621"><time>2026-05-10T01:04:36Z</time></trkpt>
</trkseg>
</trk>
<trk>
<name>bojjj25ter</name>
<cmt>q</cmt>
<desc>Jandrain-Jandrenouille Sentier n°25ter </desc>
<link href="https://chemins.be/jandrainjandrenouille/sentier/25ter"/><trkseg>
<trkpt lat="50.655534" lon="4.972426"><time>2026-05-10T00:54:36Z</time></trkpt>
<trkpt lat="50.656185" lon="4.974416"><time>2026-05-10T01:04:36Z</time></trkpt>
</trkseg>
</trk>
<trk>
<name>bojjj26</name>
<cmt>v</cmt>
<desc>Jandrain-Jandrenouille Sentier n°26 Rue des Tanneurs</desc>
<link href="https://chemins.be/jandrainjandrenouille/sentier/26"/><trkseg>
<trkpt lat="50.673685" lon="4.980300"><time>2026-05-10T00:54:36Z</time></trkpt>
<trkpt lat="50.672936" lon="4.980715"><time>2026-05-10T01:04:36Z</time></trkpt>
</trkseg></trk>
<trk>
<name>bojjj26</name>
<cmt>r</cmt>
<desc>Jandrain-Jandrenouille Sentier n°26 Rue des Tanneurs</desc>
<link href="https://chemins.be/jandrainjandrenouille/sentier/26"/><trkseg>
<trkpt lat="50.672936" lon="4.980715"><time>2026-05-10T01:04:36Z</time></trkpt>
<trkpt lat="50.672833" lon="4.979935"><time>2026-05-10T01:14:36Z</time></trkpt>
</trkseg></trk>
<trk>
<name>bojjj26</name>
<cmt>q</cmt>
<desc>Jandrain-Jandrenouille Sentier n°26 Rue des Tanneurs</desc>
<link href="https://chemins.be/jandrainjandrenouille/sentier/26"/><trkseg>
<trkpt lat="50.672833" lon="4.979935"><time>2026-05-10T01:14:36Z</time></trkpt>
<trkpt lat="50.672598" lon="4.980102"><time>2026-05-10T01:24:36Z</time></trkpt>
<trkpt lat="50.671125" lon="4.981639"><time>2026-05-10T01:34:36Z</time></trkpt>
<trkpt lat="50.670868" lon="4.982598"><time>2026-05-10T01:44:36Z</time></trkpt>
<trkpt lat="50.670798" lon="4.982257"><time>2026-05-10T01:54:36Z</time></trkpt>
</trkseg></trk>
<trk>
<name>bojjj26</name>
<cmt>v</cmt>
<desc>Jandrain-Jandrenouille Sentier n°26 Rue des Tanneurs</desc>
<link href="https://chemins.be/jandrainjandrenouille/sentier/26"/><trkseg>
<trkpt lat="50.670798" lon="4.982257"><time>2026-05-10T01:54:36Z</time></trkpt>
<trkpt lat="50.670030" lon="4.982884"><time>2026-05-10T02:04:36Z</time></trkpt>
<trkpt lat="50.669096" lon="4.982815"><time>2026-05-10T02:14:36Z</time></trkpt>
<trkpt lat="50.668699" lon="4.983008"><time>2026-05-10T02:24:36Z</time></trkpt>
<trkpt lat="50.664095" lon="4.983872"><time>2026-05-10T02:34:36Z</time></trkpt>
<trkpt lat="50.662799" lon="4.983643"><time>2026-05-10T02:44:36Z</time></trkpt>
<trkpt lat="50.660897" lon="4.982709"><time>2026-05-10T02:54:36Z</time></trkpt>
</trkseg>
</trk>
<trk>
<name>bojjj27</name>
<cmt>v</cmt>
<desc>Jandrain-Jandrenouille Sentier n°27 </desc>
<link href="https://chemins.be/jandrainjandrenouille/sentier/27"/><trkseg>
<trkpt lat="50.671139" lon="4.984044"><time>2026-05-10T00:54:36Z</time></trkpt>
<trkpt lat="50.668657" lon="4.985809"><time>2026-05-10T01:04:36Z</time></trkpt>
<trkpt lat="50.666211" lon="4.985989"><time>2026-05-10T01:14:36Z</time></trkpt>
<trkpt lat="50.663771" lon="4.986721"><time>2026-05-10T01:24:36Z</time></trkpt>
</trkseg>
</trk>
<trk>
<name>bojjj28</name>
<cmt>q</cmt>
<desc>Jandrain-Jandrenouille Sentier n°28 </desc>
<link href="https://chemins.be/jandrainjandrenouille/sentier/28"/><trkseg>
<trkpt lat="50.671210" lon="4.984187"><time>2026-05-10T00:54:36Z</time></trkpt>
<trkpt lat="50.670130" lon="4.986068"><time>2026-05-10T01:04:36Z</time></trkpt>
<trkpt lat="50.667244" lon="4.989525"><time>2026-05-10T01:14:36Z</time></trkpt>
</trkseg>
</trk>
<trk>
<name>bojjj29</name>
<cmt>v</cmt>
<desc>Jandrain-Jandrenouille Sentier n°29 Ruelle Monceau / Rue de Genville</desc>
<link href="https://chemins.be/jandrainjandrenouille/sentier/29"/><trkseg>
<trkpt lat="50.675499" lon="4.982347"><time>2026-05-10T00:54:36Z</time></trkpt>
<trkpt lat="50.675595" lon="4.981516"><time>2026-05-10T01:04:36Z</time></trkpt>
<trkpt lat="50.675291" lon="4.979973"><time>2026-05-10T01:14:36Z</time></trkpt>
</trkseg></trk>
<trk>
<name>bojjj29</name>
<cmt>r</cmt>
<desc>Jandrain-Jandrenouille Sentier n°29 Ruelle Monceau / Rue de Genville</desc>
<link href="https://chemins.be/jandrainjandrenouille/sentier/29"/><trkseg>
<trkpt lat="50.675291" lon="4.979973"><time>2026-05-10T01:14:36Z</time></trkpt>
<trkpt lat="50.675736" lon="4.980030"><time>2026-05-10T01:24:36Z</time></trkpt>
</trkseg></trk>
<trk>
<name>bojjj29</name>
<cmt>q</cmt>
<desc>Jandrain-Jandrenouille Sentier n°29 Ruelle Monceau / Rue de Genville</desc>
<link href="https://chemins.be/jandrainjandrenouille/sentier/29"/><trkseg>
<trkpt lat="50.675736" lon="4.980030"><time>2026-05-10T01:24:36Z</time></trkpt>
<trkpt lat="50.675321" lon="4.978652"><time>2026-05-10T01:34:36Z</time></trkpt>
<trkpt lat="50.675435" lon="4.977479"><time>2026-05-10T01:44:36Z</time></trkpt>
</trkseg>
</trk>
<trk>
<name>bojjj30</name>
<cmt>d</cmt>
<desc>Jandrain-Jandrenouille Sentier n°30 Rue du Vert Galant</desc>
<link href="https://chemins.be/jandrainjandrenouille/sentier/30"/><trkseg>
<trkpt lat="50.655472" lon="4.979951"><time>2026-05-10T00:54:36Z</time></trkpt>
<trkpt lat="50.655749" lon="4.980393"><time>2026-05-10T01:04:36Z</time></trkpt>
</trkseg></trk>
<trk>
<name>bojjj30</name>
<cmt>r</cmt>
<desc>Jandrain-Jandrenouille Sentier n°30 Rue du Vert Galant</desc>
<link href="https://chemins.be/jandrainjandrenouille/sentier/30"/><trkseg>
<trkpt lat="50.655749" lon="4.980393"><time>2026-05-10T01:04:36Z</time></trkpt>
<trkpt lat="50.655511" lon="4.981139"><time>2026-05-10T01:14:36Z</time></trkpt>
</trkseg></trk>
<trk>
<name>bojjj30</name>
<cmt>q</cmt>
<desc>Jandrain-Jandrenouille Sentier n°30 Rue du Vert Galant</desc>
<link href="https://chemins.be/jandrainjandrenouille/sentier/30"/><trkseg>
<trkpt lat="50.655511" lon="4.981139"><time>2026-05-10T01:14:36Z</time></trkpt>
<trkpt lat="50.655819" lon="4.982515"><time>2026-05-10T01:24:36Z</time></trkpt>
<trkpt lat="50.656997" lon="4.985698"><time>2026-05-10T01:34:36Z</time></trkpt>
<trkpt lat="50.656864" lon="4.987224"><time>2026-05-10T01:44:36Z</time></trkpt>
<trkpt lat="50.656859" lon="4.989855"><time>2026-05-10T01:54:36Z</time></trkpt>
</trkseg>
</trk>
<trk>
<name>bojjj31</name>
<cmt>q</cmt>
<desc>Jandrain-Jandrenouille Chemin n°31 </desc>
<link href="https://chemins.be/jandrainjandrenouille/chemin/31"/><trkseg>
<trkpt lat="50.687524" lon="4.971009"><time>2026-05-10T00:54:36Z</time></trkpt>
<trkpt lat="50.688272" lon="4.973298"><time>2026-05-10T01:04:36Z</time></trkpt>
<trkpt lat="50.688620" lon="4.974148"><time>2026-05-10T01:14:36Z</time></trkpt>
</trkseg>
</trk>
<trk>
<name>bojjj32</name>
<cmt>d</cmt>
<desc>Jandrain-Jandrenouille Sentier n°32 </desc>
<link href="https://chemins.be/jandrainjandrenouille/sentier/32"/><trkseg>
<trkpt lat="50.654709" lon="4.954066"><time>2026-05-10T00:54:36Z</time></trkpt>
<trkpt lat="50.652639" lon="4.956532"><time>2026-05-10T01:04:36Z</time></trkpt>
<trkpt lat="50.650915" lon="4.960029"><time>2026-05-10T01:14:36Z</time></trkpt>
<trkpt lat="50.650041" lon="4.961618"><time>2026-05-10T01:24:36Z</time></trkpt>
</trkseg></trk>
<trk>
<name>bojjj32</name>
<cmt>q</cmt>
<desc>Jandrain-Jandrenouille Sentier n°32 </desc>
<link href="https://chemins.be/jandrainjandrenouille/sentier/32"/><trkseg>
<trkpt lat="50.650041" lon="4.961618"><time>2026-05-10T01:24:36Z</time></trkpt>
<trkpt lat="50.648446" lon="4.965321"><time>2026-05-10T01:34:36Z</time></trkpt>
</trkseg>
</trk>
<trk>
<name>bojjj33</name>
<cmt>v</cmt>
<desc>Jandrain-Jandrenouille Chemin n°33 </desc>
<link href="https://chemins.be/jandrainjandrenouille/chemin/33"/><trkseg>
<trkpt lat="50.653352" lon="4.965909"><time>2026-05-10T00:54:36Z</time></trkpt>
<trkpt lat="50.650920" lon="4.960005"><time>2026-05-10T01:04:36Z</time></trkpt>
<trkpt lat="50.647862" lon="4.953528"><time>2026-05-10T01:14:36Z</time></trkpt>
</trkseg>
</trk>
<trk>
<name>bojjj35</name>
<cmt>q</cmt>
<desc>Jandrain-Jandrenouille Sentier n°35 Rue de Paris</desc>
<link href="https://chemins.be/jandrainjandrenouille/sentier/35"/><trkseg>
<trkpt lat="50.653261" lon="4.965936"><time>2026-05-10T00:54:36Z</time></trkpt>
<trkpt lat="50.652722" lon="4.971176"><time>2026-05-10T01:04:36Z</time></trkpt>
<trkpt lat="50.652627" lon="4.973861"><time>2026-05-10T01:14:36Z</time></trkpt>
<trkpt lat="50.652409" lon="4.974396"><time>2026-05-10T01:24:36Z</time></trkpt>
</trkseg></trk>
<trk>
<name>bojjj35</name>
<cmt>v</cmt>
<desc>Jandrain-Jandrenouille Sentier n°35 Rue de Paris</desc>
<link href="https://chemins.be/jandrainjandrenouille/sentier/35"/><trkseg>
<trkpt lat="50.652409" lon="4.974396"><time>2026-05-10T01:24:36Z</time></trkpt>
<trkpt lat="50.652127" lon="4.974986"><time>2026-05-10T01:34:36Z</time></trkpt>
</trkseg></trk>
<trk>
<name>bojjj35</name>
<cmt>q</cmt>
<desc>Jandrain-Jandrenouille Sentier n°35 Rue de Paris</desc>
<link href="https://chemins.be/jandrainjandrenouille/sentier/35"/><trkseg>
<trkpt lat="50.652127" lon="4.974986"><time>2026-05-10T01:34:36Z</time></trkpt>
<trkpt lat="50.652580" lon="4.977792"><time>2026-05-10T01:44:36Z</time></trkpt>
<trkpt lat="50.652732" lon="4.977964"><time>2026-05-10T01:54:36Z</time></trkpt>
</trkseg></trk>
<trk>
<name>bojjj35</name>
<cmt>r</cmt>
<desc>Jandrain-Jandrenouille Sentier n°35 Rue de Paris</desc>
<link href="https://chemins.be/jandrainjandrenouille/sentier/35"/><trkseg>
<trkpt lat="50.652732" lon="4.977964"><time>2026-05-10T01:54:36Z</time></trkpt>
<trkpt lat="50.652834" lon="4.977258"><time>2026-05-10T02:04:36Z</time></trkpt>
<trkpt lat="50.653054" lon="4.976610"><time>2026-05-10T02:14:36Z</time></trkpt>
</trkseg></trk>
<trk>
<name>bojjj35</name>
<cmt>v</cmt>
<desc>Jandrain-Jandrenouille Sentier n°35 Rue de Paris</desc>
<link href="https://chemins.be/jandrainjandrenouille/sentier/35"/><trkseg>
<trkpt lat="50.653054" lon="4.976610"><time>2026-05-10T02:14:36Z</time></trkpt>
<trkpt lat="50.654446" lon="4.978608"><time>2026-05-10T02:24:36Z</time></trkpt>
</trkseg>
</trk>
<trk>
<name>bojjj36</name>
<cmt>q</cmt>
<desc>Jandrain-Jandrenouille Sentier n°36 </desc>
<link href="https://chemins.be/jandrainjandrenouille/sentier/36"/><trkseg>
<trkpt lat="50.650906" lon="4.972948"><time>2026-05-10T00:54:36Z</time></trkpt>
<trkpt lat="50.651679" lon="4.972888"><time>2026-05-10T01:04:36Z</time></trkpt>
<trkpt lat="50.654591" lon="4.973038"><time>2026-05-10T01:14:36Z</time></trkpt>
</trkseg>
</trk>
<trk>
<name>bojjj37</name>
<cmt>v</cmt>
<desc>Jandrain-Jandrenouille Chemin n°37 </desc>
<link href="https://chemins.be/jandrainjandrenouille/chemin/37"/><trkseg>
<trkpt lat="50.651820" lon="4.973526"><time>2026-05-10T00:54:36Z</time></trkpt>
<trkpt lat="50.651593" lon="4.972194"><time>2026-05-10T01:04:36Z</time></trkpt>
<trkpt lat="50.650573" lon="4.969565"><time>2026-05-10T01:14:36Z</time></trkpt>
<trkpt lat="50.648696" lon="4.965723"><time>2026-05-10T01:24:36Z</time></trkpt>
</trkseg>
</trk>
<trk>
<name>bojjj38</name>
<cmt>q</cmt>
<desc>Jandrain-Jandrenouille Sentier n°38 </desc>
<link href="https://chemins.be/jandrainjandrenouille/sentier/38"/><trkseg>
<trkpt lat="50.652109" lon="4.975043"><time>2026-05-10T00:54:36Z</time></trkpt>
<trkpt lat="50.651754" lon="4.975773"><time>2026-05-10T01:04:36Z</time></trkpt>
<trkpt lat="50.647463" lon="4.976383"><time>2026-05-10T01:14:36Z</time></trkpt>
<trkpt lat="50.647263" lon="4.976720"><time>2026-05-10T01:24:36Z</time></trkpt>
</trkseg>
</trk>
<trk>
<name>bojjj39</name>
<cmt>q</cmt>
<desc>Jandrain-Jandrenouille Sentier n°39 </desc>
<link href="https://chemins.be/jandrainjandrenouille/sentier/39"/><trkseg>
<trkpt lat="50.658245" lon="4.979280"><time>2026-05-10T00:54:36Z</time></trkpt>
<trkpt lat="50.657626" lon="4.980672"><time>2026-05-10T01:04:36Z</time></trkpt>
<trkpt lat="50.657113" lon="4.980863"><time>2026-05-10T01:14:36Z</time></trkpt>
<trkpt lat="50.655819" lon="4.982501"><time>2026-05-10T01:24:36Z</time></trkpt>
<trkpt lat="50.654955" lon="4.982603"><time>2026-05-10T01:34:36Z</time></trkpt>
<trkpt lat="50.651362" lon="4.983673"><time>2026-05-10T01:44:36Z</time></trkpt>
</trkseg>
</trk>
<trk>
<name>bojjj40</name>
<cmt>v</cmt>
<desc>Jandrain-Jandrenouille Sentier n°40 </desc>
<link href="https://chemins.be/jandrainjandrenouille/sentier/40"/><trkseg>
<trkpt lat="50.655466" lon="4.981252"><time>2026-05-10T00:54:36Z</time></trkpt>
<trkpt lat="50.654964" lon="4.982575"><time>2026-05-10T01:04:36Z</time></trkpt>
<trkpt lat="50.653865" lon="4.984724"><time>2026-05-10T01:14:36Z</time></trkpt>
</trkseg></trk>
<trk>
<name>bojjj40</name>
<cmt>d</cmt>
<desc>Jandrain-Jandrenouille Sentier n°40 </desc>
<link href="https://chemins.be/jandrainjandrenouille/sentier/40"/><trkseg>
<trkpt lat="50.653865" lon="4.984724"><time>2026-05-10T01:14:36Z</time></trkpt>
<trkpt lat="50.653660" lon="4.986079"><time>2026-05-10T01:24:36Z</time></trkpt>
<trkpt lat="50.652728" lon="4.988592"><time>2026-05-10T01:34:36Z</time></trkpt>
</trkseg>
</trk>
<trk>
<name>bojjj42</name>
<cmt>v</cmt>
<desc>Jandrain-Jandrenouille Sentier n°42 Ruelle Basse</desc>
<link href="https://chemins.be/jandrainjandrenouille/sentier/42"/><trkseg>
<trkpt lat="50.656275" lon="4.976100"><time>2026-05-10T00:54:36Z</time></trkpt>
<trkpt lat="50.655027" lon="4.977527"><time>2026-05-10T01:04:36Z</time></trkpt>
<trkpt lat="50.654499" lon="4.978665"><time>2026-05-10T01:14:36Z</time></trkpt>
</trkseg></trk>
<trk>
<name>bojjj42</name>
<cmt>b</cmt>
<desc>Jandrain-Jandrenouille Sentier n°42 Ruelle Basse</desc>
<link href="https://chemins.be/jandrainjandrenouille/sentier/42"/><trkseg>
<trkpt lat="50.654499" lon="4.978665"><time>2026-05-10T01:14:36Z</time></trkpt>
<trkpt lat="50.653698" lon="4.980593"><time>2026-05-10T01:24:36Z</time></trkpt>
</trkseg>
</trk>
<trk>
<name>bojjj42bis</name>
<cmt>v</cmt>
<desc>Jandrain-Jandrenouille Sentier n°42bis </desc>
<link href="https://chemins.be/jandrainjandrenouille/sentier/42bis"/><trkseg>
<trkpt lat="50.655500" lon="4.976359"><time>2026-05-10T00:54:36Z</time></trkpt>
<trkpt lat="50.655705" lon="4.976715"><time>2026-05-10T01:04:36Z</time></trkpt>
</trkseg>
</trk>
<trk>
<name>bojjj43</name>
<cmt>v</cmt>
<desc>Jandrain-Jandrenouille Chemin n°43 </desc>
<link href="https://chemins.be/jandrainjandrenouille/chemin/43"/><trkseg>
<trkpt lat="50.660480" lon="4.958203"><time>2026-05-10T00:54:36Z</time></trkpt>
<trkpt lat="50.661847" lon="4.957420"><time>2026-05-10T01:04:36Z</time></trkpt>
<trkpt lat="50.663547" lon="4.956744"><time>2026-05-10T01:14:36Z</time></trkpt>
<trkpt lat="50.665078" lon="4.956937"><time>2026-05-10T01:24:36Z</time></trkpt>
</trkseg>
</trk>
<trk>
<name>bojjj44</name>
<cmt>q</cmt>
<desc>Jandrain-Jandrenouille Sentier n°44 </desc>
<link href="https://chemins.be/jandrainjandrenouille/sentier/44"/><trkseg>
<trkpt lat="50.679873" lon="4.979772"><time>2026-05-10T00:54:36Z</time></trkpt>
<trkpt lat="50.680029" lon="4.979208"><time>2026-05-10T01:04:36Z</time></trkpt>
<trkpt lat="50.680131" lon="4.974993"><time>2026-05-10T01:14:36Z</time></trkpt>
</trkseg>
</trk>
<trk>
<name>bojjj45</name>
<cmt>r</cmt>
<desc>Jandrain-Jandrenouille Sentier n°45 Rue de Genville</desc>
<link href="https://chemins.be/jandrainjandrenouille/sentier/45"/><trkseg>
<trkpt lat="50.680363" lon="4.979854"><time>2026-05-10T00:54:36Z</time></trkpt>
<trkpt lat="50.681695" lon="4.980240"><time>2026-05-10T01:04:36Z</time></trkpt>
<trkpt lat="50.685012" lon="4.982686"><time>2026-05-10T01:14:36Z</time></trkpt>
<trkpt lat="50.686100" lon="4.983652"><time>2026-05-10T01:24:36Z</time></trkpt>
</trkseg>
</trk>
<trk>
<name>bojjj47</name>
<cmt>r</cmt>
<desc>Jandrain-Jandrenouille Sentier n°47 </desc>
<link href="https://chemins.be/jandrainjandrenouille/sentier/47"/><trkseg>
<trkpt lat="50.673677" lon="4.981786"><time>2026-05-10T00:54:36Z</time></trkpt>
<trkpt lat="50.674181" lon="4.985117"><time>2026-05-10T01:04:36Z</time></trkpt>
<trkpt lat="50.674313" lon="4.987368"><time>2026-05-10T01:14:36Z</time></trkpt>
<trkpt lat="50.674171" lon="4.988626"><time>2026-05-10T01:24:36Z</time></trkpt>
</trkseg></trk>
<trk>
<name>bojjj47</name>
<cmt>q</cmt>
<desc>Jandrain-Jandrenouille Sentier n°47 </desc>
<link href="https://chemins.be/jandrainjandrenouille/sentier/47"/><trkseg>
<trkpt lat="50.674171" lon="4.988626"><time>2026-05-10T01:24:36Z</time></trkpt>
<trkpt lat="50.673713" lon="4.991987"><time>2026-05-10T01:34:36Z</time></trkpt>
</trkseg>
</trk>
<trk>
<name>bojjj48</name>
<cmt>v</cmt>
<desc>Jandrain-Jandrenouille Chemin n°48 </desc>
<link href="https://chemins.be/jandrainjandrenouille/chemin/48"/><trkseg>
<trkpt lat="50.690094" lon="4.968727"><time>2026-05-10T00:54:36Z</time></trkpt>
<trkpt lat="50.690856" lon="4.971931"><time>2026-05-10T01:04:36Z</time></trkpt>
</trkseg>
</trk>
<trk>
<name>bojjj50</name>
<cmt>q</cmt>
<desc>Jandrain-Jandrenouille Sentier n°50 </desc>
<link href="https://chemins.be/jandrainjandrenouille/sentier/50"/><trkseg>
<trkpt lat="50.684431" lon="4.970464"><time>2026-05-10T00:54:36Z</time></trkpt>
<trkpt lat="50.684687" lon="4.972412"><time>2026-05-10T01:04:36Z</time></trkpt>
<trkpt lat="50.685968" lon="4.974586"><time>2026-05-10T01:14:36Z</time></trkpt>
<trkpt lat="50.686645" lon="4.976352"><time>2026-05-10T01:24:36Z</time></trkpt>
</trkseg>
</trk>
<trk>
<name>bojjj51</name>
<cmt>v</cmt>
<desc>Jandrain-Jandrenouille Sentier n°51 </desc>
<link href="https://chemins.be/jandrainjandrenouille/sentier/51"/><trkseg>
<trkpt lat="50.683910" lon="4.996081"><time>2026-05-10T00:54:36Z</time></trkpt>
<trkpt lat="50.683609" lon="4.997020"><time>2026-05-10T01:04:36Z</time></trkpt>
</trkseg>
</trk>
<trk>
<name>bojjj52</name>
<cmt>q</cmt>
<desc>Jandrain-Jandrenouille Sentier n°52 </desc>
<link href="https://chemins.be/jandrainjandrenouille/sentier/52"/><trkseg>
<trkpt lat="50.673825" lon="4.973833"><time>2026-05-10T00:54:36Z</time></trkpt>
<trkpt lat="50.671544" lon="4.970018"><time>2026-05-10T01:04:36Z</time></trkpt>
</trkseg>
</trk>
<trk>
<name>bojjj54</name>
<cmt>q</cmt>
<desc>Jandrain-Jandrenouille Sentier n°54 </desc>
<link href="https://chemins.be/jandrainjandrenouille/sentier/54"/><trkseg>
<trkpt lat="50.656021" lon="4.979845"><time>2026-05-10T00:54:36Z</time></trkpt>
<trkpt lat="50.656512" lon="4.980488"><time>2026-05-10T01:04:36Z</time></trkpt>
<trkpt lat="50.657086" lon="4.980834"><time>2026-05-10T01:14:36Z</time></trkpt>
</trkseg>
</trk>
<trk>
<name>bojjj55</name>
<cmt>d</cmt>
<desc>Jandrain-Jandrenouille Chemin n°55 </desc>
<link href="https://chemins.be/jandrainjandrenouille/chemin/55"/><trkseg>
<trkpt lat="50.648749" lon="4.951557"><time>2026-05-10T00:54:36Z</time></trkpt>
<trkpt lat="50.652618" lon="4.951446"><time>2026-05-10T01:04:36Z</time></trkpt>
</trkseg>
</trk>
<trk>
<name>bojjj56</name>
<cmt>v</cmt>
<desc>Jandrain-Jandrenouille Chemin n°56 </desc>
<link href="https://chemins.be/jandrainjandrenouille/chemin/56"/><trkseg>
<trkpt lat="50.658451" lon="4.979466"><time>2026-05-10T00:54:36Z</time></trkpt>
<trkpt lat="50.660716" lon="4.982932"><time>2026-05-10T01:04:36Z</time></trkpt>
</trkseg>
</trk>
<trk>
<name>bojjj57</name>
<cmt>v</cmt>
<desc>Jandrain-Jandrenouille Chemin n°57 </desc>
<link href="https://chemins.be/jandrainjandrenouille/chemin/57"/><trkseg>
<trkpt lat="50.678157" lon="4.983001"><time>2026-05-10T00:54:36Z</time></trkpt>
<trkpt lat="50.680018" lon="4.982740"><time>2026-05-10T01:04:36Z</time></trkpt>
<trkpt lat="50.680174" lon="4.982622"><time>2026-05-10T01:14:36Z</time></trkpt>
</trkseg>
</trk>
<trk>
<name>bojjj58</name>
<cmt>v</cmt>
<desc>Jandrain-Jandrenouille Sentier n°58 </desc>
<link href="https://chemins.be/jandrainjandrenouille/sentier/58"/><trkseg>
<trkpt lat="50.673943" lon="4.978843"><time>2026-05-10T00:54:36Z</time></trkpt>
<trkpt lat="50.674056" lon="4.979111"><time>2026-05-10T01:04:36Z</time></trkpt>
</trkseg></trk>
<trk>
<name>bojjj58</name>
<cmt>s</cmt>
<desc>Jandrain-Jandrenouille Sentier n°58 </desc>
<link href="https://chemins.be/jandrainjandrenouille/sentier/58"/><trkseg>
<trkpt lat="50.674056" lon="4.979111"><time>2026-05-10T01:04:36Z</time></trkpt>
<trkpt lat="50.674047" lon="4.979311"><time>2026-05-10T01:14:36Z</time></trkpt>
<trkpt lat="50.674156" lon="4.979641"><time>2026-05-10T01:24:36Z</time></trkpt>
<trkpt lat="50.674039" lon="4.980416"><time>2026-05-10T01:34:36Z</time></trkpt>
</trkseg>
</trk>
<trk>
<name>bojjj6</name>
<cmt>s</cmt>
<desc>Jandrain-Jandrenouille Chemin n°6 </desc>
<link href="https://chemins.be/jandrainjandrenouille/chemin/6"/><trkseg>
<trkpt lat="50.675867" lon="4.972757"><time>2026-05-10T00:54:36Z</time></trkpt>
<trkpt lat="50.676051" lon="4.970895"><time>2026-05-10T01:04:36Z</time></trkpt>
</trkseg></trk>
<trk>
<name>bojjj6</name>
<cmt>d</cmt>
<desc>Jandrain-Jandrenouille Chemin n°6 </desc>
<link href="https://chemins.be/jandrainjandrenouille/chemin/6"/><trkseg>
<trkpt lat="50.676051" lon="4.970895"><time>2026-05-10T01:04:36Z</time></trkpt>
<trkpt lat="50.676638" lon="4.969127"><time>2026-05-10T01:14:36Z</time></trkpt>
</trkseg>
</trk>
<trk>
<name>bojjj7</name>
<cmt>v</cmt>
<desc>Jandrain-Jandrenouille Chemin n°7 </desc>
<link href="https://chemins.be/jandrainjandrenouille/chemin/7"/><trkseg>
<trkpt lat="50.673364" lon="4.971062"><time>2026-05-10T00:54:36Z</time></trkpt>
<trkpt lat="50.672755" lon="4.966908"><time>2026-05-10T01:04:36Z</time></trkpt>
<trkpt lat="50.672506" lon="4.965154"><time>2026-05-10T01:14:36Z</time></trkpt>
</trkseg>
</trk>
<trk>
<name>bojjj8</name>
<cmt>v</cmt>
<desc>Jandrain-Jandrenouille Chemin n°8 Chemin de la Chapelle Ravet</desc>
<link href="https://chemins.be/jandrainjandrenouille/chemin/8"/><trkseg>
<trkpt lat="50.671070" lon="4.977910"><time>2026-05-10T00:54:36Z</time></trkpt>
<trkpt lat="50.670411" lon="4.977089"><time>2026-05-10T01:04:36Z</time></trkpt>
<trkpt lat="50.669484" lon="4.975449"><time>2026-05-10T01:14:36Z</time></trkpt>
<trkpt lat="50.668982" lon="4.974832"><time>2026-05-10T01:24:36Z</time></trkpt>
<trkpt lat="50.667949" lon="4.973138"><time>2026-05-10T01:34:36Z</time></trkpt>
</trkseg></trk>
<trk>
<name>bojjj8</name>
<cmt>d</cmt>
<desc>Jandrain-Jandrenouille Chemin n°8 Chemin de la Chapelle Ravet</desc>
<link href="https://chemins.be/jandrainjandrenouille/chemin/8"/><trkseg>
<trkpt lat="50.667949" lon="4.973138"><time>2026-05-10T01:34:36Z</time></trkpt>
<trkpt lat="50.667490" lon="4.972333"><time>2026-05-10T01:44:36Z</time></trkpt>
</trkseg></trk>
<trk>
<name>bojjj8</name>
<cmt>v</cmt>
<desc>Jandrain-Jandrenouille Chemin n°8 Chemin de la Chapelle Ravet</desc>
<link href="https://chemins.be/jandrainjandrenouille/chemin/8"/><trkseg>
<trkpt lat="50.667490" lon="4.972333"><time>2026-05-10T01:44:36Z</time></trkpt>
<trkpt lat="50.666008" lon="4.969733"><time>2026-05-10T01:54:36Z</time></trkpt>
<trkpt lat="50.665205" lon="4.969155"><time>2026-05-10T02:04:36Z</time></trkpt>
<trkpt lat="50.664240" lon="4.967490"><time>2026-05-10T02:14:36Z</time></trkpt>
<trkpt lat="50.663575" lon="4.965671"><time>2026-05-10T02:24:36Z</time></trkpt>
<trkpt lat="50.662143" lon="4.959005"><time>2026-05-10T02:34:36Z</time></trkpt>
<trkpt lat="50.661803" lon="4.957441"><time>2026-05-10T02:44:36Z</time></trkpt>
<trkpt lat="50.661301" lon="4.954078"><time>2026-05-10T02:54:36Z</time></trkpt>
</trkseg>
</trk>
<trk>
<name>bojjji1</name>
<cmt>v</cmt>
<desc>Jandrain-Jandrenouille Chemin n°i1 </desc>
<link href="https://chemins.be/jandrainjandrenouille/chemin/i1"/><trkseg>
<trkpt lat="50.666440" lon="4.973803"><time>2026-05-10T00:54:36Z</time></trkpt>
<trkpt lat="50.662088" lon="4.969888"><time>2026-05-10T01:04:36Z</time></trkpt>
<trkpt lat="50.658224" lon="4.965134"><time>2026-05-10T01:14:36Z</time></trkpt>
<trkpt lat="50.655611" lon="4.967923"><time>2026-05-10T01:24:36Z</time></trkpt>
<trkpt lat="50.655829" lon="4.968867"><time>2026-05-10T01:34:36Z</time></trkpt>
<trkpt lat="50.654142" lon="4.970069"><time>2026-05-10T01:44:36Z</time></trkpt>
</trkseg>
</trk>
<trk>
<name>bojjji2</name>
<cmt>v</cmt>
<desc>Jandrain-Jandrenouille Chemin n°i2 </desc>
<link href="https://chemins.be/jandrainjandrenouille/chemin/i2"/><trkseg>
<trkpt lat="50.680573" lon="4.981871"><time>2026-05-10T00:54:36Z</time></trkpt>
<trkpt lat="50.682388" lon="4.982214"><time>2026-05-10T01:04:36Z</time></trkpt>
</trkseg></trk>
<trk>
<name>bojjji2</name>
<cmt>q</cmt>
<desc>Jandrain-Jandrenouille Chemin n°i2 </desc>
<link href="https://chemins.be/jandrainjandrenouille/chemin/i2"/><trkseg>
<trkpt lat="50.682388" lon="4.982214"><time>2026-05-10T01:04:36Z</time></trkpt>
<trkpt lat="50.683326" lon="4.982965"><time>2026-05-10T01:14:36Z</time></trkpt>
<trkpt lat="50.684298" lon="4.983405"><time>2026-05-10T01:24:36Z</time></trkpt>
<trkpt lat="50.685665" lon="4.983598"><time>2026-05-10T01:34:36Z</time></trkpt>
</trkseg>
</trk>
<trk>
<name>bojjji3</name>
<cmt>v</cmt>
<desc>Jandrain-Jandrenouille Chemin n°i3 </desc>
<link href="https://chemins.be/jandrainjandrenouille/chemin/i3"/><trkseg>
<trkpt lat="50.683095" lon="4.998258"><time>2026-05-10T00:54:36Z</time></trkpt>
<trkpt lat="50.682856" lon="4.997425"><time>2026-05-10T01:04:36Z</time></trkpt>
<trkpt lat="50.682929" lon="4.997069"><time>2026-05-10T01:14:36Z</time></trkpt>
<trkpt lat="50.682992" lon="4.997069"><time>2026-05-10T01:24:36Z</time></trkpt>
<trkpt lat="50.683030" lon="4.996859"><time>2026-05-10T01:34:36Z</time></trkpt>
<trkpt lat="50.683163" lon="4.996752"><time>2026-05-10T01:44:36Z</time></trkpt>
<trkpt lat="50.683641" lon="4.996919"><time>2026-05-10T01:54:36Z</time></trkpt>
</trkseg>
</trk>
<trk>
<name>bojjji4</name>
<cmt>v</cmt>
<desc>Jandrain-Jandrenouille Chemin n°i4 </desc>
<link href="https://chemins.be/jandrainjandrenouille/chemin/i4"/><trkseg>
<trkpt lat="50.682381" lon="4.973344"><time>2026-05-10T00:54:36Z</time></trkpt>
<trkpt lat="50.682136" lon="4.972044"><time>2026-05-10T01:04:36Z</time></trkpt>
</trkseg>
</trk>
<trk>
<name>bojjjL147</name>
<cmt>v</cmt>
<desc>Jandrain-Jandrenouille Chemin n°L147 </desc>
<link href="https://chemins.be/jandrainjandrenouille/chemin/L147"/><trkseg>
<trkpt lat="50.685341" lon="4.968989"><time>2026-05-10T00:54:36Z</time></trkpt>
<trkpt lat="50.688164" lon="4.975974"><time>2026-05-10T01:04:36Z</time></trkpt>
</trkseg>
</trk>
<trk>
<name>bojmr1</name>
<cmt>v</cmt>
<desc>Marilles Chemin n°1 Rue du Tumulus</desc>
<link href="https://chemins.be/marilles/chemin/1"/><trkseg>
<trkpt lat="50.697239" lon="4.968524"><time>2026-05-10T00:54:36Z</time></trkpt>
<trkpt lat="50.698680" lon="4.964919"><time>2026-05-10T01:04:36Z</time></trkpt>
<trkpt lat="50.698870" lon="4.964855"><time>2026-05-10T01:14:36Z</time></trkpt>
</trkseg></trk>
<trk>
<name>bojmr1</name>
<cmt>r</cmt>
<desc>Marilles Chemin n°1 Rue du Tumulus</desc>
<link href="https://chemins.be/marilles/chemin/1"/><trkseg>
<trkpt lat="50.698870" lon="4.964855"><time>2026-05-10T01:14:36Z</time></trkpt>
<trkpt lat="50.700875" lon="4.959984"><time>2026-05-10T01:24:36Z</time></trkpt>
<trkpt lat="50.701446" lon="4.955574"><time>2026-05-10T01:34:36Z</time></trkpt>
<trkpt lat="50.702880" lon="4.951969"><time>2026-05-10T01:44:36Z</time></trkpt>
<trkpt lat="50.703722" lon="4.948107"><time>2026-05-10T01:54:36Z</time></trkpt>
<trkpt lat="50.703906" lon="4.946326"><time>2026-05-10T02:04:36Z</time></trkpt>
<trkpt lat="50.706053" lon="4.939706"><time>2026-05-10T02:14:36Z</time></trkpt>
</trkseg></trk>
<trk>
<name>bojmr1</name>
<cmt>s</cmt>
<desc>Marilles Chemin n°1 Rue du Tumulus</desc>
<link href="https://chemins.be/marilles/chemin/1"/><trkseg>
<trkpt lat="50.706053" lon="4.939706"><time>2026-05-10T02:14:36Z</time></trkpt>
<trkpt lat="50.706909" lon="4.938773"><time>2026-05-10T02:24:36Z</time></trkpt>
<trkpt lat="50.707762" lon="4.936364"><time>2026-05-10T02:34:36Z</time></trkpt>
</trkseg></trk>
<trk>
<name>bojmr1</name>
<cmt>v</cmt>
<desc>Marilles Chemin n°1 Rue du Tumulus</desc>
<link href="https://chemins.be/marilles/chemin/1"/><trkseg>
<trkpt lat="50.707762" lon="4.936364"><time>2026-05-10T02:34:36Z</time></trkpt>
<trkpt lat="50.708063" lon="4.935710"><time>2026-05-10T02:44:36Z</time></trkpt>
<trkpt lat="50.709525" lon="4.930648"><time>2026-05-10T02:54:36Z</time></trkpt>
<trkpt lat="50.709709" lon="4.930010"><time>2026-05-10T03:04:36Z</time></trkpt>
<trkpt lat="50.710710" lon="4.927431"><time>2026-05-10T03:14:36Z</time></trkpt>
</trkseg>
</trk>
<trk>
<name>bojmr11</name>
<cmt>v</cmt>
<desc>Marilles Chemin n°11 Rue Haute</desc>
<link href="https://chemins.be/marilles/chemin/11"/><trkseg>
<trkpt lat="50.706962" lon="4.971930"><time>2026-05-10T00:54:36Z</time></trkpt>
<trkpt lat="50.707342" lon="4.966789"><time>2026-05-10T01:04:36Z</time></trkpt>
<trkpt lat="50.706989" lon="4.963013"><time>2026-05-10T01:14:36Z</time></trkpt>
</trkseg></trk>
<trk>
<name>bojmr11</name>
<cmt>r</cmt>
<desc>Marilles Chemin n°11 Rue Haute</desc>
<link href="https://chemins.be/marilles/chemin/11"/><trkseg>
<trkpt lat="50.706989" lon="4.963013"><time>2026-05-10T01:14:36Z</time></trkpt>
<trkpt lat="50.706418" lon="4.961408"><time>2026-05-10T01:24:36Z</time></trkpt>
<trkpt lat="50.706402" lon="4.960695"><time>2026-05-10T01:34:36Z</time></trkpt>
<trkpt lat="50.706750" lon="4.959863"><time>2026-05-10T01:44:36Z</time></trkpt>
<trkpt lat="50.707059" lon="4.957974"><time>2026-05-10T01:54:36Z</time></trkpt>
<trkpt lat="50.707059" lon="4.955932"><time>2026-05-10T02:04:36Z</time></trkpt>
<trkpt lat="50.707342" lon="4.955520"><time>2026-05-10T02:14:36Z</time></trkpt>
<trkpt lat="50.707200" lon="4.952825"><time>2026-05-10T02:24:36Z</time></trkpt>
<trkpt lat="50.707799" lon="4.952189"><time>2026-05-10T02:34:36Z</time></trkpt>
<trkpt lat="50.709125" lon="4.949220"><time>2026-05-10T02:44:36Z</time></trkpt>
<trkpt lat="50.709946" lon="4.946267"><time>2026-05-10T02:54:36Z</time></trkpt>
<trkpt lat="50.709723" lon="4.945409"><time>2026-05-10T03:04:36Z</time></trkpt>
<trkpt lat="50.710707" lon="4.943005"><time>2026-05-10T03:14:36Z</time></trkpt>
</trkseg></trk>
<trk>
<name>bojmr11</name>
<cmt>v</cmt>
<desc>Marilles Chemin n°11 Rue Haute</desc>
<link href="https://chemins.be/marilles/chemin/11"/><trkseg>
<trkpt lat="50.710707" lon="4.943005"><time>2026-05-10T03:14:36Z</time></trkpt>
<trkpt lat="50.710311" lon="4.941287"><time>2026-05-10T03:24:36Z</time></trkpt>
<trkpt lat="50.709904" lon="4.939838"><time>2026-05-10T03:34:36Z</time></trkpt>
<trkpt lat="50.709915" lon="4.939008"><time>2026-05-10T03:44:36Z</time></trkpt>
<trkpt lat="50.710140" lon="4.938343"><time>2026-05-10T03:54:36Z</time></trkpt>
</trkseg></trk>
<trk>
<name>bojmr11</name>
<cmt>d</cmt>
<desc>Marilles Chemin n°11 Rue Haute</desc>
<link href="https://chemins.be/marilles/chemin/11"/><trkseg>
<trkpt lat="50.710140" lon="4.938343"><time>2026-05-10T03:54:36Z</time></trkpt>
<trkpt lat="50.710340" lon="4.935270"><time>2026-05-10T04:04:36Z</time></trkpt>
<trkpt lat="50.710324" lon="4.933089"><time>2026-05-10T04:14:36Z</time></trkpt>
<trkpt lat="50.710670" lon="4.932187"><time>2026-05-10T04:24:36Z</time></trkpt>
<trkpt lat="50.710923" lon="4.931752"><time>2026-05-10T04:34:36Z</time></trkpt>
</trkseg>
</trk>
<trk>
<name>bojmr13</name>
<cmt>v</cmt>
<desc>Marilles Chemin n°13 </desc>
<link href="https://chemins.be/marilles/chemin/13"/><trkseg>
<trkpt lat="50.703112" lon="4.951160"><time>2026-05-10T00:54:36Z</time></trkpt>
<trkpt lat="50.702816" lon="4.951437"><time>2026-05-10T01:04:36Z</time></trkpt>
</trkseg></trk>
<trk>
<name>bojmr13</name>
<cmt>d</cmt>
<desc>Marilles Chemin n°13 </desc>
<link href="https://chemins.be/marilles/chemin/13"/><trkseg>
<trkpt lat="50.702816" lon="4.951437"><time>2026-05-10T01:04:36Z</time></trkpt>
<trkpt lat="50.699722" lon="4.954488"><time>2026-05-10T01:14:36Z</time></trkpt>
<trkpt lat="50.698211" lon="4.955406"><time>2026-05-10T01:24:36Z</time></trkpt>
<trkpt lat="50.696845" lon="4.956575"><time>2026-05-10T01:34:36Z</time></trkpt>
<trkpt lat="50.695106" lon="4.957409"><time>2026-05-10T01:44:36Z</time></trkpt>
</trkseg></trk>
<trk>
<name>bojmr13</name>
<cmt>v</cmt>
<desc>Marilles Chemin n°13 </desc>
<link href="https://chemins.be/marilles/chemin/13"/><trkseg>
<trkpt lat="50.695106" lon="4.957409"><time>2026-05-10T01:44:36Z</time></trkpt>
<trkpt lat="50.694142" lon="4.957177"><time>2026-05-10T01:54:36Z</time></trkpt>
<trkpt lat="50.693639" lon="4.957331"><time>2026-05-10T02:04:36Z</time></trkpt>
<trkpt lat="50.693236" lon="4.958135"><time>2026-05-10T02:14:36Z</time></trkpt>
</trkseg>
</trk>
<trk>
<name>bojmr14</name>
<cmt>d</cmt>
<desc>Marilles Chemin n°14 </desc>
<link href="https://chemins.be/marilles/chemin/14"/><trkseg>
<trkpt lat="50.699197" lon="4.970562"><time>2026-05-10T00:54:36Z</time></trkpt>
<trkpt lat="50.698789" lon="4.971464"><time>2026-05-10T01:04:36Z</time></trkpt>
</trkseg>
</trk>
<trk>
<name>bojmr16</name>
<cmt>d</cmt>
<desc>Marilles Chemin n°16 </desc>
<link href="https://chemins.be/marilles/chemin/16"/><trkseg>
<trkpt lat="50.703530" lon="4.921765"><time>2026-05-10T00:54:36Z</time></trkpt>
<trkpt lat="50.707375" lon="4.921709"><time>2026-05-10T01:04:36Z</time></trkpt>
<trkpt lat="50.708689" lon="4.921057"><time>2026-05-10T01:14:36Z</time></trkpt>
</trkseg>
</trk>
<trk>
<name>bojmr17</name>
<cmt>d</cmt>
<desc>Marilles Chemin n°17 </desc>
<link href="https://chemins.be/marilles/chemin/17"/><trkseg>
<trkpt lat="50.712462" lon="4.940676"><time>2026-05-10T00:54:36Z</time></trkpt>
<trkpt lat="50.713402" lon="4.939781"><time>2026-05-10T01:04:36Z</time></trkpt>
<trkpt lat="50.714963" lon="4.938568"><time>2026-05-10T01:14:36Z</time></trkpt>
</trkseg>
</trk>
<trk>
<name>bojmr18</name>
<cmt>q</cmt>
<desc>Marilles Sentier n°18 </desc>
<link href="https://chemins.be/marilles/sentier/18"/><trkseg>
<trkpt lat="50.697540" lon="4.957856"><time>2026-05-10T00:54:36Z</time></trkpt>
<trkpt lat="50.697517" lon="4.958927"><time>2026-05-10T01:04:36Z</time></trkpt>
</trkseg></trk>
<trk>
<name>bojmr18</name>
<cmt>d</cmt>
<desc>Marilles Sentier n°18 </desc>
<link href="https://chemins.be/marilles/sentier/18"/><trkseg>
<trkpt lat="50.697517" lon="4.958927"><time>2026-05-10T01:04:36Z</time></trkpt>
<trkpt lat="50.697421" lon="4.963293"><time>2026-05-10T01:14:36Z</time></trkpt>
<trkpt lat="50.697215" lon="4.963868"><time>2026-05-10T01:24:36Z</time></trkpt>
<trkpt lat="50.697117" lon="4.968391"><time>2026-05-10T01:34:36Z</time></trkpt>
</trkseg>
</trk>
<trk>
<name>bojmr19</name>
<cmt>d</cmt>
<desc>Marilles Chemin n°19 </desc>
<link href="https://chemins.be/marilles/chemin/19"/><trkseg>
<trkpt lat="50.709460" lon="4.955409"><time>2026-05-10T00:54:36Z</time></trkpt>
<trkpt lat="50.709481" lon="4.956253"><time>2026-05-10T01:04:36Z</time></trkpt>
<trkpt lat="50.709771" lon="4.957301"><time>2026-05-10T01:14:36Z</time></trkpt>
<trkpt lat="50.710642" lon="4.958717"><time>2026-05-10T01:24:36Z</time></trkpt>
<trkpt lat="50.711350" lon="4.960704"><time>2026-05-10T01:34:36Z</time></trkpt>
<trkpt lat="50.712025" lon="4.959753"><time>2026-05-10T01:44:36Z</time></trkpt>
<trkpt lat="50.714648" lon="4.957936"><time>2026-05-10T01:54:36Z</time></trkpt>
</trkseg>
</trk>
<trk>
<name>bojmr20</name>
<cmt>d</cmt>
<desc>Marilles Sentier n°20 </desc>
<link href="https://chemins.be/marilles/sentier/20"/><trkseg>
<trkpt lat="50.714402" lon="4.957390"><time>2026-05-10T00:54:36Z</time></trkpt>
<trkpt lat="50.714626" lon="4.957966"><time>2026-05-10T01:04:36Z</time></trkpt>
<trkpt lat="50.715099" lon="4.958177"><time>2026-05-10T01:14:36Z</time></trkpt>
<trkpt lat="50.715307" lon="4.958201"><time>2026-05-10T01:24:36Z</time></trkpt>
</trkseg>
</trk>
<trk>
<name>bojmr21</name>
<cmt>r</cmt>
<desc>Marilles Chemin n°21 Chavée Tonwè</desc>
<link href="https://chemins.be/marilles/chemin/21"/><trkseg>
<trkpt lat="50.706118" lon="4.956677"><time>2026-05-10T00:54:36Z</time></trkpt>
<trkpt lat="50.706125" lon="4.957907"><time>2026-05-10T01:04:36Z</time></trkpt>
</trkseg></trk>
<trk>
<name>bojmr21</name>
<cmt>v</cmt>
<desc>Marilles Chemin n°21 Chavée Tonwè</desc>
<link href="https://chemins.be/marilles/chemin/21"/><trkseg>
<trkpt lat="50.706125" lon="4.957907"><time>2026-05-10T01:04:36Z</time></trkpt>
<trkpt lat="50.706179" lon="4.959212"><time>2026-05-10T01:14:36Z</time></trkpt>
<trkpt lat="50.706428" lon="4.959953"><time>2026-05-10T01:24:36Z</time></trkpt>
</trkseg>
</trk>
<trk>
<name>bojmr22</name>
<cmt>v</cmt>
<desc>Marilles Chemin n°22 Rue du Chénia</desc>
<link href="https://chemins.be/marilles/chemin/22"/><trkseg>
<trkpt lat="50.700093" lon="4.946380"><time>2026-05-10T00:54:36Z</time></trkpt>
<trkpt lat="50.700719" lon="4.946879"><time>2026-05-10T01:04:36Z</time></trkpt>
</trkseg></trk>
<trk>
<name>bojmr22</name>
<cmt>q</cmt>
<desc>Marilles Chemin n°22 Rue du Chénia</desc>
<link href="https://chemins.be/marilles/chemin/22"/><trkseg>
<trkpt lat="50.700719" lon="4.946879"><time>2026-05-10T01:04:36Z</time></trkpt>
<trkpt lat="50.701293" lon="4.948150"><time>2026-05-10T01:14:36Z</time></trkpt>
</trkseg></trk>
<trk>
<name>bojmr22</name>
<cmt>d</cmt>
<desc>Marilles Chemin n°22 Rue du Chénia</desc>
<link href="https://chemins.be/marilles/chemin/22"/><trkseg>
<trkpt lat="50.701293" lon="4.948150"><time>2026-05-10T01:14:36Z</time></trkpt>
<trkpt lat="50.702384" lon="4.950864"><time>2026-05-10T01:24:36Z</time></trkpt>
<trkpt lat="50.703077" lon="4.951208"><time>2026-05-10T01:34:36Z</time></trkpt>
</trkseg></trk>
<trk>
<name>bojmr22</name>
<cmt>r</cmt>
<desc>Marilles Chemin n°22 Rue du Chénia</desc>
<link href="https://chemins.be/marilles/chemin/22"/><trkseg>
<trkpt lat="50.703077" lon="4.951208"><time>2026-05-10T01:34:36Z</time></trkpt>
<trkpt lat="50.704133" lon="4.951179"><time>2026-05-10T01:44:36Z</time></trkpt>
</trkseg></trk>
<trk>
<name>bojmr22</name>
<cmt>v</cmt>
<desc>Marilles Chemin n°22 Rue du Chénia</desc>
<link href="https://chemins.be/marilles/chemin/22"/><trkseg>
<trkpt lat="50.704133" lon="4.951179"><time>2026-05-10T01:44:36Z</time></trkpt>
<trkpt lat="50.705462" lon="4.951540"><time>2026-05-10T01:54:36Z</time></trkpt>
<trkpt lat="50.706079" lon="4.952137"><time>2026-05-10T02:04:36Z</time></trkpt>
</trkseg></trk>
<trk>
<name>bojmr22</name>
<cmt>r</cmt>
<desc>Marilles Chemin n°22 Rue du Chénia</desc>
<link href="https://chemins.be/marilles/chemin/22"/><trkseg>
<trkpt lat="50.706079" lon="4.952137"><time>2026-05-10T02:04:36Z</time></trkpt>
<trkpt lat="50.706324" lon="4.951482"><time>2026-05-10T02:14:36Z</time></trkpt>
</trkseg>
</trk>
<trk>
<name>bojmr23</name>
<cmt>v</cmt>
<desc>Marilles Sentier n°23 </desc>
<link href="https://chemins.be/marilles/sentier/23"/><trkseg>
<trkpt lat="50.709125" lon="4.949040"><time>2026-05-10T00:54:36Z</time></trkpt>
<trkpt lat="50.708310" lon="4.948482"><time>2026-05-10T01:04:36Z</time></trkpt>
<trkpt lat="50.706991" lon="4.948640"><time>2026-05-10T01:14:36Z</time></trkpt>
<trkpt lat="50.704881" lon="4.948938"><time>2026-05-10T01:24:36Z</time></trkpt>
</trkseg>
</trk>
<trk>
<name>bojmr24</name>
<cmt>d</cmt>
<desc>Marilles Sentier n°24 </desc>
<link href="https://chemins.be/marilles/sentier/24"/><trkseg>
<trkpt lat="50.707771" lon="4.944366"><time>2026-05-10T00:54:36Z</time></trkpt>
<trkpt lat="50.707234" lon="4.945896"><time>2026-05-10T01:04:36Z</time></trkpt>
<trkpt lat="50.706936" lon="4.946348"><time>2026-05-10T01:14:36Z</time></trkpt>
<trkpt lat="50.706570" lon="4.946670"><time>2026-05-10T01:24:36Z</time></trkpt>
<trkpt lat="50.705244" lon="4.946619"><time>2026-05-10T01:34:36Z</time></trkpt>
<trkpt lat="50.704525" lon="4.946899"><time>2026-05-10T01:44:36Z</time></trkpt>
</trkseg></trk>
<trk>
<name>bojmr24</name>
<cmt>v</cmt>
<desc>Marilles Sentier n°24 </desc>
<link href="https://chemins.be/marilles/sentier/24"/><trkseg>
<trkpt lat="50.704525" lon="4.946899"><time>2026-05-10T01:44:36Z</time></trkpt>
<trkpt lat="50.703847" lon="4.947263"><time>2026-05-10T01:54:36Z</time></trkpt>
</trkseg>
</trk>
<trk>
<name>bojmr25</name>
<cmt>v</cmt>
<desc>Marilles Sentier n°25 </desc>
<link href="https://chemins.be/marilles/sentier/25"/><trkseg>
<trkpt lat="50.709954" lon="4.946267"><time>2026-05-10T00:54:36Z</time></trkpt>
<trkpt lat="50.710098" lon="4.946183"><time>2026-05-10T01:04:36Z</time></trkpt>
<trkpt lat="50.710414" lon="4.945961"><time>2026-05-10T01:14:36Z</time></trkpt>
<trkpt lat="50.710567" lon="4.945934"><time>2026-05-10T01:24:36Z</time></trkpt>
<trkpt lat="50.710674" lon="4.945978"><time>2026-05-10T01:34:36Z</time></trkpt>
<trkpt lat="50.710819" lon="4.945838"><time>2026-05-10T01:44:36Z</time></trkpt>
<trkpt lat="50.710951" lon="4.945687"><time>2026-05-10T01:54:36Z</time></trkpt>
</trkseg></trk>
<trk>
<name>bojmr25</name>
<cmt>b</cmt>
<desc>Marilles Sentier n°25 </desc>
<link href="https://chemins.be/marilles/sentier/25"/><trkseg>
<trkpt lat="50.710951" lon="4.945687"><time>2026-05-10T01:54:36Z</time></trkpt>
<trkpt lat="50.711067" lon="4.945530"><time>2026-05-10T02:04:36Z</time></trkpt>
</trkseg>
</trk>
<trk>
<name>bojmr26</name>
<cmt>v</cmt>
<desc>Marilles Chemin n°26 </desc>
<link href="https://chemins.be/marilles/chemin/26"/><trkseg>
<trkpt lat="50.704409" lon="4.931735"><time>2026-05-10T00:54:36Z</time></trkpt>
<trkpt lat="50.705039" lon="4.929496"><time>2026-05-10T01:04:36Z</time></trkpt>
</trkseg>
</trk>
<trk>
<name>bojmr27</name>
<cmt>v</cmt>
<desc>Marilles Chemin n°27 rue du Village</desc>
<link href="https://chemins.be/marilles/chemin/27"/><trkseg>
<trkpt lat="50.702189" lon="4.940226"><time>2026-05-10T00:54:36Z</time></trkpt>
<trkpt lat="50.701879" lon="4.941128"><time>2026-05-10T01:04:36Z</time></trkpt>
<trkpt lat="50.701788" lon="4.941382"><time>2026-05-10T01:14:36Z</time></trkpt>
</trkseg>
</trk>
<trk>
<name>bojmr28</name>
<cmt>v</cmt>
<desc>Marilles Chemin n°28 </desc>
<link href="https://chemins.be/marilles/chemin/28"/><trkseg>
<trkpt lat="50.701267" lon="4.948109"><time>2026-05-10T00:54:36Z</time></trkpt>
<trkpt lat="50.701450" lon="4.946551"><time>2026-05-10T01:04:36Z</time></trkpt>
<trkpt lat="50.701917" lon="4.944229"><time>2026-05-10T01:14:36Z</time></trkpt>
</trkseg>
</trk>
<trk>
<name>bojmr30</name>
<cmt>s</cmt>
<desc>Marilles Chemin n°30 </desc>
<link href="https://chemins.be/marilles/chemin/30"/><trkseg>
<trkpt lat="50.710598" lon="4.932132"><time>2026-05-10T00:54:36Z</time></trkpt>
<trkpt lat="50.710374" lon="4.932100"><time>2026-05-10T01:04:36Z</time></trkpt>
<trkpt lat="50.708071" lon="4.935726"><time>2026-05-10T01:14:36Z</time></trkpt>
</trkseg>
</trk>
<trk>
<name>bojmr33</name>
<cmt>v</cmt>
<desc>Marilles Chemin n°33 </desc>
<link href="https://chemins.be/marilles/chemin/33"/><trkseg>
<trkpt lat="50.694281" lon="4.963999"><time>2026-05-10T00:54:36Z</time></trkpt>
<trkpt lat="50.695336" lon="4.965393"><time>2026-05-10T01:04:36Z</time></trkpt>
<trkpt lat="50.696385" lon="4.967071"><time>2026-05-10T01:14:36Z</time></trkpt>
<trkpt lat="50.697211" lon="4.968616"><time>2026-05-10T01:24:36Z</time></trkpt>
<trkpt lat="50.698231" lon="4.970812"><time>2026-05-10T01:34:36Z</time></trkpt>
<trkpt lat="50.698748" lon="4.971375"><time>2026-05-10T01:44:36Z</time></trkpt>
</trkseg>
</trk>
<trk>
<name>bojmr34</name>
<cmt>q</cmt>
<desc>Marilles Sentier n°34 </desc>
<link href="https://chemins.be/marilles/sentier/34"/><trkseg>
<trkpt lat="50.706549" lon="4.950317"><time>2026-05-10T00:54:36Z</time></trkpt>
<trkpt lat="50.706959" lon="4.948705"><time>2026-05-10T01:04:36Z</time></trkpt>
<trkpt lat="50.707242" lon="4.947592"><time>2026-05-10T01:14:36Z</time></trkpt>
<trkpt lat="50.706916" lon="4.946262"><time>2026-05-10T01:24:36Z</time></trkpt>
<trkpt lat="50.706787" lon="4.943354"><time>2026-05-10T01:34:36Z</time></trkpt>
</trkseg>
</trk>
<trk>
<name>bojmr35</name>
<cmt>s</cmt>
<desc>Marilles Sentier n°35 </desc>
<link href="https://chemins.be/marilles/sentier/35"/><trkseg>
<trkpt lat="50.707725" lon="4.944585"><time>2026-05-10T00:54:36Z</time></trkpt>
<trkpt lat="50.708125" lon="4.945924"><time>2026-05-10T01:04:36Z</time></trkpt>
<trkpt lat="50.708516" lon="4.946318"><time>2026-05-10T01:14:36Z</time></trkpt>
<trkpt lat="50.708625" lon="4.946988"><time>2026-05-10T01:24:36Z</time></trkpt>
<trkpt lat="50.709565" lon="4.947537"><time>2026-05-10T01:34:36Z</time></trkpt>
</trkseg></trk>
<trk>
<name>bojmr35</name>
<cmt>r</cmt>
<desc>Marilles Sentier n°35 </desc>
<link href="https://chemins.be/marilles/sentier/35"/><trkseg>
<trkpt lat="50.709565" lon="4.947537"><time>2026-05-10T01:34:36Z</time></trkpt>
<trkpt lat="50.709489" lon="4.948130"><time>2026-05-10T01:44:36Z</time></trkpt>
</trkseg></trk>
<trk>
<name>bojmr35</name>
<cmt>v</cmt>
<desc>Marilles Sentier n°35 </desc>
<link href="https://chemins.be/marilles/sentier/35"/><trkseg>
<trkpt lat="50.709489" lon="4.948130"><time>2026-05-10T01:44:36Z</time></trkpt>
<trkpt lat="50.710490" lon="4.949094"><time>2026-05-10T01:54:36Z</time></trkpt>
<trkpt lat="50.711563" lon="4.950242"><time>2026-05-10T02:04:36Z</time></trkpt>
<trkpt lat="50.712735" lon="4.952699"><time>2026-05-10T02:14:36Z</time></trkpt>
</trkseg></trk>
<trk>
<name>bojmr35</name>
<cmt>s</cmt>
<desc>Marilles Sentier n°35 </desc>
<link href="https://chemins.be/marilles/sentier/35"/><trkseg>
<trkpt lat="50.712735" lon="4.952699"><time>2026-05-10T02:14:36Z</time></trkpt>
<trkpt lat="50.713316" lon="4.954770"><time>2026-05-10T02:24:36Z</time></trkpt>
<trkpt lat="50.714450" lon="4.957334"><time>2026-05-10T02:34:36Z</time></trkpt>
</trkseg>
</trk>
<trk>
<name>bojmr36</name>
<cmt>s</cmt>
<desc>Marilles Sentier n°36 </desc>
<link href="https://chemins.be/marilles/sentier/36"/><trkseg>
<trkpt lat="50.707350" lon="4.950907"><time>2026-05-10T00:54:36Z</time></trkpt>
<trkpt lat="50.707925" lon="4.949266"><time>2026-05-10T01:04:36Z</time></trkpt>
<trkpt lat="50.708030" lon="4.949330"><time>2026-05-10T01:14:36Z</time></trkpt>
<trkpt lat="50.708296" lon="4.948515"><time>2026-05-10T01:24:36Z</time></trkpt>
<trkpt lat="50.708567" lon="4.947689"><time>2026-05-10T01:34:36Z</time></trkpt>
<trkpt lat="50.709745" lon="4.945387"><time>2026-05-10T01:44:36Z</time></trkpt>
</trkseg>
</trk>
<trk>
<name>bojmr37</name>
<cmt>d</cmt>
<desc>Marilles Sentier n°37 </desc>
<link href="https://chemins.be/marilles/sentier/37"/><trkseg>
<trkpt lat="50.711657" lon="4.945607"><time>2026-05-10T00:54:36Z</time></trkpt>
<trkpt lat="50.711255" lon="4.946006"><time>2026-05-10T01:04:36Z</time></trkpt>
</trkseg></trk>
<trk>
<name>bojmr37</name>
<cmt>s</cmt>
<desc>Marilles Sentier n°37 </desc>
<link href="https://chemins.be/marilles/sentier/37"/><trkseg>
<trkpt lat="50.711255" lon="4.946006"><time>2026-05-10T01:04:36Z</time></trkpt>
<trkpt lat="50.710877" lon="4.946310"><time>2026-05-10T01:14:36Z</time></trkpt>
<trkpt lat="50.710679" lon="4.946001"><time>2026-05-10T01:24:36Z</time></trkpt>
</trkseg>
</trk>
<trk>
<name>bojmr37bis</name>
<cmt>b</cmt>
<desc>Marilles Sentier n°37bis </desc>
<link href="https://chemins.be/marilles/sentier/37bis"/><trkseg>
<trkpt lat="50.711264" lon="4.946004"><time>2026-05-10T00:54:36Z</time></trkpt>
<trkpt lat="50.711176" lon="4.945800"><time>2026-05-10T01:04:36Z</time></trkpt>
<trkpt lat="50.711074" lon="4.945545"><time>2026-05-10T01:14:36Z</time></trkpt>
</trkseg>
</trk>
<trk>
<name>bojmr38</name>
<cmt>q</cmt>
<desc>Marilles Sentier n°38 </desc>
<link href="https://chemins.be/marilles/sentier/38"/><trkseg>
<trkpt lat="50.712125" lon="4.946697"><time>2026-05-10T00:54:36Z</time></trkpt>
<trkpt lat="50.712800" lon="4.945678"><time>2026-05-10T01:04:36Z</time></trkpt>
<trkpt lat="50.713785" lon="4.943500"><time>2026-05-10T01:14:36Z</time></trkpt>
</trkseg>
</trk>
<trk>
<name>bojmr39</name>
<cmt>q</cmt>
<desc>Marilles Sentier n°39 </desc>
<link href="https://chemins.be/marilles/sentier/39"/><trkseg>
<trkpt lat="50.707176" lon="4.953829"><time>2026-05-10T00:54:36Z</time></trkpt>
<trkpt lat="50.706920" lon="4.953984"><time>2026-05-10T01:04:36Z</time></trkpt>
<trkpt lat="50.706882" lon="4.955881"><time>2026-05-10T01:14:36Z</time></trkpt>
<trkpt lat="50.706698" lon="4.956265"><time>2026-05-10T01:24:36Z</time></trkpt>
<trkpt lat="50.706134" lon="4.956299"><time>2026-05-10T01:34:36Z</time></trkpt>
</trkseg>
</trk>
<trk>
<name>bojmr3bis</name>
<cmt>d</cmt>
<desc>Marilles Chemin n°3bis </desc>
<link href="https://chemins.be/marilles/chemin/3bis"/><trkseg>
<trkpt lat="50.700892" lon="4.931419"><time>2026-05-10T00:54:36Z</time></trkpt>
<trkpt lat="50.700123" lon="4.930504"><time>2026-05-10T01:04:36Z</time></trkpt>
<trkpt lat="50.698931" lon="4.929754"><time>2026-05-10T01:14:36Z</time></trkpt>
</trkseg>
</trk>
<trk>
<name>bojmr4</name>
<cmt>v</cmt>
<desc>Marilles Chemin n°4 </desc>
<link href="https://chemins.be/marilles/chemin/4"/><trkseg>
<trkpt lat="50.700889" lon="4.924740"><time>2026-05-10T00:54:36Z</time></trkpt>
<trkpt lat="50.702084" lon="4.924342"><time>2026-05-10T01:04:36Z</time></trkpt>
<trkpt lat="50.702792" lon="4.924360"><time>2026-05-10T01:14:36Z</time></trkpt>
</trkseg></trk>
<trk>
<name>bojmr4</name>
<cmt>r</cmt>
<desc>Marilles Chemin n°4 </desc>
<link href="https://chemins.be/marilles/chemin/4"/><trkseg>
<trkpt lat="50.702792" lon="4.924360"><time>2026-05-10T01:14:36Z</time></trkpt>
<trkpt lat="50.703391" lon="4.922068"><time>2026-05-10T01:24:36Z</time></trkpt>
</trkseg></trk>
<trk>
<name>bojmr4</name>
<cmt>d</cmt>
<desc>Marilles Chemin n°4 </desc>
<link href="https://chemins.be/marilles/chemin/4"/><trkseg>
<trkpt lat="50.703391" lon="4.922068"><time>2026-05-10T01:24:36Z</time></trkpt>
<trkpt lat="50.703454" lon="4.921715"><time>2026-05-10T01:34:36Z</time></trkpt>
</trkseg></trk>
<trk>
<name>bojmr4</name>
<cmt>q</cmt>
<desc>Marilles Chemin n°4 </desc>
<link href="https://chemins.be/marilles/chemin/4"/><trkseg>
<trkpt lat="50.703454" lon="4.921715"><time>2026-05-10T01:34:36Z</time></trkpt>
<trkpt lat="50.703572" lon="4.920913"><time>2026-05-10T01:44:36Z</time></trkpt>
</trkseg>
</trk>
<trk>
<name>bojmr40</name>
<cmt>s</cmt>
<desc>Marilles Sentier n°40 </desc>
<link href="https://chemins.be/marilles/sentier/40"/><trkseg>
<trkpt lat="50.703688" lon="4.948804"><time>2026-05-10T00:54:36Z</time></trkpt>
<trkpt lat="50.704099" lon="4.951378"><time>2026-05-10T01:04:36Z</time></trkpt>
<trkpt lat="50.704171" lon="4.951830"><time>2026-05-10T01:14:36Z</time></trkpt>
<trkpt lat="50.705367" lon="4.954877"><time>2026-05-10T01:24:36Z</time></trkpt>
</trkseg></trk>
<trk>
<name>bojmr40</name>
<cmt>q</cmt>
<desc>Marilles Sentier n°40 </desc>
<link href="https://chemins.be/marilles/sentier/40"/><trkseg>
<trkpt lat="50.705367" lon="4.954877"><time>2026-05-10T01:24:36Z</time></trkpt>
<trkpt lat="50.705706" lon="4.955327"><time>2026-05-10T01:34:36Z</time></trkpt>
<trkpt lat="50.706178" lon="4.955527"><time>2026-05-10T01:44:36Z</time></trkpt>
<trkpt lat="50.706187" lon="4.955615"><time>2026-05-10T01:54:36Z</time></trkpt>
<trkpt lat="50.706868" lon="4.955894"><time>2026-05-10T02:04:36Z</time></trkpt>
<trkpt lat="50.707106" lon="4.955780"><time>2026-05-10T02:14:36Z</time></trkpt>
</trkseg>
</trk>
<trk>
<name>bojmr41</name>
<cmt>s</cmt>
<desc>Marilles Sentier n°41 </desc>
<link href="https://chemins.be/marilles/sentier/41"/><trkseg>
<trkpt lat="50.706230" lon="4.951283"><time>2026-05-10T00:54:36Z</time></trkpt>
<trkpt lat="50.706461" lon="4.950306"><time>2026-05-10T01:04:36Z</time></trkpt>
<trkpt lat="50.706542" lon="4.950349"><time>2026-05-10T01:14:36Z</time></trkpt>
<trkpt lat="50.707921" lon="4.949309"><time>2026-05-10T01:24:36Z</time></trkpt>
</trkseg>
</trk>
<trk>
<name>bojmr42</name>
<cmt>v</cmt>
<desc>Marilles Sentier n°42 </desc>
<link href="https://chemins.be/marilles/sentier/42"/><trkseg>
<trkpt lat="50.706110" lon="4.952177"><time>2026-05-10T00:54:36Z</time></trkpt>
<trkpt lat="50.705319" lon="4.954877"><time>2026-05-10T01:04:36Z</time></trkpt>
<trkpt lat="50.705149" lon="4.956197"><time>2026-05-10T01:14:36Z</time></trkpt>
<trkpt lat="50.705258" lon="4.957355"><time>2026-05-10T01:24:36Z</time></trkpt>
</trkseg>
</trk>
<trk>
<name>bojmr42bis</name>
<cmt>q</cmt>
<desc>Marilles Sentier n°42bis </desc>
<link href="https://chemins.be/marilles/sentier/42bis"/><trkseg>
<trkpt lat="50.705198" lon="4.956882"><time>2026-05-10T00:54:36Z</time></trkpt>
<trkpt lat="50.704668" lon="4.958445"><time>2026-05-10T01:04:36Z</time></trkpt>
<trkpt lat="50.704706" lon="4.958620"><time>2026-05-10T01:14:36Z</time></trkpt>
</trkseg>
</trk>
<trk>
<name>bojmr43</name>
<cmt>q</cmt>
<desc>Marilles Sentier n°43 Rue Haute</desc>
<link href="https://chemins.be/marilles/sentier/43"/><trkseg>
<trkpt lat="50.706353" lon="4.942310"><time>2026-05-10T00:54:36Z</time></trkpt>
<trkpt lat="50.707690" lon="4.942508"><time>2026-05-10T01:04:36Z</time></trkpt>
<trkpt lat="50.708141" lon="4.943040"><time>2026-05-10T01:14:36Z</time></trkpt>
<trkpt lat="50.708837" lon="4.942825"><time>2026-05-10T01:24:36Z</time></trkpt>
<trkpt lat="50.709684" lon="4.942718"><time>2026-05-10T01:34:36Z</time></trkpt>
<trkpt lat="50.710418" lon="4.941770"><time>2026-05-10T01:44:36Z</time></trkpt>
</trkseg></trk>
<trk>
<name>bojmr43</name>
<cmt>v</cmt>
<desc>Marilles Sentier n°43 Rue Haute</desc>
<link href="https://chemins.be/marilles/sentier/43"/><trkseg>
<trkpt lat="50.710418" lon="4.941770"><time>2026-05-10T01:44:36Z</time></trkpt>
<trkpt lat="50.710690" lon="4.942976"><time>2026-05-10T01:54:36Z</time></trkpt>
<trkpt lat="50.711737" lon="4.941970"><time>2026-05-10T02:04:36Z</time></trkpt>
<trkpt lat="50.712463" lon="4.940605"><time>2026-05-10T02:14:36Z</time></trkpt>
</trkseg>
</trk>
<trk>
<name>bojmr44</name>
<cmt>q</cmt>
<desc>Marilles Sentier n°44 </desc>
<link href="https://chemins.be/marilles/sentier/44"/><trkseg>
<trkpt lat="50.708105" lon="4.951487"><time>2026-05-10T00:54:36Z</time></trkpt>
<trkpt lat="50.707324" lon="4.950903"><time>2026-05-10T01:04:36Z</time></trkpt>
<trkpt lat="50.706550" lon="4.950324"><time>2026-05-10T01:14:36Z</time></trkpt>
</trkseg></trk>
<trk>
<name>bojmr44</name>
<cmt>s</cmt>
<desc>Marilles Sentier n°44 </desc>
<link href="https://chemins.be/marilles/sentier/44"/><trkseg>
<trkpt lat="50.706550" lon="4.950324"><time>2026-05-10T01:14:36Z</time></trkpt>
<trkpt lat="50.705006" lon="4.949169"><time>2026-05-10T01:24:36Z</time></trkpt>
</trkseg>
</trk>
<trk>
<name>bojmr45</name>
<cmt>s</cmt>
<desc>Marilles Sentier n°45 </desc>
<link href="https://chemins.be/marilles/sentier/45"/><trkseg>
<trkpt lat="50.702792" lon="4.940937"><time>2026-05-10T00:54:36Z</time></trkpt>
<trkpt lat="50.703053" lon="4.940276"><time>2026-05-10T01:04:36Z</time></trkpt>
<trkpt lat="50.704309" lon="4.937933"><time>2026-05-10T01:14:36Z</time></trkpt>
</trkseg>
</trk>
<trk>
<name>bojmr46</name>
<cmt>s</cmt>
<desc>Marilles Sentier n°46 </desc>
<link href="https://chemins.be/marilles/sentier/46"/><trkseg>
<trkpt lat="50.702139" lon="4.938108"><time>2026-05-10T00:54:36Z</time></trkpt>
<trkpt lat="50.703111" lon="4.940339"><time>2026-05-10T01:04:36Z</time></trkpt>
<trkpt lat="50.703559" lon="4.940854"><time>2026-05-10T01:14:36Z</time></trkpt>
<trkpt lat="50.703858" lon="4.941262"><time>2026-05-10T01:24:36Z</time></trkpt>
<trkpt lat="50.703668" lon="4.941895"><time>2026-05-10T01:34:36Z</time></trkpt>
<trkpt lat="50.704021" lon="4.944974"><time>2026-05-10T01:44:36Z</time></trkpt>
<trkpt lat="50.704164" lon="4.945618"><time>2026-05-10T01:54:36Z</time></trkpt>
</trkseg>
</trk>
<trk>
<name>bojmr47</name>
<cmt>d</cmt>
<desc>Marilles Chemin n°47 </desc>
<link href="https://chemins.be/marilles/chemin/47"/><trkseg>
<trkpt lat="50.701914" lon="4.944186"><time>2026-05-10T00:54:36Z</time></trkpt>
<trkpt lat="50.701310" lon="4.942594"><time>2026-05-10T01:04:36Z</time></trkpt>
<trkpt lat="50.700483" lon="4.941082"><time>2026-05-10T01:14:36Z</time></trkpt>
</trkseg></trk>
<trk>
<name>bojmr47</name>
<cmt>s</cmt>
<desc>Marilles Chemin n°47 </desc>
<link href="https://chemins.be/marilles/chemin/47"/><trkseg>
<trkpt lat="50.700483" lon="4.941082"><time>2026-05-10T01:14:36Z</time></trkpt>
<trkpt lat="50.699896" lon="4.939554"><time>2026-05-10T01:24:36Z</time></trkpt>
<trkpt lat="50.698602" lon="4.937940"><time>2026-05-10T01:34:36Z</time></trkpt>
<trkpt lat="50.698787" lon="4.937202"><time>2026-05-10T01:44:36Z</time></trkpt>
<trkpt lat="50.698091" lon="4.934662"><time>2026-05-10T01:54:36Z</time></trkpt>
</trkseg>
</trk>
<trk>
<name>bojmr49</name>
<cmt>s</cmt>
<desc>Marilles Sentier n°49 Sentier de Nodrenge / rue du Village / Rue du Village</desc>
<link href="https://chemins.be/marilles/sentier/49"/><trkseg>
<trkpt lat="50.702445" lon="4.946879"><time>2026-05-10T00:54:36Z</time></trkpt>
<trkpt lat="50.702088" lon="4.945693"><time>2026-05-10T01:04:36Z</time></trkpt>
<trkpt lat="50.701978" lon="4.944199"><time>2026-05-10T01:14:36Z</time></trkpt>
<trkpt lat="50.701786" lon="4.941487"><time>2026-05-10T01:24:36Z</time></trkpt>
<trkpt lat="50.701332" lon="4.940628"><time>2026-05-10T01:34:36Z</time></trkpt>
<trkpt lat="50.701423" lon="4.939461"><time>2026-05-10T01:44:36Z</time></trkpt>
</trkseg></trk>
<trk>
<name>bojmr49</name>
<cmt>v</cmt>
<desc>Marilles Sentier n°49 Sentier de Nodrenge / rue du Village / Rue du Village</desc>
<link href="https://chemins.be/marilles/sentier/49"/><trkseg>
<trkpt lat="50.701423" lon="4.939461"><time>2026-05-10T01:44:36Z</time></trkpt>
<trkpt lat="50.700903" lon="4.938835"><time>2026-05-10T01:54:36Z</time></trkpt>
<trkpt lat="50.700618" lon="4.938285"><time>2026-05-10T02:04:36Z</time></trkpt>
</trkseg></trk>
<trk>
<name>bojmr49</name>
<cmt>q</cmt>
<desc>Marilles Sentier n°49 Sentier de Nodrenge / rue du Village / Rue du Village</desc>
<link href="https://chemins.be/marilles/sentier/49"/><trkseg>
<trkpt lat="50.700618" lon="4.938285"><time>2026-05-10T02:04:36Z</time></trkpt>
<trkpt lat="50.699796" lon="4.936972"><time>2026-05-10T02:14:36Z</time></trkpt>
</trkseg></trk>
<trk>
<name>bojmr49</name>
<cmt>d</cmt>
<desc>Marilles Sentier n°49 Sentier de Nodrenge / rue du Village / Rue du Village</desc>
<link href="https://chemins.be/marilles/sentier/49"/><trkseg>
<trkpt lat="50.699796" lon="4.936972"><time>2026-05-10T02:14:36Z</time></trkpt>
<trkpt lat="50.699987" lon="4.935642"><time>2026-05-10T02:24:36Z</time></trkpt>
<trkpt lat="50.700663" lon="4.934500"><time>2026-05-10T02:34:36Z</time></trkpt>
</trkseg></trk>
<trk>
<name>bojmr49</name>
<cmt>s</cmt>
<desc>Marilles Sentier n°49 Sentier de Nodrenge / rue du Village / Rue du Village</desc>
<link href="https://chemins.be/marilles/sentier/49"/><trkseg>
<trkpt lat="50.700663" lon="4.934500"><time>2026-05-10T02:34:36Z</time></trkpt>
<trkpt lat="50.698155" lon="4.931710"><time>2026-05-10T02:44:36Z</time></trkpt>
</trkseg>
</trk>
<trk>
<name>bojmr49bis</name>
<cmt>q</cmt>
<desc>Marilles Sentier n°49bis </desc>
<link href="https://chemins.be/marilles/sentier/49bis"/><trkseg>
<trkpt lat="50.701031" lon="4.933880"><time>2026-05-10T00:54:36Z</time></trkpt>
<trkpt lat="50.700657" lon="4.934491"><time>2026-05-10T01:04:36Z</time></trkpt>
</trkseg>
</trk>
<trk>
<name>bojmr5</name>
<cmt>v</cmt>
<desc>Marilles Chemin n°5 Ruelle des Chats / Rue du Village / Ruelle des chats / Rue Brou de Gentissart</desc>
<link href="https://chemins.be/marilles/chemin/5"/><trkseg>
<trkpt lat="50.692503" lon="4.966042"><time>2026-05-10T00:54:36Z</time></trkpt>
<trkpt lat="50.694302" lon="4.964046"><time>2026-05-10T01:04:36Z</time></trkpt>
<trkpt lat="50.696934" lon="4.958804"><time>2026-05-10T01:14:36Z</time></trkpt>
<trkpt lat="50.697491" lon="4.957817"><time>2026-05-10T01:24:36Z</time></trkpt>
<trkpt lat="50.698207" lon="4.955406"><time>2026-05-10T01:34:36Z</time></trkpt>
<trkpt lat="50.698660" lon="4.953697"><time>2026-05-10T01:44:36Z</time></trkpt>
<trkpt lat="50.699462" lon="4.951122"><time>2026-05-10T01:54:36Z</time></trkpt>
<trkpt lat="50.699851" lon="4.948602"><time>2026-05-10T02:04:36Z</time></trkpt>
<trkpt lat="50.699883" lon="4.947753"><time>2026-05-10T02:14:36Z</time></trkpt>
<trkpt lat="50.700212" lon="4.945783"><time>2026-05-10T02:24:36Z</time></trkpt>
</trkseg></trk>
<trk>
<name>bojmr5</name>
<cmt>r</cmt>
<desc>Marilles Chemin n°5 Ruelle des Chats / Rue du Village / Ruelle des chats / Rue Brou de Gentissart</desc>
<link href="https://chemins.be/marilles/chemin/5"/><trkseg>
<trkpt lat="50.700212" lon="4.945783"><time>2026-05-10T02:24:36Z</time></trkpt>
<trkpt lat="50.700447" lon="4.944373"><time>2026-05-10T02:34:36Z</time></trkpt>
<trkpt lat="50.700461" lon="4.941155"><time>2026-05-10T02:44:36Z</time></trkpt>
<trkpt lat="50.700773" lon="4.940404"><time>2026-05-10T02:54:36Z</time></trkpt>
<trkpt lat="50.701419" lon="4.939481"><time>2026-05-10T03:04:36Z</time></trkpt>
</trkseg></trk>
<trk>
<name>bojmr5</name>
<cmt>v</cmt>
<desc>Marilles Chemin n°5 Ruelle des Chats / Rue du Village / Ruelle des chats / Rue Brou de Gentissart</desc>
<link href="https://chemins.be/marilles/chemin/5"/><trkseg>
<trkpt lat="50.701419" lon="4.939481"><time>2026-05-10T03:04:36Z</time></trkpt>
<trkpt lat="50.701601" lon="4.939030"><time>2026-05-10T03:14:36Z</time></trkpt>
<trkpt lat="50.702082" lon="4.938129"><time>2026-05-10T03:24:36Z</time></trkpt>
<trkpt lat="50.701508" lon="4.936126"><time>2026-05-10T03:34:36Z</time></trkpt>
<trkpt lat="50.701216" lon="4.935174"><time>2026-05-10T03:44:36Z</time></trkpt>
<trkpt lat="50.701075" lon="4.934522"><time>2026-05-10T03:54:36Z</time></trkpt>
<trkpt lat="50.701033" lon="4.933898"><time>2026-05-10T04:04:36Z</time></trkpt>
<trkpt lat="50.701011" lon="4.932964"><time>2026-05-10T04:14:36Z</time></trkpt>
<trkpt lat="50.700864" lon="4.931645"><time>2026-05-10T04:24:36Z</time></trkpt>
<trkpt lat="50.701021" lon="4.931209"><time>2026-05-10T04:34:36Z</time></trkpt>
<trkpt lat="50.701745" lon="4.928430"><time>2026-05-10T04:44:36Z</time></trkpt>
<trkpt lat="50.701833" lon="4.927229"><time>2026-05-10T04:54:36Z</time></trkpt>
<trkpt lat="50.702581" lon="4.924675"><time>2026-05-10T05:04:36Z</time></trkpt>
</trkseg>
</trk>
<trk>
<name>bojmr50</name>
<cmt>v</cmt>
<desc>Marilles Sentier n°50 </desc>
<link href="https://chemins.be/marilles/sentier/50"/><trkseg>
<trkpt lat="50.702082" lon="4.938101"><time>2026-05-10T00:54:36Z</time></trkpt>
<trkpt lat="50.702463" lon="4.937384"><time>2026-05-10T01:04:36Z</time></trkpt>
<trkpt lat="50.702781" lon="4.936751"><time>2026-05-10T01:14:36Z</time></trkpt>
<trkpt lat="50.702863" lon="4.936596"><time>2026-05-10T01:24:36Z</time></trkpt>
<trkpt lat="50.702863" lon="4.936511"><time>2026-05-10T01:34:36Z</time></trkpt>
<trkpt lat="50.702846" lon="4.936440"><time>2026-05-10T01:44:36Z</time></trkpt>
<trkpt lat="50.703437" lon="4.935350"><time>2026-05-10T01:54:36Z</time></trkpt>
</trkseg></trk>
<trk>
<name>bojmr50</name>
<cmt>r</cmt>
<desc>Marilles Sentier n°50 </desc>
<link href="https://chemins.be/marilles/sentier/50"/><trkseg>
<trkpt lat="50.703437" lon="4.935350"><time>2026-05-10T01:54:36Z</time></trkpt>
<trkpt lat="50.702462" lon="4.933563"><time>2026-05-10T02:04:36Z</time></trkpt>
</trkseg></trk>
<trk>
<name>bojmr50</name>
<cmt>s</cmt>
<desc>Marilles Sentier n°50 </desc>
<link href="https://chemins.be/marilles/sentier/50"/><trkseg>
<trkpt lat="50.702462" lon="4.933563"><time>2026-05-10T02:04:36Z</time></trkpt>
<trkpt lat="50.703512" lon="4.930812"><time>2026-05-10T02:14:36Z</time></trkpt>
</trkseg></trk>
<trk>
<name>bojmr50</name>
<cmt>q</cmt>
<desc>Marilles Sentier n°50 </desc>
<link href="https://chemins.be/marilles/sentier/50"/><trkseg>
<trkpt lat="50.703512" lon="4.930812"><time>2026-05-10T02:14:36Z</time></trkpt>
<trkpt lat="50.703838" lon="4.929965"><time>2026-05-10T02:24:36Z</time></trkpt>
<trkpt lat="50.703643" lon="4.924357"><time>2026-05-10T02:34:36Z</time></trkpt>
<trkpt lat="50.702780" lon="4.924289"><time>2026-05-10T02:44:36Z</time></trkpt>
</trkseg>
</trk>
<trk>
<name>bojmr51</name>
<cmt>s</cmt>
<desc>Marilles Sentier n°51 </desc>
<link href="https://chemins.be/marilles/sentier/51"/><trkseg>
<trkpt lat="50.704554" lon="4.938293"><time>2026-05-10T00:54:36Z</time></trkpt>
<trkpt lat="50.705179" lon="4.937435"><time>2026-05-10T01:04:36Z</time></trkpt>
<trkpt lat="50.706788" lon="4.936980"><time>2026-05-10T01:14:36Z</time></trkpt>
</trkseg>
</trk>
<trk>
<name>bojmr52</name>
<cmt>v</cmt>
<desc>Marilles Sentier n°52 </desc>
<link href="https://chemins.be/marilles/sentier/52"/><trkseg>
<trkpt lat="50.703199" lon="4.934900"><time>2026-05-10T00:54:36Z</time></trkpt>
<trkpt lat="50.703749" lon="4.933730"><time>2026-05-10T01:04:36Z</time></trkpt>
<trkpt lat="50.704422" lon="4.931810"><time>2026-05-10T01:14:36Z</time></trkpt>
<trkpt lat="50.705088" lon="4.929321"><time>2026-05-10T01:24:36Z</time></trkpt>
</trkseg></trk>
<trk>
<name>bojmr52</name>
<cmt>q</cmt>
<desc>Marilles Sentier n°52 </desc>
<link href="https://chemins.be/marilles/sentier/52"/><trkseg>
<trkpt lat="50.705088" lon="4.929321"><time>2026-05-10T01:24:36Z</time></trkpt>
<trkpt lat="50.705197" lon="4.927776"><time>2026-05-10T01:34:36Z</time></trkpt>
<trkpt lat="50.705754" lon="4.925394"><time>2026-05-10T01:44:36Z</time></trkpt>
</trkseg>
</trk>
<trk>
<name>bojmr53</name>
<cmt>q</cmt>
<desc>Marilles Sentier n°53 </desc>
<link href="https://chemins.be/marilles/sentier/53"/><trkseg>
<trkpt lat="50.704096" lon="4.945704"><time>2026-05-10T00:54:36Z</time></trkpt>
<trkpt lat="50.702506" lon="4.944867"><time>2026-05-10T01:04:36Z</time></trkpt>
<trkpt lat="50.701799" lon="4.944851"><time>2026-05-10T01:14:36Z</time></trkpt>
</trkseg></trk>
<trk>
<name>bojmr53</name>
<cmt>s</cmt>
<desc>Marilles Sentier n°53 </desc>
<link href="https://chemins.be/marilles/sentier/53"/><trkseg>
<trkpt lat="50.701799" lon="4.944851"><time>2026-05-10T01:14:36Z</time></trkpt>
<trkpt lat="50.700474" lon="4.945913"><time>2026-05-10T01:24:36Z</time></trkpt>
</trkseg>
</trk>
<trk>
<name>bojmr54</name>
<cmt>s</cmt>
<desc>Marilles Sentier n°54 </desc>
<link href="https://chemins.be/marilles/sentier/54"/><trkseg>
<trkpt lat="50.705514" lon="4.940627"><time>2026-05-10T00:54:36Z</time></trkpt>
<trkpt lat="50.703983" lon="4.940942"><time>2026-05-10T01:04:36Z</time></trkpt>
<trkpt lat="50.703675" lon="4.941843"><time>2026-05-10T01:14:36Z</time></trkpt>
<trkpt lat="50.702665" lon="4.943955"><time>2026-05-10T01:24:36Z</time></trkpt>
<trkpt lat="50.702485" lon="4.944888"><time>2026-05-10T01:34:36Z</time></trkpt>
</trkseg>
</trk>
<trk>
<name>bojmr55</name>
<cmt>d</cmt>
<desc>Marilles Sentier n°55 </desc>
<link href="https://chemins.be/marilles/sentier/55"/><trkseg>
<trkpt lat="50.701264" lon="4.948147"><time>2026-05-10T00:54:36Z</time></trkpt>
<trkpt lat="50.701134" lon="4.949185"><time>2026-05-10T01:04:36Z</time></trkpt>
<trkpt lat="50.701281" lon="4.952773"><time>2026-05-10T01:14:36Z</time></trkpt>
<trkpt lat="50.701205" lon="4.954189"><time>2026-05-10T01:24:36Z</time></trkpt>
<trkpt lat="50.701520" lon="4.954738"><time>2026-05-10T01:34:36Z</time></trkpt>
</trkseg>
</trk>
<trk>
<name>bojmr56</name>
<cmt>v</cmt>
<desc>Marilles Chemin n°56 Rue Warichet</desc>
<link href="https://chemins.be/marilles/chemin/56"/><trkseg>
<trkpt lat="50.709290" lon="4.974102"><time>2026-05-10T00:54:36Z</time></trkpt>
<trkpt lat="50.710121" lon="4.972292"><time>2026-05-10T01:04:36Z</time></trkpt>
<trkpt lat="50.713844" lon="4.962378"><time>2026-05-10T01:14:36Z</time></trkpt>
<trkpt lat="50.714575" lon="4.960079"><time>2026-05-10T01:24:36Z</time></trkpt>
<trkpt lat="50.715504" lon="4.958315"><time>2026-05-10T01:34:36Z</time></trkpt>
<trkpt lat="50.716405" lon="4.957994"><time>2026-05-10T01:44:36Z</time></trkpt>
<trkpt lat="50.717650" lon="4.954941"><time>2026-05-10T01:54:36Z</time></trkpt>
</trkseg>
</trk>
<trk>
<name>bojmr57</name>
<cmt>d</cmt>
<desc>Marilles Sentier n°57 </desc>
<link href="https://chemins.be/marilles/sentier/57"/><trkseg>
<trkpt lat="50.707650" lon="4.952350"><time>2026-05-10T00:54:36Z</time></trkpt>
<trkpt lat="50.708424" lon="4.952758"><time>2026-05-10T01:04:36Z</time></trkpt>
<trkpt lat="50.708393" lon="4.952973"><time>2026-05-10T01:14:36Z</time></trkpt>
<trkpt lat="50.709113" lon="4.953373"><time>2026-05-10T01:24:36Z</time></trkpt>
<trkpt lat="50.709050" lon="4.953745"><time>2026-05-10T01:34:36Z</time></trkpt>
<trkpt lat="50.708991" lon="4.954281"><time>2026-05-10T01:44:36Z</time></trkpt>
<trkpt lat="50.709077" lon="4.955168"><time>2026-05-10T01:54:36Z</time></trkpt>
</trkseg>
</trk>
<trk>
<name>bojmr58</name>
<cmt>s</cmt>
<desc>Marilles Sentier n°58 </desc>
<link href="https://chemins.be/marilles/sentier/58"/><trkseg>
<trkpt lat="50.695178" lon="4.957486"><time>2026-05-10T00:54:36Z</time></trkpt>
<trkpt lat="50.694295" lon="4.958394"><time>2026-05-10T01:04:36Z</time></trkpt>
<trkpt lat="50.693053" lon="4.958573"><time>2026-05-10T01:14:36Z</time></trkpt>
</trkseg>
</trk>
<trk>
<name>bojmr58bis</name>
<cmt>s</cmt>
<desc>Marilles Sentier n°58bis </desc>
<link href="https://chemins.be/marilles/sentier/58bis"/><trkseg>
<trkpt lat="50.696808" lon="4.958564"><time>2026-05-10T00:54:36Z</time></trkpt>
<trkpt lat="50.694389" lon="4.958421"><time>2026-05-10T01:04:36Z</time></trkpt>
</trkseg>
</trk>
<trk>
<name>bojmr6</name>
<cmt>v</cmt>
<desc>Marilles Chemin n°6 rue du Village</desc>
<link href="https://chemins.be/marilles/chemin/6"/><trkseg>
<trkpt lat="50.701428" lon="4.939495"><time>2026-05-10T00:54:36Z</time></trkpt>
<trkpt lat="50.701303" lon="4.939323"><time>2026-05-10T01:04:36Z</time></trkpt>
<trkpt lat="50.700874" lon="4.938879"><time>2026-05-10T01:14:36Z</time></trkpt>
<trkpt lat="50.700767" lon="4.938680"><time>2026-05-10T01:24:36Z</time></trkpt>
<trkpt lat="50.700643" lon="4.938296"><time>2026-05-10T01:34:36Z</time></trkpt>
</trkseg></trk>
<trk>
<name>bojmr6</name>
<cmt>q</cmt>
<desc>Marilles Chemin n°6 rue du Village</desc>
<link href="https://chemins.be/marilles/chemin/6"/><trkseg>
<trkpt lat="50.700643" lon="4.938296"><time>2026-05-10T01:34:36Z</time></trkpt>
<trkpt lat="50.698438" lon="4.935084"><time>2026-05-10T01:44:36Z</time></trkpt>
<trkpt lat="50.697919" lon="4.934555"><time>2026-05-10T01:54:36Z</time></trkpt>
<trkpt lat="50.697840" lon="4.934299"><time>2026-05-10T02:04:36Z</time></trkpt>
</trkseg>
</trk>
<trk>
<name>bojmr60</name>
<cmt>r</cmt>
<desc>Marilles Chemin n°60 Rue du Prédécipe</desc>
<link href="https://chemins.be/marilles/chemin/60"/><trkseg>
<trkpt lat="50.707189" lon="4.952812"><time>2026-05-10T00:54:36Z</time></trkpt>
<trkpt lat="50.707681" lon="4.953439"><time>2026-05-10T01:04:36Z</time></trkpt>
</trkseg>
</trk>
<trk>
<name>bojmr61</name>
<cmt>s</cmt>
<desc>Marilles Sentier n°61 </desc>
<link href="https://chemins.be/marilles/sentier/61"/><trkseg>
<trkpt lat="50.710463" lon="4.949074"><time>2026-05-10T00:54:36Z</time></trkpt>
<trkpt lat="50.710830" lon="4.949790"><time>2026-05-10T01:04:36Z</time></trkpt>
<trkpt lat="50.710082" lon="4.951556"><time>2026-05-10T01:14:36Z</time></trkpt>
<trkpt lat="50.709593" lon="4.953566"><time>2026-05-10T01:24:36Z</time></trkpt>
<trkpt lat="50.709774" lon="4.953888"><time>2026-05-10T01:34:36Z</time></trkpt>
</trkseg>
</trk>
<trk>
<name>bojmr62</name>
<cmt>q</cmt>
<desc>Marilles Sentier n°62 </desc>
<link href="https://chemins.be/marilles/sentier/62"/><trkseg>
<trkpt lat="50.709063" lon="4.953752"><time>2026-05-10T00:54:36Z</time></trkpt>
<trkpt lat="50.709815" lon="4.953952"><time>2026-05-10T01:04:36Z</time></trkpt>
<trkpt lat="50.711744" lon="4.955540"><time>2026-05-10T01:14:36Z</time></trkpt>
<trkpt lat="50.712297" lon="4.956270"><time>2026-05-10T01:24:36Z</time></trkpt>
</trkseg>
</trk>
<trk>
<name>bojmr63</name>
<cmt>s</cmt>
<desc>Marilles Sentier n°63 </desc>
<link href="https://chemins.be/marilles/sentier/63"/><trkseg>
<trkpt lat="50.704341" lon="4.936949"><time>2026-05-10T00:54:36Z</time></trkpt>
<trkpt lat="50.704843" lon="4.936069"><time>2026-05-10T01:04:36Z</time></trkpt>
<trkpt lat="50.704932" lon="4.936112"><time>2026-05-10T01:14:36Z</time></trkpt>
<trkpt lat="50.706189" lon="4.933988"><time>2026-05-10T01:24:36Z</time></trkpt>
</trkseg>
</trk>
<trk>
<name>bojmr64</name>
<cmt>q</cmt>
<desc>Marilles Sentier n°64 </desc>
<link href="https://chemins.be/marilles/sentier/64"/><trkseg>
<trkpt lat="50.706263" lon="4.933977"><time>2026-05-10T00:54:36Z</time></trkpt>
<trkpt lat="50.706895" lon="4.930308"><time>2026-05-10T01:04:36Z</time></trkpt>
</trkseg>
</trk>
<trk>
<name>bojmr65</name>
<cmt>q</cmt>
<desc>Marilles Sentier n°65 </desc>
<link href="https://chemins.be/marilles/sentier/65"/><trkseg>
<trkpt lat="50.701207" lon="4.935128"><time>2026-05-10T00:54:36Z</time></trkpt>
<trkpt lat="50.700679" lon="4.934506"><time>2026-05-10T01:04:36Z</time></trkpt>
</trkseg>
</trk>
<trk>
<name>bojmr66</name>
<cmt>q</cmt>
<desc>Marilles Sentier n°66 </desc>
<link href="https://chemins.be/marilles/sentier/66"/><trkseg>
<trkpt lat="50.713280" lon="4.939888"><time>2026-05-10T00:54:36Z</time></trkpt>
<trkpt lat="50.713677" lon="4.938607"><time>2026-05-10T01:04:36Z</time></trkpt>
<trkpt lat="50.713946" lon="4.938314"><time>2026-05-10T01:14:36Z</time></trkpt>
</trkseg>
</trk>
<trk>
<name>bojmr67</name>
<cmt>s</cmt>
<desc>Marilles Sentier n°67 </desc>
<link href="https://chemins.be/marilles/sentier/67"/><trkseg>
<trkpt lat="50.701137" lon="4.930790"><time>2026-05-10T00:54:36Z</time></trkpt>
<trkpt lat="50.700584" lon="4.930282"><time>2026-05-10T01:04:36Z</time></trkpt>
</trkseg>
</trk>
<trk>
<name>bojmr69</name>
<cmt>q</cmt>
<desc>Marilles Sentier n°69 </desc>
<link href="https://chemins.be/marilles/sentier/69"/><trkseg>
<trkpt lat="50.701287" lon="4.924723"><time>2026-05-10T00:54:36Z</time></trkpt>
<trkpt lat="50.700303" lon="4.927041"><time>2026-05-10T01:04:36Z</time></trkpt>
<trkpt lat="50.699645" lon="4.928294"><time>2026-05-10T01:14:36Z</time></trkpt>
<trkpt lat="50.698938" lon="4.929745"><time>2026-05-10T01:24:36Z</time></trkpt>
</trkseg>
</trk>
<trk>
<name>bojmr70</name>
<cmt>s</cmt>
<desc>Marilles Sentier n°70 </desc>
<link href="https://chemins.be/marilles/sentier/70"/><trkseg>
<trkpt lat="50.708135" lon="4.944461"><time>2026-05-10T00:54:36Z</time></trkpt>
<trkpt lat="50.708801" lon="4.942924"><time>2026-05-10T01:04:36Z</time></trkpt>
</trkseg>
</trk>
<trk>
<name>bojmr71</name>
<cmt>s</cmt>
<desc>Marilles Chemin n°71 </desc>
<link href="https://chemins.be/marilles/chemin/71"/><trkseg>
<trkpt lat="50.713059" lon="4.948360"><time>2026-05-10T00:54:36Z</time></trkpt>
<trkpt lat="50.712699" lon="4.949007"><time>2026-05-10T01:04:36Z</time></trkpt>
<trkpt lat="50.712893" lon="4.949748"><time>2026-05-10T01:14:36Z</time></trkpt>
</trkseg>
</trk>
<trk>
<name>bojmr8</name>
<cmt>v</cmt>
<desc>Marilles Chemin n°8 Rue des Saules Benaud / Rue Brou de Gentissart</desc>
<link href="https://chemins.be/marilles/chemin/8"/><trkseg>
<trkpt lat="50.700290" lon="4.927089"><time>2026-05-10T00:54:36Z</time></trkpt>
<trkpt lat="50.700968" lon="4.927870"><time>2026-05-10T01:04:36Z</time></trkpt>
<trkpt lat="50.701704" lon="4.928355"><time>2026-05-10T01:14:36Z</time></trkpt>
</trkseg></trk>
<trk>
<name>bojmr8</name>
<cmt>r</cmt>
<desc>Marilles Chemin n°8 Rue des Saules Benaud / Rue Brou de Gentissart</desc>
<link href="https://chemins.be/marilles/chemin/8"/><trkseg>
<trkpt lat="50.701704" lon="4.928355"><time>2026-05-10T01:14:36Z</time></trkpt>
<trkpt lat="50.704395" lon="4.931767"><time>2026-05-10T01:24:36Z</time></trkpt>
<trkpt lat="50.706216" lon="4.933956"><time>2026-05-10T01:34:36Z</time></trkpt>
<trkpt lat="50.707880" lon="4.936458"><time>2026-05-10T01:44:36Z</time></trkpt>
<trkpt lat="50.709079" lon="4.937534"><time>2026-05-10T01:54:36Z</time></trkpt>
<trkpt lat="50.710118" lon="4.938411"><time>2026-05-10T02:04:36Z</time></trkpt>
<trkpt lat="50.710799" lon="4.938900"><time>2026-05-10T02:14:36Z</time></trkpt>
<trkpt lat="50.711129" lon="4.939329"><time>2026-05-10T02:24:36Z</time></trkpt>
<trkpt lat="50.711344" lon="4.939657"><time>2026-05-10T02:34:36Z</time></trkpt>
<trkpt lat="50.711828" lon="4.939847"><time>2026-05-10T02:44:36Z</time></trkpt>
<trkpt lat="50.712231" lon="4.940149"><time>2026-05-10T02:54:36Z</time></trkpt>
<trkpt lat="50.712454" lon="4.940648"><time>2026-05-10T03:04:36Z</time></trkpt>
<trkpt lat="50.712830" lon="4.940950"><time>2026-05-10T03:14:36Z</time></trkpt>
<trkpt lat="50.713572" lon="4.941723"><time>2026-05-10T03:24:36Z</time></trkpt>
<trkpt lat="50.714789" lon="4.942828"><time>2026-05-10T03:34:36Z</time></trkpt>
</trkseg></trk>
<trk>
<name>bojmr8</name>
<cmt>v</cmt>
<desc>Marilles Chemin n°8 Rue des Saules Benaud / Rue Brou de Gentissart</desc>
<link href="https://chemins.be/marilles/chemin/8"/><trkseg>
<trkpt lat="50.714789" lon="4.942828"><time>2026-05-10T03:34:36Z</time></trkpt>
<trkpt lat="50.718563" lon="4.945140"><time>2026-05-10T03:44:36Z</time></trkpt>
</trkseg>
</trk>
<trk>
<name>bojmr9</name>
<cmt>v</cmt>
<desc>Marilles Chemin n°9 </desc>
<link href="https://chemins.be/marilles/chemin/9"/><trkseg>
<trkpt lat="50.698859" lon="4.944588"><time>2026-05-10T00:54:36Z</time></trkpt>
<trkpt lat="50.699642" lon="4.942658"><time>2026-05-10T01:04:36Z</time></trkpt>
<trkpt lat="50.700422" lon="4.941148"><time>2026-05-10T01:14:36Z</time></trkpt>
<trkpt lat="50.696634" lon="4.937727"><time>2026-05-10T01:24:36Z</time></trkpt>
</trkseg>
</trk>
<trk>
<name>bojmri1</name>
<cmt>d</cmt>
<desc>Marilles Chemin n°i1 </desc>
<link href="https://chemins.be/marilles/chemin/i1"/><trkseg>
<trkpt lat="50.701769" lon="4.941438"><time>2026-05-10T00:54:36Z</time></trkpt>
<trkpt lat="50.701350" lon="4.942537"><time>2026-05-10T01:04:36Z</time></trkpt>
</trkseg>
</trk>
<trk>
<name>bojmri2</name>
<cmt>v</cmt>
<desc>Marilles Chemin n°i2 </desc>
<link href="https://chemins.be/marilles/chemin/i2"/><trkseg>
<trkpt lat="50.709559" lon="4.930662"><time>2026-05-10T00:54:36Z</time></trkpt>
<trkpt lat="50.710890" lon="4.931746"><time>2026-05-10T01:04:36Z</time></trkpt>
</trkseg>
</trk>
<trk>
<name>bojmri3</name>
<cmt>v</cmt>
<desc>Marilles Chemin n°i3 </desc>
<link href="https://chemins.be/marilles/chemin/i3"/><trkseg>
<trkpt lat="50.698242" lon="4.955314"><time>2026-05-10T00:54:36Z</time></trkpt>
<trkpt lat="50.699916" lon="4.955567"><time>2026-05-10T01:04:36Z</time></trkpt>
<trkpt lat="50.700606" lon="4.955550"><time>2026-05-10T01:14:36Z</time></trkpt>
<trkpt lat="50.701427" lon="4.955657"><time>2026-05-10T01:24:36Z</time></trkpt>
</trkseg>
</trk>
<trk>
<name>bojnd11</name>
<cmt>d</cmt>
<desc>Noduwez Chemin n°11 </desc>
<link href="https://chemins.be/noduwez/chemin/11"/><trkseg>
<trkpt lat="50.722024" lon="4.971115"><time>2026-05-10T00:54:36Z</time></trkpt>
<trkpt lat="50.721523" lon="4.972534"><time>2026-05-10T01:04:36Z</time></trkpt>
<trkpt lat="50.721345" lon="4.973124"><time>2026-05-10T01:14:36Z</time></trkpt>
<trkpt lat="50.721018" lon="4.974203"><time>2026-05-10T01:24:36Z</time></trkpt>
<trkpt lat="50.720191" lon="4.977967"><time>2026-05-10T01:34:36Z</time></trkpt>
</trkseg></trk>
<trk>
<name>bojnd11</name>
<cmt>v</cmt>
<desc>Noduwez Chemin n°11 </desc>
<link href="https://chemins.be/noduwez/chemin/11"/><trkseg>
<trkpt lat="50.720191" lon="4.977967"><time>2026-05-10T01:34:36Z</time></trkpt>
<trkpt lat="50.719860" lon="4.979356"><time>2026-05-10T01:44:36Z</time></trkpt>
<trkpt lat="50.719674" lon="4.980465"><time>2026-05-10T01:54:36Z</time></trkpt>
</trkseg>
</trk>
<trk>
<name>bojnd12</name>
<cmt>v</cmt>
<desc>Noduwez Chemin n°12 </desc>
<link href="https://chemins.be/noduwez/chemin/12"/><trkseg>
<trkpt lat="50.728388" lon="4.956207"><time>2026-05-10T00:54:36Z</time></trkpt>
<trkpt lat="50.728674" lon="4.955349"><time>2026-05-10T01:04:36Z</time></trkpt>
<trkpt lat="50.731621" lon="4.954126"><time>2026-05-10T01:14:36Z</time></trkpt>
<trkpt lat="50.733631" lon="4.953482"><time>2026-05-10T01:24:36Z</time></trkpt>
<trkpt lat="50.735329" lon="4.953160"><time>2026-05-10T01:34:36Z</time></trkpt>
</trkseg></trk>
<trk>
<name>bojnd12</name>
<cmt>d</cmt>
<desc>Noduwez Chemin n°12 </desc>
<link href="https://chemins.be/noduwez/chemin/12"/><trkseg>
<trkpt lat="50.735329" lon="4.953160"><time>2026-05-10T01:34:36Z</time></trkpt>
<trkpt lat="50.737692" lon="4.952216"><time>2026-05-10T01:44:36Z</time></trkpt>
<trkpt lat="50.738798" lon="4.952120"><time>2026-05-10T01:54:36Z</time></trkpt>
</trkseg>
</trk>
<trk>
<name>bojnd13</name>
<cmt>v</cmt>
<desc>Noduwez Chemin n°13 </desc>
<link href="https://chemins.be/noduwez/chemin/13"/><trkseg>
<trkpt lat="50.730005" lon="4.971077"><time>2026-05-10T00:54:36Z</time></trkpt>
<trkpt lat="50.726677" lon="4.980057"><time>2026-05-10T01:04:36Z</time></trkpt>
</trkseg></trk>
<trk>
<name>bojnd13</name>
<cmt>d</cmt>
<desc>Noduwez Chemin n°13 </desc>
<link href="https://chemins.be/noduwez/chemin/13"/><trkseg>
<trkpt lat="50.726677" lon="4.980057"><time>2026-05-10T01:04:36Z</time></trkpt>
<trkpt lat="50.725896" lon="4.981785"><time>2026-05-10T01:14:36Z</time></trkpt>
<trkpt lat="50.725902" lon="4.982525"><time>2026-05-10T01:24:36Z</time></trkpt>
<trkpt lat="50.725413" lon="4.983866"><time>2026-05-10T01:34:36Z</time></trkpt>
<trkpt lat="50.724964" lon="4.984697"><time>2026-05-10T01:44:36Z</time></trkpt>
<trkpt lat="50.724701" lon="4.985198"><time>2026-05-10T01:54:36Z</time></trkpt>
</trkseg>
</trk>
<trk>
<name>bojnd3</name>
<cmt>v</cmt>
<desc>Noduwez Chemin n°3 </desc>
<link href="https://chemins.be/noduwez/chemin/3"/><trkseg>
<trkpt lat="50.733468" lon="4.957763"><time>2026-05-10T00:54:36Z</time></trkpt>
<trkpt lat="50.733617" lon="4.953493"><time>2026-05-10T01:04:36Z</time></trkpt>
<trkpt lat="50.733830" lon="4.950189"><time>2026-05-10T01:14:36Z</time></trkpt>
</trkseg></trk>
<trk>
<name>bojnd3</name>
<cmt>d</cmt>
<desc>Noduwez Chemin n°3 </desc>
<link href="https://chemins.be/noduwez/chemin/3"/><trkseg>
<trkpt lat="50.733830" lon="4.950189"><time>2026-05-10T01:14:36Z</time></trkpt>
<trkpt lat="50.733617" lon="4.948489"><time>2026-05-10T01:24:36Z</time></trkpt>
<trkpt lat="50.733285" lon="4.946935"><time>2026-05-10T01:34:36Z</time></trkpt>
</trkseg></trk>
<trk>
<name>bojnd3</name>
<cmt>v</cmt>
<desc>Noduwez Chemin n°3 </desc>
<link href="https://chemins.be/noduwez/chemin/3"/><trkseg>
<trkpt lat="50.733285" lon="4.946935"><time>2026-05-10T01:34:36Z</time></trkpt>
<trkpt lat="50.733332" lon="4.945541"><time>2026-05-10T01:44:36Z</time></trkpt>
</trkseg>
</trk>
<trk>
<name>bojnd30</name>
<cmt>s</cmt>
<desc>Noduwez Chemin n°30 </desc>
<link href="https://chemins.be/noduwez/chemin/30"/><trkseg>
<trkpt lat="50.725235" lon="4.985997"><time>2026-05-10T00:54:36Z</time></trkpt>
<trkpt lat="50.725656" lon="4.986444"><time>2026-05-10T01:04:36Z</time></trkpt>
</trkseg></trk>
<trk>
<name>bojnd30</name>
<cmt>d</cmt>
<desc>Noduwez Chemin n°30 </desc>
<link href="https://chemins.be/noduwez/chemin/30"/><trkseg>
<trkpt lat="50.725656" lon="4.986444"><time>2026-05-10T01:04:36Z</time></trkpt>
<trkpt lat="50.726807" lon="4.987689"><time>2026-05-10T01:14:36Z</time></trkpt>
</trkseg></trk>
<trk>
<name>bojnd30</name>
<cmt>r</cmt>
<desc>Noduwez Chemin n°30 </desc>
<link href="https://chemins.be/noduwez/chemin/30"/><trkseg>
<trkpt lat="50.726807" lon="4.987689"><time>2026-05-10T01:14:36Z</time></trkpt>
<trkpt lat="50.727675" lon="4.988555"><time>2026-05-10T01:24:36Z</time></trkpt>
</trkseg></trk>
<trk>
<name>bojnd30</name>
<cmt>d</cmt>
<desc>Noduwez Chemin n°30 </desc>
<link href="https://chemins.be/noduwez/chemin/30"/><trkseg>
<trkpt lat="50.727675" lon="4.988555"><time>2026-05-10T01:24:36Z</time></trkpt>
<trkpt lat="50.728313" lon="4.989161"><time>2026-05-10T01:34:36Z</time></trkpt>
<trkpt lat="50.728965" lon="4.990470"><time>2026-05-10T01:44:36Z</time></trkpt>
<trkpt lat="50.729570" lon="4.991156"><time>2026-05-10T01:54:36Z</time></trkpt>
<trkpt lat="50.729706" lon="4.991510"><time>2026-05-10T02:04:36Z</time></trkpt>
</trkseg>
</trk>
<trk>
<name>bojnd33</name>
<cmt>v</cmt>
<desc>Noduwez Chemin n°33 </desc>
<link href="https://chemins.be/noduwez/chemin/33"/><trkseg>
<trkpt lat="50.733393" lon="4.984907"><time>2026-05-10T00:54:36Z</time></trkpt>
<trkpt lat="50.735498" lon="4.988104"><time>2026-05-10T01:04:36Z</time></trkpt>
<trkpt lat="50.735892" lon="4.988002"><time>2026-05-10T01:14:36Z</time></trkpt>
</trkseg>
</trk>
<trk>
<name>bojnd34</name>
<cmt>r</cmt>
<desc>Noduwez Chemin n°34 Rue de la Fontaine</desc>
<link href="https://chemins.be/noduwez/chemin/34"/><trkseg>
<trkpt lat="50.731726" lon="4.986441"><time>2026-05-10T00:54:36Z</time></trkpt>
<trkpt lat="50.732266" lon="4.986849"><time>2026-05-10T01:04:36Z</time></trkpt>
</trkseg></trk>
<trk>
<name>bojnd34</name>
<cmt>v</cmt>
<desc>Noduwez Chemin n°34 Rue de la Fontaine</desc>
<link href="https://chemins.be/noduwez/chemin/34"/><trkseg>
<trkpt lat="50.732266" lon="4.986849"><time>2026-05-10T01:04:36Z</time></trkpt>
<trkpt lat="50.732533" lon="4.987177"><time>2026-05-10T01:14:36Z</time></trkpt>
<trkpt lat="50.732751" lon="4.987444"><time>2026-05-10T01:24:36Z</time></trkpt>
</trkseg>
</trk>
<trk>
<name>bojnd35</name>
<cmt>d</cmt>
<desc>Noduwez Chemin n°35 </desc>
<link href="https://chemins.be/noduwez/chemin/35"/><trkseg>
<trkpt lat="50.729768" lon="4.971678"><time>2026-05-10T00:54:36Z</time></trkpt>
<trkpt lat="50.730059" lon="4.976227"><time>2026-05-10T01:04:36Z</time></trkpt>
</trkseg></trk>
<trk>
<name>bojnd35</name>
<cmt>s</cmt>
<desc>Noduwez Chemin n°35 </desc>
<link href="https://chemins.be/noduwez/chemin/35"/><trkseg>
<trkpt lat="50.730059" lon="4.976227"><time>2026-05-10T01:04:36Z</time></trkpt>
<trkpt lat="50.730324" lon="4.977611"><time>2026-05-10T01:14:36Z</time></trkpt>
</trkseg></trk>
<trk>
<name>bojnd35</name>
<cmt>d</cmt>
<desc>Noduwez Chemin n°35 </desc>
<link href="https://chemins.be/noduwez/chemin/35"/><trkseg>
<trkpt lat="50.730324" lon="4.977611"><time>2026-05-10T01:14:36Z</time></trkpt>
<trkpt lat="50.730494" lon="4.979725"><time>2026-05-10T01:24:36Z</time></trkpt>
</trkseg></trk>
<trk>
<name>bojnd35</name>
<cmt>v</cmt>
<desc>Noduwez Chemin n°35 </desc>
<link href="https://chemins.be/noduwez/chemin/35"/><trkseg>
<trkpt lat="50.730494" lon="4.979725"><time>2026-05-10T01:24:36Z</time></trkpt>
<trkpt lat="50.730820" lon="4.981871"><time>2026-05-10T01:34:36Z</time></trkpt>
<trkpt lat="50.732735" lon="4.984188"><time>2026-05-10T01:44:36Z</time></trkpt>
</trkseg>
</trk>
<trk>
<name>bojnd36</name>
<cmt>v</cmt>
<desc>Noduwez Chemin n°36 Rue de Leau</desc>
<link href="https://chemins.be/noduwez/chemin/36"/><trkseg>
<trkpt lat="50.731990" lon="4.967317"><time>2026-05-10T00:54:36Z</time></trkpt>
<trkpt lat="50.732527" lon="4.967749"><time>2026-05-10T01:04:36Z</time></trkpt>
<trkpt lat="50.733064" lon="4.968238"><time>2026-05-10T01:14:36Z</time></trkpt>
<trkpt lat="50.734297" lon="4.968055"><time>2026-05-10T01:24:36Z</time></trkpt>
<trkpt lat="50.736062" lon="4.968357"><time>2026-05-10T01:34:36Z</time></trkpt>
</trkseg>
</trk>
<trk>
<name>bojnd37</name>
<cmt>r</cmt>
<desc>Noduwez Chemin n°37 </desc>
<link href="https://chemins.be/noduwez/chemin/37"/><trkseg>
<trkpt lat="50.733316" lon="4.961229"><time>2026-05-10T00:54:36Z</time></trkpt>
<trkpt lat="50.733737" lon="4.960538"><time>2026-05-10T01:04:36Z</time></trkpt>
</trkseg></trk>
<trk>
<name>bojnd37</name>
<cmt>v</cmt>
<desc>Noduwez Chemin n°37 </desc>
<link href="https://chemins.be/noduwez/chemin/37"/><trkseg>
<trkpt lat="50.733737" lon="4.960538"><time>2026-05-10T01:04:36Z</time></trkpt>
<trkpt lat="50.734486" lon="4.959147"><time>2026-05-10T01:14:36Z</time></trkpt>
<trkpt lat="50.734729" lon="4.958533"><time>2026-05-10T01:24:36Z</time></trkpt>
</trkseg></trk>
<trk>
<name>bojnd37</name>
<cmt>d</cmt>
<desc>Noduwez Chemin n°37 </desc>
<link href="https://chemins.be/noduwez/chemin/37"/><trkseg>
<trkpt lat="50.734729" lon="4.958533"><time>2026-05-10T01:24:36Z</time></trkpt>
<trkpt lat="50.735333" lon="4.957004"><time>2026-05-10T01:34:36Z</time></trkpt>
</trkseg></trk>
<trk>
<name>bojnd37</name>
<cmt>s</cmt>
<desc>Noduwez Chemin n°37 </desc>
<link href="https://chemins.be/noduwez/chemin/37"/><trkseg>
<trkpt lat="50.735333" lon="4.957004"><time>2026-05-10T01:34:36Z</time></trkpt>
<trkpt lat="50.737640" lon="4.952231"><time>2026-05-10T01:44:36Z</time></trkpt>
</trkseg></trk>
<trk>
<name>bojnd37</name>
<cmt>d</cmt>
<desc>Noduwez Chemin n°37 </desc>
<link href="https://chemins.be/noduwez/chemin/37"/><trkseg>
<trkpt lat="50.737640" lon="4.952231"><time>2026-05-10T01:44:36Z</time></trkpt>
<trkpt lat="50.738631" lon="4.950061"><time>2026-05-10T01:54:36Z</time></trkpt>
</trkseg></trk>
<trk>
<name>bojnd37</name>
<cmt>q</cmt>
<desc>Noduwez Chemin n°37 </desc>
<link href="https://chemins.be/noduwez/chemin/37"/><trkseg>
<trkpt lat="50.738631" lon="4.950061"><time>2026-05-10T01:54:36Z</time></trkpt>
<trkpt lat="50.739853" lon="4.948348"><time>2026-05-10T02:04:36Z</time></trkpt>
</trkseg>
</trk>
<trk>
<name>bojnd38</name>
<cmt>v</cmt>
<desc>Noduwez Chemin n°38 </desc>
<link href="https://chemins.be/noduwez/chemin/38"/><trkseg>
<trkpt lat="50.734894" lon="4.943842"><time>2026-05-10T00:54:36Z</time></trkpt>
<trkpt lat="50.734303" lon="4.947447"><time>2026-05-10T01:04:36Z</time></trkpt>
<trkpt lat="50.733868" lon="4.950183"><time>2026-05-10T01:14:36Z</time></trkpt>
</trkseg>
</trk>
<trk>
<name>bojnd4</name>
<cmt>v</cmt>
<desc>Noduwez Chemin n°4 </desc>
<link href="https://chemins.be/noduwez/chemin/4"/><trkseg>
<trkpt lat="50.724409" lon="4.965638"><time>2026-05-10T00:54:36Z</time></trkpt>
<trkpt lat="50.724164" lon="4.966285"><time>2026-05-10T01:04:36Z</time></trkpt>
<trkpt lat="50.723499" lon="4.965634"><time>2026-05-10T01:14:36Z</time></trkpt>
</trkseg>
</trk>
<trk>
<name>bojnd42</name>
<cmt>d</cmt>
<desc>Noduwez Chemin n°42 </desc>
<link href="https://chemins.be/noduwez/chemin/42"/><trkseg>
<trkpt lat="50.721703" lon="4.958932"><time>2026-05-10T00:54:36Z</time></trkpt>
<trkpt lat="50.723762" lon="4.958360"><time>2026-05-10T01:04:36Z</time></trkpt>
<trkpt lat="50.725241" lon="4.957660"><time>2026-05-10T01:14:36Z</time></trkpt>
<trkpt lat="50.726066" lon="4.957025"><time>2026-05-10T01:24:36Z</time></trkpt>
<trkpt lat="50.727201" lon="4.955606"><time>2026-05-10T01:34:36Z</time></trkpt>
<trkpt lat="50.727352" lon="4.955701"><time>2026-05-10T01:44:36Z</time></trkpt>
</trkseg>
</trk>
<trk>
<name>bojnd43</name>
<cmt>r</cmt>
<desc>Noduwez Chemin n°43 </desc>
<link href="https://chemins.be/noduwez/chemin/43"/><trkseg>
<trkpt lat="50.720853" lon="4.960024"><time>2026-05-10T00:54:36Z</time></trkpt>
<trkpt lat="50.721676" lon="4.958958"><time>2026-05-10T01:04:36Z</time></trkpt>
</trkseg></trk>
<trk>
<name>bojnd43</name>
<cmt>v</cmt>
<desc>Noduwez Chemin n°43 </desc>
<link href="https://chemins.be/noduwez/chemin/43"/><trkseg>
<trkpt lat="50.721676" lon="4.958958"><time>2026-05-10T01:04:36Z</time></trkpt>
<trkpt lat="50.723735" lon="4.951704"><time>2026-05-10T01:14:36Z</time></trkpt>
</trkseg>
</trk>
<trk>
<name>bojnd44</name>
<cmt>v</cmt>
<desc>Noduwez Sentier n°44 Rue Warichet</desc>
<link href="https://chemins.be/noduwez/sentier/44"/><trkseg>
<trkpt lat="50.710139" lon="4.972327"><time>2026-05-10T00:54:36Z</time></trkpt>
<trkpt lat="50.713844" lon="4.962428"><time>2026-05-10T01:04:36Z</time></trkpt>
<trkpt lat="50.714577" lon="4.960072"><time>2026-05-10T01:14:36Z</time></trkpt>
<trkpt lat="50.715542" lon="4.958320"><time>2026-05-10T01:24:36Z</time></trkpt>
</trkseg></trk>
<trk>
<name>bojnd44</name>
<cmt>r</cmt>
<desc>Noduwez Sentier n°44 Rue Warichet</desc>
<link href="https://chemins.be/noduwez/sentier/44"/><trkseg>
<trkpt lat="50.715542" lon="4.958320"><time>2026-05-10T01:24:36Z</time></trkpt>
<trkpt lat="50.716425" lon="4.957987"><time>2026-05-10T01:34:36Z</time></trkpt>
<trkpt lat="50.717632" lon="4.954798"><time>2026-05-10T01:44:36Z</time></trkpt>
</trkseg></trk>
<trk>
<name>bojnd44</name>
<cmt>v</cmt>
<desc>Noduwez Sentier n°44 Rue Warichet</desc>
<link href="https://chemins.be/noduwez/sentier/44"/><trkseg>
<trkpt lat="50.717632" lon="4.954798"><time>2026-05-10T01:44:36Z</time></trkpt>
<trkpt lat="50.719364" lon="4.952160"><time>2026-05-10T01:54:36Z</time></trkpt>
<trkpt lat="50.720753" lon="4.950013"><time>2026-05-10T02:04:36Z</time></trkpt>
</trkseg></trk>
<trk>
<name>bojnd44</name>
<cmt>d</cmt>
<desc>Noduwez Sentier n°44 Rue Warichet</desc>
<link href="https://chemins.be/noduwez/sentier/44"/><trkseg>
<trkpt lat="50.720753" lon="4.950013"><time>2026-05-10T02:04:36Z</time></trkpt>
<trkpt lat="50.721225" lon="4.949579"><time>2026-05-10T02:14:36Z</time></trkpt>
<trkpt lat="50.722257" lon="4.949588"><time>2026-05-10T02:24:36Z</time></trkpt>
</trkseg>
</trk>
<trk>
<name>bojnd45</name>
<cmt>b</cmt>
<desc>Noduwez Chemin n°45 </desc>
<link href="https://chemins.be/noduwez/chemin/45"/><trkseg>
<trkpt lat="50.722213" lon="4.970809"><time>2026-05-10T00:54:36Z</time></trkpt>
<trkpt lat="50.721869" lon="4.970816"><time>2026-05-10T01:04:36Z</time></trkpt>
</trkseg></trk>
<trk>
<name>bojnd45</name>
<cmt>d</cmt>
<desc>Noduwez Chemin n°45 </desc>
<link href="https://chemins.be/noduwez/chemin/45"/><trkseg>
<trkpt lat="50.721869" lon="4.970816"><time>2026-05-10T01:04:36Z</time></trkpt>
<trkpt lat="50.721387" lon="4.970825"><time>2026-05-10T01:14:36Z</time></trkpt>
</trkseg></trk>
<trk>
<name>bojnd45</name>
<cmt>v</cmt>
<desc>Noduwez Chemin n°45 </desc>
<link href="https://chemins.be/noduwez/chemin/45"/><trkseg>
<trkpt lat="50.721387" lon="4.970825"><time>2026-05-10T01:14:36Z</time></trkpt>
<trkpt lat="50.719529" lon="4.970924"><time>2026-05-10T01:24:36Z</time></trkpt>
<trkpt lat="50.717933" lon="4.971453"><time>2026-05-10T01:34:36Z</time></trkpt>
<trkpt lat="50.716522" lon="4.971135"><time>2026-05-10T01:44:36Z</time></trkpt>
</trkseg></trk>
<trk>
<name>bojnd45</name>
<cmt>d</cmt>
<desc>Noduwez Chemin n°45 </desc>
<link href="https://chemins.be/noduwez/chemin/45"/><trkseg>
<trkpt lat="50.716522" lon="4.971135"><time>2026-05-10T01:44:36Z</time></trkpt>
<trkpt lat="50.715163" lon="4.971632"><time>2026-05-10T01:54:36Z</time></trkpt>
</trkseg>
</trk>
<trk>
<name>bojnd47</name>
<cmt>v</cmt>
<desc>Noduwez Sentier n°47 Rue des Saules Benaud</desc>
<link href="https://chemins.be/noduwez/sentier/47"/><trkseg>
<trkpt lat="50.718661" lon="4.945255"><time>2026-05-10T00:54:36Z</time></trkpt>
<trkpt lat="50.720012" lon="4.946602"><time>2026-05-10T01:04:36Z</time></trkpt>
<trkpt lat="50.721970" lon="4.948765"><time>2026-05-10T01:14:36Z</time></trkpt>
</trkseg>
</trk>
<trk>
<name>bojnd48</name>
<cmt>s</cmt>
<desc>Noduwez Sentier n°48 </desc>
<link href="https://chemins.be/noduwez/sentier/48"/><trkseg>
<trkpt lat="50.730579" lon="4.963725"><time>2026-05-10T00:54:36Z</time></trkpt>
<trkpt lat="50.730975" lon="4.963628"><time>2026-05-10T01:04:36Z</time></trkpt>
<trkpt lat="50.731677" lon="4.963138"><time>2026-05-10T01:14:36Z</time></trkpt>
<trkpt lat="50.732017" lon="4.963835"><time>2026-05-10T01:24:36Z</time></trkpt>
<trkpt lat="50.732572" lon="4.964812"><time>2026-05-10T01:34:36Z</time></trkpt>
</trkseg>
</trk>
<trk>
<name>bojnd5</name>
<cmt>v</cmt>
<desc>Noduwez Chemin n°5 Rue du Tumulus</desc>
<link href="https://chemins.be/noduwez/chemin/5"/><trkseg>
<trkpt lat="50.732374" lon="4.970326"><time>2026-05-10T00:54:36Z</time></trkpt>
<trkpt lat="50.732556" lon="4.972502"><time>2026-05-10T01:04:36Z</time></trkpt>
</trkseg></trk>
<trk>
<name>bojnd5</name>
<cmt>s</cmt>
<desc>Noduwez Chemin n°5 Rue du Tumulus</desc>
<link href="https://chemins.be/noduwez/chemin/5"/><trkseg>
<trkpt lat="50.732556" lon="4.972502"><time>2026-05-10T01:04:36Z</time></trkpt>
<trkpt lat="50.732591" lon="4.972971"><time>2026-05-10T01:14:36Z</time></trkpt>
<trkpt lat="50.732809" lon="4.974500"><time>2026-05-10T01:24:36Z</time></trkpt>
</trkseg></trk>
<trk>
<name>bojnd5</name>
<cmt>d</cmt>
<desc>Noduwez Chemin n°5 Rue du Tumulus</desc>
<link href="https://chemins.be/noduwez/chemin/5"/><trkseg>
<trkpt lat="50.732809" lon="4.974500"><time>2026-05-10T01:24:36Z</time></trkpt>
<trkpt lat="50.733088" lon="4.977429"><time>2026-05-10T01:34:36Z</time></trkpt>
</trkseg></trk>
<trk>
<name>bojnd5</name>
<cmt>r</cmt>
<desc>Noduwez Chemin n°5 Rue du Tumulus</desc>
<link href="https://chemins.be/noduwez/chemin/5"/><trkseg>
<trkpt lat="50.733088" lon="4.977429"><time>2026-05-10T01:34:36Z</time></trkpt>
<trkpt lat="50.732966" lon="4.979403"><time>2026-05-10T01:44:36Z</time></trkpt>
<trkpt lat="50.732972" lon="4.980991"><time>2026-05-10T01:54:36Z</time></trkpt>
</trkseg>
</trk>
<trk>
<name>bojnd59</name>
<cmt>q</cmt>
<desc>Noduwez Sentier n°59 </desc>
<link href="https://chemins.be/noduwez/sentier/59"/><trkseg>
<trkpt lat="50.731084" lon="4.985926"><time>2026-05-10T00:54:36Z</time></trkpt>
<trkpt lat="50.730863" lon="4.986457"><time>2026-05-10T01:04:36Z</time></trkpt>
<trkpt lat="50.730911" lon="4.986602"><time>2026-05-10T01:14:36Z</time></trkpt>
<trkpt lat="50.730595" lon="4.987299"><time>2026-05-10T01:24:36Z</time></trkpt>
<trkpt lat="50.727668" lon="4.988551"><time>2026-05-10T01:34:36Z</time></trkpt>
<trkpt lat="50.726256" lon="4.989118"><time>2026-05-10T01:44:36Z</time></trkpt>
</trkseg>
</trk>
<trk>
<name>bojnd6</name>
<cmt>r</cmt>
<desc>Noduwez Chemin n°6 Rue de Maret</desc>
<link href="https://chemins.be/noduwez/chemin/6"/><trkseg>
<trkpt lat="50.731610" lon="4.986361"><time>2026-05-10T00:54:36Z</time></trkpt>
<trkpt lat="50.730438" lon="4.985162"><time>2026-05-10T01:04:36Z</time></trkpt>
<trkpt lat="50.728037" lon="4.986656"><time>2026-05-10T01:14:36Z</time></trkpt>
<trkpt lat="50.727124" lon="4.987136"><time>2026-05-10T01:24:36Z</time></trkpt>
<trkpt lat="50.726797" lon="4.987808"><time>2026-05-10T01:34:36Z</time></trkpt>
</trkseg></trk>
<trk>
<name>bojnd6</name>
<cmt>d</cmt>
<desc>Noduwez Chemin n°6 Rue de Maret</desc>
<link href="https://chemins.be/noduwez/chemin/6"/><trkseg>
<trkpt lat="50.726797" lon="4.987808"><time>2026-05-10T01:34:36Z</time></trkpt>
<trkpt lat="50.726270" lon="4.989233"><time>2026-05-10T01:44:36Z</time></trkpt>
<trkpt lat="50.725944" lon="4.989628"><time>2026-05-10T01:54:36Z</time></trkpt>
<trkpt lat="50.725172" lon="4.989885"><time>2026-05-10T02:04:36Z</time></trkpt>
</trkseg>
</trk>
<trk>
<name>bojnd60</name>
<cmt>q</cmt>
<desc>Noduwez Sentier n°60 </desc>
<link href="https://chemins.be/noduwez/sentier/60"/><trkseg>
<trkpt lat="50.733373" lon="4.984789"><time>2026-05-10T00:54:36Z</time></trkpt>
<trkpt lat="50.733210" lon="4.981956"><time>2026-05-10T01:04:36Z</time></trkpt>
<trkpt lat="50.732992" lon="4.981184"><time>2026-05-10T01:14:36Z</time></trkpt>
</trkseg>
</trk>
<trk>
<name>bojnd61</name>
<cmt>q</cmt>
<desc>Noduwez Sentier n°61 </desc>
<link href="https://chemins.be/noduwez/sentier/61"/><trkseg>
<trkpt lat="50.730208" lon="4.984714"><time>2026-05-10T00:54:36Z</time></trkpt>
<trkpt lat="50.730717" lon="4.981259"><time>2026-05-10T01:04:36Z</time></trkpt>
</trkseg>
</trk>
<trk>
<name>bojnd62</name>
<cmt>q</cmt>
<desc>Noduwez Sentier n°62 </desc>
<link href="https://chemins.be/noduwez/sentier/62"/><trkseg>
<trkpt lat="50.732225" lon="4.986849"><time>2026-05-10T00:54:36Z</time></trkpt>
<trkpt lat="50.733400" lon="4.984939"><time>2026-05-10T01:04:36Z</time></trkpt>
</trkseg>
</trk>
<trk>
<name>bojnd63</name>
<cmt>q</cmt>
<desc>Noduwez Sentier n°63 </desc>
<link href="https://chemins.be/noduwez/sentier/63"/><trkseg>
<trkpt lat="50.732381" lon="4.990169"><time>2026-05-10T00:54:36Z</time></trkpt>
<trkpt lat="50.732727" lon="4.990604"><time>2026-05-10T01:04:36Z</time></trkpt>
<trkpt lat="50.732676" lon="4.990706"><time>2026-05-10T01:14:36Z</time></trkpt>
<trkpt lat="50.733919" lon="4.992224"><time>2026-05-10T01:24:36Z</time></trkpt>
</trkseg>
</trk>
<trk>
<name>bojnd64</name>
<cmt>v</cmt>
<desc>Noduwez Chemin n°64 </desc>
<link href="https://chemins.be/noduwez/chemin/64"/><trkseg>
<trkpt lat="50.726043" lon="4.969169"><time>2026-05-10T00:54:36Z</time></trkpt>
<trkpt lat="50.728253" lon="4.970541"><time>2026-05-10T01:04:36Z</time></trkpt>
</trkseg></trk>
<trk>
<name>bojnd64</name>
<cmt>b</cmt>
<desc>Noduwez Chemin n°64 </desc>
<link href="https://chemins.be/noduwez/chemin/64"/><trkseg>
<trkpt lat="50.728253" lon="4.970541"><time>2026-05-10T01:04:36Z</time></trkpt>
<trkpt lat="50.729104" lon="4.970686"><time>2026-05-10T01:14:36Z</time></trkpt>
<trkpt lat="50.729952" lon="4.971075"><time>2026-05-10T01:24:36Z</time></trkpt>
</trkseg></trk>
<trk>
<name>bojnd64</name>
<cmt>v</cmt>
<desc>Noduwez Chemin n°64 </desc>
<link href="https://chemins.be/noduwez/chemin/64"/><trkseg>
<trkpt lat="50.729952" lon="4.971075"><time>2026-05-10T01:24:36Z</time></trkpt>
<trkpt lat="50.731485" lon="4.972032"><time>2026-05-10T01:34:36Z</time></trkpt>
<trkpt lat="50.732340" lon="4.972858"><time>2026-05-10T01:44:36Z</time></trkpt>
</trkseg>
</trk>
<trk>
<name>bojnd65</name>
<cmt>q</cmt>
<desc>Noduwez Sentier n°65 </desc>
<link href="https://chemins.be/noduwez/sentier/65"/><trkseg>
<trkpt lat="50.729571" lon="4.965155"><time>2026-05-10T00:54:36Z</time></trkpt>
<trkpt lat="50.730933" lon="4.965870"><time>2026-05-10T01:04:36Z</time></trkpt>
<trkpt lat="50.732296" lon="4.966514"><time>2026-05-10T01:14:36Z</time></trkpt>
</trkseg></trk>
<trk>
<name>bojnd65</name>
<cmt>d</cmt>
<desc>Noduwez Sentier n°65 </desc>
<link href="https://chemins.be/noduwez/sentier/65"/><trkseg>
<trkpt lat="50.732296" lon="4.966514"><time>2026-05-10T01:14:36Z</time></trkpt>
<trkpt lat="50.733149" lon="4.966782"><time>2026-05-10T01:24:36Z</time></trkpt>
<trkpt lat="50.733368" lon="4.965427"><time>2026-05-10T01:34:36Z</time></trkpt>
<trkpt lat="50.733909" lon="4.965620"><time>2026-05-10T01:44:36Z</time></trkpt>
<trkpt lat="50.734091" lon="4.964411"><time>2026-05-10T01:54:36Z</time></trkpt>
<trkpt lat="50.734308" lon="4.963578"><time>2026-05-10T02:04:36Z</time></trkpt>
</trkseg>
</trk>
<trk>
<name>bojnd66</name>
<cmt>v</cmt>
<desc>Noduwez Sentier n°66 </desc>
<link href="https://chemins.be/noduwez/sentier/66"/><trkseg>
<trkpt lat="50.734096" lon="4.963321"><time>2026-05-10T00:54:36Z</time></trkpt>
<trkpt lat="50.734418" lon="4.963651"><time>2026-05-10T01:04:36Z</time></trkpt>
<trkpt lat="50.734835" lon="4.964790"><time>2026-05-10T01:14:36Z</time></trkpt>
<trkpt lat="50.735706" lon="4.965084"><time>2026-05-10T01:24:36Z</time></trkpt>
<trkpt lat="50.737528" lon="4.965674"><time>2026-05-10T01:34:36Z</time></trkpt>
</trkseg>
</trk>
<trk>
<name>bojnd67</name>
<cmt>s</cmt>
<desc>Noduwez Sentier n°67 Rue André Mathys</desc>
<link href="https://chemins.be/noduwez/sentier/67"/><trkseg>
<trkpt lat="50.726018" lon="4.962473"><time>2026-05-10T00:54:36Z</time></trkpt>
<trkpt lat="50.726987" lon="4.961615"><time>2026-05-10T01:04:36Z</time></trkpt>
<trkpt lat="50.727757" lon="4.961801"><time>2026-05-10T01:14:36Z</time></trkpt>
<trkpt lat="50.728198" lon="4.961504"><time>2026-05-10T01:24:36Z</time></trkpt>
</trkseg></trk>
<trk>
<name>bojnd67</name>
<cmt>d</cmt>
<desc>Noduwez Sentier n°67 Rue André Mathys</desc>
<link href="https://chemins.be/noduwez/sentier/67"/><trkseg>
<trkpt lat="50.728198" lon="4.961504"><time>2026-05-10T01:24:36Z</time></trkpt>
<trkpt lat="50.729265" lon="4.960709"><time>2026-05-10T01:34:36Z</time></trkpt>
<trkpt lat="50.729312" lon="4.960876"><time>2026-05-10T01:44:36Z</time></trkpt>
<trkpt lat="50.730761" lon="4.960676"><time>2026-05-10T01:54:36Z</time></trkpt>
<trkpt lat="50.733276" lon="4.960819"><time>2026-05-10T02:04:36Z</time></trkpt>
</trkseg></trk>
<trk>
<name>bojnd67</name>
<cmt>r</cmt>
<desc>Noduwez Sentier n°67 Rue André Mathys</desc>
<link href="https://chemins.be/noduwez/sentier/67"/><trkseg>
<trkpt lat="50.733276" lon="4.960819"><time>2026-05-10T02:04:36Z</time></trkpt>
<trkpt lat="50.733324" lon="4.961218"><time>2026-05-10T02:14:36Z</time></trkpt>
</trkseg></trk>
<trk>
<name>bojnd67</name>
<cmt>s</cmt>
<desc>Noduwez Sentier n°67 Rue André Mathys</desc>
<link href="https://chemins.be/noduwez/sentier/67"/><trkseg>
<trkpt lat="50.733324" lon="4.961218"><time>2026-05-10T02:14:36Z</time></trkpt>
<trkpt lat="50.735510" lon="4.960037"><time>2026-05-10T02:24:36Z</time></trkpt>
</trkseg>
</trk>
<trk>
<name>bojnd68</name>
<cmt>r</cmt>
<desc>Noduwez Sentier n°68 Rue Julien Ovart</desc>
<link href="https://chemins.be/noduwez/sentier/68"/><trkseg>
<trkpt lat="50.733326" lon="4.959514"><time>2026-05-10T00:54:36Z</time></trkpt>
<trkpt lat="50.732542" lon="4.959321"><time>2026-05-10T01:04:36Z</time></trkpt>
</trkseg></trk>
<trk>
<name>bojnd68</name>
<cmt>d</cmt>
<desc>Noduwez Sentier n°68 Rue Julien Ovart</desc>
<link href="https://chemins.be/noduwez/sentier/68"/><trkseg>
<trkpt lat="50.732542" lon="4.959321"><time>2026-05-10T01:04:36Z</time></trkpt>
<trkpt lat="50.731841" lon="4.960268"><time>2026-05-10T01:14:36Z</time></trkpt>
<trkpt lat="50.731229" lon="4.960762"><time>2026-05-10T01:24:36Z</time></trkpt>
<trkpt lat="50.730971" lon="4.960912"><time>2026-05-10T01:34:36Z</time></trkpt>
<trkpt lat="50.730965" lon="4.963787"><time>2026-05-10T01:44:36Z</time></trkpt>
</trkseg>
</trk>
<trk>
<name>bojnd68bis</name>
<cmt>d</cmt>
<desc>Noduwez Sentier n°68bis </desc>
<link href="https://chemins.be/noduwez/sentier/68bis"/><trkseg>
<trkpt lat="50.732539" lon="4.959321"><time>2026-05-10T00:54:36Z</time></trkpt>
<trkpt lat="50.732606" lon="4.958790"><time>2026-05-10T01:04:36Z</time></trkpt>
<trkpt lat="50.732450" lon="4.958146"><time>2026-05-10T01:14:36Z</time></trkpt>
</trkseg>
</trk>
<trk>
<name>bojnd69</name>
<cmt>s</cmt>
<desc>Noduwez Sentier n°69 </desc>
<link href="https://chemins.be/noduwez/sentier/69"/><trkseg>
<trkpt lat="50.733280" lon="4.961704"><time>2026-05-10T00:54:36Z</time></trkpt>
<trkpt lat="50.734450" lon="4.962698"><time>2026-05-10T01:04:36Z</time></trkpt>
</trkseg>
</trk>
<trk>
<name>bojnd7</name>
<cmt>d</cmt>
<desc>Noduwez Chemin n°7 rue Ferdinand Smeers</desc>
<link href="https://chemins.be/noduwez/chemin/7"/><trkseg>
<trkpt lat="50.725031" lon="4.990290"><time>2026-05-10T00:54:36Z</time></trkpt>
<trkpt lat="50.725371" lon="4.988356"><time>2026-05-10T01:04:36Z</time></trkpt>
<trkpt lat="50.725256" lon="4.986874"><time>2026-05-10T01:14:36Z</time></trkpt>
</trkseg></trk>
<trk>
<name>bojnd7</name>
<cmt>s</cmt>
<desc>Noduwez Chemin n°7 rue Ferdinand Smeers</desc>
<link href="https://chemins.be/noduwez/chemin/7"/><trkseg>
<trkpt lat="50.725256" lon="4.986874"><time>2026-05-10T01:14:36Z</time></trkpt>
<trkpt lat="50.725135" lon="4.985265"><time>2026-05-10T01:24:36Z</time></trkpt>
<trkpt lat="50.724973" lon="4.984705"><time>2026-05-10T01:34:36Z</time></trkpt>
</trkseg></trk>
<trk>
<name>bojnd7</name>
<cmt>d</cmt>
<desc>Noduwez Chemin n°7 rue Ferdinand Smeers</desc>
<link href="https://chemins.be/noduwez/chemin/7"/><trkseg>
<trkpt lat="50.724973" lon="4.984705"><time>2026-05-10T01:34:36Z</time></trkpt>
<trkpt lat="50.723464" lon="4.980122"><time>2026-05-10T01:44:36Z</time></trkpt>
<trkpt lat="50.723254" lon="4.978824"><time>2026-05-10T01:54:36Z</time></trkpt>
<trkpt lat="50.722703" lon="4.977332"><time>2026-05-10T02:04:36Z</time></trkpt>
</trkseg></trk>
<trk>
<name>bojnd7</name>
<cmt>r</cmt>
<desc>Noduwez Chemin n°7 rue Ferdinand Smeers</desc>
<link href="https://chemins.be/noduwez/chemin/7"/><trkseg>
<trkpt lat="50.722703" lon="4.977332"><time>2026-05-10T02:04:36Z</time></trkpt>
<trkpt lat="50.722245" lon="4.976487"><time>2026-05-10T02:14:36Z</time></trkpt>
<trkpt lat="50.722132" lon="4.976122"><time>2026-05-10T02:24:36Z</time></trkpt>
</trkseg></trk>
<trk>
<name>bojnd7</name>
<cmt>d</cmt>
<desc>Noduwez Chemin n°7 rue Ferdinand Smeers</desc>
<link href="https://chemins.be/noduwez/chemin/7"/><trkseg>
<trkpt lat="50.722132" lon="4.976122"><time>2026-05-10T02:24:36Z</time></trkpt>
<trkpt lat="50.721533" lon="4.972510"><time>2026-05-10T02:34:36Z</time></trkpt>
</trkseg></trk>
<trk>
<name>bojnd7</name>
<cmt>s</cmt>
<desc>Noduwez Chemin n°7 rue Ferdinand Smeers</desc>
<link href="https://chemins.be/noduwez/chemin/7"/><trkseg>
<trkpt lat="50.721533" lon="4.972510"><time>2026-05-10T02:34:36Z</time></trkpt>
<trkpt lat="50.721447" lon="4.971721"><time>2026-05-10T02:44:36Z</time></trkpt>
</trkseg></trk>
<trk>
<name>bojnd7</name>
<cmt>v</cmt>
<desc>Noduwez Chemin n°7 rue Ferdinand Smeers</desc>
<link href="https://chemins.be/noduwez/chemin/7"/><trkseg>
<trkpt lat="50.721447" lon="4.971721"><time>2026-05-10T02:44:36Z</time></trkpt>
<trkpt lat="50.721424" lon="4.971460"><time>2026-05-10T02:54:36Z</time></trkpt>
<trkpt lat="50.721389" lon="4.970816"><time>2026-05-10T03:04:36Z</time></trkpt>
<trkpt lat="50.721197" lon="4.969998"><time>2026-05-10T03:14:36Z</time></trkpt>
<trkpt lat="50.720922" lon="4.969301"><time>2026-05-10T03:24:36Z</time></trkpt>
<trkpt lat="50.720754" lon="4.967801"><time>2026-05-10T03:34:36Z</time></trkpt>
</trkseg></trk>
<trk>
<name>bojnd7</name>
<cmt>s</cmt>
<desc>Noduwez Chemin n°7 rue Ferdinand Smeers</desc>
<link href="https://chemins.be/noduwez/chemin/7"/><trkseg>
<trkpt lat="50.720754" lon="4.967801"><time>2026-05-10T03:34:36Z</time></trkpt>
<trkpt lat="50.720317" lon="4.959210"><time>2026-05-10T03:44:36Z</time></trkpt>
</trkseg></trk>
<trk>
<name>bojnd7</name>
<cmt>d</cmt>
<desc>Noduwez Chemin n°7 rue Ferdinand Smeers</desc>
<link href="https://chemins.be/noduwez/chemin/7"/><trkseg>
<trkpt lat="50.720317" lon="4.959210"><time>2026-05-10T03:44:36Z</time></trkpt>
<trkpt lat="50.720310" lon="4.955316"><time>2026-05-10T03:54:36Z</time></trkpt>
<trkpt lat="50.719355" lon="4.952146"><time>2026-05-10T04:04:36Z</time></trkpt>
<trkpt lat="50.719941" lon="4.946583"><time>2026-05-10T04:14:36Z</time></trkpt>
<trkpt lat="50.720365" lon="4.944609"><time>2026-05-10T04:24:36Z</time></trkpt>
<trkpt lat="50.720542" lon="4.944202"><time>2026-05-10T04:34:36Z</time></trkpt>
</trkseg>
</trk>
<trk>
<name>bojnd70</name>
<cmt>q</cmt>
<desc>Noduwez Sentier n°70 </desc>
<link href="https://chemins.be/noduwez/sentier/70"/><trkseg>
<trkpt lat="50.736098" lon="4.959463"><time>2026-05-10T00:54:36Z</time></trkpt>
<trkpt lat="50.736852" lon="4.958208"><time>2026-05-10T01:04:36Z</time></trkpt>
<trkpt lat="50.737524" lon="4.957693"><time>2026-05-10T01:14:36Z</time></trkpt>
</trkseg>
</trk>
<trk>
<name>bojnd72</name>
<cmt>d</cmt>
<desc>Noduwez Chemin n°72 </desc>
<link href="https://chemins.be/noduwez/chemin/72"/><trkseg>
<trkpt lat="50.730233" lon="4.949341"><time>2026-05-10T00:54:36Z</time></trkpt>
<trkpt lat="50.729445" lon="4.947299"><time>2026-05-10T01:04:36Z</time></trkpt>
<trkpt lat="50.729135" lon="4.946841"><time>2026-05-10T01:14:36Z</time></trkpt>
</trkseg>
</trk>
<trk>
<name>bojnd73</name>
<cmt>d</cmt>
<desc>Noduwez Chemin n°73 </desc>
<link href="https://chemins.be/noduwez/chemin/73"/><trkseg>
<trkpt lat="50.731135" lon="4.948591"><time>2026-05-10T00:54:36Z</time></trkpt>
<trkpt lat="50.731207" lon="4.949213"><time>2026-05-10T01:04:36Z</time></trkpt>
<trkpt lat="50.731698" lon="4.951345"><time>2026-05-10T01:14:36Z</time></trkpt>
</trkseg>
</trk>
<trk>
<name>bojnd74</name>
<cmt>q</cmt>
<desc>Noduwez Sentier n°74 </desc>
<link href="https://chemins.be/noduwez/sentier/74"/><trkseg>
<trkpt lat="50.728334" lon="4.956143"><time>2026-05-10T00:54:36Z</time></trkpt>
<trkpt lat="50.728402" lon="4.952345"><time>2026-05-10T01:04:36Z</time></trkpt>
<trkpt lat="50.728687" lon="4.948783"><time>2026-05-10T01:14:36Z</time></trkpt>
<trkpt lat="50.729458" lon="4.946326"><time>2026-05-10T01:24:36Z</time></trkpt>
</trkseg>
</trk>
<trk>
<name>bojnd76</name>
<cmt>s</cmt>
<desc>Noduwez Sentier n°76 </desc>
<link href="https://chemins.be/noduwez/sentier/76"/><trkseg>
<trkpt lat="50.725645" lon="4.962577"><time>2026-05-10T00:54:36Z</time></trkpt>
<trkpt lat="50.725763" lon="4.961786"><time>2026-05-10T01:04:36Z</time></trkpt>
<trkpt lat="50.725356" lon="4.959333"><time>2026-05-10T01:14:36Z</time></trkpt>
</trkseg></trk>
<trk>
<name>bojnd76</name>
<cmt>d</cmt>
<desc>Noduwez Sentier n°76 </desc>
<link href="https://chemins.be/noduwez/sentier/76"/><trkseg>
<trkpt lat="50.725356" lon="4.959333"><time>2026-05-10T01:14:36Z</time></trkpt>
<trkpt lat="50.725260" lon="4.957595"><time>2026-05-10T01:24:36Z</time></trkpt>
<trkpt lat="50.724862" lon="4.954176"><time>2026-05-10T01:34:36Z</time></trkpt>
<trkpt lat="50.724821" lon="4.952738"><time>2026-05-10T01:44:36Z</time></trkpt>
</trkseg>
</trk>
<trk>
<name>bojnd77</name>
<cmt>d</cmt>
<desc>Noduwez Sentier n°77 </desc>
<link href="https://chemins.be/noduwez/sentier/77"/><trkseg>
<trkpt lat="50.721630" lon="4.959003"><time>2026-05-10T00:54:36Z</time></trkpt>
<trkpt lat="50.722285" lon="4.959695"><time>2026-05-10T01:04:36Z</time></trkpt>
<trkpt lat="50.723260" lon="4.960699"><time>2026-05-10T01:14:36Z</time></trkpt>
<trkpt lat="50.725067" lon="4.962187"><time>2026-05-10T01:24:36Z</time></trkpt>
<trkpt lat="50.725919" lon="4.962694"><time>2026-05-10T01:34:36Z</time></trkpt>
</trkseg>
</trk>
<trk>
<name>bojnd78</name>
<cmt>v</cmt>
<desc>Noduwez Sentier n°78 </desc>
<link href="https://chemins.be/noduwez/sentier/78"/><trkseg>
<trkpt lat="50.721864" lon="4.962770"><time>2026-05-10T00:54:36Z</time></trkpt>
<trkpt lat="50.722696" lon="4.961818"><time>2026-05-10T01:04:36Z</time></trkpt>
</trkseg></trk>
<trk>
<name>bojnd78</name>
<cmt>b</cmt>
<desc>Noduwez Sentier n°78 </desc>
<link href="https://chemins.be/noduwez/sentier/78"/><trkseg>
<trkpt lat="50.722696" lon="4.961818"><time>2026-05-10T01:04:36Z</time></trkpt>
<trkpt lat="50.723275" lon="4.960716"><time>2026-05-10T01:14:36Z</time></trkpt>
</trkseg>
</trk>
<trk>
<name>bojnd79</name>
<cmt>v</cmt>
<desc>Noduwez Sentier n°79 </desc>
<link href="https://chemins.be/noduwez/sentier/79"/><trkseg>
<trkpt lat="50.724658" lon="4.965679"><time>2026-05-10T00:54:36Z</time></trkpt>
<trkpt lat="50.723677" lon="4.964735"><time>2026-05-10T01:04:36Z</time></trkpt>
</trkseg></trk>
<trk>
<name>bojnd79</name>
<cmt>b</cmt>
<desc>Noduwez Sentier n°79 </desc>
<link href="https://chemins.be/noduwez/sentier/79"/><trkseg>
<trkpt lat="50.723677" lon="4.964735"><time>2026-05-10T01:04:36Z</time></trkpt>
<trkpt lat="50.722142" lon="4.963756"><time>2026-05-10T01:14:36Z</time></trkpt>
</trkseg>
</trk>
<trk>
<name>bojnd80</name>
<cmt>q</cmt>
<desc>Noduwez Sentier n°80 </desc>
<link href="https://chemins.be/noduwez/sentier/80"/><trkseg>
<trkpt lat="50.720510" lon="4.968906"><time>2026-05-10T00:54:36Z</time></trkpt>
<trkpt lat="50.719594" lon="4.970893"><time>2026-05-10T01:04:36Z</time></trkpt>
<trkpt lat="50.718805" lon="4.972283"><time>2026-05-10T01:14:36Z</time></trkpt>
<trkpt lat="50.714830" lon="4.978019"><time>2026-05-10T01:24:36Z</time></trkpt>
</trkseg>
</trk>
<trk>
<name>bojnd81</name>
<cmt>s</cmt>
<desc>Noduwez Sentier n°81 </desc>
<link href="https://chemins.be/noduwez/sentier/81"/><trkseg>
<trkpt lat="50.723408" lon="4.965438"><time>2026-05-10T00:54:36Z</time></trkpt>
<trkpt lat="50.723170" lon="4.966171"><time>2026-05-10T01:04:36Z</time></trkpt>
<trkpt lat="50.722713" lon="4.966189"><time>2026-05-10T01:14:36Z</time></trkpt>
<trkpt lat="50.722382" lon="4.967065"><time>2026-05-10T01:24:36Z</time></trkpt>
<trkpt lat="50.722289" lon="4.966990"><time>2026-05-10T01:34:36Z</time></trkpt>
<trkpt lat="50.721602" lon="4.968681"><time>2026-05-10T01:44:36Z</time></trkpt>
</trkseg></trk>
<trk>
<name>bojnd81</name>
<cmt>d</cmt>
<desc>Noduwez Sentier n°81 </desc>
<link href="https://chemins.be/noduwez/sentier/81"/><trkseg>
<trkpt lat="50.721602" lon="4.968681"><time>2026-05-10T01:44:36Z</time></trkpt>
<trkpt lat="50.720841" lon="4.970319"><time>2026-05-10T01:54:36Z</time></trkpt>
<trkpt lat="50.720719" lon="4.970820"><time>2026-05-10T02:04:36Z</time></trkpt>
</trkseg>
</trk>
<trk>
<name>bojnd82</name>
<cmt>s</cmt>
<desc>Noduwez Sentier n°82 </desc>
<link href="https://chemins.be/noduwez/sentier/82"/><trkseg>
<trkpt lat="50.720847" lon="4.966632"><time>2026-05-10T00:54:36Z</time></trkpt>
<trkpt lat="50.721173" lon="4.966936"><time>2026-05-10T01:04:36Z</time></trkpt>
<trkpt lat="50.722715" lon="4.966199"><time>2026-05-10T01:14:36Z</time></trkpt>
</trkseg>
</trk>
<trk>
<name>bojnd83</name>
<cmt>q</cmt>
<desc>Noduwez Sentier n°83 </desc>
<link href="https://chemins.be/noduwez/sentier/83"/><trkseg>
<trkpt lat="50.728762" lon="4.968299"><time>2026-05-10T00:54:36Z</time></trkpt>
<trkpt lat="50.727213" lon="4.967204"><time>2026-05-10T01:04:36Z</time></trkpt>
<trkpt lat="50.725916" lon="4.968985"><time>2026-05-10T01:14:36Z</time></trkpt>
</trkseg>
</trk>
<trk>
<name>bojnd84</name>
<cmt>v</cmt>
<desc>Noduwez Sentier n°84 </desc>
<link href="https://chemins.be/noduwez/sentier/84"/><trkseg>
<trkpt lat="50.724768" lon="4.967430"><time>2026-05-10T00:54:36Z</time></trkpt>
<trkpt lat="50.724436" lon="4.967105"><time>2026-05-10T01:04:36Z</time></trkpt>
</trkseg></trk>
<trk>
<name>bojnd84</name>
<cmt>d</cmt>
<desc>Noduwez Sentier n°84 </desc>
<link href="https://chemins.be/noduwez/sentier/84"/><trkseg>
<trkpt lat="50.724436" lon="4.967105"><time>2026-05-10T01:04:36Z</time></trkpt>
<trkpt lat="50.724004" lon="4.966684"><time>2026-05-10T01:14:36Z</time></trkpt>
<trkpt lat="50.724143" lon="4.966325"><time>2026-05-10T01:24:36Z</time></trkpt>
</trkseg>
</trk>
<trk>
<name>bojnd85</name>
<cmt>v</cmt>
<desc>Noduwez Sentier n°85 </desc>
<link href="https://chemins.be/noduwez/sentier/85"/><trkseg>
<trkpt lat="50.726772" lon="4.968749"><time>2026-05-10T00:54:36Z</time></trkpt>
<trkpt lat="50.726957" lon="4.968093"><time>2026-05-10T01:04:36Z</time></trkpt>
<trkpt lat="50.727215" lon="4.967181"><time>2026-05-10T01:14:36Z</time></trkpt>
<trkpt lat="50.727520" lon="4.966015"><time>2026-05-10T01:24:36Z</time></trkpt>
</trkseg></trk>
<trk>
<name>bojnd85</name>
<cmt>b</cmt>
<desc>Noduwez Sentier n°85 </desc>
<link href="https://chemins.be/noduwez/sentier/85"/><trkseg>
<trkpt lat="50.727520" lon="4.966015"><time>2026-05-10T01:24:36Z</time></trkpt>
<trkpt lat="50.727694" lon="4.965067"><time>2026-05-10T01:34:36Z</time></trkpt>
</trkseg>
</trk>
<trk>
<name>bojnd86</name>
<cmt>s</cmt>
<desc>Noduwez Sentier n°86 </desc>
<link href="https://chemins.be/noduwez/sentier/86"/><trkseg>
<trkpt lat="50.729057" lon="4.965053"><time>2026-05-10T00:54:36Z</time></trkpt>
<trkpt lat="50.728902" lon="4.965675"><time>2026-05-10T01:04:36Z</time></trkpt>
<trkpt lat="50.728511" lon="4.966504"><time>2026-05-10T01:14:36Z</time></trkpt>
<trkpt lat="50.728204" lon="4.966585"><time>2026-05-10T01:24:36Z</time></trkpt>
<trkpt lat="50.727845" lon="4.967650"><time>2026-05-10T01:34:36Z</time></trkpt>
</trkseg>
</trk>
<trk>
<name>bojnd87</name>
<cmt>d</cmt>
<desc>Noduwez Sentier n°87 </desc>
<link href="https://chemins.be/noduwez/sentier/87"/><trkseg>
<trkpt lat="50.729515" lon="4.965080"><time>2026-05-10T00:54:36Z</time></trkpt>
<trkpt lat="50.728910" lon="4.964903"><time>2026-05-10T01:04:36Z</time></trkpt>
<trkpt lat="50.727736" lon="4.964888"><time>2026-05-10T01:14:36Z</time></trkpt>
<trkpt lat="50.727134" lon="4.964612"><time>2026-05-10T01:24:36Z</time></trkpt>
<trkpt lat="50.726500" lon="4.964908"><time>2026-05-10T01:34:36Z</time></trkpt>
<trkpt lat="50.725638" lon="4.964651"><time>2026-05-10T01:44:36Z</time></trkpt>
</trkseg>
</trk>
<trk>
<name>bojnd88</name>
<cmt>v</cmt>
<desc>Noduwez Chemin n°88 </desc>
<link href="https://chemins.be/noduwez/chemin/88"/><trkseg>
<trkpt lat="50.720809" lon="4.968421"><time>2026-05-10T00:54:36Z</time></trkpt>
<trkpt lat="50.720550" lon="4.968874"><time>2026-05-10T01:04:36Z</time></trkpt>
<trkpt lat="50.719805" lon="4.968775"><time>2026-05-10T01:14:36Z</time></trkpt>
</trkseg></trk>
<trk>
<name>bojnd88</name>
<cmt>d</cmt>
<desc>Noduwez Chemin n°88 </desc>
<link href="https://chemins.be/noduwez/chemin/88"/><trkseg>
<trkpt lat="50.719805" lon="4.968775"><time>2026-05-10T01:14:36Z</time></trkpt>
<trkpt lat="50.718031" lon="4.967956"><time>2026-05-10T01:24:36Z</time></trkpt>
</trkseg>
</trk>
<trk>
<name>bojnd89</name>
<cmt>q</cmt>
<desc>Noduwez Sentier n°89 </desc>
<link href="https://chemins.be/noduwez/sentier/89"/><trkseg>
<trkpt lat="50.716396" lon="4.958172"><time>2026-05-10T00:54:36Z</time></trkpt>
<trkpt lat="50.717066" lon="4.958580"><time>2026-05-10T01:04:36Z</time></trkpt>
<trkpt lat="50.720512" lon="4.959603"><time>2026-05-10T01:14:36Z</time></trkpt>
</trkseg>
</trk>
<trk>
<name>bojnd9</name>
<cmt>r</cmt>
<desc>Noduwez Chemin n°9 Rue des Saules Benaud</desc>
<link href="https://chemins.be/noduwez/chemin/9"/><trkseg>
<trkpt lat="50.727477" lon="4.954994"><time>2026-05-10T00:54:36Z</time></trkpt>
<trkpt lat="50.724416" lon="4.952279"><time>2026-05-10T01:04:36Z</time></trkpt>
<trkpt lat="50.723763" lon="4.951535"><time>2026-05-10T01:14:36Z</time></trkpt>
<trkpt lat="50.722289" lon="4.949675"><time>2026-05-10T01:24:36Z</time></trkpt>
<trkpt lat="50.721969" lon="4.948815"><time>2026-05-10T01:34:36Z</time></trkpt>
</trkseg></trk>
<trk>
<name>bojnd9</name>
<cmt>v</cmt>
<desc>Noduwez Chemin n°9 Rue des Saules Benaud</desc>
<link href="https://chemins.be/noduwez/chemin/9"/><trkseg>
<trkpt lat="50.721969" lon="4.948815"><time>2026-05-10T01:34:36Z</time></trkpt>
<trkpt lat="50.720845" lon="4.945715"><time>2026-05-10T01:44:36Z</time></trkpt>
</trkseg></trk>
<trk>
<name>bojnd9</name>
<cmt>d</cmt>
<desc>Noduwez Chemin n°9 Rue des Saules Benaud</desc>
<link href="https://chemins.be/noduwez/chemin/9"/><trkseg>
<trkpt lat="50.720845" lon="4.945715"><time>2026-05-10T01:44:36Z</time></trkpt>
<trkpt lat="50.720559" lon="4.945066"><time>2026-05-10T01:54:36Z</time></trkpt>
<trkpt lat="50.720535" lon="4.944400"><time>2026-05-10T02:04:36Z</time></trkpt>
<trkpt lat="50.720487" lon="4.943224"><time>2026-05-10T02:14:36Z</time></trkpt>
</trkseg>
</trk>
<trk>
<name>bojnd91</name>
<cmt>s</cmt>
<desc>Noduwez Sentier n°91 </desc>
<link href="https://chemins.be/noduwez/sentier/91"/><trkseg>
<trkpt lat="50.726530" lon="4.965686"><time>2026-05-10T00:54:36Z</time></trkpt>
<trkpt lat="50.726527" lon="4.964882"><time>2026-05-10T01:04:36Z</time></trkpt>
</trkseg>
</trk>
<trk>
<name>bojnd92</name>
<cmt>d</cmt>
<desc>Noduwez Sentier n°92 </desc>
<link href="https://chemins.be/noduwez/sentier/92"/><trkseg>
<trkpt lat="50.728128" lon="4.962566"><time>2026-05-10T00:54:36Z</time></trkpt>
<trkpt lat="50.728178" lon="4.961532"><time>2026-05-10T01:04:36Z</time></trkpt>
</trkseg>
</trk>
<trk>
<name>bojnd93</name>
<cmt>d</cmt>
<desc>Noduwez Sentier n°93 </desc>
<link href="https://chemins.be/noduwez/sentier/93"/><trkseg>
<trkpt lat="50.726346" lon="4.960027"><time>2026-05-10T00:54:36Z</time></trkpt>
<trkpt lat="50.725359" lon="4.959369"><time>2026-05-10T01:04:36Z</time></trkpt>
</trkseg>
</trk>
<trk>
<name>bojnd94</name>
<cmt>q</cmt>
<desc>Noduwez Sentier n°94 </desc>
<link href="https://chemins.be/noduwez/sentier/94"/><trkseg>
<trkpt lat="50.734377" lon="4.947021"><time>2026-05-10T00:54:36Z</time></trkpt>
<trkpt lat="50.733622" lon="4.945159"><time>2026-05-10T01:04:36Z</time></trkpt>
</trkseg>
</trk>
<trk>
<name>bojnd95</name>
<cmt>q</cmt>
<desc>Noduwez Sentier n°95 </desc>
<link href="https://chemins.be/noduwez/sentier/95"/><trkseg>
<trkpt lat="50.731702" lon="4.992943"><time>2026-05-10T00:54:36Z</time></trkpt>
<trkpt lat="50.731172" lon="4.987922"><time>2026-05-10T01:04:36Z</time></trkpt>
<trkpt lat="50.730642" lon="4.987342"><time>2026-05-10T01:14:36Z</time></trkpt>
</trkseg>
</trk>
<trk>
<name>bojndi1</name>
<cmt>v</cmt>
<desc>Noduwez Chemin n°i1 </desc>
<link href="https://chemins.be/noduwez/chemin/i1"/><trkseg>
<trkpt lat="50.732996" lon="4.971544"><time>2026-05-10T00:54:36Z</time></trkpt>
<trkpt lat="50.733074" lon="4.971882"><time>2026-05-10T01:04:36Z</time></trkpt>
<trkpt lat="50.732551" lon="4.972526"><time>2026-05-10T01:14:36Z</time></trkpt>
<trkpt lat="50.730136" lon="4.976097"><time>2026-05-10T01:24:36Z</time></trkpt>
<trkpt lat="50.727279" lon="4.980525"><time>2026-05-10T01:34:36Z</time></trkpt>
</trkseg>
</trk>
<trk>
<name>bojndi2</name>
<cmt>q</cmt>
<desc>Noduwez Chemin n°i2 </desc>
<link href="https://chemins.be/noduwez/chemin/i2"/><trkseg>
<trkpt lat="50.732446" lon="4.987026"><time>2026-05-10T00:54:36Z</time></trkpt>
<trkpt lat="50.732914" lon="4.986382"><time>2026-05-10T01:04:36Z</time></trkpt>
</trkseg>
</trk>
<trk>
<name>bojndi3</name>
<cmt>v</cmt>
<desc>Noduwez Chemin n°i3 </desc>
<link href="https://chemins.be/noduwez/chemin/i3"/><trkseg>
<trkpt lat="50.720758" lon="4.950020"><time>2026-05-10T00:54:36Z</time></trkpt>
<trkpt lat="50.721607" lon="4.948391"><time>2026-05-10T01:04:36Z</time></trkpt>
</trkseg>
</trk>
<trk>
<name>bojndi4</name>
<cmt>r</cmt>
<desc>Noduwez Chemin n°i4 </desc>
<link href="https://chemins.be/noduwez/chemin/i4"/><trkseg>
<trkpt lat="50.723430" lon="4.965495"><time>2026-05-10T00:54:36Z</time></trkpt>
<trkpt lat="50.723698" lon="4.964751"><time>2026-05-10T01:04:36Z</time></trkpt>
</trkseg>
</trk>
<trk>
<name>bojndi5</name>
<cmt>v</cmt>
<desc>Noduwez Chemin n°i5 </desc>
<link href="https://chemins.be/noduwez/chemin/i5"/><trkseg>
<trkpt lat="50.716461" lon="4.971108"><time>2026-05-10T00:54:36Z</time></trkpt>
<trkpt lat="50.714491" lon="4.970221"><time>2026-05-10T01:04:36Z</time></trkpt>
<trkpt lat="50.712372" lon="4.975364"><time>2026-05-10T01:14:36Z</time></trkpt>
</trkseg>
</trk>
<trk>
<name>bojndi6</name>
<cmt>d</cmt>
<desc>Noduwez Chemin n°i6 </desc>
<link href="https://chemins.be/noduwez/chemin/i6"/><trkseg>
<trkpt lat="50.725291" lon="4.987234"><time>2026-05-10T00:54:36Z</time></trkpt>
<trkpt lat="50.725629" lon="4.986455"><time>2026-05-10T01:04:36Z</time></trkpt>
</trkseg>
</trk>
<trk>
<name>bojndLv935</name>
<cmt>q</cmt>
<desc>Noduwez Chemin n°Lv935 Rue Longue</desc>
<link href="https://chemins.be/noduwez/chemin/Lv935"/><trkseg>
<trkpt lat="50.737934" lon="4.945904"><time>2026-05-10T00:54:36Z</time></trkpt>
<trkpt lat="50.738713" lon="4.949990"><time>2026-05-10T01:04:36Z</time></trkpt>
<trkpt lat="50.739726" lon="4.955431"><time>2026-05-10T01:14:36Z</time></trkpt>
</trkseg>
</trk>
<trk>
<name>bojog1</name>
<cmt>v</cmt>
<desc>Orp-le-Grand Chemin n°1 </desc>
<link href="https://chemins.be/orplegrand/chemin/1"/><trkseg>
<trkpt lat="50.691261" lon="4.985638"><time>2026-05-10T00:54:36Z</time></trkpt>
<trkpt lat="50.690014" lon="4.984843"><time>2026-05-10T01:04:36Z</time></trkpt>
<trkpt lat="50.687591" lon="4.981403"><time>2026-05-10T01:14:36Z</time></trkpt>
<trkpt lat="50.685829" lon="4.978901"><time>2026-05-10T01:24:36Z</time></trkpt>
</trkseg>
</trk>
<trk>
<name>bojog10</name>
<cmt>v</cmt>
<desc>Orp-le-Grand Chemin n°10 </desc>
<link href="https://chemins.be/orplegrand/chemin/10"/><trkseg>
<trkpt lat="50.718626" lon="4.992870"><time>2026-05-10T00:54:36Z</time></trkpt>
<trkpt lat="50.720647" lon="4.993230"><time>2026-05-10T01:04:36Z</time></trkpt>
<trkpt lat="50.722005" lon="4.991737"><time>2026-05-10T01:14:36Z</time></trkpt>
</trkseg></trk>
<trk>
<name>bojog10</name>
<cmt>s</cmt>
<desc>Orp-le-Grand Chemin n°10 </desc>
<link href="https://chemins.be/orplegrand/chemin/10"/><trkseg>
<trkpt lat="50.722005" lon="4.991737"><time>2026-05-10T01:14:36Z</time></trkpt>
<trkpt lat="50.724165" lon="4.989755"><time>2026-05-10T01:24:36Z</time></trkpt>
</trkseg></trk>
<trk>
<name>bojog10</name>
<cmt>d</cmt>
<desc>Orp-le-Grand Chemin n°10 </desc>
<link href="https://chemins.be/orplegrand/chemin/10"/><trkseg>
<trkpt lat="50.724165" lon="4.989755"><time>2026-05-10T01:24:36Z</time></trkpt>
<trkpt lat="50.724587" lon="4.989720"><time>2026-05-10T01:34:36Z</time></trkpt>
<trkpt lat="50.725088" lon="4.989895"><time>2026-05-10T01:44:36Z</time></trkpt>
</trkseg>
</trk>
<trk>
<name>bojog11</name>
<cmt>d</cmt>
<desc>Orp-le-Grand Chemin n°11 </desc>
<link href="https://chemins.be/orplegrand/chemin/11"/><trkseg>
<trkpt lat="50.717788" lon="4.986946"><time>2026-05-10T00:54:36Z</time></trkpt>
<trkpt lat="50.719413" lon="4.981637"><time>2026-05-10T01:04:36Z</time></trkpt>
<trkpt lat="50.719680" lon="4.980437"><time>2026-05-10T01:14:36Z</time></trkpt>
</trkseg>
</trk>
<trk>
<name>bojog12</name>
<cmt>r</cmt>
<desc>Orp-le-Grand Chemin n°12 Rue Emile Looze / Rue Eugène Malevé</desc>
<link href="https://chemins.be/orplegrand/chemin/12"/><trkseg>
<trkpt lat="50.712953" lon="4.998712"><time>2026-05-10T00:54:36Z</time></trkpt>
<trkpt lat="50.714280" lon="4.999184"><time>2026-05-10T01:04:36Z</time></trkpt>
<trkpt lat="50.714645" lon="4.998741"><time>2026-05-10T01:14:36Z</time></trkpt>
<trkpt lat="50.714740" lon="4.998388"><time>2026-05-10T01:24:36Z</time></trkpt>
<trkpt lat="50.715116" lon="4.997049"><time>2026-05-10T01:34:36Z</time></trkpt>
<trkpt lat="50.714733" lon="4.995744"><time>2026-05-10T01:44:36Z</time></trkpt>
<trkpt lat="50.714640" lon="4.994846"><time>2026-05-10T01:54:36Z</time></trkpt>
<trkpt lat="50.714233" lon="4.993934"><time>2026-05-10T02:04:36Z</time></trkpt>
<trkpt lat="50.714244" lon="4.993033"><time>2026-05-10T02:14:36Z</time></trkpt>
<trkpt lat="50.714394" lon="4.992654"><time>2026-05-10T02:24:36Z</time></trkpt>
<trkpt lat="50.714613" lon="4.992547"><time>2026-05-10T02:34:36Z</time></trkpt>
<trkpt lat="50.714306" lon="4.991106"><time>2026-05-10T02:44:36Z</time></trkpt>
<trkpt lat="50.713900" lon="4.987172"><time>2026-05-10T02:54:36Z</time></trkpt>
<trkpt lat="50.713741" lon="4.985670"><time>2026-05-10T03:04:36Z</time></trkpt>
<trkpt lat="50.713189" lon="4.982994"><time>2026-05-10T03:14:36Z</time></trkpt>
<trkpt lat="50.712290" lon="4.981181"><time>2026-05-10T03:24:36Z</time></trkpt>
<trkpt lat="50.711633" lon="4.980141"><time>2026-05-10T03:34:36Z</time></trkpt>
<trkpt lat="50.711241" lon="4.978531"><time>2026-05-10T03:44:36Z</time></trkpt>
<trkpt lat="50.711164" lon="4.976840"><time>2026-05-10T03:54:36Z</time></trkpt>
<trkpt lat="50.710308" lon="4.973281"><time>2026-05-10T04:04:36Z</time></trkpt>
</trkseg>
</trk>
<trk>
<name>bojog13</name>
<cmt>v</cmt>
<desc>Orp-le-Grand Chemin n°13 Chavée aux Lapins</desc>
<link href="https://chemins.be/orplegrand/chemin/13"/><trkseg>
<trkpt lat="50.713988" lon="4.993097"><time>2026-05-10T00:54:36Z</time></trkpt>
<trkpt lat="50.713136" lon="4.991595"><time>2026-05-10T01:04:36Z</time></trkpt>
<trkpt lat="50.712439" lon="4.991609"><time>2026-05-10T01:14:36Z</time></trkpt>
<trkpt lat="50.711651" lon="4.990307"><time>2026-05-10T01:24:36Z</time></trkpt>
<trkpt lat="50.711089" lon="4.989420"><time>2026-05-10T01:34:36Z</time></trkpt>
<trkpt lat="50.708050" lon="4.986683"><time>2026-05-10T01:44:36Z</time></trkpt>
</trkseg></trk>
<trk>
<name>bojog13</name>
<cmt>r</cmt>
<desc>Orp-le-Grand Chemin n°13 Chavée aux Lapins</desc>
<link href="https://chemins.be/orplegrand/chemin/13"/><trkseg>
<trkpt lat="50.708050" lon="4.986683"><time>2026-05-10T01:44:36Z</time></trkpt>
<trkpt lat="50.707017" lon="4.985610"><time>2026-05-10T01:54:36Z</time></trkpt>
<trkpt lat="50.704789" lon="4.983657"><time>2026-05-10T02:04:36Z</time></trkpt>
<trkpt lat="50.702873" lon="4.979306"><time>2026-05-10T02:14:36Z</time></trkpt>
<trkpt lat="50.701858" lon="4.976227"><time>2026-05-10T02:24:36Z</time></trkpt>
<trkpt lat="50.699493" lon="4.972297"><time>2026-05-10T02:34:36Z</time></trkpt>
</trkseg></trk>
<trk>
<name>bojog13</name>
<cmt>v</cmt>
<desc>Orp-le-Grand Chemin n°13 Chavée aux Lapins</desc>
<link href="https://chemins.be/orplegrand/chemin/13"/><trkseg>
<trkpt lat="50.699493" lon="4.972297"><time>2026-05-10T02:34:36Z</time></trkpt>
<trkpt lat="50.698809" lon="4.971433"><time>2026-05-10T02:44:36Z</time></trkpt>
<trkpt lat="50.698232" lon="4.970803"><time>2026-05-10T02:54:36Z</time></trkpt>
<trkpt lat="50.697204" lon="4.968648"><time>2026-05-10T03:04:36Z</time></trkpt>
<trkpt lat="50.695374" lon="4.965376"><time>2026-05-10T03:14:36Z</time></trkpt>
</trkseg>
</trk>
<trk>
<name>bojog15</name>
<cmt>q</cmt>
<desc>Orp-le-Grand Chemin n°15 </desc>
<link href="https://chemins.be/orplegrand/chemin/15"/><trkseg>
<trkpt lat="50.696978" lon="4.987284"><time>2026-05-10T00:54:36Z</time></trkpt>
<trkpt lat="50.697022" lon="4.986739"><time>2026-05-10T01:04:36Z</time></trkpt>
</trkseg></trk>
<trk>
<name>bojog15</name>
<cmt>v</cmt>
<desc>Orp-le-Grand Chemin n°15 </desc>
<link href="https://chemins.be/orplegrand/chemin/15"/><trkseg>
<trkpt lat="50.697022" lon="4.986739"><time>2026-05-10T01:04:36Z</time></trkpt>
<trkpt lat="50.697110" lon="4.986082"><time>2026-05-10T01:14:36Z</time></trkpt>
<trkpt lat="50.697234" lon="4.984668"><time>2026-05-10T01:24:36Z</time></trkpt>
</trkseg>
</trk>
<trk>
<name>bojog16</name>
<cmt>v</cmt>
<desc>Orp-le-Grand Chemin n°16 </desc>
<link href="https://chemins.be/orplegrand/chemin/16"/><trkseg>
<trkpt lat="50.704486" lon="4.986901"><time>2026-05-10T00:54:36Z</time></trkpt>
<trkpt lat="50.704890" lon="4.985363"><time>2026-05-10T01:04:36Z</time></trkpt>
<trkpt lat="50.705149" lon="4.983908"><time>2026-05-10T01:14:36Z</time></trkpt>
<trkpt lat="50.705145" lon="4.982974"><time>2026-05-10T01:24:36Z</time></trkpt>
<trkpt lat="50.706401" lon="4.980045"><time>2026-05-10T01:34:36Z</time></trkpt>
<trkpt lat="50.706237" lon="4.977099"><time>2026-05-10T01:44:36Z</time></trkpt>
<trkpt lat="50.706408" lon="4.975359"><time>2026-05-10T01:54:36Z</time></trkpt>
<trkpt lat="50.706608" lon="4.973125"><time>2026-05-10T02:04:36Z</time></trkpt>
<trkpt lat="50.706965" lon="4.971870"><time>2026-05-10T02:14:36Z</time></trkpt>
</trkseg>
</trk>
<trk>
<name>bojog17</name>
<cmt>v</cmt>
<desc>Orp-le-Grand Chemin n°17 </desc>
<link href="https://chemins.be/orplegrand/chemin/17"/><trkseg>
<trkpt lat="50.703204" lon="4.986360"><time>2026-05-10T00:54:36Z</time></trkpt>
<trkpt lat="50.704809" lon="4.983677"><time>2026-05-10T01:04:36Z</time></trkpt>
<trkpt lat="50.705136" lon="4.983030"><time>2026-05-10T01:14:36Z</time></trkpt>
</trkseg>
</trk>
<trk>
<name>bojog18</name>
<cmt>v</cmt>
<desc>Orp-le-Grand Chemin n°18 Rue de la Station</desc>
<link href="https://chemins.be/orplegrand/chemin/18"/><trkseg>
<trkpt lat="50.694657" lon="4.986999"><time>2026-05-10T00:54:36Z</time></trkpt>
<trkpt lat="50.694675" lon="4.985754"><time>2026-05-10T01:04:36Z</time></trkpt>
<trkpt lat="50.694691" lon="4.985325"><time>2026-05-10T01:14:36Z</time></trkpt>
</trkseg></trk>
<trk>
<name>bojog18</name>
<cmt>r</cmt>
<desc>Orp-le-Grand Chemin n°18 Rue de la Station</desc>
<link href="https://chemins.be/orplegrand/chemin/18"/><trkseg>
<trkpt lat="50.694691" lon="4.985325"><time>2026-05-10T01:14:36Z</time></trkpt>
<trkpt lat="50.694562" lon="4.983802"><time>2026-05-10T01:24:36Z</time></trkpt>
</trkseg></trk>
<trk>
<name>bojog18</name>
<cmt>v</cmt>
<desc>Orp-le-Grand Chemin n°18 Rue de la Station</desc>
<link href="https://chemins.be/orplegrand/chemin/18"/><trkseg>
<trkpt lat="50.694562" lon="4.983802"><time>2026-05-10T01:24:36Z</time></trkpt>
<trkpt lat="50.694637" lon="4.982901"><time>2026-05-10T01:34:36Z</time></trkpt>
<trkpt lat="50.696604" lon="4.975154"><time>2026-05-10T01:44:36Z</time></trkpt>
<trkpt lat="50.696950" lon="4.974178"><time>2026-05-10T01:54:36Z</time></trkpt>
<trkpt lat="50.698272" lon="4.972483"><time>2026-05-10T02:04:36Z</time></trkpt>
<trkpt lat="50.698750" lon="4.971382"><time>2026-05-10T02:14:36Z</time></trkpt>
</trkseg>
</trk>
<trk>
<name>bojog19</name>
<cmt>v</cmt>
<desc>Orp-le-Grand Chemin n°19 </desc>
<link href="https://chemins.be/orplegrand/chemin/19"/><trkseg>
<trkpt lat="50.696927" lon="4.974189"><time>2026-05-10T00:54:36Z</time></trkpt>
<trkpt lat="50.697097" lon="4.968610"><time>2026-05-10T01:04:36Z</time></trkpt>
</trkseg>
</trk>
<trk>
<name>bojog2</name>
<cmt>v</cmt>
<desc>Orp-le-Grand Chemin n°2 Rue de Merdorp</desc>
<link href="https://chemins.be/orplegrand/chemin/2"/><trkseg>
<trkpt lat="50.689849" lon="4.993828"><time>2026-05-10T00:54:36Z</time></trkpt>
<trkpt lat="50.689229" lon="4.993876"><time>2026-05-10T01:04:36Z</time></trkpt>
<trkpt lat="50.687997" lon="4.993888"><time>2026-05-10T01:14:36Z</time></trkpt>
<trkpt lat="50.687692" lon="4.993841"><time>2026-05-10T01:24:36Z</time></trkpt>
<trkpt lat="50.687413" lon="4.993824"><time>2026-05-10T01:34:36Z</time></trkpt>
<trkpt lat="50.687035" lon="4.993988"><time>2026-05-10T01:44:36Z</time></trkpt>
<trkpt lat="50.686386" lon="4.994334"><time>2026-05-10T01:54:36Z</time></trkpt>
<trkpt lat="50.686015" lon="4.994626"><time>2026-05-10T02:04:36Z</time></trkpt>
<trkpt lat="50.685727" lon="4.994820"><time>2026-05-10T02:14:36Z</time></trkpt>
<trkpt lat="50.685483" lon="4.995001"><time>2026-05-10T02:24:36Z</time></trkpt>
<trkpt lat="50.685247" lon="4.995308"><time>2026-05-10T02:34:36Z</time></trkpt>
<trkpt lat="50.684642" lon="4.996054"><time>2026-05-10T02:44:36Z</time></trkpt>
<trkpt lat="50.683877" lon="4.996070"><time>2026-05-10T02:54:36Z</time></trkpt>
</trkseg>
</trk>
<trk>
<name>bojog20</name>
<cmt>v</cmt>
<desc>Orp-le-Grand Chemin n°20 </desc>
<link href="https://chemins.be/orplegrand/chemin/20"/><trkseg>
<trkpt lat="50.694547" lon="4.983722"><time>2026-05-10T00:54:36Z</time></trkpt>
<trkpt lat="50.694459" lon="4.983382"><time>2026-05-10T01:04:36Z</time></trkpt>
<trkpt lat="50.693892" lon="4.982517"><time>2026-05-10T01:14:36Z</time></trkpt>
<trkpt lat="50.693360" lon="4.981180"><time>2026-05-10T01:24:36Z</time></trkpt>
<trkpt lat="50.691782" lon="4.976254"><time>2026-05-10T01:34:36Z</time></trkpt>
<trkpt lat="50.691565" lon="4.974995"><time>2026-05-10T01:44:36Z</time></trkpt>
<trkpt lat="50.690858" lon="4.971938"><time>2026-05-10T01:54:36Z</time></trkpt>
</trkseg>
</trk>
<trk>
<name>bojog22</name>
<cmt>v</cmt>
<desc>Orp-le-Grand Chemin n°22 </desc>
<link href="https://chemins.be/orplegrand/chemin/22"/><trkseg>
<trkpt lat="50.690175" lon="4.985086"><time>2026-05-10T00:54:36Z</time></trkpt>
<trkpt lat="50.689673" lon="4.983041"><time>2026-05-10T01:04:36Z</time></trkpt>
<trkpt lat="50.688027" lon="4.979765"><time>2026-05-10T01:14:36Z</time></trkpt>
</trkseg></trk>
<trk>
<name>bojog22</name>
<cmt>d</cmt>
<desc>Orp-le-Grand Chemin n°22 </desc>
<link href="https://chemins.be/orplegrand/chemin/22"/><trkseg>
<trkpt lat="50.688027" lon="4.979765"><time>2026-05-10T01:14:36Z</time></trkpt>
<trkpt lat="50.687700" lon="4.978727"><time>2026-05-10T01:24:36Z</time></trkpt>
<trkpt lat="50.686633" lon="4.976350"><time>2026-05-10T01:34:36Z</time></trkpt>
</trkseg>
</trk>
<trk>
<name>bojog23</name>
<cmt>v</cmt>
<desc>Orp-le-Grand Chemin n°23 </desc>
<link href="https://chemins.be/orplegrand/chemin/23"/><trkseg>
<trkpt lat="50.687935" lon="4.999831"><time>2026-05-10T00:54:36Z</time></trkpt>
<trkpt lat="50.686229" lon="4.996848"><time>2026-05-10T01:04:36Z</time></trkpt>
<trkpt lat="50.685216" lon="4.995325"><time>2026-05-10T01:14:36Z</time></trkpt>
<trkpt lat="50.684298" lon="4.993587"><time>2026-05-10T01:24:36Z</time></trkpt>
</trkseg>
</trk>
<trk>
<name>bojog25</name>
<cmt>v</cmt>
<desc>Orp-le-Grand Chemin n°25 </desc>
<link href="https://chemins.be/orplegrand/chemin/25"/><trkseg>
<trkpt lat="50.697303" lon="4.991333"><time>2026-05-10T00:54:36Z</time></trkpt>
<trkpt lat="50.697506" lon="4.992498"><time>2026-05-10T01:04:36Z</time></trkpt>
</trkseg></trk>
<trk>
<name>bojog25</name>
<cmt>d</cmt>
<desc>Orp-le-Grand Chemin n°25 </desc>
<link href="https://chemins.be/orplegrand/chemin/25"/><trkseg>
<trkpt lat="50.697506" lon="4.992498"><time>2026-05-10T01:04:36Z</time></trkpt>
<trkpt lat="50.697968" lon="4.995365"><time>2026-05-10T01:14:36Z</time></trkpt>
<trkpt lat="50.698540" lon="4.997652"><time>2026-05-10T01:24:36Z</time></trkpt>
<trkpt lat="50.698638" lon="4.997936"><time>2026-05-10T01:34:36Z</time></trkpt>
</trkseg>
</trk>
<trk>
<name>bojog26</name>
<cmt>v</cmt>
<desc>Orp-le-Grand Chemin n°26 </desc>
<link href="https://chemins.be/orplegrand/chemin/26"/><trkseg>
<trkpt lat="50.701533" lon="4.994591"><time>2026-05-10T00:54:36Z</time></trkpt>
<trkpt lat="50.701021" lon="4.996071"><time>2026-05-10T01:04:36Z</time></trkpt>
</trkseg></trk>
<trk>
<name>bojog26</name>
<cmt>d</cmt>
<desc>Orp-le-Grand Chemin n°26 </desc>
<link href="https://chemins.be/orplegrand/chemin/26"/><trkseg>
<trkpt lat="50.701021" lon="4.996071"><time>2026-05-10T01:04:36Z</time></trkpt>
<trkpt lat="50.698632" lon="4.997962"><time>2026-05-10T01:14:36Z</time></trkpt>
<trkpt lat="50.696577" lon="5.005257"><time>2026-05-10T01:24:36Z</time></trkpt>
</trkseg>
</trk>
<trk>
<name>bojog27</name>
<cmt>r</cmt>
<desc>Orp-le-Grand Chemin n°27 Rue de Crécou</desc>
<link href="https://chemins.be/orplegrand/chemin/27"/><trkseg>
<trkpt lat="50.711587" lon="5.002104"><time>2026-05-10T00:54:36Z</time></trkpt>
<trkpt lat="50.711368" lon="5.003807"><time>2026-05-10T01:04:36Z</time></trkpt>
<trkpt lat="50.711126" lon="5.005516"><time>2026-05-10T01:14:36Z</time></trkpt>
<trkpt lat="50.710556" lon="5.009161"><time>2026-05-10T01:24:36Z</time></trkpt>
<trkpt lat="50.710641" lon="5.010329"><time>2026-05-10T01:34:36Z</time></trkpt>
</trkseg>
</trk>
<trk>
<name>bojog28</name>
<cmt>v</cmt>
<desc>Orp-le-Grand Chemin n°28 </desc>
<link href="https://chemins.be/orplegrand/chemin/28"/><trkseg>
<trkpt lat="50.721974" lon="4.991746"><time>2026-05-10T00:54:36Z</time></trkpt>
<trkpt lat="50.723167" lon="4.989012"><time>2026-05-10T01:04:36Z</time></trkpt>
</trkseg></trk>
<trk>
<name>bojog28</name>
<cmt>d</cmt>
<desc>Orp-le-Grand Chemin n°28 </desc>
<link href="https://chemins.be/orplegrand/chemin/28"/><trkseg>
<trkpt lat="50.723167" lon="4.989012"><time>2026-05-10T01:04:36Z</time></trkpt>
<trkpt lat="50.723499" lon="4.988186"><time>2026-05-10T01:14:36Z</time></trkpt>
<trkpt lat="50.723665" lon="4.987105"><time>2026-05-10T01:24:36Z</time></trkpt>
<trkpt lat="50.724711" lon="4.985182"><time>2026-05-10T01:34:36Z</time></trkpt>
</trkseg>
</trk>
<trk>
<name>bojog29</name>
<cmt>d</cmt>
<desc>Orp-le-Grand Chemin n°29 </desc>
<link href="https://chemins.be/orplegrand/chemin/29"/><trkseg>
<trkpt lat="50.723945" lon="4.992777"><time>2026-05-10T00:54:36Z</time></trkpt>
<trkpt lat="50.723021" lon="4.992022"><time>2026-05-10T01:04:36Z</time></trkpt>
</trkseg></trk>
<trk>
<name>bojog29</name>
<cmt>s</cmt>
<desc>Orp-le-Grand Chemin n°29 </desc>
<link href="https://chemins.be/orplegrand/chemin/29"/><trkseg>
<trkpt lat="50.723021" lon="4.992022"><time>2026-05-10T01:04:36Z</time></trkpt>
<trkpt lat="50.722353" lon="4.991512"><time>2026-05-10T01:14:36Z</time></trkpt>
</trkseg>
</trk>
<trk>
<name>bojog3</name>
<cmt>v</cmt>
<desc>Orp-le-Grand Chemin n°3 </desc>
<link href="https://chemins.be/orplegrand/chemin/3"/><trkseg>
<trkpt lat="50.693894" lon="4.990654"><time>2026-05-10T00:54:36Z</time></trkpt>
<trkpt lat="50.692955" lon="4.993175"><time>2026-05-10T01:04:36Z</time></trkpt>
<trkpt lat="50.692518" lon="4.995802"><time>2026-05-10T01:14:36Z</time></trkpt>
<trkpt lat="50.692181" lon="4.998303"><time>2026-05-10T01:24:36Z</time></trkpt>
<trkpt lat="50.691469" lon="5.000360"><time>2026-05-10T01:34:36Z</time></trkpt>
</trkseg>
</trk>
<trk>
<name>bojog30</name>
<cmt>q</cmt>
<desc>Orp-le-Grand Chemin n°30 </desc>
<link href="https://chemins.be/orplegrand/chemin/30"/><trkseg>
<trkpt lat="50.713929" lon="4.987076"><time>2026-05-10T00:54:36Z</time></trkpt>
<trkpt lat="50.714088" lon="4.983264"><time>2026-05-10T01:04:36Z</time></trkpt>
<trkpt lat="50.713834" lon="4.980614"><time>2026-05-10T01:14:36Z</time></trkpt>
<trkpt lat="50.713952" lon="4.979370"><time>2026-05-10T01:24:36Z</time></trkpt>
</trkseg>
</trk>
<trk>
<name>bojog32</name>
<cmt>v</cmt>
<desc>Orp-le-Grand Chemin n°32 </desc>
<link href="https://chemins.be/orplegrand/chemin/32"/><trkseg>
<trkpt lat="50.703106" lon="4.986147"><time>2026-05-10T00:54:36Z</time></trkpt>
<trkpt lat="50.702816" lon="4.983170"><time>2026-05-10T01:04:36Z</time></trkpt>
<trkpt lat="50.702696" lon="4.982078"><time>2026-05-10T01:14:36Z</time></trkpt>
<trkpt lat="50.702673" lon="4.981257"><time>2026-05-10T01:24:36Z</time></trkpt>
<trkpt lat="50.702791" lon="4.979262"><time>2026-05-10T01:34:36Z</time></trkpt>
</trkseg>
</trk>
<trk>
<name>bojog34</name>
<cmt>d</cmt>
<desc>Orp-le-Grand Chemin n°34 </desc>
<link href="https://chemins.be/orplegrand/chemin/34"/><trkseg>
<trkpt lat="50.699618" lon="4.978201"><time>2026-05-10T00:54:36Z</time></trkpt>
<trkpt lat="50.696947" lon="4.974210"><time>2026-05-10T01:04:36Z</time></trkpt>
</trkseg>
</trk>
<trk>
<name>bojog35</name>
<cmt>v</cmt>
<desc>Orp-le-Grand Chemin n°35 </desc>
<link href="https://chemins.be/orplegrand/chemin/35"/><trkseg>
<trkpt lat="50.691565" lon="4.975047"><time>2026-05-10T00:54:36Z</time></trkpt>
<trkpt lat="50.694311" lon="4.972365"><time>2026-05-10T01:04:36Z</time></trkpt>
<trkpt lat="50.697219" lon="4.968524"><time>2026-05-10T01:14:36Z</time></trkpt>
</trkseg>
</trk>
<trk>
<name>bojog36</name>
<cmt>v</cmt>
<desc>Orp-le-Grand Sentier n°36 </desc>
<link href="https://chemins.be/orplegrand/sentier/36"/><trkseg>
<trkpt lat="50.706046" lon="4.994727"><time>2026-05-10T00:54:36Z</time></trkpt>
<trkpt lat="50.706245" lon="4.994913"><time>2026-05-10T01:04:36Z</time></trkpt>
<trkpt lat="50.706632" lon="4.994931"><time>2026-05-10T01:14:36Z</time></trkpt>
<trkpt lat="50.706743" lon="4.995092"><time>2026-05-10T01:24:36Z</time></trkpt>
<trkpt lat="50.706752" lon="4.995378"><time>2026-05-10T01:34:36Z</time></trkpt>
<trkpt lat="50.707477" lon="4.995643"><time>2026-05-10T01:44:36Z</time></trkpt>
<trkpt lat="50.707541" lon="4.996061"><time>2026-05-10T01:54:36Z</time></trkpt>
<trkpt lat="50.707495" lon="4.996362"><time>2026-05-10T02:04:36Z</time></trkpt>
<trkpt lat="50.707624" lon="4.996755"><time>2026-05-10T02:14:36Z</time></trkpt>
<trkpt lat="50.707939" lon="4.996641"><time>2026-05-10T02:24:36Z</time></trkpt>
<trkpt lat="50.708469" lon="4.997177"><time>2026-05-10T02:34:36Z</time></trkpt>
<trkpt lat="50.710539" lon="4.998701"><time>2026-05-10T02:44:36Z</time></trkpt>
<trkpt lat="50.711291" lon="4.998765"><time>2026-05-10T02:54:36Z</time></trkpt>
<trkpt lat="50.711483" lon="4.998565"><time>2026-05-10T03:04:36Z</time></trkpt>
<trkpt lat="50.712340" lon="4.998516"><time>2026-05-10T03:14:36Z</time></trkpt>
<trkpt lat="50.712393" lon="4.998588"><time>2026-05-10T03:24:36Z</time></trkpt>
</trkseg>
</trk>
<trk>
<name>bojog38</name>
<cmt>r</cmt>
<desc>Orp-le-Grand Sentier n°38 Rue de Bost</desc>
<link href="https://chemins.be/orplegrand/sentier/38"/><trkseg>
<trkpt lat="50.715065" lon="4.993288"><time>2026-05-10T00:54:36Z</time></trkpt>
<trkpt lat="50.715664" lon="4.993832"><time>2026-05-10T01:04:36Z</time></trkpt>
<trkpt lat="50.716190" lon="4.994218"><time>2026-05-10T01:14:36Z</time></trkpt>
</trkseg></trk>
<trk>
<name>bojog38</name>
<cmt>q</cmt>
<desc>Orp-le-Grand Sentier n°38 Rue de Bost</desc>
<link href="https://chemins.be/orplegrand/sentier/38"/><trkseg>
<trkpt lat="50.716190" lon="4.994218"><time>2026-05-10T01:14:36Z</time></trkpt>
<trkpt lat="50.716862" lon="4.994381"><time>2026-05-10T01:24:36Z</time></trkpt>
<trkpt lat="50.717825" lon="4.994341"><time>2026-05-10T01:34:36Z</time></trkpt>
<trkpt lat="50.718369" lon="4.994456"><time>2026-05-10T01:44:36Z</time></trkpt>
<trkpt lat="50.720930" lon="4.996463"><time>2026-05-10T01:54:36Z</time></trkpt>
</trkseg></trk>
<trk>
<name>bojog38</name>
<cmt>s</cmt>
<desc>Orp-le-Grand Sentier n°38 Rue de Bost</desc>
<link href="https://chemins.be/orplegrand/sentier/38"/><trkseg>
<trkpt lat="50.720930" lon="4.996463"><time>2026-05-10T01:54:36Z</time></trkpt>
<trkpt lat="50.721247" lon="4.996900"><time>2026-05-10T02:04:36Z</time></trkpt>
</trkseg></trk>
<trk>
<name>bojog38</name>
<cmt>q</cmt>
<desc>Orp-le-Grand Sentier n°38 Rue de Bost</desc>
<link href="https://chemins.be/orplegrand/sentier/38"/><trkseg>
<trkpt lat="50.721247" lon="4.996900"><time>2026-05-10T02:04:36Z</time></trkpt>
<trkpt lat="50.721835" lon="4.997158"><time>2026-05-10T02:14:36Z</time></trkpt>
</trkseg>
</trk>
<trk>
<name>bojog39</name>
<cmt>q</cmt>
<desc>Orp-le-Grand Sentier n°39 </desc>
<link href="https://chemins.be/orplegrand/sentier/39"/><trkseg>
<trkpt lat="50.717820" lon="4.994309"><time>2026-05-10T00:54:36Z</time></trkpt>
<trkpt lat="50.720093" lon="4.993129"><time>2026-05-10T01:04:36Z</time></trkpt>
</trkseg>
</trk>
<trk>
<name>bojog4</name>
<cmt>v</cmt>
<desc>Orp-le-Grand Chemin n°4 Rue Cyrille Dewael</desc>
<link href="https://chemins.be/orplegrand/chemin/4"/><trkseg>
<trkpt lat="50.699072" lon="5.015121"><time>2026-05-10T00:54:36Z</time></trkpt>
<trkpt lat="50.698900" lon="5.012711"><time>2026-05-10T01:04:36Z</time></trkpt>
</trkseg></trk>
<trk>
<name>bojog4</name>
<cmt>d</cmt>
<desc>Orp-le-Grand Chemin n°4 Rue Cyrille Dewael</desc>
<link href="https://chemins.be/orplegrand/chemin/4"/><trkseg>
<trkpt lat="50.698900" lon="5.012711"><time>2026-05-10T01:04:36Z</time></trkpt>
<trkpt lat="50.697657" lon="5.007761"><time>2026-05-10T01:14:36Z</time></trkpt>
</trkseg></trk>
<trk>
<name>bojog4</name>
<cmt>v</cmt>
<desc>Orp-le-Grand Chemin n°4 Rue Cyrille Dewael</desc>
<link href="https://chemins.be/orplegrand/chemin/4"/><trkseg>
<trkpt lat="50.697657" lon="5.007761"><time>2026-05-10T01:14:36Z</time></trkpt>
<trkpt lat="50.696593" lon="5.005297"><time>2026-05-10T01:24:36Z</time></trkpt>
</trkseg>
</trk>
<trk>
<name>bojog40</name>
<cmt>v</cmt>
<desc>Orp-le-Grand Sentier n°40 </desc>
<link href="https://chemins.be/orplegrand/sentier/40"/><trkseg>
<trkpt lat="50.712491" lon="4.996295"><time>2026-05-10T00:54:36Z</time></trkpt>
<trkpt lat="50.712566" lon="4.995857"><time>2026-05-10T01:04:36Z</time></trkpt>
<trkpt lat="50.712631" lon="4.995419"><time>2026-05-10T01:14:36Z</time></trkpt>
<trkpt lat="50.712696" lon="4.994995"><time>2026-05-10T01:24:36Z</time></trkpt>
<trkpt lat="50.712781" lon="4.994302"><time>2026-05-10T01:34:36Z</time></trkpt>
<trkpt lat="50.712768" lon="4.993254"><time>2026-05-10T01:44:36Z</time></trkpt>
</trkseg></trk>
<trk>
<name>bojog40</name>
<cmt>q</cmt>
<desc>Orp-le-Grand Sentier n°40 </desc>
<link href="https://chemins.be/orplegrand/sentier/40"/><trkseg>
<trkpt lat="50.712768" lon="4.993254"><time>2026-05-10T01:44:36Z</time></trkpt>
<trkpt lat="50.712543" lon="4.991708"><time>2026-05-10T01:54:36Z</time></trkpt>
</trkseg>
</trk>
<trk>
<name>bojog41</name>
<cmt>q</cmt>
<desc>Orp-le-Grand Sentier n°41 </desc>
<link href="https://chemins.be/orplegrand/sentier/41"/><trkseg>
<trkpt lat="50.713232" lon="4.991818"><time>2026-05-10T00:54:36Z</time></trkpt>
<trkpt lat="50.713535" lon="4.988814"><time>2026-05-10T01:04:36Z</time></trkpt>
<trkpt lat="50.713897" lon="4.987083"><time>2026-05-10T01:14:36Z</time></trkpt>
</trkseg>
</trk>
<trk>
<name>bojog42</name>
<cmt>r</cmt>
<desc>Orp-le-Grand Chemin n°42 Rue de la Bacquelaine</desc>
<link href="https://chemins.be/orplegrand/chemin/42"/><trkseg>
<trkpt lat="50.714638" lon="4.998672"><time>2026-05-10T00:54:36Z</time></trkpt>
<trkpt lat="50.714902" lon="4.998911"><time>2026-05-10T01:04:36Z</time></trkpt>
</trkseg>
</trk>
<trk>
<name>bojog43</name>
<cmt>r</cmt>
<desc>Orp-le-Grand Sentier n°43 Rue Sylvain Bawin / Rue Léon Jacquemin / !! Danger!!</desc>
<link href="https://chemins.be/orplegrand/sentier/43"/><trkseg>
<trkpt lat="50.703085" lon="4.988828"><time>2026-05-10T00:54:36Z</time></trkpt>
<trkpt lat="50.703797" lon="4.988914"><time>2026-05-10T01:04:36Z</time></trkpt>
<trkpt lat="50.705826" lon="4.990008"><time>2026-05-10T01:14:36Z</time></trkpt>
<trkpt lat="50.705822" lon="4.990302"><time>2026-05-10T01:24:36Z</time></trkpt>
</trkseg></trk>
<trk>
<name>bojog43</name>
<cmt>q</cmt>
<desc>Orp-le-Grand Sentier n°43 Rue Sylvain Bawin / Rue Léon Jacquemin / !! Danger!!</desc>
<link href="https://chemins.be/orplegrand/sentier/43"/><trkseg>
<trkpt lat="50.705822" lon="4.990302"><time>2026-05-10T01:24:36Z</time></trkpt>
<trkpt lat="50.706904" lon="4.991217"><time>2026-05-10T01:34:36Z</time></trkpt>
<trkpt lat="50.707316" lon="4.992490"><time>2026-05-10T01:44:36Z</time></trkpt>
</trkseg></trk>
<trk>
<name>bojog43</name>
<cmt>r</cmt>
<desc>Orp-le-Grand Sentier n°43 Rue Sylvain Bawin / Rue Léon Jacquemin / !! Danger!!</desc>
<link href="https://chemins.be/orplegrand/sentier/43"/><trkseg>
<trkpt lat="50.707316" lon="4.992490"><time>2026-05-10T01:44:36Z</time></trkpt>
<trkpt lat="50.710383" lon="4.995357"><time>2026-05-10T01:54:36Z</time></trkpt>
<trkpt lat="50.712761" lon="4.996424"><time>2026-05-10T02:04:36Z</time></trkpt>
<trkpt lat="50.712937" lon="4.996625"><time>2026-05-10T02:14:36Z</time></trkpt>
</trkseg></trk>
<trk>
<name>bojog43</name>
<cmt>v</cmt>
<desc>Orp-le-Grand Sentier n°43 Rue Sylvain Bawin / Rue Léon Jacquemin / !! Danger!!</desc>
<link href="https://chemins.be/orplegrand/sentier/43"/><trkseg>
<trkpt lat="50.712937" lon="4.996625"><time>2026-05-10T02:14:36Z</time></trkpt>
<trkpt lat="50.712940" lon="4.996513"><time>2026-05-10T02:24:36Z</time></trkpt>
<trkpt lat="50.712967" lon="4.996513"><time>2026-05-10T02:34:36Z</time></trkpt>
<trkpt lat="50.713281" lon="4.996588"><time>2026-05-10T02:44:36Z</time></trkpt>
<trkpt lat="50.713487" lon="4.996662"><time>2026-05-10T02:54:36Z</time></trkpt>
<trkpt lat="50.713550" lon="4.996663"><time>2026-05-10T03:04:36Z</time></trkpt>
<trkpt lat="50.713595" lon="4.996649"><time>2026-05-10T03:14:36Z</time></trkpt>
<trkpt lat="50.713641" lon="4.996593"><time>2026-05-10T03:24:36Z</time></trkpt>
<trkpt lat="50.713995" lon="4.995961"><time>2026-05-10T03:34:36Z</time></trkpt>
<trkpt lat="50.714049" lon="4.995919"><time>2026-05-10T03:44:36Z</time></trkpt>
<trkpt lat="50.714166" lon="4.995864"><time>2026-05-10T03:54:36Z</time></trkpt>
<trkpt lat="50.714320" lon="4.995611"><time>2026-05-10T04:04:36Z</time></trkpt>
<trkpt lat="50.714348" lon="4.995427"><time>2026-05-10T04:14:36Z</time></trkpt>
<trkpt lat="50.714358" lon="4.995243"><time>2026-05-10T04:24:36Z</time></trkpt>
<trkpt lat="50.714386" lon="4.995145"><time>2026-05-10T04:34:36Z</time></trkpt>
<trkpt lat="50.714476" lon="4.994990"><time>2026-05-10T04:44:36Z</time></trkpt>
<trkpt lat="50.714522" lon="4.994835"><time>2026-05-10T04:54:36Z</time></trkpt>
<trkpt lat="50.714531" lon="4.994792"><time>2026-05-10T05:04:36Z</time></trkpt>
<trkpt lat="50.714613" lon="4.994680"><time>2026-05-10T05:14:36Z</time></trkpt>
</trkseg>
</trk>
<trk>
<name>bojog45</name>
<cmt>v</cmt>
<desc>Orp-le-Grand Chemin n°45 </desc>
<link href="https://chemins.be/orplegrand/chemin/45"/><trkseg>
<trkpt lat="50.711838" lon="4.990451"><time>2026-05-10T00:54:36Z</time></trkpt>
<trkpt lat="50.711776" lon="4.990126"><time>2026-05-10T01:04:36Z</time></trkpt>
</trkseg></trk>
<trk>
<name>bojog45</name>
<cmt>d</cmt>
<desc>Orp-le-Grand Chemin n°45 </desc>
<link href="https://chemins.be/orplegrand/chemin/45"/><trkseg>
<trkpt lat="50.711776" lon="4.990126"><time>2026-05-10T01:04:36Z</time></trkpt>
<trkpt lat="50.711597" lon="4.989307"><time>2026-05-10T01:14:36Z</time></trkpt>
<trkpt lat="50.711429" lon="4.987991"><time>2026-05-10T01:24:36Z</time></trkpt>
<trkpt lat="50.710618" lon="4.985252"><time>2026-05-10T01:34:36Z</time></trkpt>
<trkpt lat="50.710183" lon="4.984329"><time>2026-05-10T01:44:36Z</time></trkpt>
</trkseg>
</trk>
<trk>
<name>bojog46</name>
<cmt>q</cmt>
<desc>Orp-le-Grand Sentier n°46 </desc>
<link href="https://chemins.be/orplegrand/sentier/46"/><trkseg>
<trkpt lat="50.714022" lon="4.979270"><time>2026-05-10T00:54:36Z</time></trkpt>
<trkpt lat="50.714821" lon="4.978011"><time>2026-05-10T01:04:36Z</time></trkpt>
</trkseg>
</trk>
<trk>
<name>bojog47</name>
<cmt>v</cmt>
<desc>Orp-le-Grand Sentier n°47 </desc>
<link href="https://chemins.be/orplegrand/sentier/47"/><trkseg>
<trkpt lat="50.701534" lon="4.989368"><time>2026-05-10T00:54:36Z</time></trkpt>
<trkpt lat="50.701267" lon="4.990664"><time>2026-05-10T01:04:36Z</time></trkpt>
<trkpt lat="50.701678" lon="4.990941"><time>2026-05-10T01:14:36Z</time></trkpt>
</trkseg></trk>
<trk>
<name>bojog47</name>
<cmt>q</cmt>
<desc>Orp-le-Grand Sentier n°47 </desc>
<link href="https://chemins.be/orplegrand/sentier/47"/><trkseg>
<trkpt lat="50.701678" lon="4.990941"><time>2026-05-10T01:14:36Z</time></trkpt>
<trkpt lat="50.701367" lon="4.991942"><time>2026-05-10T01:24:36Z</time></trkpt>
</trkseg></trk>
<trk>
<name>bojog47</name>
<cmt>v</cmt>
<desc>Orp-le-Grand Sentier n°47 </desc>
<link href="https://chemins.be/orplegrand/sentier/47"/><trkseg>
<trkpt lat="50.701367" lon="4.991942"><time>2026-05-10T01:24:36Z</time></trkpt>
<trkpt lat="50.701166" lon="4.992576"><time>2026-05-10T01:34:36Z</time></trkpt>
<trkpt lat="50.700703" lon="4.993349"><time>2026-05-10T01:44:36Z</time></trkpt>
<trkpt lat="50.700557" lon="4.994157"><time>2026-05-10T01:54:36Z</time></trkpt>
</trkseg></trk>
<trk>
<name>bojog47</name>
<cmt>q</cmt>
<desc>Orp-le-Grand Sentier n°47 </desc>
<link href="https://chemins.be/orplegrand/sentier/47"/><trkseg>
<trkpt lat="50.700557" lon="4.994157"><time>2026-05-10T01:54:36Z</time></trkpt>
<trkpt lat="50.700689" lon="4.994204"><time>2026-05-10T02:04:36Z</time></trkpt>
<trkpt lat="50.700579" lon="4.995723"><time>2026-05-10T02:14:36Z</time></trkpt>
<trkpt lat="50.700326" lon="4.996610"><time>2026-05-10T02:24:36Z</time></trkpt>
</trkseg>
</trk>
<trk>
<name>bojog48</name>
<cmt>v</cmt>
<desc>Orp-le-Grand Sentier n°48 </desc>
<link href="https://chemins.be/orplegrand/sentier/48"/><trkseg>
<trkpt lat="50.702758" lon="4.992428"><time>2026-05-10T00:54:36Z</time></trkpt>
<trkpt lat="50.702514" lon="4.992714"><time>2026-05-10T01:04:36Z</time></trkpt>
<trkpt lat="50.702405" lon="4.992785"><time>2026-05-10T01:14:36Z</time></trkpt>
<trkpt lat="50.702329" lon="4.992834"><time>2026-05-10T01:24:36Z</time></trkpt>
<trkpt lat="50.702241" lon="4.992997"><time>2026-05-10T01:34:36Z</time></trkpt>
<trkpt lat="50.702098" lon="4.993460"><time>2026-05-10T01:44:36Z</time></trkpt>
<trkpt lat="50.701886" lon="4.994143"><time>2026-05-10T01:54:36Z</time></trkpt>
<trkpt lat="50.702029" lon="4.994258"><time>2026-05-10T02:04:36Z</time></trkpt>
<trkpt lat="50.701964" lon="4.994569"><time>2026-05-10T02:14:36Z</time></trkpt>
</trkseg>
</trk>
<trk>
<name>bojog49</name>
<cmt>v</cmt>
<desc>Orp-le-Grand Sentier n°49 </desc>
<link href="https://chemins.be/orplegrand/sentier/49"/><trkseg>
<trkpt lat="50.703045" lon="4.990846"><time>2026-05-10T00:54:36Z</time></trkpt>
<trkpt lat="50.702991" lon="4.990803"><time>2026-05-10T01:04:36Z</time></trkpt>
<trkpt lat="50.702937" lon="4.990774"><time>2026-05-10T01:14:36Z</time></trkpt>
<trkpt lat="50.702848" lon="4.990603"><time>2026-05-10T01:24:36Z</time></trkpt>
<trkpt lat="50.702409" lon="4.990484"><time>2026-05-10T01:34:36Z</time></trkpt>
<trkpt lat="50.702157" lon="4.990409"><time>2026-05-10T01:44:36Z</time></trkpt>
<trkpt lat="50.702040" lon="4.990450"><time>2026-05-10T01:54:36Z</time></trkpt>
<trkpt lat="50.701957" lon="4.990874"><time>2026-05-10T02:04:36Z</time></trkpt>
<trkpt lat="50.701884" lon="4.990986"><time>2026-05-10T02:14:36Z</time></trkpt>
<trkpt lat="50.701795" lon="4.990928"><time>2026-05-10T02:24:36Z</time></trkpt>
<trkpt lat="50.701553" lon="4.990713"><time>2026-05-10T02:34:36Z</time></trkpt>
<trkpt lat="50.701293" lon="4.990582"><time>2026-05-10T02:44:36Z</time></trkpt>
</trkseg>
</trk>
<trk>
<name>bojog50</name>
<cmt>v</cmt>
<desc>Orp-le-Grand Sentier n°50 </desc>
<link href="https://chemins.be/orplegrand/sentier/50"/><trkseg>
<trkpt lat="50.702767" lon="4.992399"><time>2026-05-10T00:54:36Z</time></trkpt>
<trkpt lat="50.702652" lon="4.991987"><time>2026-05-10T01:04:36Z</time></trkpt>
<trkpt lat="50.702151" lon="4.991514"><time>2026-05-10T01:14:36Z</time></trkpt>
<trkpt lat="50.701830" lon="4.991070"><time>2026-05-10T01:24:36Z</time></trkpt>
<trkpt lat="50.701508" lon="4.990797"><time>2026-05-10T01:34:36Z</time></trkpt>
<trkpt lat="50.701275" lon="4.990667"><time>2026-05-10T01:44:36Z</time></trkpt>
<trkpt lat="50.700853" lon="4.990548"><time>2026-05-10T01:54:36Z</time></trkpt>
<trkpt lat="50.700645" lon="4.990687"><time>2026-05-10T02:04:36Z</time></trkpt>
<trkpt lat="50.700430" lon="4.990712"><time>2026-05-10T02:14:36Z</time></trkpt>
<trkpt lat="50.699596" lon="4.990291"><time>2026-05-10T02:24:36Z</time></trkpt>
<trkpt lat="50.699218" lon="4.990272"><time>2026-05-10T02:34:36Z</time></trkpt>
<trkpt lat="50.698941" lon="4.990027"><time>2026-05-10T02:44:36Z</time></trkpt>
<trkpt lat="50.698751" lon="4.990251"><time>2026-05-10T02:54:36Z</time></trkpt>
<trkpt lat="50.698534" lon="4.990418"><time>2026-05-10T03:04:36Z</time></trkpt>
<trkpt lat="50.697374" lon="4.991349"><time>2026-05-10T03:14:36Z</time></trkpt>
</trkseg>
</trk>
<trk>
<name>bojog51</name>
<cmt>v</cmt>
<desc>Orp-le-Grand Sentier n°51 </desc>
<link href="https://chemins.be/orplegrand/sentier/51"/><trkseg>
<trkpt lat="50.702476" lon="4.989663"><time>2026-05-10T00:54:36Z</time></trkpt>
<trkpt lat="50.702418" lon="4.990484"><time>2026-05-10T01:04:36Z</time></trkpt>
</trkseg>
</trk>
<trk>
<name>bojog52</name>
<cmt>q</cmt>
<desc>Orp-le-Grand Sentier n°52 </desc>
<link href="https://chemins.be/orplegrand/sentier/52"/><trkseg>
<trkpt lat="50.706234" lon="4.991794"><time>2026-05-10T00:54:36Z</time></trkpt>
<trkpt lat="50.705899" lon="4.993035"><time>2026-05-10T01:04:36Z</time></trkpt>
<trkpt lat="50.706030" lon="4.993439"><time>2026-05-10T01:14:36Z</time></trkpt>
</trkseg>
</trk>
<trk>
<name>bojog53</name>
<cmt>v</cmt>
<desc>Orp-le-Grand Sentier n°53 Avenue Triffaux</desc>
<link href="https://chemins.be/orplegrand/sentier/53"/><trkseg>
<trkpt lat="50.703595" lon="4.990457"><time>2026-05-10T00:54:36Z</time></trkpt>
<trkpt lat="50.703743" lon="4.989751"><time>2026-05-10T01:04:36Z</time></trkpt>
<trkpt lat="50.703756" lon="4.988944"><time>2026-05-10T01:14:36Z</time></trkpt>
<trkpt lat="50.703829" lon="4.988818"><time>2026-05-10T01:24:36Z</time></trkpt>
</trkseg></trk>
<trk>
<name>bojog53</name>
<cmt>s</cmt>
<desc>Orp-le-Grand Sentier n°53 Avenue Triffaux</desc>
<link href="https://chemins.be/orplegrand/sentier/53"/><trkseg>
<trkpt lat="50.703829" lon="4.988818"><time>2026-05-10T01:24:36Z</time></trkpt>
<trkpt lat="50.704040" lon="4.988028"><time>2026-05-10T01:34:36Z</time></trkpt>
<trkpt lat="50.704278" lon="4.987224"><time>2026-05-10T01:44:36Z</time></trkpt>
</trkseg>
</trk>
<trk>
<name>bojog54</name>
<cmt>v</cmt>
<desc>Orp-le-Grand Sentier n°54 Rue du Pirchat</desc>
<link href="https://chemins.be/orplegrand/sentier/54"/><trkseg>
<trkpt lat="50.703085" lon="4.988341"><time>2026-05-10T00:54:36Z</time></trkpt>
<trkpt lat="50.702951" lon="4.988296"><time>2026-05-10T01:04:36Z</time></trkpt>
<trkpt lat="50.702978" lon="4.988198"><time>2026-05-10T01:14:36Z</time></trkpt>
<trkpt lat="50.702239" lon="4.986871"><time>2026-05-10T01:24:36Z</time></trkpt>
</trkseg></trk>
<trk>
<name>bojog54</name>
<cmt>r</cmt>
<desc>Orp-le-Grand Sentier n°54 Rue du Pirchat</desc>
<link href="https://chemins.be/orplegrand/sentier/54"/><trkseg>
<trkpt lat="50.702239" lon="4.986871"><time>2026-05-10T01:24:36Z</time></trkpt>
<trkpt lat="50.701763" lon="4.986780"><time>2026-05-10T01:34:36Z</time></trkpt>
</trkseg></trk>
<trk>
<name>bojog54</name>
<cmt>v</cmt>
<desc>Orp-le-Grand Sentier n°54 Rue du Pirchat</desc>
<link href="https://chemins.be/orplegrand/sentier/54"/><trkseg>
<trkpt lat="50.701763" lon="4.986780"><time>2026-05-10T01:34:36Z</time></trkpt>
<trkpt lat="50.701738" lon="4.986440"><time>2026-05-10T01:44:36Z</time></trkpt>
<trkpt lat="50.701355" lon="4.985642"><time>2026-05-10T01:54:36Z</time></trkpt>
<trkpt lat="50.701175" lon="4.983984"><time>2026-05-10T02:04:36Z</time></trkpt>
<trkpt lat="50.700796" lon="4.983513"><time>2026-05-10T02:14:36Z</time></trkpt>
<trkpt lat="50.700637" lon="4.982165"><time>2026-05-10T02:24:36Z</time></trkpt>
<trkpt lat="50.700556" lon="4.982022"><time>2026-05-10T02:34:36Z</time></trkpt>
</trkseg>
</trk>
<trk>
<name>bojog55</name>
<cmt>q</cmt>
<desc>Orp-le-Grand Sentier n°55 </desc>
<link href="https://chemins.be/orplegrand/sentier/55"/><trkseg>
<trkpt lat="50.702826" lon="4.987967"><time>2026-05-10T00:54:36Z</time></trkpt>
<trkpt lat="50.702620" lon="4.989190"><time>2026-05-10T01:04:36Z</time></trkpt>
</trkseg>
</trk>
<trk>
<name>bojog56</name>
<cmt>s</cmt>
<desc>Orp-le-Grand Sentier n°56 </desc>
<link href="https://chemins.be/orplegrand/sentier/56"/><trkseg>
<trkpt lat="50.700787" lon="4.985975"><time>2026-05-10T00:54:36Z</time></trkpt>
<trkpt lat="50.700422" lon="4.985276"><time>2026-05-10T01:04:36Z</time></trkpt>
<trkpt lat="50.699685" lon="4.985238"><time>2026-05-10T01:14:36Z</time></trkpt>
<trkpt lat="50.699533" lon="4.985236"><time>2026-05-10T01:24:36Z</time></trkpt>
<trkpt lat="50.699462" lon="4.985009"><time>2026-05-10T01:34:36Z</time></trkpt>
<trkpt lat="50.698627" lon="4.984842"><time>2026-05-10T01:44:36Z</time></trkpt>
<trkpt lat="50.697216" lon="4.984640"><time>2026-05-10T01:54:36Z</time></trkpt>
<trkpt lat="50.695554" lon="4.984505"><time>2026-05-10T02:04:36Z</time></trkpt>
<trkpt lat="50.695563" lon="4.984420"><time>2026-05-10T02:14:36Z</time></trkpt>
<trkpt lat="50.695194" lon="4.984434"><time>2026-05-10T02:24:36Z</time></trkpt>
<trkpt lat="50.694648" lon="4.983576"><time>2026-05-10T02:34:36Z</time></trkpt>
</trkseg>
</trk>
<trk>
<name>bojog57</name>
<cmt>v</cmt>
<desc>Orp-le-Grand Sentier n°57 Sentier de Petit-Hallet</desc>
<link href="https://chemins.be/orplegrand/sentier/57"/><trkseg>
<trkpt lat="50.691915" lon="4.992496"><time>2026-05-10T00:54:36Z</time></trkpt>
<trkpt lat="50.691980" lon="4.993927"><time>2026-05-10T01:04:36Z</time></trkpt>
<trkpt lat="50.691604" lon="4.995323"><time>2026-05-10T01:14:36Z</time></trkpt>
<trkpt lat="50.690320" lon="4.998320"><time>2026-05-10T01:24:36Z</time></trkpt>
<trkpt lat="50.690202" lon="5.000088"><time>2026-05-10T01:34:36Z</time></trkpt>
</trkseg>
</trk>
<trk>
<name>bojog59</name>
<cmt>r</cmt>
<desc>Orp-le-Grand Sentier n°59 Rue de la Distillerie / Rue de Biamont</desc>
<link href="https://chemins.be/orplegrand/sentier/59"/><trkseg>
<trkpt lat="50.692906" lon="4.986484"><time>2026-05-10T00:54:36Z</time></trkpt>
<trkpt lat="50.692917" lon="4.986838"><time>2026-05-10T01:04:36Z</time></trkpt>
<trkpt lat="50.693313" lon="4.987843"><time>2026-05-10T01:14:36Z</time></trkpt>
<trkpt lat="50.692665" lon="4.988873"><time>2026-05-10T01:24:36Z</time></trkpt>
<trkpt lat="50.692398" lon="4.989016"><time>2026-05-10T01:34:36Z</time></trkpt>
<trkpt lat="50.691872" lon="4.989030"><time>2026-05-10T01:44:36Z</time></trkpt>
<trkpt lat="50.691666" lon="4.989369"><time>2026-05-10T01:54:36Z</time></trkpt>
<trkpt lat="50.691576" lon="4.989439"><time>2026-05-10T02:04:36Z</time></trkpt>
<trkpt lat="50.691316" lon="4.989259"><time>2026-05-10T02:14:36Z</time></trkpt>
</trkseg></trk>
<trk>
<name>bojog59</name>
<cmt>v</cmt>
<desc>Orp-le-Grand Sentier n°59 Rue de la Distillerie / Rue de Biamont</desc>
<link href="https://chemins.be/orplegrand/sentier/59"/><trkseg>
<trkpt lat="50.691316" lon="4.989259"><time>2026-05-10T02:14:36Z</time></trkpt>
<trkpt lat="50.691231" lon="4.989350"><time>2026-05-10T02:24:36Z</time></trkpt>
</trkseg></trk>
<trk>
<name>bojog59</name>
<cmt>r</cmt>
<desc>Orp-le-Grand Sentier n°59 Rue de la Distillerie / Rue de Biamont</desc>
<link href="https://chemins.be/orplegrand/sentier/59"/><trkseg>
<trkpt lat="50.691231" lon="4.989350"><time>2026-05-10T02:24:36Z</time></trkpt>
<trkpt lat="50.691476" lon="4.989638"><time>2026-05-10T02:34:36Z</time></trkpt>
</trkseg></trk>
<trk>
<name>bojog59</name>
<cmt>q</cmt>
<desc>Orp-le-Grand Sentier n°59 Rue de la Distillerie / Rue de Biamont</desc>
<link href="https://chemins.be/orplegrand/sentier/59"/><trkseg>
<trkpt lat="50.691476" lon="4.989638"><time>2026-05-10T02:34:36Z</time></trkpt>
<trkpt lat="50.691804" lon="4.990168"><time>2026-05-10T02:44:36Z</time></trkpt>
</trkseg>
</trk>
<trk>
<name>bojog60</name>
<cmt>v</cmt>
<desc>Orp-le-Grand Chemin n°60 </desc>
<link href="https://chemins.be/orplegrand/chemin/60"/><trkseg>
<trkpt lat="50.683889" lon="4.996110"><time>2026-05-10T00:54:36Z</time></trkpt>
<trkpt lat="50.683657" lon="4.996921"><time>2026-05-10T01:04:36Z</time></trkpt>
</trkseg>
</trk>
<trk>
<name>bojog62</name>
<cmt>v</cmt>
<desc>Orp-le-Grand Sentier n°62 </desc>
<link href="https://chemins.be/orplegrand/sentier/62"/><trkseg>
<trkpt lat="50.683614" lon="4.997055"><time>2026-05-10T00:54:36Z</time></trkpt>
<trkpt lat="50.685370" lon="4.998618"><time>2026-05-10T01:04:36Z</time></trkpt>
<trkpt lat="50.685802" lon="4.998946"><time>2026-05-10T01:14:36Z</time></trkpt>
<trkpt lat="50.686074" lon="4.999455"><time>2026-05-10T01:24:36Z</time></trkpt>
<trkpt lat="50.686485" lon="5.000533"><time>2026-05-10T01:34:36Z</time></trkpt>
</trkseg>
</trk>
<trk>
<name>bojog63</name>
<cmt>v</cmt>
<desc>Orp-le-Grand Sentier n°63 </desc>
<link href="https://chemins.be/orplegrand/sentier/63"/><trkseg>
<trkpt lat="50.706375" lon="4.979988"><time>2026-05-10T00:54:36Z</time></trkpt>
<trkpt lat="50.706902" lon="4.978962"><time>2026-05-10T01:04:36Z</time></trkpt>
<trkpt lat="50.707499" lon="4.978177"><time>2026-05-10T01:14:36Z</time></trkpt>
<trkpt lat="50.708172" lon="4.976699"><time>2026-05-10T01:24:36Z</time></trkpt>
<trkpt lat="50.709282" lon="4.974179"><time>2026-05-10T01:34:36Z</time></trkpt>
</trkseg>
</trk>
<trk>
<name>bojog67</name>
<cmt>r</cmt>
<desc>Orp-le-Grand Chemin n°67 Rue Emile Looze</desc>
<link href="https://chemins.be/orplegrand/chemin/67"/><trkseg>
<trkpt lat="50.714352" lon="4.999111"><time>2026-05-10T00:54:36Z</time></trkpt>
<trkpt lat="50.714744" lon="4.999478"><time>2026-05-10T01:04:36Z</time></trkpt>
</trkseg>
</trk>
<trk>
<name>bojog69</name>
<cmt>v</cmt>
<desc>Orp-le-Grand Sentier n°69 </desc>
<link href="https://chemins.be/orplegrand/sentier/69"/><trkseg>
<trkpt lat="50.690763" lon="4.979192"><time>2026-05-10T00:54:36Z</time></trkpt>
<trkpt lat="50.691360" lon="4.978548"><time>2026-05-10T01:04:36Z</time></trkpt>
</trkseg></trk>
<trk>
<name>bojog69</name>
<cmt>q</cmt>
<desc>Orp-le-Grand Sentier n°69 </desc>
<link href="https://chemins.be/orplegrand/sentier/69"/><trkseg>
<trkpt lat="50.691360" lon="4.978548"><time>2026-05-10T01:04:36Z</time></trkpt>
<trkpt lat="50.691315" lon="4.978406"><time>2026-05-10T01:14:36Z</time></trkpt>
<trkpt lat="50.691397" lon="4.978237"><time>2026-05-10T01:24:36Z</time></trkpt>
<trkpt lat="50.691751" lon="4.975992"><time>2026-05-10T01:34:36Z</time></trkpt>
</trkseg>
</trk>
<trk>
<name>bojog7</name>
<cmt>r</cmt>
<desc>Orp-le-Grand Chemin n°7 Rue Cyrille Dewael</desc>
<link href="https://chemins.be/orplegrand/chemin/7"/><trkseg>
<trkpt lat="50.703394" lon="4.995502"><time>2026-05-10T00:54:36Z</time></trkpt>
<trkpt lat="50.702832" lon="4.997647"><time>2026-05-10T01:04:36Z</time></trkpt>
<trkpt lat="50.702533" lon="5.000086"><time>2026-05-10T01:14:36Z</time></trkpt>
</trkseg></trk>
<trk>
<name>bojog7</name>
<cmt>v</cmt>
<desc>Orp-le-Grand Chemin n°7 Rue Cyrille Dewael</desc>
<link href="https://chemins.be/orplegrand/chemin/7"/><trkseg>
<trkpt lat="50.702533" lon="5.000086"><time>2026-05-10T01:14:36Z</time></trkpt>
<trkpt lat="50.702311" lon="5.001345"><time>2026-05-10T01:24:36Z</time></trkpt>
<trkpt lat="50.700473" lon="5.006869"><time>2026-05-10T01:34:36Z</time></trkpt>
<trkpt lat="50.699430" lon="5.010007"><time>2026-05-10T01:44:36Z</time></trkpt>
<trkpt lat="50.699149" lon="5.011309"><time>2026-05-10T01:54:36Z</time></trkpt>
<trkpt lat="50.698936" lon="5.012832"><time>2026-05-10T02:04:36Z</time></trkpt>
</trkseg>
</trk>
<trk>
<name>bojog70</name>
<cmt>q</cmt>
<desc>Orp-le-Grand Sentier n°70 </desc>
<link href="https://chemins.be/orplegrand/sentier/70"/><trkseg>
<trkpt lat="50.705661" lon="4.994448"><time>2026-05-10T00:54:36Z</time></trkpt>
<trkpt lat="50.705658" lon="4.994669"><time>2026-05-10T01:04:36Z</time></trkpt>
<trkpt lat="50.706175" lon="4.996808"><time>2026-05-10T01:14:36Z</time></trkpt>
</trkseg>
</trk>
<trk>
<name>bojog9</name>
<cmt>v</cmt>
<desc>Orp-le-Grand Chemin n°9 </desc>
<link href="https://chemins.be/orplegrand/chemin/9"/><trkseg>
<trkpt lat="50.711531" lon="5.002036"><time>2026-05-10T00:54:36Z</time></trkpt>
<trkpt lat="50.709740" lon="5.004555"><time>2026-05-10T01:04:36Z</time></trkpt>
<trkpt lat="50.707375" lon="5.008346"><time>2026-05-10T01:14:36Z</time></trkpt>
<trkpt lat="50.707103" lon="5.009562"><time>2026-05-10T01:24:36Z</time></trkpt>
<trkpt lat="50.707004" lon="5.010835"><time>2026-05-10T01:34:36Z</time></trkpt>
<trkpt lat="50.706802" lon="5.011271"><time>2026-05-10T01:44:36Z</time></trkpt>
</trkseg></trk>
<trk>
<name>bojog9</name>
<cmt>d</cmt>
<desc>Orp-le-Grand Chemin n°9 </desc>
<link href="https://chemins.be/orplegrand/chemin/9"/><trkseg>
<trkpt lat="50.706802" lon="5.011271"><time>2026-05-10T01:44:36Z</time></trkpt>
<trkpt lat="50.706469" lon="5.011994"><time>2026-05-10T01:54:36Z</time></trkpt>
<trkpt lat="50.703279" lon="5.015970"><time>2026-05-10T02:04:36Z</time></trkpt>
<trkpt lat="50.702510" lon="5.017329"><time>2026-05-10T02:14:36Z</time></trkpt>
</trkseg>
</trk>
<trk>
<name>bojogi1</name>
<cmt>v</cmt>
<desc>Orp-le-Grand Sentier n°i1 Ravel L147</desc>
<link href="https://chemins.be/orplegrand/sentier/i1"/><trkseg>
<trkpt lat="50.700448" lon="4.990712"><time>2026-05-10T00:54:36Z</time></trkpt>
<trkpt lat="50.700618" lon="4.990814"><time>2026-05-10T01:04:36Z</time></trkpt>
<trkpt lat="50.701383" lon="4.991909"><time>2026-05-10T01:14:36Z</time></trkpt>
<trkpt lat="50.702235" lon="4.993003"><time>2026-05-10T01:24:36Z</time></trkpt>
</trkseg>
</trk>
<trk>
<name>bojogi10</name>
<cmt>v</cmt>
<desc>Orp-le-Grand Sentier n°i10 </desc>
<link href="https://chemins.be/orplegrand/sentier/i10"/><trkseg>
<trkpt lat="50.693924" lon="4.985071"><time>2026-05-10T00:54:36Z</time></trkpt>
<trkpt lat="50.693865" lon="4.984913"><time>2026-05-10T01:04:36Z</time></trkpt>
<trkpt lat="50.693963" lon="4.984359"><time>2026-05-10T01:14:36Z</time></trkpt>
<trkpt lat="50.693870" lon="4.984105"><time>2026-05-10T01:24:36Z</time></trkpt>
<trkpt lat="50.693879" lon="4.983987"><time>2026-05-10T01:34:36Z</time></trkpt>
<trkpt lat="50.693607" lon="4.983737"><time>2026-05-10T01:44:36Z</time></trkpt>
<trkpt lat="50.693501" lon="4.983397"><time>2026-05-10T01:54:36Z</time></trkpt>
<trkpt lat="50.693408" lon="4.983536"><time>2026-05-10T02:04:36Z</time></trkpt>
<trkpt lat="50.693082" lon="4.983143"><time>2026-05-10T02:14:36Z</time></trkpt>
<trkpt lat="50.692808" lon="4.982524"><time>2026-05-10T02:24:36Z</time></trkpt>
<trkpt lat="50.692749" lon="4.981752"><time>2026-05-10T02:34:36Z</time></trkpt>
<trkpt lat="50.692816" lon="4.981537"><time>2026-05-10T02:44:36Z</time></trkpt>
<trkpt lat="50.693376" lon="4.981219"><time>2026-05-10T02:54:36Z</time></trkpt>
</trkseg>
</trk>
<trk>
<name>bojogi11</name>
<cmt>v</cmt>
<desc>Orp-le-Grand Chemin n°i11 </desc>
<link href="https://chemins.be/orplegrand/chemin/i11"/><trkseg>
<trkpt lat="50.712347" lon="4.975377"><time>2026-05-10T00:54:36Z</time></trkpt>
<trkpt lat="50.712086" lon="4.975806"><time>2026-05-10T01:04:36Z</time></trkpt>
<trkpt lat="50.711778" lon="4.976017"><time>2026-05-10T01:14:36Z</time></trkpt>
<trkpt lat="50.711171" lon="4.976886"><time>2026-05-10T01:24:36Z</time></trkpt>
</trkseg>
</trk>
<trk>
<name>bojogi12</name>
<cmt>v</cmt>
<desc>Orp-le-Grand Chemin n°i12 </desc>
<link href="https://chemins.be/orplegrand/chemin/i12"/><trkseg>
<trkpt lat="50.699523" lon="5.009592"><time>2026-05-10T00:54:36Z</time></trkpt>
<trkpt lat="50.697534" lon="5.007647"><time>2026-05-10T01:04:36Z</time></trkpt>
</trkseg>
</trk>
<trk>
<name>bojogi2</name>
<cmt>v</cmt>
<desc>Orp-le-Grand Sentier n°i2 </desc>
<link href="https://chemins.be/orplegrand/sentier/i2"/><trkseg>
<trkpt lat="50.700411" lon="4.990726"><time>2026-05-10T00:54:36Z</time></trkpt>
<trkpt lat="50.700321" lon="4.990866"><time>2026-05-10T01:04:36Z</time></trkpt>
<trkpt lat="50.699784" lon="4.993662"><time>2026-05-10T01:14:36Z</time></trkpt>
</trkseg>
</trk>
<trk>
<name>bojogi3</name>
<cmt>v</cmt>
<desc>Orp-le-Grand Sentier n°i3 Rue de Biamont</desc>
<link href="https://chemins.be/orplegrand/sentier/i3"/><trkseg>
<trkpt lat="50.694125" lon="4.987742"><time>2026-05-10T00:54:36Z</time></trkpt>
<trkpt lat="50.694133" lon="4.987982"><time>2026-05-10T01:04:36Z</time></trkpt>
</trkseg>
</trk>
<trk>
<name>bojogi4</name>
<cmt>v</cmt>
<desc>Orp-le-Grand Sentier n°i4 </desc>
<link href="https://chemins.be/orplegrand/sentier/i4"/><trkseg>
<trkpt lat="50.702399" lon="4.992792"><time>2026-05-10T00:54:36Z</time></trkpt>
<trkpt lat="50.702451" lon="4.992987"><time>2026-05-10T01:04:36Z</time></trkpt>
<trkpt lat="50.702422" lon="4.993064"><time>2026-05-10T01:14:36Z</time></trkpt>
</trkseg>
</trk>
<trk>
<name>bojogi5</name>
<cmt>v</cmt>
<desc>Orp-le-Grand Sentier n°i5 </desc>
<link href="https://chemins.be/orplegrand/sentier/i5"/><trkseg>
<trkpt lat="50.693408" lon="4.988161"><time>2026-05-10T00:54:36Z</time></trkpt>
<trkpt lat="50.693308" lon="4.987873"><time>2026-05-10T01:04:36Z</time></trkpt>
</trkseg>
</trk>
<trk>
<name>bojogi6</name>
<cmt>v</cmt>
<desc>Orp-le-Grand Chemin n°i6 </desc>
<link href="https://chemins.be/orplegrand/chemin/i6"/><trkseg>
<trkpt lat="50.707513" lon="4.997666"><time>2026-05-10T00:54:36Z</time></trkpt>
<trkpt lat="50.707628" lon="4.997188"><time>2026-05-10T01:04:36Z</time></trkpt>
</trkseg>
</trk>
<trk>
<name>bojogi7</name>
<cmt>v</cmt>
<desc>Orp-le-Grand Chemin n°i7 </desc>
<link href="https://chemins.be/orplegrand/chemin/i7"/><trkseg>
<trkpt lat="50.697559" lon="4.992548"><time>2026-05-10T00:54:36Z</time></trkpt>
<trkpt lat="50.698786" lon="4.993756"><time>2026-05-10T01:04:36Z</time></trkpt>
<trkpt lat="50.698827" lon="4.994472"><time>2026-05-10T01:14:36Z</time></trkpt>
<trkpt lat="50.700789" lon="4.995745"><time>2026-05-10T01:24:36Z</time></trkpt>
<trkpt lat="50.701056" lon="4.995974"><time>2026-05-10T01:34:36Z</time></trkpt>
</trkseg>
</trk>
<trk>
<name>bojogi8</name>
<cmt>d</cmt>
<desc>Orp-le-Grand Chemin n°i8 </desc>
<link href="https://chemins.be/orplegrand/chemin/i8"/><trkseg>
<trkpt lat="50.724973" lon="4.990936"><time>2026-05-10T00:54:36Z</time></trkpt>
<trkpt lat="50.723977" lon="4.989736"><time>2026-05-10T01:04:36Z</time></trkpt>
</trkseg></trk>
<trk>
<name>bojogi8</name>
<cmt>s</cmt>
<desc>Orp-le-Grand Chemin n°i8 </desc>
<link href="https://chemins.be/orplegrand/chemin/i8"/><trkseg>
<trkpt lat="50.723977" lon="4.989736"><time>2026-05-10T01:04:36Z</time></trkpt>
<trkpt lat="50.723212" lon="4.988965"><time>2026-05-10T01:14:36Z</time></trkpt>
</trkseg>
</trk>
<trk>
<name>bojogi9</name>
<cmt>v</cmt>
<desc>Orp-le-Grand Sentier n°i9 </desc>
<link href="https://chemins.be/orplegrand/sentier/i9"/><trkseg>
<trkpt lat="50.703271" lon="4.986947"><time>2026-05-10T00:54:36Z</time></trkpt>
<trkpt lat="50.703214" lon="4.986676"><time>2026-05-10T01:04:36Z</time></trkpt>
<trkpt lat="50.703035" lon="4.986429"><time>2026-05-10T01:14:36Z</time></trkpt>
</trkseg>
</trk>
<trk>
<name>bojogL147</name>
<cmt>v</cmt>
<desc>Orp-le-Grand Chemin n°L147 Ravel L 147 / Ravel L147 / RAVel L147</desc>
<link href="https://chemins.be/orplegrand/chemin/L147"/><trkseg>
<trkpt lat="50.688280" lon="4.976102"><time>2026-05-10T00:54:36Z</time></trkpt>
<trkpt lat="50.689895" lon="4.980228"><time>2026-05-10T01:04:36Z</time></trkpt>
<trkpt lat="50.691184" lon="4.982877"><time>2026-05-10T01:14:36Z</time></trkpt>
<trkpt lat="50.692818" lon="4.984773"><time>2026-05-10T01:24:36Z</time></trkpt>
<trkpt lat="50.693801" lon="4.985384"><time>2026-05-10T01:34:36Z</time></trkpt>
<trkpt lat="50.694677" lon="4.985744"><time>2026-05-10T01:44:36Z</time></trkpt>
<trkpt lat="50.696129" lon="4.986225"><time>2026-05-10T01:54:36Z</time></trkpt>
<trkpt lat="50.697302" lon="4.986884"><time>2026-05-10T02:04:36Z</time></trkpt>
<trkpt lat="50.697914" lon="4.986999"><time>2026-05-10T02:14:36Z</time></trkpt>
<trkpt lat="50.699389" lon="4.988674"><time>2026-05-10T02:24:36Z</time></trkpt>
<trkpt lat="50.700976" lon="4.991102"><time>2026-05-10T02:34:36Z</time></trkpt>
<trkpt lat="50.702297" lon="4.992890"><time>2026-05-10T02:44:36Z</time></trkpt>
<trkpt lat="50.703574" lon="4.994491"><time>2026-05-10T02:54:36Z</time></trkpt>
<trkpt lat="50.705160" lon="4.995852"><time>2026-05-10T03:04:36Z</time></trkpt>
<trkpt lat="50.707444" lon="4.997048"><time>2026-05-10T03:14:36Z</time></trkpt>
<trkpt lat="50.710682" lon="4.999094"><time>2026-05-10T03:24:36Z</time></trkpt>
<trkpt lat="50.711624" lon="5.000389"><time>2026-05-10T03:34:36Z</time></trkpt>
<trkpt lat="50.712185" lon="5.001669"><time>2026-05-10T03:44:36Z</time></trkpt>
<trkpt lat="50.712154" lon="5.002120"><time>2026-05-10T03:54:36Z</time></trkpt>
<trkpt lat="50.712847" lon="5.006397"><time>2026-05-10T04:04:36Z</time></trkpt>
</trkseg>
</trk>
</gpx>